<?xml version="1.0" encoding="UTF-8"?>
<gpx version="1.1" creator="https://www.youtrack.es" xsi:schemaLocation="http://www.topografix.com/GPX/1/1 http://www.topografix.com/GPX/1/1/gpx.xsd http://www.garmin.com/xmlschemas/GpxExtensions/v3 http://www.garmin.com/xmlschemas/GpxExtensionsv3.xsd http://www.garmin.com/xmlschemas/TrackPointExtension/v1 http://www.garmin.com/xmlschemas/TrackPointExtensionv1.xsd" xmlns:gpxtpx="http://www.garmin.com/xmlschemas/TrackPointExtension/v1" xmlns:gpxx="http://www.garmin.com/xmlschemas/GpxExtensions/v3" xmlns:xsi="http://www.w3.org/2001/XMLSchema-instance">
  <metadata>
    <link href="https://www.youtrack.es">
      <text>YouTrack.es</text>
    </link>
    <time>2026-05-09T08:04:02Z</time>
  </metadata>
  <trk>
    <src>https://www.youtrack.es</src>
    <link href="https://www.youtrack.es/ruta/34638-refugio-miramundos-y-pico-magina">
      <text>YouTrack.es</text>
    </link>
    <trkseg>
      <trkpt lat="37.6873980" lon="-3.4739030">
        <ele>1177.2</ele>
        <time>2022-07-30T17:26:44Z</time>
      </trkpt>
      <trkpt lat="37.6873980" lon="-3.4739030">
        <ele>1177.2</ele>
        <time>2022-07-30T17:26:45Z</time>
      </trkpt>
      <trkpt lat="37.6873980" lon="-3.4739050">
        <ele>1177.2</ele>
        <time>2022-07-30T17:26:49Z</time>
      </trkpt>
      <trkpt lat="37.6873980" lon="-3.4739050">
        <ele>1177.2</ele>
        <time>2022-07-30T17:26:50Z</time>
      </trkpt>
      <trkpt lat="37.6873970" lon="-3.4739030">
        <ele>1177.2</ele>
        <time>2022-07-30T17:27:00Z</time>
      </trkpt>
      <trkpt lat="37.6874030" lon="-3.4739120">
        <ele>1177.2</ele>
        <time>2022-07-30T17:27:14Z</time>
      </trkpt>
      <trkpt lat="37.6874070" lon="-3.4739170">
        <ele>1177.2</ele>
        <time>2022-07-30T17:27:16Z</time>
      </trkpt>
      <trkpt lat="37.6873850" lon="-3.4739180">
        <ele>1177.3</ele>
        <time>2022-07-30T17:27:31Z</time>
      </trkpt>
      <trkpt lat="37.6873820" lon="-3.4739170">
        <ele>1177.4</ele>
        <time>2022-07-30T17:27:32Z</time>
      </trkpt>
      <trkpt lat="37.6873800" lon="-3.4739180">
        <ele>1177.4</ele>
        <time>2022-07-30T17:27:37Z</time>
      </trkpt>
      <trkpt lat="37.6873870" lon="-3.4739230">
        <ele>1177.4</ele>
        <time>2022-07-30T17:27:39Z</time>
      </trkpt>
      <trkpt lat="37.6873900" lon="-3.4739370">
        <ele>1177.5</ele>
        <time>2022-07-30T17:28:02Z</time>
      </trkpt>
      <trkpt lat="37.6873880" lon="-3.4739350">
        <ele>1177.5</ele>
        <time>2022-07-30T17:28:03Z</time>
      </trkpt>
      <trkpt lat="37.6873780" lon="-3.4739500">
        <ele>1177.6</ele>
        <time>2022-07-30T17:28:07Z</time>
      </trkpt>
      <trkpt lat="37.6873780" lon="-3.4739480">
        <ele>1177.6</ele>
        <time>2022-07-30T17:28:08Z</time>
      </trkpt>
      <trkpt lat="37.6873850" lon="-3.4739570">
        <ele>1177.6</ele>
        <time>2022-07-30T17:28:19Z</time>
      </trkpt>
      <trkpt lat="37.6873850" lon="-3.4739550">
        <ele>1177.6</ele>
        <time>2022-07-30T17:28:21Z</time>
      </trkpt>
      <trkpt lat="37.6873850" lon="-3.4739550">
        <ele>1177.6</ele>
        <time>2022-07-30T17:28:22Z</time>
      </trkpt>
      <trkpt lat="37.6873850" lon="-3.4739520">
        <ele>1177.7</ele>
        <time>2022-07-30T17:28:26Z</time>
      </trkpt>
      <trkpt lat="37.6873850" lon="-3.4739520">
        <ele>1177.7</ele>
        <time>2022-07-30T17:28:27Z</time>
      </trkpt>
      <trkpt lat="37.6873850" lon="-3.4739470">
        <ele>1177.7</ele>
        <time>2022-07-30T17:28:29Z</time>
      </trkpt>
      <trkpt lat="37.6873800" lon="-3.4739380">
        <ele>1177.7</ele>
        <time>2022-07-30T17:28:34Z</time>
      </trkpt>
      <trkpt lat="37.6873780" lon="-3.4739370">
        <ele>1177.7</ele>
        <time>2022-07-30T17:28:35Z</time>
      </trkpt>
      <trkpt lat="37.6873350" lon="-3.4739700">
        <ele>1178.0</ele>
        <time>2022-07-30T17:28:53Z</time>
      </trkpt>
      <trkpt lat="37.6873330" lon="-3.4739720">
        <ele>1178.0</ele>
        <time>2022-07-30T17:28:54Z</time>
      </trkpt>
      <trkpt lat="37.6873570" lon="-3.4740930">
        <ele>1178.6</ele>
        <time>2022-07-30T17:29:04Z</time>
      </trkpt>
      <trkpt lat="37.6873700" lon="-3.4742120">
        <ele>1179.1</ele>
        <time>2022-07-30T17:29:10Z</time>
      </trkpt>
      <trkpt lat="37.6873830" lon="-3.4743370">
        <ele>1179.7</ele>
        <time>2022-07-30T17:29:18Z</time>
      </trkpt>
      <trkpt lat="37.6873950" lon="-3.4744570">
        <ele>1180.2</ele>
        <time>2022-07-30T17:29:26Z</time>
      </trkpt>
      <trkpt lat="37.6874020" lon="-3.4745870">
        <ele>1180.8</ele>
        <time>2022-07-30T17:29:35Z</time>
      </trkpt>
      <trkpt lat="37.6873870" lon="-3.4746800">
        <ele>1181.2</ele>
        <time>2022-07-30T17:29:45Z</time>
      </trkpt>
      <trkpt lat="37.6873870" lon="-3.4746820">
        <ele>1181.2</ele>
        <time>2022-07-30T17:29:46Z</time>
      </trkpt>
      <trkpt lat="37.6874170" lon="-3.4748000">
        <ele>1181.8</ele>
        <time>2022-07-30T17:29:55Z</time>
      </trkpt>
      <trkpt lat="37.6874950" lon="-3.4748700">
        <ele>1182.8</ele>
        <time>2022-07-30T17:30:03Z</time>
      </trkpt>
      <trkpt lat="37.6875770" lon="-3.4749320">
        <ele>1185.6</ele>
        <time>2022-07-30T17:30:11Z</time>
      </trkpt>
      <trkpt lat="37.6876520" lon="-3.4748500">
        <ele>1186.9</ele>
        <time>2022-07-30T17:30:25Z</time>
      </trkpt>
      <trkpt lat="37.6876720" lon="-3.4748230">
        <ele>1187.1</ele>
        <time>2022-07-30T17:30:30Z</time>
      </trkpt>
      <trkpt lat="37.6876580" lon="-3.4748250">
        <ele>1187.2</ele>
        <time>2022-07-30T17:30:31Z</time>
      </trkpt>
      <trkpt lat="37.6875880" lon="-3.4747500">
        <ele>1187.9</ele>
        <time>2022-07-30T17:30:42Z</time>
      </trkpt>
      <trkpt lat="37.6876100" lon="-3.4746250">
        <ele>1188.7</ele>
        <time>2022-07-30T17:30:50Z</time>
      </trkpt>
      <trkpt lat="37.6876500" lon="-3.4745150">
        <ele>1189.5</ele>
        <time>2022-07-30T17:30:58Z</time>
      </trkpt>
      <trkpt lat="37.6876500" lon="-3.4743930">
        <ele>1190.3</ele>
        <time>2022-07-30T17:31:06Z</time>
      </trkpt>
      <trkpt lat="37.6876580" lon="-3.4742630">
        <ele>1191.3</ele>
        <time>2022-07-30T17:31:14Z</time>
      </trkpt>
      <trkpt lat="37.6876970" lon="-3.4741420">
        <ele>1192.2</ele>
        <time>2022-07-30T17:31:22Z</time>
      </trkpt>
      <trkpt lat="37.6877230" lon="-3.4740120">
        <ele>1193.2</ele>
        <time>2022-07-30T17:31:29Z</time>
      </trkpt>
      <trkpt lat="37.6877480" lon="-3.4738880">
        <ele>1194.1</ele>
        <time>2022-07-30T17:31:37Z</time>
      </trkpt>
      <trkpt lat="37.6877880" lon="-3.4737820">
        <ele>1194.9</ele>
        <time>2022-07-30T17:31:44Z</time>
      </trkpt>
      <trkpt lat="37.6878470" lon="-3.4736830">
        <ele>1195.8</ele>
        <time>2022-07-30T17:31:51Z</time>
      </trkpt>
      <trkpt lat="37.6878650" lon="-3.4735720">
        <ele>1196.5</ele>
        <time>2022-07-30T17:31:58Z</time>
      </trkpt>
      <trkpt lat="37.6879370" lon="-3.4734980">
        <ele>1197.3</ele>
        <time>2022-07-30T17:32:05Z</time>
      </trkpt>
      <trkpt lat="37.6880170" lon="-3.4734150">
        <ele>1198.2</ele>
        <time>2022-07-30T17:32:11Z</time>
      </trkpt>
      <trkpt lat="37.6880580" lon="-3.4733120">
        <ele>1199.0</ele>
        <time>2022-07-30T17:32:18Z</time>
      </trkpt>
      <trkpt lat="37.6881130" lon="-3.4732120">
        <ele>1199.9</ele>
        <time>2022-07-30T17:32:27Z</time>
      </trkpt>
      <trkpt lat="37.6881920" lon="-3.4731470">
        <ele>1200.7</ele>
        <time>2022-07-30T17:32:35Z</time>
      </trkpt>
      <trkpt lat="37.6882280" lon="-3.4730300">
        <ele>1201.7</ele>
        <time>2022-07-30T17:32:42Z</time>
      </trkpt>
      <trkpt lat="37.6882950" lon="-3.4729620">
        <ele>1202.5</ele>
        <time>2022-07-30T17:32:54Z</time>
      </trkpt>
      <trkpt lat="37.6882980" lon="-3.4729620">
        <ele>1202.6</ele>
        <time>2022-07-30T17:32:55Z</time>
      </trkpt>
      <trkpt lat="37.6883020" lon="-3.4728370">
        <ele>1203.6</ele>
        <time>2022-07-30T17:33:06Z</time>
      </trkpt>
      <trkpt lat="37.6882420" lon="-3.4727520">
        <ele>1204.3</ele>
        <time>2022-07-30T17:33:13Z</time>
      </trkpt>
      <trkpt lat="37.6881800" lon="-3.4726620">
        <ele>1204.9</ele>
        <time>2022-07-30T17:33:20Z</time>
      </trkpt>
      <trkpt lat="37.6881370" lon="-3.4725570">
        <ele>1205.5</ele>
        <time>2022-07-30T17:33:27Z</time>
      </trkpt>
      <trkpt lat="37.6881080" lon="-3.4724270">
        <ele>1206.4</ele>
        <time>2022-07-30T17:33:35Z</time>
      </trkpt>
      <trkpt lat="37.6880830" lon="-3.4723130">
        <ele>1207.2</ele>
        <time>2022-07-30T17:33:42Z</time>
      </trkpt>
      <trkpt lat="37.6880770" lon="-3.4721900">
        <ele>1208.0</ele>
        <time>2022-07-30T17:33:49Z</time>
      </trkpt>
      <trkpt lat="37.6880700" lon="-3.4720630">
        <ele>1209.1</ele>
        <time>2022-07-30T17:33:55Z</time>
      </trkpt>
      <trkpt lat="37.6880920" lon="-3.4719380">
        <ele>1210.3</ele>
        <time>2022-07-30T17:34:01Z</time>
      </trkpt>
      <trkpt lat="37.6881320" lon="-3.4718320">
        <ele>1211.3</ele>
        <time>2022-07-30T17:34:07Z</time>
      </trkpt>
      <trkpt lat="37.6881820" lon="-3.4717220">
        <ele>1212.5</ele>
        <time>2022-07-30T17:34:15Z</time>
      </trkpt>
      <trkpt lat="37.6881950" lon="-3.4716050">
        <ele>1213.8</ele>
        <time>2022-07-30T17:34:22Z</time>
      </trkpt>
      <trkpt lat="37.6882320" lon="-3.4714900">
        <ele>1215.1</ele>
        <time>2022-07-30T17:34:30Z</time>
      </trkpt>
      <trkpt lat="37.6882070" lon="-3.4713800">
        <ele>1216.0</ele>
        <time>2022-07-30T17:34:38Z</time>
      </trkpt>
      <trkpt lat="37.6881250" lon="-3.4713150">
        <ele>1216.5</ele>
        <time>2022-07-30T17:34:45Z</time>
      </trkpt>
      <trkpt lat="37.6880480" lon="-3.4712380">
        <ele>1217.1</ele>
        <time>2022-07-30T17:34:53Z</time>
      </trkpt>
      <trkpt lat="37.6880020" lon="-3.4711400">
        <ele>1217.8</ele>
        <time>2022-07-30T17:34:59Z</time>
      </trkpt>
      <trkpt lat="37.6879880" lon="-3.4710250">
        <ele>1218.5</ele>
        <time>2022-07-30T17:35:06Z</time>
      </trkpt>
      <trkpt lat="37.6879900" lon="-3.4709080">
        <ele>1219.2</ele>
        <time>2022-07-30T17:35:13Z</time>
      </trkpt>
      <trkpt lat="37.6880150" lon="-3.4707820">
        <ele>1220.3</ele>
        <time>2022-07-30T17:35:19Z</time>
      </trkpt>
      <trkpt lat="37.6880320" lon="-3.4706580">
        <ele>1221.2</ele>
        <time>2022-07-30T17:35:27Z</time>
      </trkpt>
      <trkpt lat="37.6880650" lon="-3.4705480">
        <ele>1221.9</ele>
        <time>2022-07-30T17:35:33Z</time>
      </trkpt>
      <trkpt lat="37.6881100" lon="-3.4704300">
        <ele>1222.7</ele>
        <time>2022-07-30T17:35:41Z</time>
      </trkpt>
      <trkpt lat="37.6880930" lon="-3.4702970">
        <ele>1223.6</ele>
        <time>2022-07-30T17:35:49Z</time>
      </trkpt>
      <trkpt lat="37.6880750" lon="-3.4701820">
        <ele>1224.5</ele>
        <time>2022-07-30T17:35:56Z</time>
      </trkpt>
      <trkpt lat="37.6880750" lon="-3.4700600">
        <ele>1225.3</ele>
        <time>2022-07-30T17:36:03Z</time>
      </trkpt>
      <trkpt lat="37.6880930" lon="-3.4699470">
        <ele>1225.9</ele>
        <time>2022-07-30T17:36:10Z</time>
      </trkpt>
      <trkpt lat="37.6881620" lon="-3.4698630">
        <ele>1226.7</ele>
        <time>2022-07-30T17:36:17Z</time>
      </trkpt>
      <trkpt lat="37.6882100" lon="-3.4697550">
        <ele>1227.7</ele>
        <time>2022-07-30T17:36:23Z</time>
      </trkpt>
      <trkpt lat="37.6882170" lon="-3.4696280">
        <ele>1228.8</ele>
        <time>2022-07-30T17:36:31Z</time>
      </trkpt>
      <trkpt lat="37.6882180" lon="-3.4695080">
        <ele>1229.7</ele>
        <time>2022-07-30T17:36:39Z</time>
      </trkpt>
      <trkpt lat="37.6882520" lon="-3.4693880">
        <ele>1230.7</ele>
        <time>2022-07-30T17:36:46Z</time>
      </trkpt>
      <trkpt lat="37.6882680" lon="-3.4692600">
        <ele>1231.7</ele>
        <time>2022-07-30T17:36:54Z</time>
      </trkpt>
      <trkpt lat="37.6882420" lon="-3.4691470">
        <ele>1232.6</ele>
        <time>2022-07-30T17:37:02Z</time>
      </trkpt>
      <trkpt lat="37.6882600" lon="-3.4690250">
        <ele>1233.7</ele>
        <time>2022-07-30T17:37:10Z</time>
      </trkpt>
      <trkpt lat="37.6883050" lon="-3.4689200">
        <ele>1234.8</ele>
        <time>2022-07-30T17:37:16Z</time>
      </trkpt>
      <trkpt lat="37.6883170" lon="-3.4688000">
        <ele>1235.9</ele>
        <time>2022-07-30T17:37:22Z</time>
      </trkpt>
      <trkpt lat="37.6883130" lon="-3.4686800">
        <ele>1237.0</ele>
        <time>2022-07-30T17:37:31Z</time>
      </trkpt>
      <trkpt lat="37.6882570" lon="-3.4685920">
        <ele>1238.1</ele>
        <time>2022-07-30T17:37:40Z</time>
      </trkpt>
      <trkpt lat="37.6882170" lon="-3.4684780">
        <ele>1239.2</ele>
        <time>2022-07-30T17:37:48Z</time>
      </trkpt>
      <trkpt lat="37.6882330" lon="-3.4683650">
        <ele>1240.0</ele>
        <time>2022-07-30T17:37:55Z</time>
      </trkpt>
      <trkpt lat="37.6882880" lon="-3.4682570">
        <ele>1240.9</ele>
        <time>2022-07-30T17:38:03Z</time>
      </trkpt>
      <trkpt lat="37.6883380" lon="-3.4681550">
        <ele>1241.8</ele>
        <time>2022-07-30T17:38:11Z</time>
      </trkpt>
      <trkpt lat="37.6884150" lon="-3.4680820">
        <ele>1242.7</ele>
        <time>2022-07-30T17:38:19Z</time>
      </trkpt>
      <trkpt lat="37.6884970" lon="-3.4680270">
        <ele>1243.7</ele>
        <time>2022-07-30T17:38:26Z</time>
      </trkpt>
      <trkpt lat="37.6885730" lon="-3.4679580">
        <ele>1244.6</ele>
        <time>2022-07-30T17:38:34Z</time>
      </trkpt>
      <trkpt lat="37.6886050" lon="-3.4678420">
        <ele>1245.6</ele>
        <time>2022-07-30T17:38:41Z</time>
      </trkpt>
      <trkpt lat="37.6886500" lon="-3.4677420">
        <ele>1246.6</ele>
        <time>2022-07-30T17:38:50Z</time>
      </trkpt>
      <trkpt lat="37.6887580" lon="-3.4677100">
        <ele>1247.5</ele>
        <time>2022-07-30T17:38:59Z</time>
      </trkpt>
      <trkpt lat="37.6888470" lon="-3.4676600">
        <ele>1248.4</ele>
        <time>2022-07-30T17:39:06Z</time>
      </trkpt>
      <trkpt lat="37.6889380" lon="-3.4676100">
        <ele>1249.5</ele>
        <time>2022-07-30T17:39:13Z</time>
      </trkpt>
      <trkpt lat="37.6890420" lon="-3.4675900">
        <ele>1250.5</ele>
        <time>2022-07-30T17:39:20Z</time>
      </trkpt>
      <trkpt lat="37.6891330" lon="-3.4675470">
        <ele>1251.4</ele>
        <time>2022-07-30T17:39:29Z</time>
      </trkpt>
      <trkpt lat="37.6892280" lon="-3.4675420">
        <ele>1252.2</ele>
        <time>2022-07-30T17:39:40Z</time>
      </trkpt>
      <trkpt lat="37.6893220" lon="-3.4675920">
        <ele>1253.2</ele>
        <time>2022-07-30T17:39:48Z</time>
      </trkpt>
      <trkpt lat="37.6894150" lon="-3.4676270">
        <ele>1254.3</ele>
        <time>2022-07-30T17:39:57Z</time>
      </trkpt>
      <trkpt lat="37.6895070" lon="-3.4676520">
        <ele>1255.3</ele>
        <time>2022-07-30T17:40:08Z</time>
      </trkpt>
      <trkpt lat="37.6896000" lon="-3.4676970">
        <ele>1256.3</ele>
        <time>2022-07-30T17:40:16Z</time>
      </trkpt>
      <trkpt lat="37.6896880" lon="-3.4677700">
        <ele>1257.2</ele>
        <time>2022-07-30T17:40:23Z</time>
      </trkpt>
      <trkpt lat="37.6897370" lon="-3.4678820">
        <ele>1258.0</ele>
        <time>2022-07-30T17:40:32Z</time>
      </trkpt>
      <trkpt lat="37.6897780" lon="-3.4680020">
        <ele>1258.7</ele>
        <time>2022-07-30T17:40:43Z</time>
      </trkpt>
      <trkpt lat="37.6897870" lon="-3.4681170">
        <ele>1259.5</ele>
        <time>2022-07-30T17:40:49Z</time>
      </trkpt>
      <trkpt lat="37.6898520" lon="-3.4682200">
        <ele>1260.4</ele>
        <time>2022-07-30T17:40:56Z</time>
      </trkpt>
      <trkpt lat="37.6899280" lon="-3.4683100">
        <ele>1261.5</ele>
        <time>2022-07-30T17:41:03Z</time>
      </trkpt>
      <trkpt lat="37.6900070" lon="-3.4683730">
        <ele>1262.7</ele>
        <time>2022-07-30T17:41:12Z</time>
      </trkpt>
      <trkpt lat="37.6900930" lon="-3.4684370">
        <ele>1263.9</ele>
        <time>2022-07-30T17:41:23Z</time>
      </trkpt>
      <trkpt lat="37.6901950" lon="-3.4684350">
        <ele>1264.9</ele>
        <time>2022-07-30T17:41:32Z</time>
      </trkpt>
      <trkpt lat="37.6902730" lon="-3.4683570">
        <ele>1265.8</ele>
        <time>2022-07-30T17:41:38Z</time>
      </trkpt>
      <trkpt lat="37.6902600" lon="-3.4682430">
        <ele>1266.6</ele>
        <time>2022-07-30T17:41:54Z</time>
      </trkpt>
      <trkpt lat="37.6902520" lon="-3.4681270">
        <ele>1267.6</ele>
        <time>2022-07-30T17:42:00Z</time>
      </trkpt>
      <trkpt lat="37.6902380" lon="-3.4679980">
        <ele>1268.5</ele>
        <time>2022-07-30T17:42:07Z</time>
      </trkpt>
      <trkpt lat="37.6902480" lon="-3.4678800">
        <ele>1269.3</ele>
        <time>2022-07-30T17:42:13Z</time>
      </trkpt>
      <trkpt lat="37.6902700" lon="-3.4677600">
        <ele>1270.2</ele>
        <time>2022-07-30T17:42:20Z</time>
      </trkpt>
      <trkpt lat="37.6902800" lon="-3.4676470">
        <ele>1271.0</ele>
        <time>2022-07-30T17:42:26Z</time>
      </trkpt>
      <trkpt lat="37.6902720" lon="-3.4675300">
        <ele>1271.9</ele>
        <time>2022-07-30T17:42:33Z</time>
      </trkpt>
      <trkpt lat="37.6902600" lon="-3.4674000">
        <ele>1273.0</ele>
        <time>2022-07-30T17:42:42Z</time>
      </trkpt>
      <trkpt lat="37.6902770" lon="-3.4672830">
        <ele>1273.9</ele>
        <time>2022-07-30T17:42:48Z</time>
      </trkpt>
      <trkpt lat="37.6902700" lon="-3.4671500">
        <ele>1274.9</ele>
        <time>2022-07-30T17:42:56Z</time>
      </trkpt>
      <trkpt lat="37.6902580" lon="-3.4670330">
        <ele>1275.9</ele>
        <time>2022-07-30T17:43:03Z</time>
      </trkpt>
      <trkpt lat="37.6902130" lon="-3.4669300">
        <ele>1277.0</ele>
        <time>2022-07-30T17:43:09Z</time>
      </trkpt>
      <trkpt lat="37.6901870" lon="-3.4668180">
        <ele>1278.1</ele>
        <time>2022-07-30T17:43:16Z</time>
      </trkpt>
      <trkpt lat="37.6901570" lon="-3.4667000">
        <ele>1279.1</ele>
        <time>2022-07-30T17:43:24Z</time>
      </trkpt>
      <trkpt lat="37.6901330" lon="-3.4665900">
        <ele>1280.2</ele>
        <time>2022-07-30T17:43:31Z</time>
      </trkpt>
      <trkpt lat="37.6901430" lon="-3.4664720">
        <ele>1281.2</ele>
        <time>2022-07-30T17:43:41Z</time>
      </trkpt>
      <trkpt lat="37.6901130" lon="-3.4663600">
        <ele>1282.0</ele>
        <time>2022-07-30T17:43:51Z</time>
      </trkpt>
      <trkpt lat="37.6900570" lon="-3.4662620">
        <ele>1282.9</ele>
        <time>2022-07-30T17:43:58Z</time>
      </trkpt>
      <trkpt lat="37.6900050" lon="-3.4661580">
        <ele>1283.9</ele>
        <time>2022-07-30T17:44:07Z</time>
      </trkpt>
      <trkpt lat="37.6899950" lon="-3.4660320">
        <ele>1285.0</ele>
        <time>2022-07-30T17:44:18Z</time>
      </trkpt>
      <trkpt lat="37.6899670" lon="-3.4659150">
        <ele>1286.0</ele>
        <time>2022-07-30T17:44:25Z</time>
      </trkpt>
      <trkpt lat="37.6899300" lon="-3.4658100">
        <ele>1286.9</ele>
        <time>2022-07-30T17:44:30Z</time>
      </trkpt>
      <trkpt lat="37.6898720" lon="-3.4657100">
        <ele>1288.1</ele>
        <time>2022-07-30T17:44:37Z</time>
      </trkpt>
      <trkpt lat="37.6898170" lon="-3.4656080">
        <ele>1289.3</ele>
        <time>2022-07-30T17:44:45Z</time>
      </trkpt>
      <trkpt lat="37.6897570" lon="-3.4655100">
        <ele>1290.5</ele>
        <time>2022-07-30T17:44:50Z</time>
      </trkpt>
      <trkpt lat="37.6896700" lon="-3.4654570">
        <ele>1291.7</ele>
        <time>2022-07-30T17:44:56Z</time>
      </trkpt>
      <trkpt lat="37.6895870" lon="-3.4653850">
        <ele>1292.7</ele>
        <time>2022-07-30T17:45:02Z</time>
      </trkpt>
      <trkpt lat="37.6895070" lon="-3.4653280">
        <ele>1293.7</ele>
        <time>2022-07-30T17:45:08Z</time>
      </trkpt>
      <trkpt lat="37.6894170" lon="-3.4652680">
        <ele>1294.7</ele>
        <time>2022-07-30T17:45:15Z</time>
      </trkpt>
      <trkpt lat="37.6893530" lon="-3.4651850">
        <ele>1295.7</ele>
        <time>2022-07-30T17:45:21Z</time>
      </trkpt>
      <trkpt lat="37.6892680" lon="-3.4651370">
        <ele>1296.8</ele>
        <time>2022-07-30T17:45:32Z</time>
      </trkpt>
      <trkpt lat="37.6891950" lon="-3.4650580">
        <ele>1297.9</ele>
        <time>2022-07-30T17:45:40Z</time>
      </trkpt>
      <trkpt lat="37.6891350" lon="-3.4649700">
        <ele>1299.1</ele>
        <time>2022-07-30T17:45:48Z</time>
      </trkpt>
      <trkpt lat="37.6891030" lon="-3.4648570">
        <ele>1300.4</ele>
        <time>2022-07-30T17:45:56Z</time>
      </trkpt>
      <trkpt lat="37.6890880" lon="-3.4647300">
        <ele>1301.8</ele>
        <time>2022-07-30T17:46:04Z</time>
      </trkpt>
      <trkpt lat="37.6891030" lon="-3.4646170">
        <ele>1303.1</ele>
        <time>2022-07-30T17:46:11Z</time>
      </trkpt>
      <trkpt lat="37.6891470" lon="-3.4645050">
        <ele>1304.4</ele>
        <time>2022-07-30T17:46:19Z</time>
      </trkpt>
      <trkpt lat="37.6892100" lon="-3.4644180">
        <ele>1305.6</ele>
        <time>2022-07-30T17:46:26Z</time>
      </trkpt>
      <trkpt lat="37.6892870" lon="-3.4643500">
        <ele>1306.9</ele>
        <time>2022-07-30T17:46:34Z</time>
      </trkpt>
      <trkpt lat="37.6893650" lon="-3.4642930">
        <ele>1308.2</ele>
        <time>2022-07-30T17:46:44Z</time>
      </trkpt>
      <trkpt lat="37.6894620" lon="-3.4642480">
        <ele>1309.6</ele>
        <time>2022-07-30T17:46:52Z</time>
      </trkpt>
      <trkpt lat="37.6895670" lon="-3.4642180">
        <ele>1311.1</ele>
        <time>2022-07-30T17:47:03Z</time>
      </trkpt>
      <trkpt lat="37.6896330" lon="-3.4641420">
        <ele>1312.5</ele>
        <time>2022-07-30T17:47:11Z</time>
      </trkpt>
      <trkpt lat="37.6897330" lon="-3.4641100">
        <ele>1314.0</ele>
        <time>2022-07-30T17:47:20Z</time>
      </trkpt>
      <trkpt lat="37.6898250" lon="-3.4641180">
        <ele>1315.5</ele>
        <time>2022-07-30T17:47:26Z</time>
      </trkpt>
      <trkpt lat="37.6899280" lon="-3.4641130">
        <ele>1317.0</ele>
        <time>2022-07-30T17:47:34Z</time>
      </trkpt>
      <trkpt lat="37.6900150" lon="-3.4640630">
        <ele>1318.3</ele>
        <time>2022-07-30T17:47:43Z</time>
      </trkpt>
      <trkpt lat="37.6901000" lon="-3.4639950">
        <ele>1319.8</ele>
        <time>2022-07-30T17:47:51Z</time>
      </trkpt>
      <trkpt lat="37.6901780" lon="-3.4639280">
        <ele>1321.4</ele>
        <time>2022-07-30T17:47:59Z</time>
      </trkpt>
      <trkpt lat="37.6902720" lon="-3.4638830">
        <ele>1323.3</ele>
        <time>2022-07-30T17:48:06Z</time>
      </trkpt>
      <trkpt lat="37.6903620" lon="-3.4638700">
        <ele>1324.8</ele>
        <time>2022-07-30T17:48:13Z</time>
      </trkpt>
      <trkpt lat="37.6904570" lon="-3.4638870">
        <ele>1326.2</ele>
        <time>2022-07-30T17:48:24Z</time>
      </trkpt>
      <trkpt lat="37.6905570" lon="-3.4638620">
        <ele>1327.5</ele>
        <time>2022-07-30T17:48:41Z</time>
      </trkpt>
      <trkpt lat="37.6906530" lon="-3.4638650">
        <ele>1328.8</ele>
        <time>2022-07-30T17:48:48Z</time>
      </trkpt>
      <trkpt lat="37.6907500" lon="-3.4638730">
        <ele>1330.0</ele>
        <time>2022-07-30T17:48:55Z</time>
      </trkpt>
      <trkpt lat="37.6908430" lon="-3.4638930">
        <ele>1331.2</ele>
        <time>2022-07-30T17:49:01Z</time>
      </trkpt>
      <trkpt lat="37.6909370" lon="-3.4638880">
        <ele>1332.4</ele>
        <time>2022-07-30T17:49:09Z</time>
      </trkpt>
      <trkpt lat="37.6910350" lon="-3.4639030">
        <ele>1333.6</ele>
        <time>2022-07-30T17:49:19Z</time>
      </trkpt>
      <trkpt lat="37.6911270" lon="-3.4639330">
        <ele>1334.8</ele>
        <time>2022-07-30T17:49:26Z</time>
      </trkpt>
      <trkpt lat="37.6912270" lon="-3.4639470">
        <ele>1336.2</ele>
        <time>2022-07-30T17:49:38Z</time>
      </trkpt>
      <trkpt lat="37.6913180" lon="-3.4639280">
        <ele>1337.4</ele>
        <time>2022-07-30T17:49:50Z</time>
      </trkpt>
      <trkpt lat="37.6914070" lon="-3.4638600">
        <ele>1338.5</ele>
        <time>2022-07-30T17:49:56Z</time>
      </trkpt>
      <trkpt lat="37.6914350" lon="-3.4637330">
        <ele>1339.3</ele>
        <time>2022-07-30T17:50:06Z</time>
      </trkpt>
      <trkpt lat="37.6914650" lon="-3.4636200">
        <ele>1340.0</ele>
        <time>2022-07-30T17:50:13Z</time>
      </trkpt>
      <trkpt lat="37.6914980" lon="-3.4635050">
        <ele>1340.8</ele>
        <time>2022-07-30T17:50:21Z</time>
      </trkpt>
      <trkpt lat="37.6915450" lon="-3.4634020">
        <ele>1341.7</ele>
        <time>2022-07-30T17:50:27Z</time>
      </trkpt>
      <trkpt lat="37.6915980" lon="-3.4632950">
        <ele>1343.1</ele>
        <time>2022-07-30T17:50:36Z</time>
      </trkpt>
      <trkpt lat="37.6915620" lon="-3.4631750">
        <ele>1344.6</ele>
        <time>2022-07-30T17:50:45Z</time>
      </trkpt>
      <trkpt lat="37.6914950" lon="-3.4630830">
        <ele>1346.0</ele>
        <time>2022-07-30T17:50:53Z</time>
      </trkpt>
      <trkpt lat="37.6914230" lon="-3.4630030">
        <ele>1346.9</ele>
        <time>2022-07-30T17:51:03Z</time>
      </trkpt>
      <trkpt lat="37.6913500" lon="-3.4629120">
        <ele>1347.7</ele>
        <time>2022-07-30T17:51:12Z</time>
      </trkpt>
      <trkpt lat="37.6912770" lon="-3.4628330">
        <ele>1348.6</ele>
        <time>2022-07-30T17:51:20Z</time>
      </trkpt>
      <trkpt lat="37.6912150" lon="-3.4627500">
        <ele>1349.5</ele>
        <time>2022-07-30T17:51:28Z</time>
      </trkpt>
      <trkpt lat="37.6911430" lon="-3.4626570">
        <ele>1350.6</ele>
        <time>2022-07-30T17:51:36Z</time>
      </trkpt>
      <trkpt lat="37.6910800" lon="-3.4625700">
        <ele>1351.6</ele>
        <time>2022-07-30T17:51:45Z</time>
      </trkpt>
      <trkpt lat="37.6910150" lon="-3.4624870">
        <ele>1352.5</ele>
        <time>2022-07-30T17:51:51Z</time>
      </trkpt>
      <trkpt lat="37.6909420" lon="-3.4624030">
        <ele>1353.6</ele>
        <time>2022-07-30T17:51:57Z</time>
      </trkpt>
      <trkpt lat="37.6908720" lon="-3.4623220">
        <ele>1354.7</ele>
        <time>2022-07-30T17:52:05Z</time>
      </trkpt>
      <trkpt lat="37.6908150" lon="-3.4622230">
        <ele>1355.8</ele>
        <time>2022-07-30T17:52:14Z</time>
      </trkpt>
      <trkpt lat="37.6907520" lon="-3.4621280">
        <ele>1357.0</ele>
        <time>2022-07-30T17:52:23Z</time>
      </trkpt>
      <trkpt lat="37.6906980" lon="-3.4620370">
        <ele>1358.2</ele>
        <time>2022-07-30T17:52:31Z</time>
      </trkpt>
      <trkpt lat="37.6906370" lon="-3.4619480">
        <ele>1359.4</ele>
        <time>2022-07-30T17:52:40Z</time>
      </trkpt>
      <trkpt lat="37.6906250" lon="-3.4619350">
        <ele>1359.6</ele>
        <time>2022-07-30T17:52:47Z</time>
      </trkpt>
      <trkpt lat="37.6906230" lon="-3.4619350">
        <ele>1359.7</ele>
        <time>2022-07-30T17:52:49Z</time>
      </trkpt>
      <trkpt lat="37.6906120" lon="-3.4619370">
        <ele>1359.8</ele>
        <time>2022-07-30T17:52:54Z</time>
      </trkpt>
      <trkpt lat="37.6906150" lon="-3.4619350">
        <ele>1359.9</ele>
        <time>2022-07-30T17:53:15Z</time>
      </trkpt>
      <trkpt lat="37.6905580" lon="-3.4618280">
        <ele>1361.4</ele>
        <time>2022-07-30T17:53:26Z</time>
      </trkpt>
      <trkpt lat="37.6905370" lon="-3.4617150">
        <ele>1362.8</ele>
        <time>2022-07-30T17:53:33Z</time>
      </trkpt>
      <trkpt lat="37.6905300" lon="-3.4616000">
        <ele>1364.4</ele>
        <time>2022-07-30T17:53:42Z</time>
      </trkpt>
      <trkpt lat="37.6905630" lon="-3.4614830">
        <ele>1365.9</ele>
        <time>2022-07-30T17:53:48Z</time>
      </trkpt>
      <trkpt lat="37.6905820" lon="-3.4613700">
        <ele>1367.1</ele>
        <time>2022-07-30T17:53:58Z</time>
      </trkpt>
      <trkpt lat="37.6906200" lon="-3.4612550">
        <ele>1368.3</ele>
        <time>2022-07-30T17:54:06Z</time>
      </trkpt>
      <trkpt lat="37.6906880" lon="-3.4611750">
        <ele>1369.5</ele>
        <time>2022-07-30T17:54:15Z</time>
      </trkpt>
      <trkpt lat="37.6907630" lon="-3.4610920">
        <ele>1370.9</ele>
        <time>2022-07-30T17:54:24Z</time>
      </trkpt>
      <trkpt lat="37.6908280" lon="-3.4609950">
        <ele>1372.2</ele>
        <time>2022-07-30T17:54:32Z</time>
      </trkpt>
      <trkpt lat="37.6909150" lon="-3.4609320">
        <ele>1373.5</ele>
        <time>2022-07-30T17:54:39Z</time>
      </trkpt>
      <trkpt lat="37.6909850" lon="-3.4608530">
        <ele>1374.7</ele>
        <time>2022-07-30T17:54:45Z</time>
      </trkpt>
      <trkpt lat="37.6910720" lon="-3.4608200">
        <ele>1375.9</ele>
        <time>2022-07-30T17:54:55Z</time>
      </trkpt>
      <trkpt lat="37.6911130" lon="-3.4607150">
        <ele>1377.1</ele>
        <time>2022-07-30T17:55:09Z</time>
      </trkpt>
      <trkpt lat="37.6911980" lon="-3.4606600">
        <ele>1378.5</ele>
        <time>2022-07-30T17:55:18Z</time>
      </trkpt>
      <trkpt lat="37.6912920" lon="-3.4606420">
        <ele>1380.1</ele>
        <time>2022-07-30T17:55:26Z</time>
      </trkpt>
      <trkpt lat="37.6913550" lon="-3.4605500">
        <ele>1381.8</ele>
        <time>2022-07-30T17:55:36Z</time>
      </trkpt>
      <trkpt lat="37.6914320" lon="-3.4604650">
        <ele>1383.6</ele>
        <time>2022-07-30T17:55:45Z</time>
      </trkpt>
      <trkpt lat="37.6915230" lon="-3.4604220">
        <ele>1385.2</ele>
        <time>2022-07-30T17:55:56Z</time>
      </trkpt>
      <trkpt lat="37.6916170" lon="-3.4604020">
        <ele>1386.6</ele>
        <time>2022-07-30T17:56:07Z</time>
      </trkpt>
      <trkpt lat="37.6917080" lon="-3.4604270">
        <ele>1387.9</ele>
        <time>2022-07-30T17:56:15Z</time>
      </trkpt>
      <trkpt lat="37.6917870" lon="-3.4604850">
        <ele>1389.1</ele>
        <time>2022-07-30T17:56:27Z</time>
      </trkpt>
      <trkpt lat="37.6918670" lon="-3.4605570">
        <ele>1390.2</ele>
        <time>2022-07-30T17:56:38Z</time>
      </trkpt>
      <trkpt lat="37.6919430" lon="-3.4606180">
        <ele>1391.2</ele>
        <time>2022-07-30T17:56:43Z</time>
      </trkpt>
      <trkpt lat="37.6920320" lon="-3.4606720">
        <ele>1392.4</ele>
        <time>2022-07-30T17:56:51Z</time>
      </trkpt>
      <trkpt lat="37.6921120" lon="-3.4607280">
        <ele>1393.5</ele>
        <time>2022-07-30T17:56:58Z</time>
      </trkpt>
      <trkpt lat="37.6921970" lon="-3.4608030">
        <ele>1394.7</ele>
        <time>2022-07-30T17:57:07Z</time>
      </trkpt>
      <trkpt lat="37.6922770" lon="-3.4608580">
        <ele>1395.9</ele>
        <time>2022-07-30T17:57:15Z</time>
      </trkpt>
      <trkpt lat="37.6923630" lon="-3.4608920">
        <ele>1397.0</ele>
        <time>2022-07-30T17:57:26Z</time>
      </trkpt>
      <trkpt lat="37.6924570" lon="-3.4608850">
        <ele>1398.3</ele>
        <time>2022-07-30T17:57:36Z</time>
      </trkpt>
      <trkpt lat="37.6925500" lon="-3.4609080">
        <ele>1399.5</ele>
        <time>2022-07-30T17:57:44Z</time>
      </trkpt>
      <trkpt lat="37.6926300" lon="-3.4609770">
        <ele>1400.7</ele>
        <time>2022-07-30T17:57:51Z</time>
      </trkpt>
      <trkpt lat="37.6927030" lon="-3.4610450">
        <ele>1401.9</ele>
        <time>2022-07-30T17:58:02Z</time>
      </trkpt>
      <trkpt lat="37.6927980" lon="-3.4610250">
        <ele>1403.3</ele>
        <time>2022-07-30T17:58:12Z</time>
      </trkpt>
      <trkpt lat="37.6928130" lon="-3.4610070">
        <ele>1403.6</ele>
        <time>2022-07-30T17:58:16Z</time>
      </trkpt>
      <trkpt lat="37.6928250" lon="-3.4610030">
        <ele>1403.8</ele>
        <time>2022-07-30T17:58:17Z</time>
      </trkpt>
      <trkpt lat="37.6929170" lon="-3.4609900">
        <ele>1405.0</ele>
        <time>2022-07-30T17:58:22Z</time>
      </trkpt>
      <trkpt lat="37.6930050" lon="-3.4609530">
        <ele>1406.3</ele>
        <time>2022-07-30T17:58:30Z</time>
      </trkpt>
      <trkpt lat="37.6930930" lon="-3.4609220">
        <ele>1407.4</ele>
        <time>2022-07-30T17:58:36Z</time>
      </trkpt>
      <trkpt lat="37.6931930" lon="-3.4608930">
        <ele>1408.6</ele>
        <time>2022-07-30T17:58:44Z</time>
      </trkpt>
      <trkpt lat="37.6932870" lon="-3.4608780">
        <ele>1409.7</ele>
        <time>2022-07-30T17:58:56Z</time>
      </trkpt>
      <trkpt lat="37.6933820" lon="-3.4608700">
        <ele>1410.8</ele>
        <time>2022-07-30T17:59:03Z</time>
      </trkpt>
      <trkpt lat="37.6934780" lon="-3.4608850">
        <ele>1412.0</ele>
        <time>2022-07-30T17:59:11Z</time>
      </trkpt>
      <trkpt lat="37.6935800" lon="-3.4609000">
        <ele>1413.4</ele>
        <time>2022-07-30T17:59:21Z</time>
      </trkpt>
      <trkpt lat="37.6936730" lon="-3.4609280">
        <ele>1414.6</ele>
        <time>2022-07-30T17:59:31Z</time>
      </trkpt>
      <trkpt lat="37.6937670" lon="-3.4609130">
        <ele>1415.9</ele>
        <time>2022-07-30T17:59:41Z</time>
      </trkpt>
      <trkpt lat="37.6938570" lon="-3.4609700">
        <ele>1417.3</ele>
        <time>2022-07-30T17:59:49Z</time>
      </trkpt>
      <trkpt lat="37.6939530" lon="-3.4610080">
        <ele>1418.6</ele>
        <time>2022-07-30T17:59:56Z</time>
      </trkpt>
      <trkpt lat="37.6940220" lon="-3.4610420">
        <ele>1419.6</ele>
        <time>2022-07-30T18:00:11Z</time>
      </trkpt>
      <trkpt lat="37.6940250" lon="-3.4610400">
        <ele>1419.6</ele>
        <time>2022-07-30T18:00:12Z</time>
      </trkpt>
      <trkpt lat="37.6940230" lon="-3.4610270">
        <ele>1419.8</ele>
        <time>2022-07-30T18:00:16Z</time>
      </trkpt>
      <trkpt lat="37.6940230" lon="-3.4610250">
        <ele>1419.8</ele>
        <time>2022-07-30T18:00:20Z</time>
      </trkpt>
      <trkpt lat="37.6940230" lon="-3.4610250">
        <ele>1419.8</ele>
        <time>2022-07-30T18:00:21Z</time>
      </trkpt>
      <trkpt lat="37.6940220" lon="-3.4610250">
        <ele>1419.8</ele>
        <time>2022-07-30T18:00:23Z</time>
      </trkpt>
      <trkpt lat="37.6940220" lon="-3.4610250">
        <ele>1419.8</ele>
        <time>2022-07-30T18:00:24Z</time>
      </trkpt>
      <trkpt lat="37.6940270" lon="-3.4610250">
        <ele>1419.9</ele>
        <time>2022-07-30T18:00:25Z</time>
      </trkpt>
      <trkpt lat="37.6940330" lon="-3.4610270">
        <ele>1420.0</ele>
        <time>2022-07-30T18:00:32Z</time>
      </trkpt>
      <trkpt lat="37.6940350" lon="-3.4610270">
        <ele>1420.0</ele>
        <time>2022-07-30T18:00:33Z</time>
      </trkpt>
      <trkpt lat="37.6940280" lon="-3.4610100">
        <ele>1420.2</ele>
        <time>2022-07-30T18:00:39Z</time>
      </trkpt>
      <trkpt lat="37.6940280" lon="-3.4610080">
        <ele>1420.2</ele>
        <time>2022-07-30T18:00:46Z</time>
      </trkpt>
      <trkpt lat="37.6940430" lon="-3.4610200">
        <ele>1420.5</ele>
        <time>2022-07-30T18:00:54Z</time>
      </trkpt>
      <trkpt lat="37.6940420" lon="-3.4610180">
        <ele>1420.5</ele>
        <time>2022-07-30T18:00:56Z</time>
      </trkpt>
      <trkpt lat="37.6940370" lon="-3.4610130">
        <ele>1420.6</ele>
        <time>2022-07-30T18:01:00Z</time>
      </trkpt>
      <trkpt lat="37.6940380" lon="-3.4610150">
        <ele>1420.6</ele>
        <time>2022-07-30T18:01:01Z</time>
      </trkpt>
      <trkpt lat="37.6940630" lon="-3.4610130">
        <ele>1421.0</ele>
        <time>2022-07-30T18:01:14Z</time>
      </trkpt>
      <trkpt lat="37.6940620" lon="-3.4610120">
        <ele>1421.0</ele>
        <time>2022-07-30T18:01:18Z</time>
      </trkpt>
      <trkpt lat="37.6940620" lon="-3.4610120">
        <ele>1421.0</ele>
        <time>2022-07-30T18:01:19Z</time>
      </trkpt>
      <trkpt lat="37.6940620" lon="-3.4610180">
        <ele>1421.0</ele>
        <time>2022-07-30T18:01:28Z</time>
      </trkpt>
      <trkpt lat="37.6940620" lon="-3.4610200">
        <ele>1421.1</ele>
        <time>2022-07-30T18:01:29Z</time>
      </trkpt>
      <trkpt lat="37.6940700" lon="-3.4610100">
        <ele>1421.2</ele>
        <time>2022-07-30T18:01:30Z</time>
      </trkpt>
      <trkpt lat="37.6941580" lon="-3.4609830">
        <ele>1422.4</ele>
        <time>2022-07-30T18:01:41Z</time>
      </trkpt>
      <trkpt lat="37.6942550" lon="-3.4609820">
        <ele>1423.8</ele>
        <time>2022-07-30T18:01:49Z</time>
      </trkpt>
      <trkpt lat="37.6943450" lon="-3.4609700">
        <ele>1425.1</ele>
        <time>2022-07-30T18:01:59Z</time>
      </trkpt>
      <trkpt lat="37.6944280" lon="-3.4609180">
        <ele>1426.4</ele>
        <time>2022-07-30T18:02:09Z</time>
      </trkpt>
      <trkpt lat="37.6945030" lon="-3.4608420">
        <ele>1427.6</ele>
        <time>2022-07-30T18:02:19Z</time>
      </trkpt>
      <trkpt lat="37.6945600" lon="-3.4607480">
        <ele>1428.8</ele>
        <time>2022-07-30T18:02:29Z</time>
      </trkpt>
      <trkpt lat="37.6945950" lon="-3.4606320">
        <ele>1430.2</ele>
        <time>2022-07-30T18:02:42Z</time>
      </trkpt>
      <trkpt lat="37.6946770" lon="-3.4605520">
        <ele>1431.6</ele>
        <time>2022-07-30T18:02:48Z</time>
      </trkpt>
      <trkpt lat="37.6947630" lon="-3.4605830">
        <ele>1432.7</ele>
        <time>2022-07-30T18:02:57Z</time>
      </trkpt>
      <trkpt lat="37.6947870" lon="-3.4607000">
        <ele>1433.9</ele>
        <time>2022-07-30T18:03:09Z</time>
      </trkpt>
      <trkpt lat="37.6948000" lon="-3.4608250">
        <ele>1435.0</ele>
        <time>2022-07-30T18:03:22Z</time>
      </trkpt>
      <trkpt lat="37.6947830" lon="-3.4609450">
        <ele>1436.1</ele>
        <time>2022-07-30T18:03:30Z</time>
      </trkpt>
      <trkpt lat="37.6947630" lon="-3.4610600">
        <ele>1437.2</ele>
        <time>2022-07-30T18:03:39Z</time>
      </trkpt>
      <trkpt lat="37.6947400" lon="-3.4611770">
        <ele>1438.4</ele>
        <time>2022-07-30T18:03:45Z</time>
      </trkpt>
      <trkpt lat="37.6947280" lon="-3.4613000">
        <ele>1439.6</ele>
        <time>2022-07-30T18:03:52Z</time>
      </trkpt>
      <trkpt lat="37.6947300" lon="-3.4614270">
        <ele>1441.1</ele>
        <time>2022-07-30T18:04:01Z</time>
      </trkpt>
      <trkpt lat="37.6947130" lon="-3.4615470">
        <ele>1442.6</ele>
        <time>2022-07-30T18:04:10Z</time>
      </trkpt>
      <trkpt lat="37.6946920" lon="-3.4616670">
        <ele>1444.4</ele>
        <time>2022-07-30T18:04:18Z</time>
      </trkpt>
      <trkpt lat="37.6947050" lon="-3.4617950">
        <ele>1446.3</ele>
        <time>2022-07-30T18:04:27Z</time>
      </trkpt>
      <trkpt lat="37.6947370" lon="-3.4619050">
        <ele>1447.6</ele>
        <time>2022-07-30T18:04:35Z</time>
      </trkpt>
      <trkpt lat="37.6947630" lon="-3.4620220">
        <ele>1448.8</ele>
        <time>2022-07-30T18:04:45Z</time>
      </trkpt>
      <trkpt lat="37.6948100" lon="-3.4621270">
        <ele>1450.0</ele>
        <time>2022-07-30T18:04:52Z</time>
      </trkpt>
      <trkpt lat="37.6948680" lon="-3.4622380">
        <ele>1451.3</ele>
        <time>2022-07-30T18:05:02Z</time>
      </trkpt>
      <trkpt lat="37.6949330" lon="-3.4623300">
        <ele>1452.5</ele>
        <time>2022-07-30T18:05:10Z</time>
      </trkpt>
      <trkpt lat="37.6949600" lon="-3.4624430">
        <ele>1453.6</ele>
        <time>2022-07-30T18:05:25Z</time>
      </trkpt>
      <trkpt lat="37.6949670" lon="-3.4625630">
        <ele>1454.8</ele>
        <time>2022-07-30T18:05:40Z</time>
      </trkpt>
      <trkpt lat="37.6949370" lon="-3.4626730">
        <ele>1455.8</ele>
        <time>2022-07-30T18:05:50Z</time>
      </trkpt>
      <trkpt lat="37.6948630" lon="-3.4627520">
        <ele>1456.9</ele>
        <time>2022-07-30T18:05:59Z</time>
      </trkpt>
      <trkpt lat="37.6947800" lon="-3.4628100">
        <ele>1457.9</ele>
        <time>2022-07-30T18:06:04Z</time>
      </trkpt>
      <trkpt lat="37.6947320" lon="-3.4627030">
        <ele>1458.7</ele>
        <time>2022-07-30T18:06:14Z</time>
      </trkpt>
      <trkpt lat="37.6947170" lon="-3.4626630">
        <ele>1459.0</ele>
        <time>2022-07-30T18:06:20Z</time>
      </trkpt>
      <trkpt lat="37.6947130" lon="-3.4626600">
        <ele>1459.1</ele>
        <time>2022-07-30T18:06:22Z</time>
      </trkpt>
      <trkpt lat="37.6946500" lon="-3.4625750">
        <ele>1459.9</ele>
        <time>2022-07-30T18:06:28Z</time>
      </trkpt>
      <trkpt lat="37.6945680" lon="-3.4625150">
        <ele>1460.7</ele>
        <time>2022-07-30T18:06:34Z</time>
      </trkpt>
      <trkpt lat="37.6944780" lon="-3.4625030">
        <ele>1461.6</ele>
        <time>2022-07-30T18:06:42Z</time>
      </trkpt>
      <trkpt lat="37.6943880" lon="-3.4625320">
        <ele>1462.4</ele>
        <time>2022-07-30T18:06:50Z</time>
      </trkpt>
      <trkpt lat="37.6943370" lon="-3.4626370">
        <ele>1463.4</ele>
        <time>2022-07-30T18:06:57Z</time>
      </trkpt>
      <trkpt lat="37.6943570" lon="-3.4627620">
        <ele>1464.2</ele>
        <time>2022-07-30T18:07:06Z</time>
      </trkpt>
      <trkpt lat="37.6943920" lon="-3.4628700">
        <ele>1465.0</ele>
        <time>2022-07-30T18:07:13Z</time>
      </trkpt>
      <trkpt lat="37.6944270" lon="-3.4630000">
        <ele>1466.0</ele>
        <time>2022-07-30T18:07:21Z</time>
      </trkpt>
      <trkpt lat="37.6944830" lon="-3.4631100">
        <ele>1466.9</ele>
        <time>2022-07-30T18:07:32Z</time>
      </trkpt>
      <trkpt lat="37.6944900" lon="-3.4632180">
        <ele>1467.8</ele>
        <time>2022-07-30T18:07:42Z</time>
      </trkpt>
      <trkpt lat="37.6944920" lon="-3.4632180">
        <ele>1467.8</ele>
        <time>2022-07-30T18:07:43Z</time>
      </trkpt>
      <trkpt lat="37.6945250" lon="-3.4633300">
        <ele>1468.7</ele>
        <time>2022-07-30T18:07:55Z</time>
      </trkpt>
      <trkpt lat="37.6945200" lon="-3.4634620">
        <ele>1469.8</ele>
        <time>2022-07-30T18:08:04Z</time>
      </trkpt>
      <trkpt lat="37.6944900" lon="-3.4635820">
        <ele>1470.9</ele>
        <time>2022-07-30T18:08:09Z</time>
      </trkpt>
      <trkpt lat="37.6944780" lon="-3.4637070">
        <ele>1472.0</ele>
        <time>2022-07-30T18:08:16Z</time>
      </trkpt>
      <trkpt lat="37.6944720" lon="-3.4638250">
        <ele>1473.2</ele>
        <time>2022-07-30T18:08:25Z</time>
      </trkpt>
      <trkpt lat="37.6944970" lon="-3.4639400">
        <ele>1474.3</ele>
        <time>2022-07-30T18:08:33Z</time>
      </trkpt>
      <trkpt lat="37.6944970" lon="-3.4640600">
        <ele>1475.3</ele>
        <time>2022-07-30T18:08:58Z</time>
      </trkpt>
      <trkpt lat="37.6945880" lon="-3.4640920">
        <ele>1476.3</ele>
        <time>2022-07-30T18:09:13Z</time>
      </trkpt>
      <trkpt lat="37.6946730" lon="-3.4641550">
        <ele>1477.2</ele>
        <time>2022-07-30T18:09:23Z</time>
      </trkpt>
      <trkpt lat="37.6947620" lon="-3.4642000">
        <ele>1478.1</ele>
        <time>2022-07-30T18:09:34Z</time>
      </trkpt>
      <trkpt lat="37.6948620" lon="-3.4642150">
        <ele>1479.0</ele>
        <time>2022-07-30T18:09:45Z</time>
      </trkpt>
      <trkpt lat="37.6949480" lon="-3.4642630">
        <ele>1479.9</ele>
        <time>2022-07-30T18:09:53Z</time>
      </trkpt>
      <trkpt lat="37.6950400" lon="-3.4642850">
        <ele>1480.9</ele>
        <time>2022-07-30T18:10:03Z</time>
      </trkpt>
      <trkpt lat="37.6951420" lon="-3.4643080">
        <ele>1481.9</ele>
        <time>2022-07-30T18:10:12Z</time>
      </trkpt>
      <trkpt lat="37.6952080" lon="-3.4643950">
        <ele>1482.9</ele>
        <time>2022-07-30T18:10:20Z</time>
      </trkpt>
      <trkpt lat="37.6952920" lon="-3.4644420">
        <ele>1483.9</ele>
        <time>2022-07-30T18:10:29Z</time>
      </trkpt>
      <trkpt lat="37.6953580" lon="-3.4645250">
        <ele>1484.9</ele>
        <time>2022-07-30T18:10:39Z</time>
      </trkpt>
      <trkpt lat="37.6954450" lon="-3.4645680">
        <ele>1485.9</ele>
        <time>2022-07-30T18:10:49Z</time>
      </trkpt>
      <trkpt lat="37.6955080" lon="-3.4646170">
        <ele>1486.7</ele>
        <time>2022-07-30T18:11:01Z</time>
      </trkpt>
      <trkpt lat="37.6955080" lon="-3.4646150">
        <ele>1486.8</ele>
        <time>2022-07-30T18:11:02Z</time>
      </trkpt>
      <trkpt lat="37.6955950" lon="-3.4646700">
        <ele>1488.1</ele>
        <time>2022-07-30T18:11:11Z</time>
      </trkpt>
      <trkpt lat="37.6956850" lon="-3.4646420">
        <ele>1489.2</ele>
        <time>2022-07-30T18:11:20Z</time>
      </trkpt>
      <trkpt lat="37.6957570" lon="-3.4645580">
        <ele>1490.3</ele>
        <time>2022-07-30T18:11:27Z</time>
      </trkpt>
      <trkpt lat="37.6958350" lon="-3.4644770">
        <ele>1491.4</ele>
        <time>2022-07-30T18:11:37Z</time>
      </trkpt>
      <trkpt lat="37.6959270" lon="-3.4644480">
        <ele>1492.5</ele>
        <time>2022-07-30T18:11:47Z</time>
      </trkpt>
      <trkpt lat="37.6960120" lon="-3.4644070">
        <ele>1493.6</ele>
        <time>2022-07-30T18:11:59Z</time>
      </trkpt>
      <trkpt lat="37.6961080" lon="-3.4643820">
        <ele>1494.7</ele>
        <time>2022-07-30T18:12:09Z</time>
      </trkpt>
      <trkpt lat="37.6962030" lon="-3.4643970">
        <ele>1495.8</ele>
        <time>2022-07-30T18:12:17Z</time>
      </trkpt>
      <trkpt lat="37.6963100" lon="-3.4644230">
        <ele>1497.2</ele>
        <time>2022-07-30T18:12:25Z</time>
      </trkpt>
      <trkpt lat="37.6963900" lon="-3.4644900">
        <ele>1498.3</ele>
        <time>2022-07-30T18:12:32Z</time>
      </trkpt>
      <trkpt lat="37.6964550" lon="-3.4645780">
        <ele>1499.3</ele>
        <time>2022-07-30T18:12:41Z</time>
      </trkpt>
      <trkpt lat="37.6965420" lon="-3.4646400">
        <ele>1500.4</ele>
        <time>2022-07-30T18:12:49Z</time>
      </trkpt>
      <trkpt lat="37.6966300" lon="-3.4646720">
        <ele>1501.4</ele>
        <time>2022-07-30T18:12:57Z</time>
      </trkpt>
      <trkpt lat="37.6967220" lon="-3.4646800">
        <ele>1502.4</ele>
        <time>2022-07-30T18:13:05Z</time>
      </trkpt>
      <trkpt lat="37.6968130" lon="-3.4647000">
        <ele>1503.3</ele>
        <time>2022-07-30T18:13:12Z</time>
      </trkpt>
      <trkpt lat="37.6969030" lon="-3.4647230">
        <ele>1504.2</ele>
        <time>2022-07-30T18:13:20Z</time>
      </trkpt>
      <trkpt lat="37.6969900" lon="-3.4647730">
        <ele>1505.3</ele>
        <time>2022-07-30T18:13:29Z</time>
      </trkpt>
      <trkpt lat="37.6970800" lon="-3.4648300">
        <ele>1506.4</ele>
        <time>2022-07-30T18:13:37Z</time>
      </trkpt>
      <trkpt lat="37.6971730" lon="-3.4648650">
        <ele>1507.6</ele>
        <time>2022-07-30T18:13:46Z</time>
      </trkpt>
      <trkpt lat="37.6972600" lon="-3.4649220">
        <ele>1509.0</ele>
        <time>2022-07-30T18:13:54Z</time>
      </trkpt>
      <trkpt lat="37.6973470" lon="-3.4649680">
        <ele>1510.4</ele>
        <time>2022-07-30T18:14:03Z</time>
      </trkpt>
      <trkpt lat="37.6974370" lon="-3.4650100">
        <ele>1511.9</ele>
        <time>2022-07-30T18:14:12Z</time>
      </trkpt>
      <trkpt lat="37.6975300" lon="-3.4650530">
        <ele>1513.0</ele>
        <time>2022-07-30T18:14:19Z</time>
      </trkpt>
      <trkpt lat="37.6976300" lon="-3.4650550">
        <ele>1514.2</ele>
        <time>2022-07-30T18:14:27Z</time>
      </trkpt>
      <trkpt lat="37.6977230" lon="-3.4650550">
        <ele>1515.2</ele>
        <time>2022-07-30T18:14:35Z</time>
      </trkpt>
      <trkpt lat="37.6978150" lon="-3.4650780">
        <ele>1516.3</ele>
        <time>2022-07-30T18:14:44Z</time>
      </trkpt>
      <trkpt lat="37.6979080" lon="-3.4650780">
        <ele>1517.3</ele>
        <time>2022-07-30T18:14:51Z</time>
      </trkpt>
      <trkpt lat="37.6980020" lon="-3.4651080">
        <ele>1518.2</ele>
        <time>2022-07-30T18:15:00Z</time>
      </trkpt>
      <trkpt lat="37.6980930" lon="-3.4651420">
        <ele>1519.2</ele>
        <time>2022-07-30T18:15:09Z</time>
      </trkpt>
      <trkpt lat="37.6981830" lon="-3.4651650">
        <ele>1520.3</ele>
        <time>2022-07-30T18:15:18Z</time>
      </trkpt>
      <trkpt lat="37.6982770" lon="-3.4651880">
        <ele>1521.5</ele>
        <time>2022-07-30T18:15:31Z</time>
      </trkpt>
      <trkpt lat="37.6983750" lon="-3.4652130">
        <ele>1522.8</ele>
        <time>2022-07-30T18:15:39Z</time>
      </trkpt>
      <trkpt lat="37.6984470" lon="-3.4652280">
        <ele>1523.9</ele>
        <time>2022-07-30T18:15:50Z</time>
      </trkpt>
      <trkpt lat="37.6984530" lon="-3.4652300">
        <ele>1524.0</ele>
        <time>2022-07-30T18:15:56Z</time>
      </trkpt>
      <trkpt lat="37.6985430" lon="-3.4652630">
        <ele>1525.5</ele>
        <time>2022-07-30T18:16:07Z</time>
      </trkpt>
      <trkpt lat="37.6986320" lon="-3.4652970">
        <ele>1527.0</ele>
        <time>2022-07-30T18:16:18Z</time>
      </trkpt>
      <trkpt lat="37.6987200" lon="-3.4653320">
        <ele>1528.5</ele>
        <time>2022-07-30T18:16:26Z</time>
      </trkpt>
      <trkpt lat="37.6988120" lon="-3.4653800">
        <ele>1529.7</ele>
        <time>2022-07-30T18:16:35Z</time>
      </trkpt>
      <trkpt lat="37.6988950" lon="-3.4654420">
        <ele>1530.7</ele>
        <time>2022-07-30T18:16:43Z</time>
      </trkpt>
      <trkpt lat="37.6989770" lon="-3.4655020">
        <ele>1531.7</ele>
        <time>2022-07-30T18:16:52Z</time>
      </trkpt>
      <trkpt lat="37.6989820" lon="-3.4655280">
        <ele>1531.9</ele>
        <time>2022-07-30T18:17:11Z</time>
      </trkpt>
      <trkpt lat="37.6989830" lon="-3.4655300">
        <ele>1531.9</ele>
        <time>2022-07-30T18:17:34Z</time>
      </trkpt>
      <trkpt lat="37.6990780" lon="-3.4655580">
        <ele>1533.1</ele>
        <time>2022-07-30T18:17:45Z</time>
      </trkpt>
      <trkpt lat="37.6990680" lon="-3.4656120">
        <ele>1533.7</ele>
        <time>2022-07-30T18:18:09Z</time>
      </trkpt>
      <trkpt lat="37.6990680" lon="-3.4656130">
        <ele>1533.7</ele>
        <time>2022-07-30T18:18:12Z</time>
      </trkpt>
      <trkpt lat="37.6990700" lon="-3.4656130">
        <ele>1533.7</ele>
        <time>2022-07-30T18:18:14Z</time>
      </trkpt>
      <trkpt lat="37.6990730" lon="-3.4656130">
        <ele>1533.7</ele>
        <time>2022-07-30T18:18:17Z</time>
      </trkpt>
      <trkpt lat="37.6990730" lon="-3.4656130">
        <ele>1533.7</ele>
        <time>2022-07-30T18:18:18Z</time>
      </trkpt>
      <trkpt lat="37.6990770" lon="-3.4656120">
        <ele>1533.8</ele>
        <time>2022-07-30T18:18:23Z</time>
      </trkpt>
      <trkpt lat="37.6991720" lon="-3.4656470">
        <ele>1535.0</ele>
        <time>2022-07-30T18:18:32Z</time>
      </trkpt>
      <trkpt lat="37.6992580" lon="-3.4656780">
        <ele>1536.1</ele>
        <time>2022-07-30T18:18:41Z</time>
      </trkpt>
      <trkpt lat="37.6993570" lon="-3.4657000">
        <ele>1537.4</ele>
        <time>2022-07-30T18:18:52Z</time>
      </trkpt>
      <trkpt lat="37.6994450" lon="-3.4657380">
        <ele>1538.6</ele>
        <time>2022-07-30T18:19:03Z</time>
      </trkpt>
      <trkpt lat="37.6995350" lon="-3.4657820">
        <ele>1540.1</ele>
        <time>2022-07-30T18:19:13Z</time>
      </trkpt>
      <trkpt lat="37.6996270" lon="-3.4657930">
        <ele>1541.5</ele>
        <time>2022-07-30T18:19:22Z</time>
      </trkpt>
      <trkpt lat="37.6997250" lon="-3.4658320">
        <ele>1542.9</ele>
        <time>2022-07-30T18:19:32Z</time>
      </trkpt>
      <trkpt lat="37.6998050" lon="-3.4658830">
        <ele>1544.1</ele>
        <time>2022-07-30T18:19:42Z</time>
      </trkpt>
      <trkpt lat="37.6999020" lon="-3.4659220">
        <ele>1545.1</ele>
        <time>2022-07-30T18:19:50Z</time>
      </trkpt>
      <trkpt lat="37.7000030" lon="-3.4659470">
        <ele>1546.1</ele>
        <time>2022-07-30T18:19:58Z</time>
      </trkpt>
      <trkpt lat="37.7001000" lon="-3.4659180">
        <ele>1547.2</ele>
        <time>2022-07-30T18:20:06Z</time>
      </trkpt>
      <trkpt lat="37.7002020" lon="-3.4658800">
        <ele>1548.6</ele>
        <time>2022-07-30T18:20:15Z</time>
      </trkpt>
      <trkpt lat="37.7002980" lon="-3.4658930">
        <ele>1549.9</ele>
        <time>2022-07-30T18:20:25Z</time>
      </trkpt>
      <trkpt lat="37.7003950" lon="-3.4659020">
        <ele>1551.2</ele>
        <time>2022-07-30T18:20:33Z</time>
      </trkpt>
      <trkpt lat="37.7004950" lon="-3.4659030">
        <ele>1552.5</ele>
        <time>2022-07-30T18:20:42Z</time>
      </trkpt>
      <trkpt lat="37.7005780" lon="-3.4659130">
        <ele>1553.6</ele>
        <time>2022-07-30T18:20:56Z</time>
      </trkpt>
      <trkpt lat="37.7005870" lon="-3.4659150">
        <ele>1553.7</ele>
        <time>2022-07-30T18:20:57Z</time>
      </trkpt>
      <trkpt lat="37.7006830" lon="-3.4659430">
        <ele>1554.9</ele>
        <time>2022-07-30T18:21:07Z</time>
      </trkpt>
      <trkpt lat="37.7007820" lon="-3.4659430">
        <ele>1556.1</ele>
        <time>2022-07-30T18:21:17Z</time>
      </trkpt>
      <trkpt lat="37.7008720" lon="-3.4658970">
        <ele>1557.2</ele>
        <time>2022-07-30T18:21:27Z</time>
      </trkpt>
      <trkpt lat="37.7009630" lon="-3.4658450">
        <ele>1558.2</ele>
        <time>2022-07-30T18:21:37Z</time>
      </trkpt>
      <trkpt lat="37.7010350" lon="-3.4657750">
        <ele>1559.3</ele>
        <time>2022-07-30T18:21:44Z</time>
      </trkpt>
      <trkpt lat="37.7011350" lon="-3.4657620">
        <ele>1560.4</ele>
        <time>2022-07-30T18:21:52Z</time>
      </trkpt>
      <trkpt lat="37.7012230" lon="-3.4657830">
        <ele>1561.4</ele>
        <time>2022-07-30T18:22:00Z</time>
      </trkpt>
      <trkpt lat="37.7013170" lon="-3.4658320">
        <ele>1562.5</ele>
        <time>2022-07-30T18:22:11Z</time>
      </trkpt>
      <trkpt lat="37.7013850" lon="-3.4659080">
        <ele>1563.4</ele>
        <time>2022-07-30T18:22:20Z</time>
      </trkpt>
      <trkpt lat="37.7014180" lon="-3.4660170">
        <ele>1564.2</ele>
        <time>2022-07-30T18:22:28Z</time>
      </trkpt>
      <trkpt lat="37.7014620" lon="-3.4661280">
        <ele>1565.0</ele>
        <time>2022-07-30T18:22:39Z</time>
      </trkpt>
      <trkpt lat="37.7014800" lon="-3.4662300">
        <ele>1565.7</ele>
        <time>2022-07-30T18:22:50Z</time>
      </trkpt>
      <trkpt lat="37.7014800" lon="-3.4662320">
        <ele>1565.7</ele>
        <time>2022-07-30T18:22:51Z</time>
      </trkpt>
      <trkpt lat="37.7015630" lon="-3.4662870">
        <ele>1566.5</ele>
        <time>2022-07-30T18:23:00Z</time>
      </trkpt>
      <trkpt lat="37.7016450" lon="-3.4663600">
        <ele>1567.2</ele>
        <time>2022-07-30T18:23:09Z</time>
      </trkpt>
      <trkpt lat="37.7016620" lon="-3.4663850">
        <ele>1567.4</ele>
        <time>2022-07-30T18:23:15Z</time>
      </trkpt>
      <trkpt lat="37.7016630" lon="-3.4663830">
        <ele>1567.4</ele>
        <time>2022-07-30T18:23:19Z</time>
      </trkpt>
      <trkpt lat="37.7016620" lon="-3.4663980">
        <ele>1567.4</ele>
        <time>2022-07-30T18:23:25Z</time>
      </trkpt>
      <trkpt lat="37.7016620" lon="-3.4663930">
        <ele>1567.4</ele>
        <time>2022-07-30T18:23:27Z</time>
      </trkpt>
      <trkpt lat="37.7016830" lon="-3.4663530">
        <ele>1567.6</ele>
        <time>2022-07-30T18:23:37Z</time>
      </trkpt>
      <trkpt lat="37.7016850" lon="-3.4663530">
        <ele>1567.6</ele>
        <time>2022-07-30T18:23:39Z</time>
      </trkpt>
      <trkpt lat="37.7016850" lon="-3.4663530">
        <ele>1567.6</ele>
        <time>2022-07-30T18:23:40Z</time>
      </trkpt>
      <trkpt lat="37.7016870" lon="-3.4663530">
        <ele>1567.6</ele>
        <time>2022-07-30T18:23:51Z</time>
      </trkpt>
      <trkpt lat="37.7017680" lon="-3.4662780">
        <ele>1568.0</ele>
        <time>2022-07-30T18:24:00Z</time>
      </trkpt>
      <trkpt lat="37.7018300" lon="-3.4661900">
        <ele>1568.3</ele>
        <time>2022-07-30T18:24:06Z</time>
      </trkpt>
      <trkpt lat="37.7018750" lon="-3.4660770">
        <ele>1568.6</ele>
        <time>2022-07-30T18:24:15Z</time>
      </trkpt>
      <trkpt lat="37.7019100" lon="-3.4659700">
        <ele>1568.9</ele>
        <time>2022-07-30T18:24:24Z</time>
      </trkpt>
      <trkpt lat="37.7019630" lon="-3.4658780">
        <ele>1569.2</ele>
        <time>2022-07-30T18:24:32Z</time>
      </trkpt>
      <trkpt lat="37.7020250" lon="-3.4657720">
        <ele>1569.5</ele>
        <time>2022-07-30T18:24:40Z</time>
      </trkpt>
      <trkpt lat="37.7020620" lon="-3.4656650">
        <ele>1569.8</ele>
        <time>2022-07-30T18:24:48Z</time>
      </trkpt>
      <trkpt lat="37.7021150" lon="-3.4655700">
        <ele>1570.0</ele>
        <time>2022-07-30T18:24:54Z</time>
      </trkpt>
      <trkpt lat="37.7021730" lon="-3.4654820">
        <ele>1570.2</ele>
        <time>2022-07-30T18:25:00Z</time>
      </trkpt>
      <trkpt lat="37.7021930" lon="-3.4653550">
        <ele>1570.4</ele>
        <time>2022-07-30T18:25:10Z</time>
      </trkpt>
      <trkpt lat="37.7022330" lon="-3.4652420">
        <ele>1570.6</ele>
        <time>2022-07-30T18:25:17Z</time>
      </trkpt>
      <trkpt lat="37.7022800" lon="-3.4651350">
        <ele>1570.9</ele>
        <time>2022-07-30T18:25:24Z</time>
      </trkpt>
      <trkpt lat="37.7023370" lon="-3.4650370">
        <ele>1571.1</ele>
        <time>2022-07-30T18:25:32Z</time>
      </trkpt>
      <trkpt lat="37.7024020" lon="-3.4649530">
        <ele>1571.4</ele>
        <time>2022-07-30T18:25:38Z</time>
      </trkpt>
      <trkpt lat="37.7024670" lon="-3.4648600">
        <ele>1571.7</ele>
        <time>2022-07-30T18:25:46Z</time>
      </trkpt>
      <trkpt lat="37.7025180" lon="-3.4647670">
        <ele>1571.9</ele>
        <time>2022-07-30T18:25:53Z</time>
      </trkpt>
      <trkpt lat="37.7025820" lon="-3.4646770">
        <ele>1572.2</ele>
        <time>2022-07-30T18:26:00Z</time>
      </trkpt>
      <trkpt lat="37.7026430" lon="-3.4645900">
        <ele>1572.5</ele>
        <time>2022-07-30T18:26:08Z</time>
      </trkpt>
      <trkpt lat="37.7027130" lon="-3.4645020">
        <ele>1572.7</ele>
        <time>2022-07-30T18:26:16Z</time>
      </trkpt>
      <trkpt lat="37.7027930" lon="-3.4644300">
        <ele>1572.9</ele>
        <time>2022-07-30T18:26:25Z</time>
      </trkpt>
      <trkpt lat="37.7028770" lon="-3.4643720">
        <ele>1573.1</ele>
        <time>2022-07-30T18:26:34Z</time>
      </trkpt>
      <trkpt lat="37.7029520" lon="-3.4643050">
        <ele>1573.3</ele>
        <time>2022-07-30T18:26:42Z</time>
      </trkpt>
      <trkpt lat="37.7030230" lon="-3.4642120">
        <ele>1573.5</ele>
        <time>2022-07-30T18:26:51Z</time>
      </trkpt>
      <trkpt lat="37.7030980" lon="-3.4641370">
        <ele>1573.6</ele>
        <time>2022-07-30T18:26:59Z</time>
      </trkpt>
      <trkpt lat="37.7031780" lon="-3.4640630">
        <ele>1573.9</ele>
        <time>2022-07-30T18:27:07Z</time>
      </trkpt>
      <trkpt lat="37.7032620" lon="-3.4640070">
        <ele>1574.1</ele>
        <time>2022-07-30T18:27:16Z</time>
      </trkpt>
      <trkpt lat="37.7033550" lon="-3.4639800">
        <ele>1574.5</ele>
        <time>2022-07-30T18:27:24Z</time>
      </trkpt>
      <trkpt lat="37.7034500" lon="-3.4639750">
        <ele>1574.9</ele>
        <time>2022-07-30T18:27:32Z</time>
      </trkpt>
      <trkpt lat="37.7035400" lon="-3.4639820">
        <ele>1575.3</ele>
        <time>2022-07-30T18:27:39Z</time>
      </trkpt>
      <trkpt lat="37.7036420" lon="-3.4639970">
        <ele>1575.7</ele>
        <time>2022-07-30T18:27:46Z</time>
      </trkpt>
      <trkpt lat="37.7037420" lon="-3.4640000">
        <ele>1576.1</ele>
        <time>2022-07-30T18:27:53Z</time>
      </trkpt>
      <trkpt lat="37.7038320" lon="-3.4639980">
        <ele>1576.3</ele>
        <time>2022-07-30T18:27:59Z</time>
      </trkpt>
      <trkpt lat="37.7039320" lon="-3.4639950">
        <ele>1576.6</ele>
        <time>2022-07-30T18:28:07Z</time>
      </trkpt>
      <trkpt lat="37.7040270" lon="-3.4639980">
        <ele>1576.9</ele>
        <time>2022-07-30T18:28:16Z</time>
      </trkpt>
      <trkpt lat="37.7041230" lon="-3.4640350">
        <ele>1577.2</ele>
        <time>2022-07-30T18:28:24Z</time>
      </trkpt>
      <trkpt lat="37.7042150" lon="-3.4640380">
        <ele>1577.6</ele>
        <time>2022-07-30T18:28:32Z</time>
      </trkpt>
      <trkpt lat="37.7043100" lon="-3.4640520">
        <ele>1578.1</ele>
        <time>2022-07-30T18:28:39Z</time>
      </trkpt>
      <trkpt lat="37.7044020" lon="-3.4640670">
        <ele>1578.5</ele>
        <time>2022-07-30T18:28:45Z</time>
      </trkpt>
      <trkpt lat="37.7044930" lon="-3.4640720">
        <ele>1579.0</ele>
        <time>2022-07-30T18:28:51Z</time>
      </trkpt>
      <trkpt lat="37.7045930" lon="-3.4640900">
        <ele>1579.4</ele>
        <time>2022-07-30T18:28:59Z</time>
      </trkpt>
      <trkpt lat="37.7046900" lon="-3.4640820">
        <ele>1579.8</ele>
        <time>2022-07-30T18:29:06Z</time>
      </trkpt>
      <trkpt lat="37.7047800" lon="-3.4640780">
        <ele>1580.2</ele>
        <time>2022-07-30T18:29:13Z</time>
      </trkpt>
      <trkpt lat="37.7048700" lon="-3.4640850">
        <ele>1580.5</ele>
        <time>2022-07-30T18:29:21Z</time>
      </trkpt>
      <trkpt lat="37.7049700" lon="-3.4640600">
        <ele>1580.9</ele>
        <time>2022-07-30T18:29:27Z</time>
      </trkpt>
      <trkpt lat="37.7050620" lon="-3.4640550">
        <ele>1581.2</ele>
        <time>2022-07-30T18:29:38Z</time>
      </trkpt>
      <trkpt lat="37.7051570" lon="-3.4640230">
        <ele>1581.6</ele>
        <time>2022-07-30T18:29:47Z</time>
      </trkpt>
      <trkpt lat="37.7052250" lon="-3.4639420">
        <ele>1582.0</ele>
        <time>2022-07-30T18:29:56Z</time>
      </trkpt>
      <trkpt lat="37.7052850" lon="-3.4638870">
        <ele>1582.3</ele>
        <time>2022-07-30T18:30:14Z</time>
      </trkpt>
      <trkpt lat="37.7052870" lon="-3.4638870">
        <ele>1582.3</ele>
        <time>2022-07-30T18:30:15Z</time>
      </trkpt>
      <trkpt lat="37.7052950" lon="-3.4638830">
        <ele>1582.3</ele>
        <time>2022-07-30T18:30:19Z</time>
      </trkpt>
      <trkpt lat="37.7052950" lon="-3.4638800">
        <ele>1582.3</ele>
        <time>2022-07-30T18:30:23Z</time>
      </trkpt>
      <trkpt lat="37.7052950" lon="-3.4638820">
        <ele>1582.3</ele>
        <time>2022-07-30T18:30:25Z</time>
      </trkpt>
      <trkpt lat="37.7052950" lon="-3.4638800">
        <ele>1582.3</ele>
        <time>2022-07-30T18:30:32Z</time>
      </trkpt>
      <trkpt lat="37.7052950" lon="-3.4638800">
        <ele>1582.3</ele>
        <time>2022-07-30T18:30:33Z</time>
      </trkpt>
      <trkpt lat="37.7052930" lon="-3.4638780">
        <ele>1582.3</ele>
        <time>2022-07-30T18:30:43Z</time>
      </trkpt>
      <trkpt lat="37.7052700" lon="-3.4638600">
        <ele>1582.4</ele>
        <time>2022-07-30T18:30:50Z</time>
      </trkpt>
      <trkpt lat="37.7052700" lon="-3.4638580">
        <ele>1582.4</ele>
        <time>2022-07-30T18:30:51Z</time>
      </trkpt>
      <trkpt lat="37.7052700" lon="-3.4638580">
        <ele>1582.4</ele>
        <time>2022-07-30T18:30:54Z</time>
      </trkpt>
      <trkpt lat="37.7052670" lon="-3.4638600">
        <ele>1582.5</ele>
        <time>2022-07-30T18:30:55Z</time>
      </trkpt>
      <trkpt lat="37.7052670" lon="-3.4638600">
        <ele>1582.5</ele>
        <time>2022-07-30T18:30:56Z</time>
      </trkpt>
      <trkpt lat="37.7052680" lon="-3.4638580">
        <ele>1582.5</ele>
        <time>2022-07-30T18:31:00Z</time>
      </trkpt>
      <trkpt lat="37.7052720" lon="-3.4638570">
        <ele>1582.5</ele>
        <time>2022-07-30T18:31:02Z</time>
      </trkpt>
      <trkpt lat="37.7052730" lon="-3.4638570">
        <ele>1582.5</ele>
        <time>2022-07-30T18:31:04Z</time>
      </trkpt>
      <trkpt lat="37.7052850" lon="-3.4638970">
        <ele>1582.6</ele>
        <time>2022-07-30T18:31:31Z</time>
      </trkpt>
      <trkpt lat="37.7052870" lon="-3.4638980">
        <ele>1582.6</ele>
        <time>2022-07-30T18:31:34Z</time>
      </trkpt>
      <trkpt lat="37.7052900" lon="-3.4640200">
        <ele>1582.9</ele>
        <time>2022-07-30T18:31:48Z</time>
      </trkpt>
      <trkpt lat="37.7053830" lon="-3.4640400">
        <ele>1583.0</ele>
        <time>2022-07-30T18:31:59Z</time>
      </trkpt>
      <trkpt lat="37.7054780" lon="-3.4639800">
        <ele>1583.0</ele>
        <time>2022-07-30T18:32:09Z</time>
      </trkpt>
      <trkpt lat="37.7054970" lon="-3.4639700">
        <ele>1583.0</ele>
        <time>2022-07-30T18:32:14Z</time>
      </trkpt>
      <trkpt lat="37.7054980" lon="-3.4639700">
        <ele>1583.0</ele>
        <time>2022-07-30T18:32:19Z</time>
      </trkpt>
      <trkpt lat="37.7054180" lon="-3.4639080">
        <ele>1583.0</ele>
        <time>2022-07-30T18:32:36Z</time>
      </trkpt>
      <trkpt lat="37.7053500" lon="-3.4638330">
        <ele>1582.8</ele>
        <time>2022-07-30T18:32:46Z</time>
      </trkpt>
      <trkpt lat="37.7053180" lon="-3.4637050">
        <ele>1582.6</ele>
        <time>2022-07-30T18:32:53Z</time>
      </trkpt>
      <trkpt lat="37.7053000" lon="-3.4635800">
        <ele>1582.2</ele>
        <time>2022-07-30T18:33:00Z</time>
      </trkpt>
      <trkpt lat="37.7052800" lon="-3.4634500">
        <ele>1581.9</ele>
        <time>2022-07-30T18:33:07Z</time>
      </trkpt>
      <trkpt lat="37.7052650" lon="-3.4633280">
        <ele>1581.6</ele>
        <time>2022-07-30T18:33:14Z</time>
      </trkpt>
      <trkpt lat="37.7052830" lon="-3.4632020">
        <ele>1581.3</ele>
        <time>2022-07-30T18:33:22Z</time>
      </trkpt>
      <trkpt lat="37.7053020" lon="-3.4630880">
        <ele>1581.1</ele>
        <time>2022-07-30T18:33:29Z</time>
      </trkpt>
      <trkpt lat="37.7053400" lon="-3.4629830">
        <ele>1580.8</ele>
        <time>2022-07-30T18:33:36Z</time>
      </trkpt>
      <trkpt lat="37.7053520" lon="-3.4628700">
        <ele>1580.4</ele>
        <time>2022-07-30T18:33:42Z</time>
      </trkpt>
      <trkpt lat="37.7053270" lon="-3.4627530">
        <ele>1580.1</ele>
        <time>2022-07-30T18:33:50Z</time>
      </trkpt>
      <trkpt lat="37.7053480" lon="-3.4626370">
        <ele>1579.7</ele>
        <time>2022-07-30T18:33:57Z</time>
      </trkpt>
      <trkpt lat="37.7054430" lon="-3.4625730">
        <ele>1579.3</ele>
        <time>2022-07-30T18:34:05Z</time>
      </trkpt>
      <trkpt lat="37.7055320" lon="-3.4625470">
        <ele>1578.9</ele>
        <time>2022-07-30T18:34:11Z</time>
      </trkpt>
      <trkpt lat="37.7056170" lon="-3.4624850">
        <ele>1578.5</ele>
        <time>2022-07-30T18:34:20Z</time>
      </trkpt>
      <trkpt lat="37.7057100" lon="-3.4624330">
        <ele>1578.1</ele>
        <time>2022-07-30T18:34:27Z</time>
      </trkpt>
      <trkpt lat="37.7057900" lon="-3.4623620">
        <ele>1577.7</ele>
        <time>2022-07-30T18:34:34Z</time>
      </trkpt>
      <trkpt lat="37.7058880" lon="-3.4623280">
        <ele>1577.4</ele>
        <time>2022-07-30T18:34:43Z</time>
      </trkpt>
      <trkpt lat="37.7059780" lon="-3.4622880">
        <ele>1577.0</ele>
        <time>2022-07-30T18:34:50Z</time>
      </trkpt>
      <trkpt lat="37.7060600" lon="-3.4622300">
        <ele>1576.7</ele>
        <time>2022-07-30T18:34:56Z</time>
      </trkpt>
      <trkpt lat="37.7061450" lon="-3.4621620">
        <ele>1576.3</ele>
        <time>2022-07-30T18:35:01Z</time>
      </trkpt>
      <trkpt lat="37.7062150" lon="-3.4620820">
        <ele>1576.0</ele>
        <time>2022-07-30T18:35:07Z</time>
      </trkpt>
      <trkpt lat="37.7062600" lon="-3.4619800">
        <ele>1575.8</ele>
        <time>2022-07-30T18:35:14Z</time>
      </trkpt>
      <trkpt lat="37.7063050" lon="-3.4618700">
        <ele>1575.5</ele>
        <time>2022-07-30T18:35:21Z</time>
      </trkpt>
      <trkpt lat="37.7063600" lon="-3.4617750">
        <ele>1575.2</ele>
        <time>2022-07-30T18:35:28Z</time>
      </trkpt>
      <trkpt lat="37.7063820" lon="-3.4616620">
        <ele>1574.8</ele>
        <time>2022-07-30T18:35:35Z</time>
      </trkpt>
      <trkpt lat="37.7064480" lon="-3.4615680">
        <ele>1574.3</ele>
        <time>2022-07-30T18:35:44Z</time>
      </trkpt>
      <trkpt lat="37.7065420" lon="-3.4615130">
        <ele>1573.8</ele>
        <time>2022-07-30T18:35:51Z</time>
      </trkpt>
      <trkpt lat="37.7066330" lon="-3.4615030">
        <ele>1573.2</ele>
        <time>2022-07-30T18:35:57Z</time>
      </trkpt>
      <trkpt lat="37.7067270" lon="-3.4615280">
        <ele>1572.8</ele>
        <time>2022-07-30T18:36:02Z</time>
      </trkpt>
      <trkpt lat="37.7068120" lon="-3.4615770">
        <ele>1572.4</ele>
        <time>2022-07-30T18:36:08Z</time>
      </trkpt>
      <trkpt lat="37.7069070" lon="-3.4616200">
        <ele>1572.0</ele>
        <time>2022-07-30T18:36:16Z</time>
      </trkpt>
      <trkpt lat="37.7070030" lon="-3.4616580">
        <ele>1571.7</ele>
        <time>2022-07-30T18:36:25Z</time>
      </trkpt>
      <trkpt lat="37.7071050" lon="-3.4616750">
        <ele>1571.4</ele>
        <time>2022-07-30T18:36:32Z</time>
      </trkpt>
      <trkpt lat="37.7071980" lon="-3.4616970">
        <ele>1571.2</ele>
        <time>2022-07-30T18:36:38Z</time>
      </trkpt>
      <trkpt lat="37.7072970" lon="-3.4617070">
        <ele>1571.0</ele>
        <time>2022-07-30T18:36:45Z</time>
      </trkpt>
      <trkpt lat="37.7073880" lon="-3.4616880">
        <ele>1570.8</ele>
        <time>2022-07-30T18:36:56Z</time>
      </trkpt>
      <trkpt lat="37.7074800" lon="-3.4616820">
        <ele>1570.6</ele>
        <time>2022-07-30T18:37:03Z</time>
      </trkpt>
      <trkpt lat="37.7075620" lon="-3.4616330">
        <ele>1570.3</ele>
        <time>2022-07-30T18:37:10Z</time>
      </trkpt>
      <trkpt lat="37.7076530" lon="-3.4615720">
        <ele>1569.9</ele>
        <time>2022-07-30T18:37:17Z</time>
      </trkpt>
      <trkpt lat="37.7077500" lon="-3.4615300">
        <ele>1569.6</ele>
        <time>2022-07-30T18:37:22Z</time>
      </trkpt>
      <trkpt lat="37.7078330" lon="-3.4614780">
        <ele>1569.4</ele>
        <time>2022-07-30T18:37:30Z</time>
      </trkpt>
      <trkpt lat="37.7079130" lon="-3.4615420">
        <ele>1569.4</ele>
        <time>2022-07-30T18:37:38Z</time>
      </trkpt>
      <trkpt lat="37.7079550" lon="-3.4616570">
        <ele>1569.6</ele>
        <time>2022-07-30T18:37:46Z</time>
      </trkpt>
      <trkpt lat="37.7079920" lon="-3.4617750">
        <ele>1569.8</ele>
        <time>2022-07-30T18:37:53Z</time>
      </trkpt>
      <trkpt lat="37.7080620" lon="-3.4618530">
        <ele>1570.2</ele>
        <time>2022-07-30T18:37:59Z</time>
      </trkpt>
      <trkpt lat="37.7081300" lon="-3.4619350">
        <ele>1570.5</ele>
        <time>2022-07-30T18:38:05Z</time>
      </trkpt>
      <trkpt lat="37.7082150" lon="-3.4619820">
        <ele>1570.8</ele>
        <time>2022-07-30T18:38:12Z</time>
      </trkpt>
      <trkpt lat="37.7082880" lon="-3.4620550">
        <ele>1571.2</ele>
        <time>2022-07-30T18:38:19Z</time>
      </trkpt>
      <trkpt lat="37.7083620" lon="-3.4621250">
        <ele>1571.6</ele>
        <time>2022-07-30T18:38:26Z</time>
      </trkpt>
      <trkpt lat="37.7084400" lon="-3.4621920">
        <ele>1572.1</ele>
        <time>2022-07-30T18:38:35Z</time>
      </trkpt>
      <trkpt lat="37.7085330" lon="-3.4622320">
        <ele>1572.7</ele>
        <time>2022-07-30T18:38:42Z</time>
      </trkpt>
      <trkpt lat="37.7086200" lon="-3.4622970">
        <ele>1573.2</ele>
        <time>2022-07-30T18:38:49Z</time>
      </trkpt>
      <trkpt lat="37.7086970" lon="-3.4623730">
        <ele>1573.8</ele>
        <time>2022-07-30T18:38:56Z</time>
      </trkpt>
      <trkpt lat="37.7087680" lon="-3.4624500">
        <ele>1574.2</ele>
        <time>2022-07-30T18:39:04Z</time>
      </trkpt>
      <trkpt lat="37.7088380" lon="-3.4625480">
        <ele>1574.8</ele>
        <time>2022-07-30T18:39:12Z</time>
      </trkpt>
      <trkpt lat="37.7088950" lon="-3.4626430">
        <ele>1575.4</ele>
        <time>2022-07-30T18:39:18Z</time>
      </trkpt>
      <trkpt lat="37.7089680" lon="-3.4627180">
        <ele>1576.0</ele>
        <time>2022-07-30T18:39:25Z</time>
      </trkpt>
      <trkpt lat="37.7090600" lon="-3.4627820">
        <ele>1576.7</ele>
        <time>2022-07-30T18:39:33Z</time>
      </trkpt>
      <trkpt lat="37.7091480" lon="-3.4628050">
        <ele>1577.2</ele>
        <time>2022-07-30T18:39:38Z</time>
      </trkpt>
      <trkpt lat="37.7092520" lon="-3.4628330">
        <ele>1577.6</ele>
        <time>2022-07-30T18:39:43Z</time>
      </trkpt>
      <trkpt lat="37.7093370" lon="-3.4627630">
        <ele>1578.0</ele>
        <time>2022-07-30T18:39:52Z</time>
      </trkpt>
      <trkpt lat="37.7094330" lon="-3.4627230">
        <ele>1578.4</ele>
        <time>2022-07-30T18:40:00Z</time>
      </trkpt>
      <trkpt lat="37.7095270" lon="-3.4626730">
        <ele>1578.8</ele>
        <time>2022-07-30T18:40:08Z</time>
      </trkpt>
      <trkpt lat="37.7096120" lon="-3.4626330">
        <ele>1579.2</ele>
        <time>2022-07-30T18:40:16Z</time>
      </trkpt>
      <trkpt lat="37.7097070" lon="-3.4626330">
        <ele>1579.6</ele>
        <time>2022-07-30T18:40:23Z</time>
      </trkpt>
      <trkpt lat="37.7098050" lon="-3.4626300">
        <ele>1580.0</ele>
        <time>2022-07-30T18:40:30Z</time>
      </trkpt>
      <trkpt lat="37.7099080" lon="-3.4626400">
        <ele>1580.5</ele>
        <time>2022-07-30T18:40:36Z</time>
      </trkpt>
      <trkpt lat="37.7100030" lon="-3.4626550">
        <ele>1581.0</ele>
        <time>2022-07-30T18:40:43Z</time>
      </trkpt>
      <trkpt lat="37.7100900" lon="-3.4627220">
        <ele>1581.7</ele>
        <time>2022-07-30T18:40:50Z</time>
      </trkpt>
      <trkpt lat="37.7101520" lon="-3.4628050">
        <ele>1582.4</ele>
        <time>2022-07-30T18:40:58Z</time>
      </trkpt>
      <trkpt lat="37.7102370" lon="-3.4628580">
        <ele>1583.1</ele>
        <time>2022-07-30T18:41:06Z</time>
      </trkpt>
      <trkpt lat="37.7103230" lon="-3.4629030">
        <ele>1583.7</ele>
        <time>2022-07-30T18:41:13Z</time>
      </trkpt>
      <trkpt lat="37.7104050" lon="-3.4629700">
        <ele>1584.5</ele>
        <time>2022-07-30T18:41:21Z</time>
      </trkpt>
      <trkpt lat="37.7104870" lon="-3.4630370">
        <ele>1585.2</ele>
        <time>2022-07-30T18:41:28Z</time>
      </trkpt>
      <trkpt lat="37.7105620" lon="-3.4631230">
        <ele>1586.0</ele>
        <time>2022-07-30T18:41:36Z</time>
      </trkpt>
      <trkpt lat="37.7106370" lon="-3.4631970">
        <ele>1587.0</ele>
        <time>2022-07-30T18:41:43Z</time>
      </trkpt>
      <trkpt lat="37.7107230" lon="-3.4632620">
        <ele>1588.0</ele>
        <time>2022-07-30T18:41:52Z</time>
      </trkpt>
      <trkpt lat="37.7107880" lon="-3.4633430">
        <ele>1588.8</ele>
        <time>2022-07-30T18:41:59Z</time>
      </trkpt>
      <trkpt lat="37.7108500" lon="-3.4634350">
        <ele>1589.7</ele>
        <time>2022-07-30T18:42:06Z</time>
      </trkpt>
      <trkpt lat="37.7109150" lon="-3.4635180">
        <ele>1590.4</ele>
        <time>2022-07-30T18:42:12Z</time>
      </trkpt>
      <trkpt lat="37.7109750" lon="-3.4636100">
        <ele>1591.2</ele>
        <time>2022-07-30T18:42:19Z</time>
      </trkpt>
      <trkpt lat="37.7109850" lon="-3.4637430">
        <ele>1592.1</ele>
        <time>2022-07-30T18:42:26Z</time>
      </trkpt>
      <trkpt lat="37.7110130" lon="-3.4638670">
        <ele>1593.1</ele>
        <time>2022-07-30T18:42:35Z</time>
      </trkpt>
      <trkpt lat="37.7110400" lon="-3.4639800">
        <ele>1594.0</ele>
        <time>2022-07-30T18:42:41Z</time>
      </trkpt>
      <trkpt lat="37.7110820" lon="-3.4640880">
        <ele>1594.8</ele>
        <time>2022-07-30T18:42:50Z</time>
      </trkpt>
      <trkpt lat="37.7111270" lon="-3.4641980">
        <ele>1595.6</ele>
        <time>2022-07-30T18:42:57Z</time>
      </trkpt>
      <trkpt lat="37.7111830" lon="-3.4643020">
        <ele>1596.4</ele>
        <time>2022-07-30T18:43:06Z</time>
      </trkpt>
      <trkpt lat="37.7112350" lon="-3.4644170">
        <ele>1597.3</ele>
        <time>2022-07-30T18:43:15Z</time>
      </trkpt>
      <trkpt lat="37.7112870" lon="-3.4645220">
        <ele>1598.2</ele>
        <time>2022-07-30T18:43:23Z</time>
      </trkpt>
      <trkpt lat="37.7113320" lon="-3.4646320">
        <ele>1599.0</ele>
        <time>2022-07-30T18:43:29Z</time>
      </trkpt>
      <trkpt lat="37.7113780" lon="-3.4647400">
        <ele>1599.8</ele>
        <time>2022-07-30T18:43:37Z</time>
      </trkpt>
      <trkpt lat="37.7114280" lon="-3.4648350">
        <ele>1600.6</ele>
        <time>2022-07-30T18:43:44Z</time>
      </trkpt>
      <trkpt lat="37.7114600" lon="-3.4649520">
        <ele>1601.4</ele>
        <time>2022-07-30T18:43:52Z</time>
      </trkpt>
      <trkpt lat="37.7115220" lon="-3.4650480">
        <ele>1602.2</ele>
        <time>2022-07-30T18:44:02Z</time>
      </trkpt>
      <trkpt lat="37.7115420" lon="-3.4651730">
        <ele>1603.1</ele>
        <time>2022-07-30T18:44:10Z</time>
      </trkpt>
      <trkpt lat="37.7115420" lon="-3.4652950">
        <ele>1604.0</ele>
        <time>2022-07-30T18:44:16Z</time>
      </trkpt>
      <trkpt lat="37.7115220" lon="-3.4654070">
        <ele>1604.9</ele>
        <time>2022-07-30T18:44:23Z</time>
      </trkpt>
      <trkpt lat="37.7115470" lon="-3.4655200">
        <ele>1605.5</ele>
        <time>2022-07-30T18:44:32Z</time>
      </trkpt>
      <trkpt lat="37.7115700" lon="-3.4656470">
        <ele>1606.0</ele>
        <time>2022-07-30T18:44:45Z</time>
      </trkpt>
      <trkpt lat="37.7115720" lon="-3.4657270">
        <ele>1606.3</ele>
        <time>2022-07-30T18:44:54Z</time>
      </trkpt>
      <trkpt lat="37.7115680" lon="-3.4657320">
        <ele>1606.4</ele>
        <time>2022-07-30T18:44:56Z</time>
      </trkpt>
      <trkpt lat="37.7116250" lon="-3.4658250">
        <ele>1606.9</ele>
        <time>2022-07-30T18:45:06Z</time>
      </trkpt>
      <trkpt lat="37.7117200" lon="-3.4658470">
        <ele>1607.9</ele>
        <time>2022-07-30T18:45:15Z</time>
      </trkpt>
      <trkpt lat="37.7117820" lon="-3.4659430">
        <ele>1608.9</ele>
        <time>2022-07-30T18:45:22Z</time>
      </trkpt>
      <trkpt lat="37.7118520" lon="-3.4660330">
        <ele>1609.9</ele>
        <time>2022-07-30T18:45:28Z</time>
      </trkpt>
      <trkpt lat="37.7119400" lon="-3.4660880">
        <ele>1610.8</ele>
        <time>2022-07-30T18:45:36Z</time>
      </trkpt>
      <trkpt lat="37.7120250" lon="-3.4661420">
        <ele>1611.8</ele>
        <time>2022-07-30T18:45:44Z</time>
      </trkpt>
      <trkpt lat="37.7120980" lon="-3.4662170">
        <ele>1612.9</ele>
        <time>2022-07-30T18:45:53Z</time>
      </trkpt>
      <trkpt lat="37.7121820" lon="-3.4662770">
        <ele>1614.1</ele>
        <time>2022-07-30T18:46:01Z</time>
      </trkpt>
      <trkpt lat="37.7122820" lon="-3.4662970">
        <ele>1615.4</ele>
        <time>2022-07-30T18:46:11Z</time>
      </trkpt>
      <trkpt lat="37.7123750" lon="-3.4662770">
        <ele>1616.4</ele>
        <time>2022-07-30T18:46:20Z</time>
      </trkpt>
      <trkpt lat="37.7124700" lon="-3.4662650">
        <ele>1617.2</ele>
        <time>2022-07-30T18:46:37Z</time>
      </trkpt>
      <trkpt lat="37.7125620" lon="-3.4662530">
        <ele>1617.9</ele>
        <time>2022-07-30T18:46:42Z</time>
      </trkpt>
      <trkpt lat="37.7126550" lon="-3.4662800">
        <ele>1618.5</ele>
        <time>2022-07-30T18:46:48Z</time>
      </trkpt>
      <trkpt lat="37.7127530" lon="-3.4662770">
        <ele>1619.1</ele>
        <time>2022-07-30T18:46:58Z</time>
      </trkpt>
      <trkpt lat="37.7128430" lon="-3.4662130">
        <ele>1619.9</ele>
        <time>2022-07-30T18:47:04Z</time>
      </trkpt>
      <trkpt lat="37.7128800" lon="-3.4661020">
        <ele>1620.7</ele>
        <time>2022-07-30T18:47:11Z</time>
      </trkpt>
      <trkpt lat="37.7128650" lon="-3.4659880">
        <ele>1621.6</ele>
        <time>2022-07-30T18:47:17Z</time>
      </trkpt>
      <trkpt lat="37.7129100" lon="-3.4658800">
        <ele>1622.4</ele>
        <time>2022-07-30T18:47:25Z</time>
      </trkpt>
      <trkpt lat="37.7129720" lon="-3.4657850">
        <ele>1622.9</ele>
        <time>2022-07-30T18:47:34Z</time>
      </trkpt>
      <trkpt lat="37.7130700" lon="-3.4657730">
        <ele>1623.4</ele>
        <time>2022-07-30T18:47:41Z</time>
      </trkpt>
      <trkpt lat="37.7131670" lon="-3.4658020">
        <ele>1623.9</ele>
        <time>2022-07-30T18:47:49Z</time>
      </trkpt>
      <trkpt lat="37.7132570" lon="-3.4658130">
        <ele>1624.5</ele>
        <time>2022-07-30T18:47:56Z</time>
      </trkpt>
      <trkpt lat="37.7133520" lon="-3.4657900">
        <ele>1625.3</ele>
        <time>2022-07-30T18:48:03Z</time>
      </trkpt>
      <trkpt lat="37.7134430" lon="-3.4657350">
        <ele>1626.3</ele>
        <time>2022-07-30T18:48:12Z</time>
      </trkpt>
      <trkpt lat="37.7135280" lon="-3.4656870">
        <ele>1627.3</ele>
        <time>2022-07-30T18:48:21Z</time>
      </trkpt>
      <trkpt lat="37.7136200" lon="-3.4656580">
        <ele>1628.4</ele>
        <time>2022-07-30T18:48:29Z</time>
      </trkpt>
      <trkpt lat="37.7137180" lon="-3.4656300">
        <ele>1629.6</ele>
        <time>2022-07-30T18:48:37Z</time>
      </trkpt>
      <trkpt lat="37.7138070" lon="-3.4656080">
        <ele>1630.8</ele>
        <time>2022-07-30T18:48:46Z</time>
      </trkpt>
      <trkpt lat="37.7139020" lon="-3.4655980">
        <ele>1632.1</ele>
        <time>2022-07-30T18:48:59Z</time>
      </trkpt>
      <trkpt lat="37.7139980" lon="-3.4656230">
        <ele>1633.4</ele>
        <time>2022-07-30T18:49:09Z</time>
      </trkpt>
      <trkpt lat="37.7140830" lon="-3.4656980">
        <ele>1634.6</ele>
        <time>2022-07-30T18:49:17Z</time>
      </trkpt>
      <trkpt lat="37.7141780" lon="-3.4657500">
        <ele>1635.5</ele>
        <time>2022-07-30T18:49:25Z</time>
      </trkpt>
      <trkpt lat="37.7142730" lon="-3.4657720">
        <ele>1636.3</ele>
        <time>2022-07-30T18:49:33Z</time>
      </trkpt>
      <trkpt lat="37.7143300" lon="-3.4657450">
        <ele>1636.9</ele>
        <time>2022-07-30T18:49:40Z</time>
      </trkpt>
      <trkpt lat="37.7144600" lon="-3.4656980">
        <ele>1638.3</ele>
        <time>2022-07-30T18:49:51Z</time>
      </trkpt>
      <trkpt lat="37.7145530" lon="-3.4656820">
        <ele>1639.3</ele>
        <time>2022-07-30T18:49:59Z</time>
      </trkpt>
      <trkpt lat="37.7146400" lon="-3.4656200">
        <ele>1640.4</ele>
        <time>2022-07-30T18:50:08Z</time>
      </trkpt>
      <trkpt lat="37.7147150" lon="-3.4655550">
        <ele>1641.5</ele>
        <time>2022-07-30T18:50:13Z</time>
      </trkpt>
      <trkpt lat="37.7147670" lon="-3.4654600">
        <ele>1642.4</ele>
        <time>2022-07-30T18:50:21Z</time>
      </trkpt>
      <trkpt lat="37.7148420" lon="-3.4653820">
        <ele>1643.3</ele>
        <time>2022-07-30T18:50:26Z</time>
      </trkpt>
      <trkpt lat="37.7149050" lon="-3.4652920">
        <ele>1644.1</ele>
        <time>2022-07-30T18:50:30Z</time>
      </trkpt>
      <trkpt lat="37.7148920" lon="-3.4651670">
        <ele>1644.9</ele>
        <time>2022-07-30T18:50:38Z</time>
      </trkpt>
      <trkpt lat="37.7148470" lon="-3.4650580">
        <ele>1645.8</ele>
        <time>2022-07-30T18:50:46Z</time>
      </trkpt>
      <trkpt lat="37.7147930" lon="-3.4649630">
        <ele>1646.6</ele>
        <time>2022-07-30T18:50:53Z</time>
      </trkpt>
      <trkpt lat="37.7147880" lon="-3.4648450">
        <ele>1647.6</ele>
        <time>2022-07-30T18:51:03Z</time>
      </trkpt>
      <trkpt lat="37.7147930" lon="-3.4647230">
        <ele>1648.6</ele>
        <time>2022-07-30T18:51:10Z</time>
      </trkpt>
      <trkpt lat="37.7148220" lon="-3.4646080">
        <ele>1649.6</ele>
        <time>2022-07-30T18:51:18Z</time>
      </trkpt>
      <trkpt lat="37.7148150" lon="-3.4644870">
        <ele>1650.6</ele>
        <time>2022-07-30T18:51:27Z</time>
      </trkpt>
      <trkpt lat="37.7148230" lon="-3.4643720">
        <ele>1651.6</ele>
        <time>2022-07-30T18:51:34Z</time>
      </trkpt>
      <trkpt lat="37.7148220" lon="-3.4642530">
        <ele>1652.7</ele>
        <time>2022-07-30T18:51:41Z</time>
      </trkpt>
      <trkpt lat="37.7148430" lon="-3.4641350">
        <ele>1653.8</ele>
        <time>2022-07-30T18:51:48Z</time>
      </trkpt>
      <trkpt lat="37.7148730" lon="-3.4640180">
        <ele>1654.8</ele>
        <time>2022-07-30T18:51:55Z</time>
      </trkpt>
      <trkpt lat="37.7148630" lon="-3.4638970">
        <ele>1655.7</ele>
        <time>2022-07-30T18:52:04Z</time>
      </trkpt>
      <trkpt lat="37.7148530" lon="-3.4637800">
        <ele>1656.5</ele>
        <time>2022-07-30T18:52:13Z</time>
      </trkpt>
      <trkpt lat="37.7148720" lon="-3.4636500">
        <ele>1657.3</ele>
        <time>2022-07-30T18:52:20Z</time>
      </trkpt>
      <trkpt lat="37.7148600" lon="-3.4635250">
        <ele>1658.0</ele>
        <time>2022-07-30T18:52:29Z</time>
      </trkpt>
      <trkpt lat="37.7148050" lon="-3.4634230">
        <ele>1658.7</ele>
        <time>2022-07-30T18:52:36Z</time>
      </trkpt>
      <trkpt lat="37.7147170" lon="-3.4633970">
        <ele>1659.4</ele>
        <time>2022-07-30T18:52:44Z</time>
      </trkpt>
      <trkpt lat="37.7146270" lon="-3.4633950">
        <ele>1660.2</ele>
        <time>2022-07-30T18:52:54Z</time>
      </trkpt>
      <trkpt lat="37.7145300" lon="-3.4633600">
        <ele>1661.2</ele>
        <time>2022-07-30T18:53:04Z</time>
      </trkpt>
      <trkpt lat="37.7144650" lon="-3.4632620">
        <ele>1662.4</ele>
        <time>2022-07-30T18:53:12Z</time>
      </trkpt>
      <trkpt lat="37.7143880" lon="-3.4631630">
        <ele>1663.8</ele>
        <time>2022-07-30T18:53:17Z</time>
      </trkpt>
      <trkpt lat="37.7142890" lon="-3.4630960">
        <ele>1665.1</ele>
        <time>2022-07-30T18:53:25Z</time>
      </trkpt>
      <trkpt lat="37.7142750" lon="-3.4630900">
        <ele>1665.2</ele>
        <time>2022-07-30T18:53:28Z</time>
      </trkpt>
      <trkpt lat="37.7142620" lon="-3.4630830">
        <ele>1665.4</ele>
        <time>2022-07-30T18:53:28Z</time>
      </trkpt>
      <trkpt lat="37.7137400" lon="-3.4596400">
        <ele>1684.8</ele>
        <time>2022-07-30T19:02:26Z</time>
      </trkpt>
      <trkpt lat="37.7137380" lon="-3.4596380">
        <ele>1684.8</ele>
        <time>2022-07-30T19:02:27Z</time>
      </trkpt>
      <trkpt lat="37.7137400" lon="-3.4595170">
        <ele>1684.3</ele>
        <time>2022-07-30T19:02:36Z</time>
      </trkpt>
      <trkpt lat="37.7137300" lon="-3.4593980">
        <ele>1684.0</ele>
        <time>2022-07-30T19:02:43Z</time>
      </trkpt>
      <trkpt lat="37.7137350" lon="-3.4592750">
        <ele>1683.7</ele>
        <time>2022-07-30T19:02:50Z</time>
      </trkpt>
      <trkpt lat="37.7137570" lon="-3.4591530">
        <ele>1683.3</ele>
        <time>2022-07-30T19:02:58Z</time>
      </trkpt>
      <trkpt lat="37.7137880" lon="-3.4590450">
        <ele>1683.0</ele>
        <time>2022-07-30T19:03:05Z</time>
      </trkpt>
      <trkpt lat="37.7138100" lon="-3.4589180">
        <ele>1682.5</ele>
        <time>2022-07-30T19:03:12Z</time>
      </trkpt>
      <trkpt lat="37.7138870" lon="-3.4588200">
        <ele>1681.8</ele>
        <time>2022-07-30T19:03:18Z</time>
      </trkpt>
      <trkpt lat="37.7139750" lon="-3.4587550">
        <ele>1681.1</ele>
        <time>2022-07-30T19:03:21Z</time>
      </trkpt>
      <trkpt lat="37.7139500" lon="-3.4586380">
        <ele>1680.5</ele>
        <time>2022-07-30T19:03:29Z</time>
      </trkpt>
      <trkpt lat="37.7139530" lon="-3.4585130">
        <ele>1679.9</ele>
        <time>2022-07-30T19:03:36Z</time>
      </trkpt>
      <trkpt lat="37.7139870" lon="-3.4583950">
        <ele>1679.3</ele>
        <time>2022-07-30T19:03:43Z</time>
      </trkpt>
      <trkpt lat="37.7140280" lon="-3.4582780">
        <ele>1678.8</ele>
        <time>2022-07-30T19:03:50Z</time>
      </trkpt>
      <trkpt lat="37.7140450" lon="-3.4581620">
        <ele>1678.3</ele>
        <time>2022-07-30T19:03:58Z</time>
      </trkpt>
      <trkpt lat="37.7140600" lon="-3.4580380">
        <ele>1678.0</ele>
        <time>2022-07-30T19:04:05Z</time>
      </trkpt>
      <trkpt lat="37.7140370" lon="-3.4579220">
        <ele>1677.9</ele>
        <time>2022-07-30T19:04:15Z</time>
      </trkpt>
      <trkpt lat="37.7139950" lon="-3.4578100">
        <ele>1678.6</ele>
        <time>2022-07-30T19:04:24Z</time>
      </trkpt>
      <trkpt lat="37.7139250" lon="-3.4577370">
        <ele>1679.1</ele>
        <time>2022-07-30T19:04:33Z</time>
      </trkpt>
      <trkpt lat="37.7138720" lon="-3.4576250">
        <ele>1679.7</ele>
        <time>2022-07-30T19:04:40Z</time>
      </trkpt>
      <trkpt lat="37.7138480" lon="-3.4575000">
        <ele>1680.1</ele>
        <time>2022-07-30T19:04:47Z</time>
      </trkpt>
      <trkpt lat="37.7138150" lon="-3.4573900">
        <ele>1680.4</ele>
        <time>2022-07-30T19:04:54Z</time>
      </trkpt>
      <trkpt lat="37.7137900" lon="-3.4572680">
        <ele>1680.7</ele>
        <time>2022-07-30T19:05:02Z</time>
      </trkpt>
      <trkpt lat="37.7137400" lon="-3.4571670">
        <ele>1681.0</ele>
        <time>2022-07-30T19:05:11Z</time>
      </trkpt>
      <trkpt lat="37.7137400" lon="-3.4570420">
        <ele>1681.4</ele>
        <time>2022-07-30T19:05:19Z</time>
      </trkpt>
      <trkpt lat="37.7137630" lon="-3.4569120">
        <ele>1681.8</ele>
        <time>2022-07-30T19:05:27Z</time>
      </trkpt>
      <trkpt lat="37.7137950" lon="-3.4567870">
        <ele>1682.5</ele>
        <time>2022-07-30T19:05:35Z</time>
      </trkpt>
      <trkpt lat="37.7138330" lon="-3.4566800">
        <ele>1683.2</ele>
        <time>2022-07-30T19:05:42Z</time>
      </trkpt>
      <trkpt lat="37.7138670" lon="-3.4565650">
        <ele>1683.9</ele>
        <time>2022-07-30T19:05:49Z</time>
      </trkpt>
      <trkpt lat="37.7138980" lon="-3.4564480">
        <ele>1684.6</ele>
        <time>2022-07-30T19:05:57Z</time>
      </trkpt>
      <trkpt lat="37.7139220" lon="-3.4563370">
        <ele>1685.2</ele>
        <time>2022-07-30T19:06:04Z</time>
      </trkpt>
      <trkpt lat="37.7139450" lon="-3.4562150">
        <ele>1685.9</ele>
        <time>2022-07-30T19:06:12Z</time>
      </trkpt>
      <trkpt lat="37.7139650" lon="-3.4560950">
        <ele>1686.6</ele>
        <time>2022-07-30T19:06:19Z</time>
      </trkpt>
      <trkpt lat="37.7139820" lon="-3.4559700">
        <ele>1687.4</ele>
        <time>2022-07-30T19:06:29Z</time>
      </trkpt>
      <trkpt lat="37.7139950" lon="-3.4558500">
        <ele>1688.3</ele>
        <time>2022-07-30T19:06:37Z</time>
      </trkpt>
      <trkpt lat="37.7140150" lon="-3.4557380">
        <ele>1689.1</ele>
        <time>2022-07-30T19:06:44Z</time>
      </trkpt>
      <trkpt lat="37.7140480" lon="-3.4556200">
        <ele>1690.0</ele>
        <time>2022-07-30T19:06:51Z</time>
      </trkpt>
      <trkpt lat="37.7140730" lon="-3.4555100">
        <ele>1690.7</ele>
        <time>2022-07-30T19:06:58Z</time>
      </trkpt>
      <trkpt lat="37.7140980" lon="-3.4553920">
        <ele>1691.5</ele>
        <time>2022-07-30T19:07:06Z</time>
      </trkpt>
      <trkpt lat="37.7141520" lon="-3.4552870">
        <ele>1692.4</ele>
        <time>2022-07-30T19:07:13Z</time>
      </trkpt>
      <trkpt lat="37.7141950" lon="-3.4551850">
        <ele>1693.3</ele>
        <time>2022-07-30T19:07:18Z</time>
      </trkpt>
      <trkpt lat="37.7142250" lon="-3.4550630">
        <ele>1694.4</ele>
        <time>2022-07-30T19:07:26Z</time>
      </trkpt>
      <trkpt lat="37.7142430" lon="-3.4549520">
        <ele>1695.3</ele>
        <time>2022-07-30T19:07:32Z</time>
      </trkpt>
      <trkpt lat="37.7142550" lon="-3.4548270">
        <ele>1696.2</ele>
        <time>2022-07-30T19:07:41Z</time>
      </trkpt>
      <trkpt lat="37.7142470" lon="-3.4547130">
        <ele>1697.0</ele>
        <time>2022-07-30T19:07:50Z</time>
      </trkpt>
      <trkpt lat="37.7142730" lon="-3.4546020">
        <ele>1697.9</ele>
        <time>2022-07-30T19:07:57Z</time>
      </trkpt>
      <trkpt lat="37.7143080" lon="-3.4544800">
        <ele>1698.8</ele>
        <time>2022-07-30T19:08:05Z</time>
      </trkpt>
      <trkpt lat="37.7143420" lon="-3.4543700">
        <ele>1699.5</ele>
        <time>2022-07-30T19:08:11Z</time>
      </trkpt>
      <trkpt lat="37.7143880" lon="-3.4542550">
        <ele>1700.3</ele>
        <time>2022-07-30T19:08:18Z</time>
      </trkpt>
      <trkpt lat="37.7144180" lon="-3.4541380">
        <ele>1701.0</ele>
        <time>2022-07-30T19:08:25Z</time>
      </trkpt>
      <trkpt lat="37.7144580" lon="-3.4540220">
        <ele>1701.7</ele>
        <time>2022-07-30T19:08:33Z</time>
      </trkpt>
      <trkpt lat="37.7144970" lon="-3.4539070">
        <ele>1702.4</ele>
        <time>2022-07-30T19:08:41Z</time>
      </trkpt>
      <trkpt lat="37.7145280" lon="-3.4537850">
        <ele>1703.1</ele>
        <time>2022-07-30T19:08:49Z</time>
      </trkpt>
      <trkpt lat="37.7145800" lon="-3.4536900">
        <ele>1703.9</ele>
        <time>2022-07-30T19:08:56Z</time>
      </trkpt>
      <trkpt lat="37.7146480" lon="-3.4536000">
        <ele>1704.9</ele>
        <time>2022-07-30T19:09:04Z</time>
      </trkpt>
      <trkpt lat="37.7147070" lon="-3.4535120">
        <ele>1706.1</ele>
        <time>2022-07-30T19:09:13Z</time>
      </trkpt>
      <trkpt lat="37.7147820" lon="-3.4534450">
        <ele>1707.3</ele>
        <time>2022-07-30T19:09:22Z</time>
      </trkpt>
      <trkpt lat="37.7148500" lon="-3.4533600">
        <ele>1708.5</ele>
        <time>2022-07-30T19:09:30Z</time>
      </trkpt>
      <trkpt lat="37.7149170" lon="-3.4532820">
        <ele>1709.6</ele>
        <time>2022-07-30T19:09:38Z</time>
      </trkpt>
      <trkpt lat="37.7149970" lon="-3.4532120">
        <ele>1710.7</ele>
        <time>2022-07-30T19:09:47Z</time>
      </trkpt>
      <trkpt lat="37.7150770" lon="-3.4531470">
        <ele>1711.7</ele>
        <time>2022-07-30T19:09:54Z</time>
      </trkpt>
      <trkpt lat="37.7151550" lon="-3.4530820">
        <ele>1712.7</ele>
        <time>2022-07-30T19:10:03Z</time>
      </trkpt>
      <trkpt lat="37.7152350" lon="-3.4530170">
        <ele>1713.8</ele>
        <time>2022-07-30T19:10:10Z</time>
      </trkpt>
      <trkpt lat="37.7153070" lon="-3.4529300">
        <ele>1715.0</ele>
        <time>2022-07-30T19:10:17Z</time>
      </trkpt>
      <trkpt lat="37.7153730" lon="-3.4528420">
        <ele>1716.2</ele>
        <time>2022-07-30T19:10:26Z</time>
      </trkpt>
      <trkpt lat="37.7154250" lon="-3.4527470">
        <ele>1717.3</ele>
        <time>2022-07-30T19:10:36Z</time>
      </trkpt>
      <trkpt lat="37.7154630" lon="-3.4526380">
        <ele>1718.3</ele>
        <time>2022-07-30T19:10:45Z</time>
      </trkpt>
      <trkpt lat="37.7154980" lon="-3.4525300">
        <ele>1719.1</ele>
        <time>2022-07-30T19:10:53Z</time>
      </trkpt>
      <trkpt lat="37.7155320" lon="-3.4524150">
        <ele>1720.0</ele>
        <time>2022-07-30T19:11:00Z</time>
      </trkpt>
      <trkpt lat="37.7155550" lon="-3.4522970">
        <ele>1720.9</ele>
        <time>2022-07-30T19:11:09Z</time>
      </trkpt>
      <trkpt lat="37.7156270" lon="-3.4522100">
        <ele>1722.2</ele>
        <time>2022-07-30T19:11:20Z</time>
      </trkpt>
      <trkpt lat="37.7156700" lon="-3.4521720">
        <ele>1723.0</ele>
        <time>2022-07-30T19:11:29Z</time>
      </trkpt>
      <trkpt lat="37.7156680" lon="-3.4521720">
        <ele>1723.1</ele>
        <time>2022-07-30T19:11:31Z</time>
      </trkpt>
      <trkpt lat="37.7157050" lon="-3.4520600">
        <ele>1725.1</ele>
        <time>2022-07-30T19:11:44Z</time>
      </trkpt>
      <trkpt lat="37.7157480" lon="-3.4520520">
        <ele>1726.2</ele>
        <time>2022-07-30T19:11:51Z</time>
      </trkpt>
      <trkpt lat="37.7157500" lon="-3.4520520">
        <ele>1726.2</ele>
        <time>2022-07-30T19:11:52Z</time>
      </trkpt>
      <trkpt lat="37.7158180" lon="-3.4519620">
        <ele>1728.9</ele>
        <time>2022-07-30T19:12:06Z</time>
      </trkpt>
      <trkpt lat="37.7159050" lon="-3.4519000">
        <ele>1731.6</ele>
        <time>2022-07-30T19:12:20Z</time>
      </trkpt>
      <trkpt lat="37.7159400" lon="-3.4517900">
        <ele>1733.6</ele>
        <time>2022-07-30T19:12:37Z</time>
      </trkpt>
      <trkpt lat="37.7159850" lon="-3.4516900">
        <ele>1735.2</ele>
        <time>2022-07-30T19:12:49Z</time>
      </trkpt>
      <trkpt lat="37.7160400" lon="-3.4515880">
        <ele>1736.7</ele>
        <time>2022-07-30T19:12:58Z</time>
      </trkpt>
      <trkpt lat="37.7160870" lon="-3.4514900">
        <ele>1738.0</ele>
        <time>2022-07-30T19:13:10Z</time>
      </trkpt>
      <trkpt lat="37.7161270" lon="-3.4513780">
        <ele>1739.6</ele>
        <time>2022-07-30T19:13:21Z</time>
      </trkpt>
      <trkpt lat="37.7162100" lon="-3.4513200">
        <ele>1741.5</ele>
        <time>2022-07-30T19:13:37Z</time>
      </trkpt>
      <trkpt lat="37.7162800" lon="-3.4512470">
        <ele>1743.5</ele>
        <time>2022-07-30T19:13:47Z</time>
      </trkpt>
      <trkpt lat="37.7163270" lon="-3.4511330">
        <ele>1745.7</ele>
        <time>2022-07-30T19:13:59Z</time>
      </trkpt>
      <trkpt lat="37.7163870" lon="-3.4510470">
        <ele>1747.5</ele>
        <time>2022-07-30T19:14:12Z</time>
      </trkpt>
      <trkpt lat="37.7164520" lon="-3.4509670">
        <ele>1749.4</ele>
        <time>2022-07-30T19:14:23Z</time>
      </trkpt>
      <trkpt lat="37.7165350" lon="-3.4509200">
        <ele>1751.3</ele>
        <time>2022-07-30T19:14:34Z</time>
      </trkpt>
      <trkpt lat="37.7166270" lon="-3.4508780">
        <ele>1752.9</ele>
        <time>2022-07-30T19:14:43Z</time>
      </trkpt>
      <trkpt lat="37.7166930" lon="-3.4508470">
        <ele>1753.6</ele>
        <time>2022-07-30T19:14:53Z</time>
      </trkpt>
      <trkpt lat="37.7166930" lon="-3.4508450">
        <ele>1753.6</ele>
        <time>2022-07-30T19:14:57Z</time>
      </trkpt>
      <trkpt lat="37.7166930" lon="-3.4508450">
        <ele>1753.6</ele>
        <time>2022-07-30T19:14:58Z</time>
      </trkpt>
      <trkpt lat="37.7166920" lon="-3.4508430">
        <ele>1753.7</ele>
        <time>2022-07-30T19:15:03Z</time>
      </trkpt>
      <trkpt lat="37.7166920" lon="-3.4508430">
        <ele>1753.7</ele>
        <time>2022-07-30T19:15:04Z</time>
      </trkpt>
      <trkpt lat="37.7166920" lon="-3.4508450">
        <ele>1753.7</ele>
        <time>2022-07-30T19:15:05Z</time>
      </trkpt>
      <trkpt lat="37.7166920" lon="-3.4508450">
        <ele>1753.7</ele>
        <time>2022-07-30T19:15:06Z</time>
      </trkpt>
      <trkpt lat="37.7166870" lon="-3.4508420">
        <ele>1753.7</ele>
        <time>2022-07-30T19:15:17Z</time>
      </trkpt>
      <trkpt lat="37.7166830" lon="-3.4508370">
        <ele>1753.7</ele>
        <time>2022-07-30T19:15:19Z</time>
      </trkpt>
      <trkpt lat="37.7166850" lon="-3.4508380">
        <ele>1753.8</ele>
        <time>2022-07-30T19:15:20Z</time>
      </trkpt>
      <trkpt lat="37.7166580" lon="-3.4508350">
        <ele>1753.9</ele>
        <time>2022-07-30T19:15:24Z</time>
      </trkpt>
      <trkpt lat="37.7166580" lon="-3.4508330">
        <ele>1753.9</ele>
        <time>2022-07-30T19:15:29Z</time>
      </trkpt>
      <trkpt lat="37.7166580" lon="-3.4508330">
        <ele>1753.9</ele>
        <time>2022-07-30T19:15:30Z</time>
      </trkpt>
      <trkpt lat="37.7166570" lon="-3.4508350">
        <ele>1753.9</ele>
        <time>2022-07-30T19:15:37Z</time>
      </trkpt>
      <trkpt lat="37.7166570" lon="-3.4508350">
        <ele>1753.9</ele>
        <time>2022-07-30T19:15:38Z</time>
      </trkpt>
      <trkpt lat="37.7166550" lon="-3.4508350">
        <ele>1753.9</ele>
        <time>2022-07-30T19:15:40Z</time>
      </trkpt>
      <trkpt lat="37.7166550" lon="-3.4508350">
        <ele>1753.9</ele>
        <time>2022-07-30T19:15:41Z</time>
      </trkpt>
      <trkpt lat="37.7166530" lon="-3.4508350">
        <ele>1753.9</ele>
        <time>2022-07-30T19:15:43Z</time>
      </trkpt>
      <trkpt lat="37.7166550" lon="-3.4508320">
        <ele>1754.0</ele>
        <time>2022-07-30T19:15:45Z</time>
      </trkpt>
      <trkpt lat="37.7166550" lon="-3.4508300">
        <ele>1754.0</ele>
        <time>2022-07-30T19:15:48Z</time>
      </trkpt>
      <trkpt lat="37.7167080" lon="-3.4508000">
        <ele>1754.2</ele>
        <time>2022-07-30T19:15:59Z</time>
      </trkpt>
      <trkpt lat="37.7167120" lon="-3.4508000">
        <ele>1754.2</ele>
        <time>2022-07-30T19:16:03Z</time>
      </trkpt>
      <trkpt lat="37.7168070" lon="-3.4508050">
        <ele>1754.3</ele>
        <time>2022-07-30T19:16:13Z</time>
      </trkpt>
      <trkpt lat="37.7169050" lon="-3.4507920">
        <ele>1754.2</ele>
        <time>2022-07-30T19:16:24Z</time>
      </trkpt>
      <trkpt lat="37.7169980" lon="-3.4507830">
        <ele>1754.1</ele>
        <time>2022-07-30T19:16:32Z</time>
      </trkpt>
      <trkpt lat="37.7170730" lon="-3.4507070">
        <ele>1754.1</ele>
        <time>2022-07-30T19:16:43Z</time>
      </trkpt>
      <trkpt lat="37.7171650" lon="-3.4506920">
        <ele>1754.6</ele>
        <time>2022-07-30T19:16:51Z</time>
      </trkpt>
      <trkpt lat="37.7172270" lon="-3.4506050">
        <ele>1755.5</ele>
        <time>2022-07-30T19:17:01Z</time>
      </trkpt>
      <trkpt lat="37.7173100" lon="-3.4505300">
        <ele>1756.6</ele>
        <time>2022-07-30T19:17:13Z</time>
      </trkpt>
      <trkpt lat="37.7173930" lon="-3.4504750">
        <ele>1757.5</ele>
        <time>2022-07-30T19:17:20Z</time>
      </trkpt>
      <trkpt lat="37.7174030" lon="-3.4504430">
        <ele>1757.8</ele>
        <time>2022-07-30T19:17:28Z</time>
      </trkpt>
      <trkpt lat="37.7174050" lon="-3.4504430">
        <ele>1757.8</ele>
        <time>2022-07-30T19:17:30Z</time>
      </trkpt>
      <trkpt lat="37.7174050" lon="-3.4504430">
        <ele>1757.8</ele>
        <time>2022-07-30T19:17:31Z</time>
      </trkpt>
      <trkpt lat="37.7174030" lon="-3.4504430">
        <ele>1757.8</ele>
        <time>2022-07-30T19:17:32Z</time>
      </trkpt>
      <trkpt lat="37.7174030" lon="-3.4504430">
        <ele>1757.8</ele>
        <time>2022-07-30T19:17:33Z</time>
      </trkpt>
      <trkpt lat="37.7174050" lon="-3.4504420">
        <ele>1757.9</ele>
        <time>2022-07-30T19:17:34Z</time>
      </trkpt>
      <trkpt lat="37.7174050" lon="-3.4504420">
        <ele>1757.9</ele>
        <time>2022-07-30T19:17:35Z</time>
      </trkpt>
      <trkpt lat="37.7174050" lon="-3.4504430">
        <ele>1757.9</ele>
        <time>2022-07-30T19:17:36Z</time>
      </trkpt>
      <trkpt lat="37.7174050" lon="-3.4504430">
        <ele>1757.9</ele>
        <time>2022-07-30T19:17:37Z</time>
      </trkpt>
      <trkpt lat="37.7174050" lon="-3.4504420">
        <ele>1757.9</ele>
        <time>2022-07-30T19:17:39Z</time>
      </trkpt>
      <trkpt lat="37.7174050" lon="-3.4504420">
        <ele>1757.9</ele>
        <time>2022-07-30T19:17:40Z</time>
      </trkpt>
      <trkpt lat="37.7174070" lon="-3.4504400">
        <ele>1757.9</ele>
        <time>2022-07-30T19:17:57Z</time>
      </trkpt>
      <trkpt lat="37.7174200" lon="-3.4503230">
        <ele>1759.1</ele>
        <time>2022-07-30T19:18:09Z</time>
      </trkpt>
      <trkpt lat="37.7174000" lon="-3.4502100">
        <ele>1760.7</ele>
        <time>2022-07-30T19:18:17Z</time>
      </trkpt>
      <trkpt lat="37.7174250" lon="-3.4500950">
        <ele>1762.4</ele>
        <time>2022-07-30T19:18:30Z</time>
      </trkpt>
      <trkpt lat="37.7173820" lon="-3.4499820">
        <ele>1764.2</ele>
        <time>2022-07-30T19:18:40Z</time>
      </trkpt>
      <trkpt lat="37.7173420" lon="-3.4498700">
        <ele>1765.9</ele>
        <time>2022-07-30T19:18:48Z</time>
      </trkpt>
      <trkpt lat="37.7173180" lon="-3.4498570">
        <ele>1766.3</ele>
        <time>2022-07-30T19:18:55Z</time>
      </trkpt>
      <trkpt lat="37.7173270" lon="-3.4498530">
        <ele>1766.5</ele>
        <time>2022-07-30T19:19:10Z</time>
      </trkpt>
      <trkpt lat="37.7173070" lon="-3.4497420">
        <ele>1768.1</ele>
        <time>2022-07-30T19:19:23Z</time>
      </trkpt>
      <trkpt lat="37.7172800" lon="-3.4496270">
        <ele>1769.8</ele>
        <time>2022-07-30T19:19:33Z</time>
      </trkpt>
      <trkpt lat="37.7172400" lon="-3.4495150">
        <ele>1771.7</ele>
        <time>2022-07-30T19:19:51Z</time>
      </trkpt>
      <trkpt lat="37.7172220" lon="-3.4494020">
        <ele>1773.6</ele>
        <time>2022-07-30T19:20:09Z</time>
      </trkpt>
      <trkpt lat="37.7172270" lon="-3.4492850">
        <ele>1775.5</ele>
        <time>2022-07-30T19:20:27Z</time>
      </trkpt>
      <trkpt lat="37.7172680" lon="-3.4491730">
        <ele>1777.4</ele>
        <time>2022-07-30T19:20:38Z</time>
      </trkpt>
      <trkpt lat="37.7173030" lon="-3.4490650">
        <ele>1779.0</ele>
        <time>2022-07-30T19:20:48Z</time>
      </trkpt>
      <trkpt lat="37.7172930" lon="-3.4489480">
        <ele>1780.4</ele>
        <time>2022-07-30T19:20:58Z</time>
      </trkpt>
      <trkpt lat="37.7172820" lon="-3.4488820">
        <ele>1781.1</ele>
        <time>2022-07-30T19:21:09Z</time>
      </trkpt>
      <trkpt lat="37.7172820" lon="-3.4488800">
        <ele>1781.1</ele>
        <time>2022-07-30T19:21:12Z</time>
      </trkpt>
      <trkpt lat="37.7172800" lon="-3.4488800">
        <ele>1781.1</ele>
        <time>2022-07-30T19:21:14Z</time>
      </trkpt>
      <trkpt lat="37.7172800" lon="-3.4488780">
        <ele>1781.1</ele>
        <time>2022-07-30T19:21:15Z</time>
      </trkpt>
      <trkpt lat="37.7173730" lon="-3.4489070">
        <ele>1782.0</ele>
        <time>2022-07-30T19:21:23Z</time>
      </trkpt>
      <trkpt lat="37.7174580" lon="-3.4489730">
        <ele>1782.7</ele>
        <time>2022-07-30T19:21:32Z</time>
      </trkpt>
      <trkpt lat="37.7175450" lon="-3.4490180">
        <ele>1783.3</ele>
        <time>2022-07-30T19:21:45Z</time>
      </trkpt>
      <trkpt lat="37.7176370" lon="-3.4490670">
        <ele>1784.0</ele>
        <time>2022-07-30T19:21:56Z</time>
      </trkpt>
      <trkpt lat="37.7177270" lon="-3.4490330">
        <ele>1784.7</ele>
        <time>2022-07-30T19:22:05Z</time>
      </trkpt>
      <trkpt lat="37.7178180" lon="-3.4490820">
        <ele>1785.6</ele>
        <time>2022-07-30T19:22:13Z</time>
      </trkpt>
      <trkpt lat="37.7179020" lon="-3.4491380">
        <ele>1786.6</ele>
        <time>2022-07-30T19:22:25Z</time>
      </trkpt>
      <trkpt lat="37.7179820" lon="-3.4491980">
        <ele>1787.8</ele>
        <time>2022-07-30T19:22:39Z</time>
      </trkpt>
      <trkpt lat="37.7180730" lon="-3.4492350">
        <ele>1789.2</ele>
        <time>2022-07-30T19:22:50Z</time>
      </trkpt>
      <trkpt lat="37.7181650" lon="-3.4492620">
        <ele>1790.7</ele>
        <time>2022-07-30T19:22:59Z</time>
      </trkpt>
      <trkpt lat="37.7182330" lon="-3.4493400">
        <ele>1792.1</ele>
        <time>2022-07-30T19:23:09Z</time>
      </trkpt>
      <trkpt lat="37.7183300" lon="-3.4494170">
        <ele>1793.8</ele>
        <time>2022-07-30T19:23:21Z</time>
      </trkpt>
      <trkpt lat="37.7183870" lon="-3.4495000">
        <ele>1795.1</ele>
        <time>2022-07-30T19:23:38Z</time>
      </trkpt>
      <trkpt lat="37.7183850" lon="-3.4495000">
        <ele>1795.1</ele>
        <time>2022-07-30T19:23:39Z</time>
      </trkpt>
      <trkpt lat="37.7183850" lon="-3.4495000">
        <ele>1795.1</ele>
        <time>2022-07-30T19:23:40Z</time>
      </trkpt>
      <trkpt lat="37.7183850" lon="-3.4494970">
        <ele>1795.2</ele>
        <time>2022-07-30T19:23:41Z</time>
      </trkpt>
      <trkpt lat="37.7184620" lon="-3.4495620">
        <ele>1796.6</ele>
        <time>2022-07-30T19:24:01Z</time>
      </trkpt>
      <trkpt lat="37.7185430" lon="-3.4496180">
        <ele>1798.0</ele>
        <time>2022-07-30T19:24:09Z</time>
      </trkpt>
      <trkpt lat="37.7186180" lon="-3.4496820">
        <ele>1799.4</ele>
        <time>2022-07-30T19:24:19Z</time>
      </trkpt>
      <trkpt lat="37.7186670" lon="-3.4497850">
        <ele>1800.9</ele>
        <time>2022-07-30T19:24:30Z</time>
      </trkpt>
      <trkpt lat="37.7187580" lon="-3.4498400">
        <ele>1802.4</ele>
        <time>2022-07-30T19:24:43Z</time>
      </trkpt>
      <trkpt lat="37.7188230" lon="-3.4499330">
        <ele>1803.9</ele>
        <time>2022-07-30T19:24:55Z</time>
      </trkpt>
      <trkpt lat="37.7188930" lon="-3.4500170">
        <ele>1805.1</ele>
        <time>2022-07-30T19:25:04Z</time>
      </trkpt>
      <trkpt lat="37.7189420" lon="-3.4501250">
        <ele>1806.0</ele>
        <time>2022-07-30T19:25:12Z</time>
      </trkpt>
      <trkpt lat="37.7190070" lon="-3.4502120">
        <ele>1807.0</ele>
        <time>2022-07-30T19:25:19Z</time>
      </trkpt>
      <trkpt lat="37.7190730" lon="-3.4502950">
        <ele>1808.3</ele>
        <time>2022-07-30T19:25:30Z</time>
      </trkpt>
      <trkpt lat="37.7191620" lon="-3.4503170">
        <ele>1809.8</ele>
        <time>2022-07-30T19:25:48Z</time>
      </trkpt>
      <trkpt lat="37.7192530" lon="-3.4503550">
        <ele>1811.4</ele>
        <time>2022-07-30T19:25:57Z</time>
      </trkpt>
      <trkpt lat="37.7193480" lon="-3.4503570">
        <ele>1813.0</ele>
        <time>2022-07-30T19:26:11Z</time>
      </trkpt>
      <trkpt lat="37.7194400" lon="-3.4503570">
        <ele>1814.4</ele>
        <time>2022-07-30T19:26:20Z</time>
      </trkpt>
      <trkpt lat="37.7195200" lon="-3.4502970">
        <ele>1816.6</ele>
        <time>2022-07-30T19:26:33Z</time>
      </trkpt>
      <trkpt lat="37.7195930" lon="-3.4502250">
        <ele>1818.5</ele>
        <time>2022-07-30T19:26:43Z</time>
      </trkpt>
      <trkpt lat="37.7196530" lon="-3.4501380">
        <ele>1820.1</ele>
        <time>2022-07-30T19:26:52Z</time>
      </trkpt>
      <trkpt lat="37.7197220" lon="-3.4500500">
        <ele>1821.6</ele>
        <time>2022-07-30T19:27:03Z</time>
      </trkpt>
      <trkpt lat="37.7197920" lon="-3.4499780">
        <ele>1822.9</ele>
        <time>2022-07-30T19:27:14Z</time>
      </trkpt>
      <trkpt lat="37.7198580" lon="-3.4498920">
        <ele>1824.1</ele>
        <time>2022-07-30T19:27:25Z</time>
      </trkpt>
      <trkpt lat="37.7199430" lon="-3.4498370">
        <ele>1825.3</ele>
        <time>2022-07-30T19:27:34Z</time>
      </trkpt>
      <trkpt lat="37.7200380" lon="-3.4498030">
        <ele>1826.5</ele>
        <time>2022-07-30T19:27:44Z</time>
      </trkpt>
      <trkpt lat="37.7201300" lon="-3.4498380">
        <ele>1828.0</ele>
        <time>2022-07-30T19:27:57Z</time>
      </trkpt>
      <trkpt lat="37.7202220" lon="-3.4498680">
        <ele>1829.8</ele>
        <time>2022-07-30T19:28:07Z</time>
      </trkpt>
      <trkpt lat="37.7203070" lon="-3.4499180">
        <ele>1831.6</ele>
        <time>2022-07-30T19:28:17Z</time>
      </trkpt>
      <trkpt lat="37.7203930" lon="-3.4499580">
        <ele>1833.5</ele>
        <time>2022-07-30T19:28:27Z</time>
      </trkpt>
      <trkpt lat="37.7204650" lon="-3.4500300">
        <ele>1835.4</ele>
        <time>2022-07-30T19:28:39Z</time>
      </trkpt>
      <trkpt lat="37.7205530" lon="-3.4500750">
        <ele>1837.8</ele>
        <time>2022-07-30T19:28:58Z</time>
      </trkpt>
      <trkpt lat="37.7206480" lon="-3.4501050">
        <ele>1840.3</ele>
        <time>2022-07-30T19:29:10Z</time>
      </trkpt>
      <trkpt lat="37.7207330" lon="-3.4501570">
        <ele>1842.4</ele>
        <time>2022-07-30T19:29:20Z</time>
      </trkpt>
      <trkpt lat="37.7208270" lon="-3.4502000">
        <ele>1844.7</ele>
        <time>2022-07-30T19:29:34Z</time>
      </trkpt>
      <trkpt lat="37.7208700" lon="-3.4502030">
        <ele>1845.7</ele>
        <time>2022-07-30T19:29:42Z</time>
      </trkpt>
      <trkpt lat="37.7208730" lon="-3.4501950">
        <ele>1845.9</ele>
        <time>2022-07-30T19:29:43Z</time>
      </trkpt>
      <trkpt lat="37.7209070" lon="-3.4501950">
        <ele>1846.6</ele>
        <time>2022-07-30T19:30:06Z</time>
      </trkpt>
      <trkpt lat="37.7209080" lon="-3.4501950">
        <ele>1846.7</ele>
        <time>2022-07-30T19:30:07Z</time>
      </trkpt>
      <trkpt lat="37.7209380" lon="-3.4501950">
        <ele>1847.3</ele>
        <time>2022-07-30T19:30:37Z</time>
      </trkpt>
      <trkpt lat="37.7209370" lon="-3.4501970">
        <ele>1847.4</ele>
        <time>2022-07-30T19:30:40Z</time>
      </trkpt>
      <trkpt lat="37.7209370" lon="-3.4501970">
        <ele>1847.4</ele>
        <time>2022-07-30T19:30:41Z</time>
      </trkpt>
      <trkpt lat="37.7209350" lon="-3.4502000">
        <ele>1847.5</ele>
        <time>2022-07-30T19:30:42Z</time>
      </trkpt>
      <trkpt lat="37.7209350" lon="-3.4502000">
        <ele>1847.5</ele>
        <time>2022-07-30T19:30:43Z</time>
      </trkpt>
      <trkpt lat="37.7209330" lon="-3.4502020">
        <ele>1847.5</ele>
        <time>2022-07-30T19:30:44Z</time>
      </trkpt>
      <trkpt lat="37.7209300" lon="-3.4502170">
        <ele>1847.8</ele>
        <time>2022-07-30T19:30:49Z</time>
      </trkpt>
      <trkpt lat="37.7209200" lon="-3.4502150">
        <ele>1848.0</ele>
        <time>2022-07-30T19:30:50Z</time>
      </trkpt>
      <trkpt lat="37.7209080" lon="-3.4502150">
        <ele>1848.3</ele>
        <time>2022-07-30T19:30:53Z</time>
      </trkpt>
      <trkpt lat="37.7209070" lon="-3.4502150">
        <ele>1848.3</ele>
        <time>2022-07-30T19:30:54Z</time>
      </trkpt>
      <trkpt lat="37.7209070" lon="-3.4502150">
        <ele>1848.3</ele>
        <time>2022-07-30T19:30:55Z</time>
      </trkpt>
      <trkpt lat="37.7209080" lon="-3.4502130">
        <ele>1848.4</ele>
        <time>2022-07-30T19:30:59Z</time>
      </trkpt>
      <trkpt lat="37.7208930" lon="-3.4502150">
        <ele>1848.7</ele>
        <time>2022-07-30T19:31:04Z</time>
      </trkpt>
      <trkpt lat="37.7208930" lon="-3.4502180">
        <ele>1848.7</ele>
        <time>2022-07-30T19:31:32Z</time>
      </trkpt>
      <trkpt lat="37.7208850" lon="-3.4502170">
        <ele>1848.9</ele>
        <time>2022-07-30T19:32:04Z</time>
      </trkpt>
      <trkpt lat="37.7208880" lon="-3.4502220">
        <ele>1849.0</ele>
        <time>2022-07-30T19:32:05Z</time>
      </trkpt>
      <trkpt lat="37.7209850" lon="-3.4502470">
        <ele>1850.9</ele>
        <time>2022-07-30T19:32:20Z</time>
      </trkpt>
      <trkpt lat="37.7210730" lon="-3.4502200">
        <ele>1852.5</ele>
        <time>2022-07-30T19:32:28Z</time>
      </trkpt>
      <trkpt lat="37.7211650" lon="-3.4501730">
        <ele>1853.9</ele>
        <time>2022-07-30T19:32:42Z</time>
      </trkpt>
      <trkpt lat="37.7212470" lon="-3.4501250">
        <ele>1855.2</ele>
        <time>2022-07-30T19:32:50Z</time>
      </trkpt>
      <trkpt lat="37.7213030" lon="-3.4500350">
        <ele>1856.5</ele>
        <time>2022-07-30T19:33:05Z</time>
      </trkpt>
      <trkpt lat="37.7214020" lon="-3.4500300">
        <ele>1858.0</ele>
        <time>2022-07-30T19:33:15Z</time>
      </trkpt>
      <trkpt lat="37.7214930" lon="-3.4500770">
        <ele>1859.8</ele>
        <time>2022-07-30T19:33:30Z</time>
      </trkpt>
      <trkpt lat="37.7215900" lon="-3.4501000">
        <ele>1861.6</ele>
        <time>2022-07-30T19:33:39Z</time>
      </trkpt>
      <trkpt lat="37.7216750" lon="-3.4500520">
        <ele>1863.1</ele>
        <time>2022-07-30T19:33:47Z</time>
      </trkpt>
      <trkpt lat="37.7217650" lon="-3.4500130">
        <ele>1864.5</ele>
        <time>2022-07-30T19:33:58Z</time>
      </trkpt>
      <trkpt lat="37.7218450" lon="-3.4500800">
        <ele>1865.9</ele>
        <time>2022-07-30T19:34:10Z</time>
      </trkpt>
      <trkpt lat="37.7219300" lon="-3.4501220">
        <ele>1867.0</ele>
        <time>2022-07-30T19:34:26Z</time>
      </trkpt>
      <trkpt lat="37.7220220" lon="-3.4500980">
        <ele>1867.7</ele>
        <time>2022-07-30T19:34:41Z</time>
      </trkpt>
      <trkpt lat="37.7221250" lon="-3.4500730">
        <ele>1868.5</ele>
        <time>2022-07-30T19:34:51Z</time>
      </trkpt>
      <trkpt lat="37.7222280" lon="-3.4500780">
        <ele>1869.6</ele>
        <time>2022-07-30T19:35:00Z</time>
      </trkpt>
      <trkpt lat="37.7223100" lon="-3.4500280">
        <ele>1870.7</ele>
        <time>2022-07-30T19:35:09Z</time>
      </trkpt>
      <trkpt lat="37.7224150" lon="-3.4500280">
        <ele>1871.6</ele>
        <time>2022-07-30T19:35:17Z</time>
      </trkpt>
      <trkpt lat="37.7225080" lon="-3.4500280">
        <ele>1872.3</ele>
        <time>2022-07-30T19:35:25Z</time>
      </trkpt>
      <trkpt lat="37.7226000" lon="-3.4500650">
        <ele>1873.3</ele>
        <time>2022-07-30T19:35:34Z</time>
      </trkpt>
      <trkpt lat="37.7226780" lon="-3.4501400">
        <ele>1874.7</ele>
        <time>2022-07-30T19:35:43Z</time>
      </trkpt>
      <trkpt lat="37.7227720" lon="-3.4501430">
        <ele>1876.4</ele>
        <time>2022-07-30T19:35:51Z</time>
      </trkpt>
      <trkpt lat="37.7228630" lon="-3.4501470">
        <ele>1878.2</ele>
        <time>2022-07-30T19:36:01Z</time>
      </trkpt>
      <trkpt lat="37.7228630" lon="-3.4501470">
        <ele>1878.2</ele>
        <time>2022-07-30T19:36:02Z</time>
      </trkpt>
      <trkpt lat="37.7228680" lon="-3.4501450">
        <ele>1878.3</ele>
        <time>2022-07-30T19:36:03Z</time>
      </trkpt>
      <trkpt lat="37.7229520" lon="-3.4500920">
        <ele>1880.3</ele>
        <time>2022-07-30T19:36:15Z</time>
      </trkpt>
      <trkpt lat="37.7230250" lon="-3.4500180">
        <ele>1882.7</ele>
        <time>2022-07-30T19:36:31Z</time>
      </trkpt>
      <trkpt lat="37.7230570" lon="-3.4500030">
        <ele>1883.6</ele>
        <time>2022-07-30T19:36:41Z</time>
      </trkpt>
      <trkpt lat="37.7230580" lon="-3.4500030">
        <ele>1883.6</ele>
        <time>2022-07-30T19:36:42Z</time>
      </trkpt>
      <trkpt lat="37.7231500" lon="-3.4500080">
        <ele>1886.1</ele>
        <time>2022-07-30T19:36:56Z</time>
      </trkpt>
      <trkpt lat="37.7232180" lon="-3.4499680">
        <ele>1888.2</ele>
        <time>2022-07-30T19:37:12Z</time>
      </trkpt>
      <trkpt lat="37.7232170" lon="-3.4499680">
        <ele>1888.2</ele>
        <time>2022-07-30T19:37:13Z</time>
      </trkpt>
      <trkpt lat="37.7232170" lon="-3.4499680">
        <ele>1888.2</ele>
        <time>2022-07-30T19:37:14Z</time>
      </trkpt>
      <trkpt lat="37.7232150" lon="-3.4499720">
        <ele>1888.3</ele>
        <time>2022-07-30T19:37:16Z</time>
      </trkpt>
      <trkpt lat="37.7232100" lon="-3.4499800">
        <ele>1888.5</ele>
        <time>2022-07-30T19:37:19Z</time>
      </trkpt>
      <trkpt lat="37.7232120" lon="-3.4499800">
        <ele>1888.6</ele>
        <time>2022-07-30T19:37:21Z</time>
      </trkpt>
      <trkpt lat="37.7232980" lon="-3.4499430">
        <ele>1891.0</ele>
        <time>2022-07-30T19:37:35Z</time>
      </trkpt>
      <trkpt lat="37.7233370" lon="-3.4499580">
        <ele>1892.2</ele>
        <time>2022-07-30T19:37:43Z</time>
      </trkpt>
      <trkpt lat="37.7233380" lon="-3.4499580">
        <ele>1892.2</ele>
        <time>2022-07-30T19:37:50Z</time>
      </trkpt>
      <trkpt lat="37.7234250" lon="-3.4500200">
        <ele>1894.7</ele>
        <time>2022-07-30T19:38:05Z</time>
      </trkpt>
      <trkpt lat="37.7235170" lon="-3.4500230">
        <ele>1896.5</ele>
        <time>2022-07-30T19:38:19Z</time>
      </trkpt>
      <trkpt lat="37.7235450" lon="-3.4499050">
        <ele>1898.5</ele>
        <time>2022-07-30T19:38:52Z</time>
      </trkpt>
      <trkpt lat="37.7235730" lon="-3.4497870">
        <ele>1900.4</ele>
        <time>2022-07-30T19:39:05Z</time>
      </trkpt>
      <trkpt lat="37.7235500" lon="-3.4496670">
        <ele>1902.8</ele>
        <time>2022-07-30T19:39:14Z</time>
      </trkpt>
      <trkpt lat="37.7236320" lon="-3.4496180">
        <ele>1905.5</ele>
        <time>2022-07-30T19:39:27Z</time>
      </trkpt>
      <trkpt lat="37.7236430" lon="-3.4496050">
        <ele>1906.0</ele>
        <time>2022-07-30T19:39:33Z</time>
      </trkpt>
      <trkpt lat="37.7236420" lon="-3.4496000">
        <ele>1906.1</ele>
        <time>2022-07-30T19:39:34Z</time>
      </trkpt>
      <trkpt lat="37.7237250" lon="-3.4495470">
        <ele>1908.9</ele>
        <time>2022-07-30T19:39:58Z</time>
      </trkpt>
      <trkpt lat="37.7237580" lon="-3.4495280">
        <ele>1909.8</ele>
        <time>2022-07-30T19:40:07Z</time>
      </trkpt>
      <trkpt lat="37.7237620" lon="-3.4495250">
        <ele>1910.0</ele>
        <time>2022-07-30T19:40:08Z</time>
      </trkpt>
      <trkpt lat="37.7238530" lon="-3.4495170">
        <ele>1912.9</ele>
        <time>2022-07-30T19:40:24Z</time>
      </trkpt>
      <trkpt lat="37.7239450" lon="-3.4494780">
        <ele>1916.2</ele>
        <time>2022-07-30T19:40:40Z</time>
      </trkpt>
      <trkpt lat="37.7239520" lon="-3.4494630">
        <ele>1916.7</ele>
        <time>2022-07-30T19:40:48Z</time>
      </trkpt>
      <trkpt lat="37.7239520" lon="-3.4494620">
        <ele>1916.8</ele>
        <time>2022-07-30T19:40:50Z</time>
      </trkpt>
      <trkpt lat="37.7239550" lon="-3.4494720">
        <ele>1917.0</ele>
        <time>2022-07-30T19:40:54Z</time>
      </trkpt>
      <trkpt lat="37.7239530" lon="-3.4494680">
        <ele>1917.2</ele>
        <time>2022-07-30T19:40:55Z</time>
      </trkpt>
      <trkpt lat="37.7240020" lon="-3.4494800">
        <ele>1918.8</ele>
        <time>2022-07-30T19:41:05Z</time>
      </trkpt>
      <trkpt lat="37.7239980" lon="-3.4494770">
        <ele>1919.0</ele>
        <time>2022-07-30T19:41:06Z</time>
      </trkpt>
      <trkpt lat="37.7240220" lon="-3.4494700">
        <ele>1919.7</ele>
        <time>2022-07-30T19:41:16Z</time>
      </trkpt>
      <trkpt lat="37.7240100" lon="-3.4494650">
        <ele>1920.1</ele>
        <time>2022-07-30T19:41:17Z</time>
      </trkpt>
      <trkpt lat="37.7241030" lon="-3.4494800">
        <ele>1922.6</ele>
        <time>2022-07-30T19:41:56Z</time>
      </trkpt>
      <trkpt lat="37.7241930" lon="-3.4494720">
        <ele>1924.6</ele>
        <time>2022-07-30T19:42:05Z</time>
      </trkpt>
      <trkpt lat="37.7242830" lon="-3.4494550">
        <ele>1926.3</ele>
        <time>2022-07-30T19:42:19Z</time>
      </trkpt>
      <trkpt lat="37.7243800" lon="-3.4494430">
        <ele>1928.1</ele>
        <time>2022-07-30T19:42:35Z</time>
      </trkpt>
      <trkpt lat="37.7244630" lon="-3.4494900">
        <ele>1929.6</ele>
        <time>2022-07-30T19:42:42Z</time>
      </trkpt>
      <trkpt lat="37.7245530" lon="-3.4494700">
        <ele>1931.1</ele>
        <time>2022-07-30T19:42:56Z</time>
      </trkpt>
      <trkpt lat="37.7246450" lon="-3.4495120">
        <ele>1932.8</ele>
        <time>2022-07-30T19:43:17Z</time>
      </trkpt>
      <trkpt lat="37.7247370" lon="-3.4494770">
        <ele>1934.5</ele>
        <time>2022-07-30T19:43:32Z</time>
      </trkpt>
      <trkpt lat="37.7248330" lon="-3.4494830">
        <ele>1936.3</ele>
        <time>2022-07-30T19:43:42Z</time>
      </trkpt>
      <trkpt lat="37.7249030" lon="-3.4494400">
        <ele>1937.2</ele>
        <time>2022-07-30T19:43:58Z</time>
      </trkpt>
      <trkpt lat="37.7249120" lon="-3.4494420">
        <ele>1937.3</ele>
        <time>2022-07-30T19:43:59Z</time>
      </trkpt>
      <trkpt lat="37.7249950" lon="-3.4493830">
        <ele>1937.6</ele>
        <time>2022-07-30T19:44:12Z</time>
      </trkpt>
      <trkpt lat="37.7250730" lon="-3.4493200">
        <ele>1937.2</ele>
        <time>2022-07-30T19:44:24Z</time>
      </trkpt>
      <trkpt lat="37.7251380" lon="-3.4492380">
        <ele>1936.4</ele>
        <time>2022-07-30T19:44:34Z</time>
      </trkpt>
      <trkpt lat="37.7252080" lon="-3.4491520">
        <ele>1935.2</ele>
        <time>2022-07-30T19:44:46Z</time>
      </trkpt>
      <trkpt lat="37.7252100" lon="-3.4491550">
        <ele>1935.1</ele>
        <time>2022-07-30T19:44:48Z</time>
      </trkpt>
      <trkpt lat="37.7252080" lon="-3.4491550">
        <ele>1935.1</ele>
        <time>2022-07-30T19:45:24Z</time>
      </trkpt>
      <trkpt lat="37.7252080" lon="-3.4491570">
        <ele>1935.1</ele>
        <time>2022-07-30T19:45:26Z</time>
      </trkpt>
      <trkpt lat="37.7252100" lon="-3.4491550">
        <ele>1935.1</ele>
        <time>2022-07-30T19:45:33Z</time>
      </trkpt>
      <trkpt lat="37.7252330" lon="-3.4491000">
        <ele>1934.6</ele>
        <time>2022-07-30T19:45:46Z</time>
      </trkpt>
      <trkpt lat="37.7252380" lon="-3.4490930">
        <ele>1934.5</ele>
        <time>2022-07-30T19:45:47Z</time>
      </trkpt>
      <trkpt lat="37.7253000" lon="-3.4490030">
        <ele>1934.1</ele>
        <time>2022-07-30T19:45:56Z</time>
      </trkpt>
      <trkpt lat="37.7253930" lon="-3.4489950">
        <ele>1934.1</ele>
        <time>2022-07-30T19:46:15Z</time>
      </trkpt>
      <trkpt lat="37.7254850" lon="-3.4489700">
        <ele>1934.6</ele>
        <time>2022-07-30T19:46:25Z</time>
      </trkpt>
      <trkpt lat="37.7255750" lon="-3.4489670">
        <ele>1935.1</ele>
        <time>2022-07-30T19:46:32Z</time>
      </trkpt>
      <trkpt lat="37.7256320" lon="-3.4490620">
        <ele>1935.5</ele>
        <time>2022-07-30T19:46:40Z</time>
      </trkpt>
      <trkpt lat="37.7256950" lon="-3.4491520">
        <ele>1935.9</ele>
        <time>2022-07-30T19:46:50Z</time>
      </trkpt>
      <trkpt lat="37.7257720" lon="-3.4492130">
        <ele>1936.4</ele>
        <time>2022-07-30T19:46:57Z</time>
      </trkpt>
      <trkpt lat="37.7258470" lon="-3.4492830">
        <ele>1937.1</ele>
        <time>2022-07-30T19:47:06Z</time>
      </trkpt>
      <trkpt lat="37.7258950" lon="-3.4493930">
        <ele>1938.1</ele>
        <time>2022-07-30T19:47:23Z</time>
      </trkpt>
      <trkpt lat="37.7259800" lon="-3.4494620">
        <ele>1939.1</ele>
        <time>2022-07-30T19:47:31Z</time>
      </trkpt>
      <trkpt lat="37.7260670" lon="-3.4495150">
        <ele>1939.8</ele>
        <time>2022-07-30T19:47:41Z</time>
      </trkpt>
      <trkpt lat="37.7261480" lon="-3.4495680">
        <ele>1940.3</ele>
        <time>2022-07-30T19:47:51Z</time>
      </trkpt>
      <trkpt lat="37.7262380" lon="-3.4495970">
        <ele>1940.7</ele>
        <time>2022-07-30T19:48:06Z</time>
      </trkpt>
      <trkpt lat="37.7263350" lon="-3.4496230">
        <ele>1941.0</ele>
        <time>2022-07-30T19:48:15Z</time>
      </trkpt>
      <trkpt lat="37.7264130" lon="-3.4495550">
        <ele>1941.3</ele>
        <time>2022-07-30T19:48:23Z</time>
      </trkpt>
      <trkpt lat="37.7265020" lon="-3.4494830">
        <ele>1941.6</ele>
        <time>2022-07-30T19:48:34Z</time>
      </trkpt>
      <trkpt lat="37.7265680" lon="-3.4494020">
        <ele>1941.9</ele>
        <time>2022-07-30T19:48:42Z</time>
      </trkpt>
      <trkpt lat="37.7266350" lon="-3.4493130">
        <ele>1942.2</ele>
        <time>2022-07-30T19:48:49Z</time>
      </trkpt>
      <trkpt lat="37.7267130" lon="-3.4492380">
        <ele>1942.6</ele>
        <time>2022-07-30T19:48:55Z</time>
      </trkpt>
      <trkpt lat="37.7267830" lon="-3.4491320">
        <ele>1943.1</ele>
        <time>2022-07-30T19:49:04Z</time>
      </trkpt>
      <trkpt lat="37.7268300" lon="-3.4490170">
        <ele>1943.5</ele>
        <time>2022-07-30T19:49:13Z</time>
      </trkpt>
      <trkpt lat="37.7269170" lon="-3.4489670">
        <ele>1943.9</ele>
        <time>2022-07-30T19:49:21Z</time>
      </trkpt>
      <trkpt lat="37.7270030" lon="-3.4489130">
        <ele>1944.3</ele>
        <time>2022-07-30T19:49:30Z</time>
      </trkpt>
      <trkpt lat="37.7270900" lon="-3.4488650">
        <ele>1944.7</ele>
        <time>2022-07-30T19:49:41Z</time>
      </trkpt>
      <trkpt lat="37.7271820" lon="-3.4488320">
        <ele>1945.2</ele>
        <time>2022-07-30T19:49:53Z</time>
      </trkpt>
      <trkpt lat="37.7271850" lon="-3.4488300">
        <ele>1945.2</ele>
        <time>2022-07-30T19:49:55Z</time>
      </trkpt>
      <trkpt lat="37.7271850" lon="-3.4488320">
        <ele>1945.2</ele>
        <time>2022-07-30T19:50:01Z</time>
      </trkpt>
      <trkpt lat="37.7272830" lon="-3.4488080">
        <ele>1945.9</ele>
        <time>2022-07-30T19:50:11Z</time>
      </trkpt>
      <trkpt lat="37.7273750" lon="-3.4488030">
        <ele>1947.0</ele>
        <time>2022-07-30T19:50:18Z</time>
      </trkpt>
      <trkpt lat="37.7274670" lon="-3.4488180">
        <ele>1948.8</ele>
        <time>2022-07-30T19:50:24Z</time>
      </trkpt>
      <trkpt lat="37.7275600" lon="-3.4487970">
        <ele>1951.3</ele>
        <time>2022-07-30T19:50:36Z</time>
      </trkpt>
      <trkpt lat="37.7276400" lon="-3.4487380">
        <ele>1953.9</ele>
        <time>2022-07-30T19:50:55Z</time>
      </trkpt>
      <trkpt lat="37.7276870" lon="-3.4487130">
        <ele>1955.3</ele>
        <time>2022-07-30T19:51:08Z</time>
      </trkpt>
      <trkpt lat="37.7276880" lon="-3.4487130">
        <ele>1955.3</ele>
        <time>2022-07-30T19:51:09Z</time>
      </trkpt>
      <trkpt lat="37.7276800" lon="-3.4487130">
        <ele>1955.6</ele>
        <time>2022-07-30T19:51:11Z</time>
      </trkpt>
      <trkpt lat="37.7276780" lon="-3.4487120">
        <ele>1955.6</ele>
        <time>2022-07-30T19:51:12Z</time>
      </trkpt>
      <trkpt lat="37.7276820" lon="-3.4486930">
        <ele>1956.0</ele>
        <time>2022-07-30T19:51:19Z</time>
      </trkpt>
      <trkpt lat="37.7276830" lon="-3.4486900">
        <ele>1956.1</ele>
        <time>2022-07-30T19:51:28Z</time>
      </trkpt>
      <trkpt lat="37.7277580" lon="-3.4486200">
        <ele>1958.4</ele>
        <time>2022-07-30T19:51:46Z</time>
      </trkpt>
      <trkpt lat="37.7278300" lon="-3.4485370">
        <ele>1960.5</ele>
        <time>2022-07-30T19:51:59Z</time>
      </trkpt>
      <trkpt lat="37.7278900" lon="-3.4484400">
        <ele>1962.4</ele>
        <time>2022-07-30T19:52:18Z</time>
      </trkpt>
      <trkpt lat="37.7279550" lon="-3.4483550">
        <ele>1964.3</ele>
        <time>2022-07-30T19:52:33Z</time>
      </trkpt>
      <trkpt lat="37.7279620" lon="-3.4483470">
        <ele>1964.5</ele>
        <time>2022-07-30T19:52:37Z</time>
      </trkpt>
      <trkpt lat="37.7279620" lon="-3.4483480">
        <ele>1964.5</ele>
        <time>2022-07-30T19:52:38Z</time>
      </trkpt>
      <trkpt lat="37.7279620" lon="-3.4483480">
        <ele>1964.5</ele>
        <time>2022-07-30T19:52:39Z</time>
      </trkpt>
      <trkpt lat="37.7279630" lon="-3.4483500">
        <ele>1964.5</ele>
        <time>2022-07-30T19:52:43Z</time>
      </trkpt>
      <trkpt lat="37.7279700" lon="-3.4483480">
        <ele>1964.7</ele>
        <time>2022-07-30T19:52:47Z</time>
      </trkpt>
      <trkpt lat="37.7279720" lon="-3.4483470">
        <ele>1964.7</ele>
        <time>2022-07-30T19:52:50Z</time>
      </trkpt>
      <trkpt lat="37.7280430" lon="-3.4482670">
        <ele>1966.7</ele>
        <time>2022-07-30T19:53:06Z</time>
      </trkpt>
      <trkpt lat="37.7281070" lon="-3.4481800">
        <ele>1968.5</ele>
        <time>2022-07-30T19:53:27Z</time>
      </trkpt>
      <trkpt lat="37.7281080" lon="-3.4481770">
        <ele>1968.5</ele>
        <time>2022-07-30T19:53:29Z</time>
      </trkpt>
      <trkpt lat="37.7281080" lon="-3.4481750">
        <ele>1968.6</ele>
        <time>2022-07-30T19:53:32Z</time>
      </trkpt>
      <trkpt lat="37.7281670" lon="-3.4480780">
        <ele>1970.3</ele>
        <time>2022-07-30T19:53:43Z</time>
      </trkpt>
      <trkpt lat="37.7282400" lon="-3.4480020">
        <ele>1971.9</ele>
        <time>2022-07-30T19:53:52Z</time>
      </trkpt>
      <trkpt lat="37.7282930" lon="-3.4479050">
        <ele>1973.6</ele>
        <time>2022-07-30T19:54:03Z</time>
      </trkpt>
      <trkpt lat="37.7283850" lon="-3.4478600">
        <ele>1975.3</ele>
        <time>2022-07-30T19:54:17Z</time>
      </trkpt>
      <trkpt lat="37.7284680" lon="-3.4478050">
        <ele>1976.7</ele>
        <time>2022-07-30T19:54:29Z</time>
      </trkpt>
      <trkpt lat="37.7285480" lon="-3.4477500">
        <ele>1978.1</ele>
        <time>2022-07-30T19:54:40Z</time>
      </trkpt>
      <trkpt lat="37.7286430" lon="-3.4477520">
        <ele>1979.8</ele>
        <time>2022-07-30T19:54:47Z</time>
      </trkpt>
      <trkpt lat="37.7287330" lon="-3.4477600">
        <ele>1981.9</ele>
        <time>2022-07-30T19:55:01Z</time>
      </trkpt>
      <trkpt lat="37.7288200" lon="-3.4477970">
        <ele>1984.2</ele>
        <time>2022-07-30T19:55:16Z</time>
      </trkpt>
      <trkpt lat="37.7289100" lon="-3.4477750">
        <ele>1986.6</ele>
        <time>2022-07-30T19:55:38Z</time>
      </trkpt>
      <trkpt lat="37.7289080" lon="-3.4477750">
        <ele>1986.6</ele>
        <time>2022-07-30T19:55:41Z</time>
      </trkpt>
      <trkpt lat="37.7289100" lon="-3.4477750">
        <ele>1986.7</ele>
        <time>2022-07-30T19:55:43Z</time>
      </trkpt>
      <trkpt lat="37.7289100" lon="-3.4477750">
        <ele>1986.7</ele>
        <time>2022-07-30T19:55:44Z</time>
      </trkpt>
      <trkpt lat="37.7289050" lon="-3.4477720">
        <ele>1986.8</ele>
        <time>2022-07-30T19:55:47Z</time>
      </trkpt>
      <trkpt lat="37.7289900" lon="-3.4477330">
        <ele>1989.3</ele>
        <time>2022-07-30T19:56:04Z</time>
      </trkpt>
      <trkpt lat="37.7290200" lon="-3.4476200">
        <ele>1991.9</ele>
        <time>2022-07-30T19:56:20Z</time>
      </trkpt>
      <trkpt lat="37.7291120" lon="-3.4476030">
        <ele>1994.6</ele>
        <time>2022-07-30T19:56:33Z</time>
      </trkpt>
      <trkpt lat="37.7291080" lon="-3.4475830">
        <ele>1995.0</ele>
        <time>2022-07-30T19:56:37Z</time>
      </trkpt>
      <trkpt lat="37.7291080" lon="-3.4475820">
        <ele>1995.0</ele>
        <time>2022-07-30T19:56:38Z</time>
      </trkpt>
      <trkpt lat="37.7291220" lon="-3.4475600">
        <ele>1995.6</ele>
        <time>2022-07-30T19:56:42Z</time>
      </trkpt>
      <trkpt lat="37.7291170" lon="-3.4475620">
        <ele>1995.8</ele>
        <time>2022-07-30T19:56:44Z</time>
      </trkpt>
      <trkpt lat="37.7291170" lon="-3.4475620">
        <ele>1995.8</ele>
        <time>2022-07-30T19:56:45Z</time>
      </trkpt>
      <trkpt lat="37.7291150" lon="-3.4475620">
        <ele>1995.8</ele>
        <time>2022-07-30T19:56:55Z</time>
      </trkpt>
      <trkpt lat="37.7291150" lon="-3.4475620">
        <ele>1995.8</ele>
        <time>2022-07-30T19:56:56Z</time>
      </trkpt>
      <trkpt lat="37.7291120" lon="-3.4475620">
        <ele>1995.9</ele>
        <time>2022-07-30T19:56:59Z</time>
      </trkpt>
      <trkpt lat="37.7290970" lon="-3.4474430">
        <ele>1998.3</ele>
        <time>2022-07-30T19:57:22Z</time>
      </trkpt>
      <trkpt lat="37.7290800" lon="-3.4473270">
        <ele>2000.6</ele>
        <time>2022-07-30T19:57:36Z</time>
      </trkpt>
      <trkpt lat="37.7290220" lon="-3.4472270">
        <ele>2003.0</ele>
        <time>2022-07-30T19:57:48Z</time>
      </trkpt>
      <trkpt lat="37.7290730" lon="-3.4471250">
        <ele>2005.4</ele>
        <time>2022-07-30T19:58:07Z</time>
      </trkpt>
      <trkpt lat="37.7291620" lon="-3.4470980">
        <ele>2007.7</ele>
        <time>2022-07-30T19:58:21Z</time>
      </trkpt>
      <trkpt lat="37.7292520" lon="-3.4470980">
        <ele>2010.0</ele>
        <time>2022-07-30T19:58:33Z</time>
      </trkpt>
      <trkpt lat="37.7293470" lon="-3.4471350">
        <ele>2012.6</ele>
        <time>2022-07-30T19:58:53Z</time>
      </trkpt>
      <trkpt lat="37.7294220" lon="-3.4471800">
        <ele>2014.8</ele>
        <time>2022-07-30T19:59:29Z</time>
      </trkpt>
      <trkpt lat="37.7294220" lon="-3.4471820">
        <ele>2014.8</ele>
        <time>2022-07-30T19:59:31Z</time>
      </trkpt>
      <trkpt lat="37.7294750" lon="-3.4471950">
        <ele>2016.2</ele>
        <time>2022-07-30T19:59:47Z</time>
      </trkpt>
      <trkpt lat="37.7294750" lon="-3.4471970">
        <ele>2016.3</ele>
        <time>2022-07-30T19:59:48Z</time>
      </trkpt>
      <trkpt lat="37.7295670" lon="-3.4472120">
        <ele>2018.6</ele>
        <time>2022-07-30T20:00:04Z</time>
      </trkpt>
      <trkpt lat="37.7296330" lon="-3.4472180">
        <ele>2020.2</ele>
        <time>2022-07-30T20:00:30Z</time>
      </trkpt>
      <trkpt lat="37.7296370" lon="-3.4472170">
        <ele>2020.3</ele>
        <time>2022-07-30T20:00:31Z</time>
      </trkpt>
      <trkpt lat="37.7296370" lon="-3.4472150">
        <ele>2020.4</ele>
        <time>2022-07-30T20:00:33Z</time>
      </trkpt>
      <trkpt lat="37.7296370" lon="-3.4472080">
        <ele>2020.5</ele>
        <time>2022-07-30T20:00:35Z</time>
      </trkpt>
      <trkpt lat="37.7296430" lon="-3.4471600">
        <ele>2021.5</ele>
        <time>2022-07-30T20:00:46Z</time>
      </trkpt>
      <trkpt lat="37.7296400" lon="-3.4471630">
        <ele>2021.6</ele>
        <time>2022-07-30T20:00:47Z</time>
      </trkpt>
      <trkpt lat="37.7296400" lon="-3.4471630">
        <ele>2021.6</ele>
        <time>2022-07-30T20:00:48Z</time>
      </trkpt>
      <trkpt lat="37.7296380" lon="-3.4471650">
        <ele>2021.7</ele>
        <time>2022-07-30T20:00:51Z</time>
      </trkpt>
      <trkpt lat="37.7296380" lon="-3.4471670">
        <ele>2021.7</ele>
        <time>2022-07-30T20:00:53Z</time>
      </trkpt>
      <trkpt lat="37.7296380" lon="-3.4471680">
        <ele>2021.7</ele>
        <time>2022-07-30T20:00:58Z</time>
      </trkpt>
      <trkpt lat="37.7296400" lon="-3.4471670">
        <ele>2021.8</ele>
        <time>2022-07-30T20:01:00Z</time>
      </trkpt>
      <trkpt lat="37.7296330" lon="-3.4471650">
        <ele>2022.0</ele>
        <time>2022-07-30T20:01:02Z</time>
      </trkpt>
      <trkpt lat="37.7296180" lon="-3.4470520">
        <ele>2024.5</ele>
        <time>2022-07-30T20:01:18Z</time>
      </trkpt>
      <trkpt lat="37.7296030" lon="-3.4469330">
        <ele>2027.5</ele>
        <time>2022-07-30T20:01:31Z</time>
      </trkpt>
      <trkpt lat="37.7296020" lon="-3.4469270">
        <ele>2027.7</ele>
        <time>2022-07-30T20:01:35Z</time>
      </trkpt>
      <trkpt lat="37.7296020" lon="-3.4469230">
        <ele>2027.8</ele>
        <time>2022-07-30T20:01:36Z</time>
      </trkpt>
      <trkpt lat="37.7296930" lon="-3.4469080">
        <ele>2030.8</ele>
        <time>2022-07-30T20:02:05Z</time>
      </trkpt>
      <trkpt lat="37.7297880" lon="-3.4469100">
        <ele>2033.3</ele>
        <time>2022-07-30T20:02:22Z</time>
      </trkpt>
      <trkpt lat="37.7298300" lon="-3.4468500">
        <ele>2034.7</ele>
        <time>2022-07-30T20:02:40Z</time>
      </trkpt>
      <trkpt lat="37.7298280" lon="-3.4468480">
        <ele>2034.7</ele>
        <time>2022-07-30T20:02:45Z</time>
      </trkpt>
      <trkpt lat="37.7298300" lon="-3.4467250">
        <ele>2037.2</ele>
        <time>2022-07-30T20:02:58Z</time>
      </trkpt>
      <trkpt lat="37.7299280" lon="-3.4467170">
        <ele>2039.7</ele>
        <time>2022-07-30T20:03:11Z</time>
      </trkpt>
      <trkpt lat="37.7300200" lon="-3.4467450">
        <ele>2041.7</ele>
        <time>2022-07-30T20:03:28Z</time>
      </trkpt>
      <trkpt lat="37.7301100" lon="-3.4467400">
        <ele>2043.6</ele>
        <time>2022-07-30T20:03:43Z</time>
      </trkpt>
      <trkpt lat="37.7302080" lon="-3.4467680">
        <ele>2045.6</ele>
        <time>2022-07-30T20:03:57Z</time>
      </trkpt>
      <trkpt lat="37.7303050" lon="-3.4467530">
        <ele>2047.0</ele>
        <time>2022-07-30T20:04:10Z</time>
      </trkpt>
      <trkpt lat="37.7303320" lon="-3.4466800">
        <ele>2047.7</ele>
        <time>2022-07-30T20:04:23Z</time>
      </trkpt>
      <trkpt lat="37.7303370" lon="-3.4466770">
        <ele>2047.7</ele>
        <time>2022-07-30T20:04:25Z</time>
      </trkpt>
      <trkpt lat="37.7303750" lon="-3.4466730">
        <ele>2047.7</ele>
        <time>2022-07-30T20:04:32Z</time>
      </trkpt>
      <trkpt lat="37.7303730" lon="-3.4466730">
        <ele>2047.8</ele>
        <time>2022-07-30T20:04:33Z</time>
      </trkpt>
      <trkpt lat="37.7303820" lon="-3.4466750">
        <ele>2047.9</ele>
        <time>2022-07-30T20:04:37Z</time>
      </trkpt>
      <trkpt lat="37.7303820" lon="-3.4466770">
        <ele>2047.9</ele>
        <time>2022-07-30T20:04:42Z</time>
      </trkpt>
      <trkpt lat="37.7303730" lon="-3.4466780">
        <ele>2048.0</ele>
        <time>2022-07-30T20:04:48Z</time>
      </trkpt>
      <trkpt lat="37.7303720" lon="-3.4466800">
        <ele>2048.0</ele>
        <time>2022-07-30T20:04:56Z</time>
      </trkpt>
      <trkpt lat="37.7303720" lon="-3.4466800">
        <ele>2048.0</ele>
        <time>2022-07-30T20:04:57Z</time>
      </trkpt>
      <trkpt lat="37.7303730" lon="-3.4466800">
        <ele>2048.1</ele>
        <time>2022-07-30T20:05:00Z</time>
      </trkpt>
      <trkpt lat="37.7303830" lon="-3.4466270">
        <ele>2048.6</ele>
        <time>2022-07-30T20:05:13Z</time>
      </trkpt>
      <trkpt lat="37.7303830" lon="-3.4466280">
        <ele>2048.6</ele>
        <time>2022-07-30T20:05:21Z</time>
      </trkpt>
      <trkpt lat="37.7303830" lon="-3.4466280">
        <ele>2048.6</ele>
        <time>2022-07-30T20:05:22Z</time>
      </trkpt>
      <trkpt lat="37.7303820" lon="-3.4466300">
        <ele>2048.7</ele>
        <time>2022-07-30T20:05:25Z</time>
      </trkpt>
      <trkpt lat="37.7303770" lon="-3.4466530">
        <ele>2048.9</ele>
        <time>2022-07-30T20:05:33Z</time>
      </trkpt>
      <trkpt lat="37.7303780" lon="-3.4466530">
        <ele>2048.9</ele>
        <time>2022-07-30T20:05:38Z</time>
      </trkpt>
      <trkpt lat="37.7303730" lon="-3.4466730">
        <ele>2049.1</ele>
        <time>2022-07-30T20:05:46Z</time>
      </trkpt>
      <trkpt lat="37.7303730" lon="-3.4466750">
        <ele>2049.2</ele>
        <time>2022-07-30T20:06:59Z</time>
      </trkpt>
      <trkpt lat="37.7303750" lon="-3.4466730">
        <ele>2049.2</ele>
        <time>2022-07-30T20:07:02Z</time>
      </trkpt>
      <trkpt lat="37.7303730" lon="-3.4466770">
        <ele>2049.2</ele>
        <time>2022-07-30T20:07:19Z</time>
      </trkpt>
      <trkpt lat="37.7303630" lon="-3.4466800">
        <ele>2049.4</ele>
        <time>2022-07-30T20:07:25Z</time>
      </trkpt>
      <trkpt lat="37.7303630" lon="-3.4466820">
        <ele>2049.4</ele>
        <time>2022-07-30T20:07:26Z</time>
      </trkpt>
      <trkpt lat="37.7302650" lon="-3.4466780">
        <ele>2050.7</ele>
        <time>2022-07-30T20:07:34Z</time>
      </trkpt>
      <trkpt lat="37.7303050" lon="-3.4465470">
        <ele>2052.3</ele>
        <time>2022-07-30T20:07:44Z</time>
      </trkpt>
      <trkpt lat="37.7304030" lon="-3.4465220">
        <ele>2053.6</ele>
        <time>2022-07-30T20:08:14Z</time>
      </trkpt>
      <trkpt lat="37.7303950" lon="-3.4466480">
        <ele>2054.9</ele>
        <time>2022-07-30T20:08:19Z</time>
      </trkpt>
      <trkpt lat="37.7303880" lon="-3.4467700">
        <ele>2056.2</ele>
        <time>2022-07-30T20:08:26Z</time>
      </trkpt>
      <trkpt lat="37.7304030" lon="-3.4466530">
        <ele>2057.5</ele>
        <time>2022-07-30T20:08:30Z</time>
      </trkpt>
      <trkpt lat="37.7303930" lon="-3.4466520">
        <ele>2057.6</ele>
        <time>2022-07-30T20:08:33Z</time>
      </trkpt>
      <trkpt lat="37.7303830" lon="-3.4466720">
        <ele>2057.9</ele>
        <time>2022-07-30T20:08:34Z</time>
      </trkpt>
      <trkpt lat="37.7303820" lon="-3.4466720">
        <ele>2057.9</ele>
        <time>2022-07-30T20:08:36Z</time>
      </trkpt>
      <trkpt lat="37.7303800" lon="-3.4466720">
        <ele>2057.9</ele>
        <time>2022-07-30T20:08:37Z</time>
      </trkpt>
      <trkpt lat="37.7303770" lon="-3.4466880">
        <ele>2058.1</ele>
        <time>2022-07-30T20:08:47Z</time>
      </trkpt>
      <trkpt lat="37.7303780" lon="-3.4466870">
        <ele>2058.1</ele>
        <time>2022-07-30T20:08:48Z</time>
      </trkpt>
      <trkpt lat="37.7303950" lon="-3.4466470">
        <ele>2058.6</ele>
        <time>2022-07-30T20:08:58Z</time>
      </trkpt>
      <trkpt lat="37.7303950" lon="-3.4466480">
        <ele>2058.6</ele>
        <time>2022-07-30T20:09:00Z</time>
      </trkpt>
      <trkpt lat="37.7303950" lon="-3.4466480">
        <ele>2058.6</ele>
        <time>2022-07-30T20:09:01Z</time>
      </trkpt>
      <trkpt lat="37.7303970" lon="-3.4466480">
        <ele>2058.6</ele>
        <time>2022-07-30T20:09:02Z</time>
      </trkpt>
      <trkpt lat="37.7304000" lon="-3.4466500">
        <ele>2058.6</ele>
        <time>2022-07-30T20:09:06Z</time>
      </trkpt>
      <trkpt lat="37.7304020" lon="-3.4466500">
        <ele>2058.7</ele>
        <time>2022-07-30T20:09:07Z</time>
      </trkpt>
      <trkpt lat="37.7304020" lon="-3.4466420">
        <ele>2058.7</ele>
        <time>2022-07-30T20:09:11Z</time>
      </trkpt>
      <trkpt lat="37.7303980" lon="-3.4466370">
        <ele>2058.8</ele>
        <time>2022-07-30T20:09:12Z</time>
      </trkpt>
      <trkpt lat="37.7303870" lon="-3.4466400">
        <ele>2059.0</ele>
        <time>2022-07-30T20:09:33Z</time>
      </trkpt>
      <trkpt lat="37.7303850" lon="-3.4466420">
        <ele>2059.0</ele>
        <time>2022-07-30T20:09:34Z</time>
      </trkpt>
      <trkpt lat="37.7303700" lon="-3.4465220">
        <ele>2060.1</ele>
        <time>2022-07-30T20:09:50Z</time>
      </trkpt>
      <trkpt lat="37.7303370" lon="-3.4464020">
        <ele>2061.0</ele>
        <time>2022-07-30T20:09:56Z</time>
      </trkpt>
      <trkpt lat="37.7303050" lon="-3.4462920">
        <ele>2061.8</ele>
        <time>2022-07-30T20:10:04Z</time>
      </trkpt>
      <trkpt lat="37.7302670" lon="-3.4461700">
        <ele>2062.3</ele>
        <time>2022-07-30T20:10:11Z</time>
      </trkpt>
      <trkpt lat="37.7302030" lon="-3.4460800">
        <ele>2062.3</ele>
        <time>2022-07-30T20:10:21Z</time>
      </trkpt>
      <trkpt lat="37.7301370" lon="-3.4460000">
        <ele>2062.0</ele>
        <time>2022-07-30T20:10:29Z</time>
      </trkpt>
      <trkpt lat="37.7300600" lon="-3.4459170">
        <ele>2061.7</ele>
        <time>2022-07-30T20:10:39Z</time>
      </trkpt>
      <trkpt lat="37.7299730" lon="-3.4458750">
        <ele>2061.6</ele>
        <time>2022-07-30T20:10:49Z</time>
      </trkpt>
      <trkpt lat="37.7299070" lon="-3.4457880">
        <ele>2061.7</ele>
        <time>2022-07-30T20:11:02Z</time>
      </trkpt>
      <trkpt lat="37.7298920" lon="-3.4456580">
        <ele>2061.8</ele>
        <time>2022-07-30T20:11:10Z</time>
      </trkpt>
      <trkpt lat="37.7299270" lon="-3.4455420">
        <ele>2061.8</ele>
        <time>2022-07-30T20:11:19Z</time>
      </trkpt>
      <trkpt lat="37.7299850" lon="-3.4454520">
        <ele>2061.7</ele>
        <time>2022-07-30T20:11:27Z</time>
      </trkpt>
      <trkpt lat="37.7300720" lon="-3.4453970">
        <ele>2061.5</ele>
        <time>2022-07-30T20:11:34Z</time>
      </trkpt>
      <trkpt lat="37.7301700" lon="-3.4453620">
        <ele>2061.2</ele>
        <time>2022-07-30T20:11:41Z</time>
      </trkpt>
      <trkpt lat="37.7302580" lon="-3.4453080">
        <ele>2061.0</ele>
        <time>2022-07-30T20:11:49Z</time>
      </trkpt>
      <trkpt lat="37.7302950" lon="-3.4452020">
        <ele>2060.9</ele>
        <time>2022-07-30T20:11:56Z</time>
      </trkpt>
      <trkpt lat="37.7303520" lon="-3.4451100">
        <ele>2060.8</ele>
        <time>2022-07-30T20:12:04Z</time>
      </trkpt>
      <trkpt lat="37.7304000" lon="-3.4450130">
        <ele>2060.6</ele>
        <time>2022-07-30T20:12:11Z</time>
      </trkpt>
      <trkpt lat="37.7304730" lon="-3.4449330">
        <ele>2060.3</ele>
        <time>2022-07-30T20:12:16Z</time>
      </trkpt>
      <trkpt lat="37.7305250" lon="-3.4448380">
        <ele>2060.0</ele>
        <time>2022-07-30T20:12:22Z</time>
      </trkpt>
      <trkpt lat="37.7305430" lon="-3.4447150">
        <ele>2059.6</ele>
        <time>2022-07-30T20:12:30Z</time>
      </trkpt>
      <trkpt lat="37.7305780" lon="-3.4445980">
        <ele>2059.4</ele>
        <time>2022-07-30T20:12:39Z</time>
      </trkpt>
      <trkpt lat="37.7305920" lon="-3.4444850">
        <ele>2059.3</ele>
        <time>2022-07-30T20:12:46Z</time>
      </trkpt>
      <trkpt lat="37.7306500" lon="-3.4443950">
        <ele>2059.3</ele>
        <time>2022-07-30T20:12:54Z</time>
      </trkpt>
      <trkpt lat="37.7306730" lon="-3.4442800">
        <ele>2059.4</ele>
        <time>2022-07-30T20:13:03Z</time>
      </trkpt>
      <trkpt lat="37.7306680" lon="-3.4441580">
        <ele>2059.3</ele>
        <time>2022-07-30T20:13:12Z</time>
      </trkpt>
      <trkpt lat="37.7306600" lon="-3.4440350">
        <ele>2059.2</ele>
        <time>2022-07-30T20:13:21Z</time>
      </trkpt>
      <trkpt lat="37.7306680" lon="-3.4439180">
        <ele>2059.3</ele>
        <time>2022-07-30T20:13:28Z</time>
      </trkpt>
      <trkpt lat="37.7307150" lon="-3.4438030">
        <ele>2059.8</ele>
        <time>2022-07-30T20:13:34Z</time>
      </trkpt>
      <trkpt lat="37.7307280" lon="-3.4436700">
        <ele>2060.6</ele>
        <time>2022-07-30T20:13:43Z</time>
      </trkpt>
      <trkpt lat="37.7307500" lon="-3.4435550">
        <ele>2061.5</ele>
        <time>2022-07-30T20:13:53Z</time>
      </trkpt>
      <trkpt lat="37.7307420" lon="-3.4434330">
        <ele>2062.3</ele>
        <time>2022-07-30T20:14:01Z</time>
      </trkpt>
      <trkpt lat="37.7307600" lon="-3.4433200">
        <ele>2063.0</ele>
        <time>2022-07-30T20:14:09Z</time>
      </trkpt>
      <trkpt lat="37.7308250" lon="-3.4432150">
        <ele>2063.6</ele>
        <time>2022-07-30T20:14:17Z</time>
      </trkpt>
      <trkpt lat="37.7308630" lon="-3.4431020">
        <ele>2064.0</ele>
        <time>2022-07-30T20:14:25Z</time>
      </trkpt>
      <trkpt lat="37.7309050" lon="-3.4429920">
        <ele>2064.4</ele>
        <time>2022-07-30T20:14:34Z</time>
      </trkpt>
      <trkpt lat="37.7309950" lon="-3.4429600">
        <ele>2064.4</ele>
        <time>2022-07-30T20:14:41Z</time>
      </trkpt>
      <trkpt lat="37.7310270" lon="-3.4428530">
        <ele>2064.3</ele>
        <time>2022-07-30T20:15:14Z</time>
      </trkpt>
      <trkpt lat="37.7310880" lon="-3.4429780">
        <ele>2064.3</ele>
        <time>2022-07-30T20:15:22Z</time>
      </trkpt>
      <trkpt lat="37.7311180" lon="-3.4431020">
        <ele>2064.2</ele>
        <time>2022-07-30T20:15:26Z</time>
      </trkpt>
      <trkpt lat="37.7310830" lon="-3.4429700">
        <ele>2064.0</ele>
        <time>2022-07-30T20:15:31Z</time>
      </trkpt>
      <trkpt lat="37.7310870" lon="-3.4428530">
        <ele>2063.8</ele>
        <time>2022-07-30T20:15:37Z</time>
      </trkpt>
      <trkpt lat="37.7310860" lon="-3.4428530">
        <ele>2063.8</ele>
        <time>2022-07-30T20:16:10Z</time>
      </trkpt>
      <trkpt lat="37.7310860" lon="-3.4428530">
        <ele>2063.8</ele>
        <time>2022-07-30T20:16:33Z</time>
      </trkpt>
      <trkpt lat="37.7310850" lon="-3.4428540">
        <ele>2063.8</ele>
        <time>2022-07-30T20:16:36Z</time>
      </trkpt>
      <trkpt lat="37.7310840" lon="-3.4428540">
        <ele>2063.8</ele>
        <time>2022-07-30T20:16:56Z</time>
      </trkpt>
      <trkpt lat="37.7310830" lon="-3.4428540">
        <ele>2063.8</ele>
        <time>2022-07-30T20:16:58Z</time>
      </trkpt>
      <trkpt lat="37.7310830" lon="-3.4428540">
        <ele>2063.8</ele>
        <time>2022-07-30T20:16:59Z</time>
      </trkpt>
      <trkpt lat="37.7310820" lon="-3.4428540">
        <ele>2063.8</ele>
        <time>2022-07-30T20:17:01Z</time>
      </trkpt>
      <trkpt lat="37.7310810" lon="-3.4428540">
        <ele>2063.8</ele>
        <time>2022-07-30T20:17:02Z</time>
      </trkpt>
      <trkpt lat="37.7310800" lon="-3.4428550">
        <ele>2063.8</ele>
        <time>2022-07-30T20:17:04Z</time>
      </trkpt>
      <trkpt lat="37.7310800" lon="-3.4428550">
        <ele>2063.8</ele>
        <time>2022-07-30T20:17:08Z</time>
      </trkpt>
      <trkpt lat="37.7310790" lon="-3.4428550">
        <ele>2063.8</ele>
        <time>2022-07-30T20:17:16Z</time>
      </trkpt>
      <trkpt lat="37.7310780" lon="-3.4428550">
        <ele>2063.8</ele>
        <time>2022-07-30T20:17:17Z</time>
      </trkpt>
      <trkpt lat="37.7310770" lon="-3.4428550">
        <ele>2063.8</ele>
        <time>2022-07-30T20:17:20Z</time>
      </trkpt>
      <trkpt lat="37.7310770" lon="-3.4428550">
        <ele>2063.8</ele>
        <time>2022-07-30T20:17:21Z</time>
      </trkpt>
      <trkpt lat="37.7310760" lon="-3.4428550">
        <ele>2063.8</ele>
        <time>2022-07-30T20:17:25Z</time>
      </trkpt>
      <trkpt lat="37.7310750" lon="-3.4428560">
        <ele>2063.8</ele>
        <time>2022-07-30T20:17:27Z</time>
      </trkpt>
      <trkpt lat="37.7310740" lon="-3.4428560">
        <ele>2063.8</ele>
        <time>2022-07-30T20:17:32Z</time>
      </trkpt>
      <trkpt lat="37.7310740" lon="-3.4428560">
        <ele>2063.8</ele>
        <time>2022-07-30T20:17:34Z</time>
      </trkpt>
      <trkpt lat="37.7310730" lon="-3.4428560">
        <ele>2063.8</ele>
        <time>2022-07-30T20:17:36Z</time>
      </trkpt>
      <trkpt lat="37.7310720" lon="-3.4428560">
        <ele>2063.8</ele>
        <time>2022-07-30T20:17:37Z</time>
      </trkpt>
      <trkpt lat="37.7310710" lon="-3.4428560">
        <ele>2063.8</ele>
        <time>2022-07-30T20:17:39Z</time>
      </trkpt>
      <trkpt lat="37.7310710" lon="-3.4428570">
        <ele>2063.8</ele>
        <time>2022-07-30T20:17:40Z</time>
      </trkpt>
      <trkpt lat="37.7310700" lon="-3.4428570">
        <ele>2063.8</ele>
        <time>2022-07-30T20:17:41Z</time>
      </trkpt>
      <trkpt lat="37.7310690" lon="-3.4428570">
        <ele>2063.8</ele>
        <time>2022-07-30T20:17:42Z</time>
      </trkpt>
      <trkpt lat="37.7310680" lon="-3.4428570">
        <ele>2063.8</ele>
        <time>2022-07-30T20:17:43Z</time>
      </trkpt>
      <trkpt lat="37.7310670" lon="-3.4428570">
        <ele>2063.8</ele>
        <time>2022-07-30T20:17:44Z</time>
      </trkpt>
      <trkpt lat="37.7310670" lon="-3.4428570">
        <ele>2063.8</ele>
        <time>2022-07-30T20:17:46Z</time>
      </trkpt>
      <trkpt lat="37.7310660" lon="-3.4428570">
        <ele>2063.8</ele>
        <time>2022-07-30T20:17:47Z</time>
      </trkpt>
      <trkpt lat="37.7310650" lon="-3.4428580">
        <ele>2063.8</ele>
        <time>2022-07-30T20:17:51Z</time>
      </trkpt>
      <trkpt lat="37.7310640" lon="-3.4428580">
        <ele>2063.8</ele>
        <time>2022-07-30T20:17:53Z</time>
      </trkpt>
      <trkpt lat="37.7310640" lon="-3.4428580">
        <ele>2063.8</ele>
        <time>2022-07-30T20:17:56Z</time>
      </trkpt>
      <trkpt lat="37.7310630" lon="-3.4428580">
        <ele>2063.8</ele>
        <time>2022-07-30T20:17:57Z</time>
      </trkpt>
      <trkpt lat="37.7310620" lon="-3.4428580">
        <ele>2063.8</ele>
        <time>2022-07-30T20:17:58Z</time>
      </trkpt>
      <trkpt lat="37.7310610" lon="-3.4428580">
        <ele>2063.8</ele>
        <time>2022-07-30T20:18:00Z</time>
      </trkpt>
      <trkpt lat="37.7310610" lon="-3.4428580">
        <ele>2063.8</ele>
        <time>2022-07-30T20:18:03Z</time>
      </trkpt>
      <trkpt lat="37.7310600" lon="-3.4428590">
        <ele>2063.8</ele>
        <time>2022-07-30T20:18:04Z</time>
      </trkpt>
      <trkpt lat="37.7310590" lon="-3.4428590">
        <ele>2063.8</ele>
        <time>2022-07-30T20:18:06Z</time>
      </trkpt>
      <trkpt lat="37.7310580" lon="-3.4428590">
        <ele>2063.8</ele>
        <time>2022-07-30T20:18:18Z</time>
      </trkpt>
      <trkpt lat="37.7310580" lon="-3.4428590">
        <ele>2063.8</ele>
        <time>2022-07-30T20:18:19Z</time>
      </trkpt>
      <trkpt lat="37.7310570" lon="-3.4428590">
        <ele>2063.8</ele>
        <time>2022-07-30T20:18:26Z</time>
      </trkpt>
      <trkpt lat="37.7310560" lon="-3.4428590">
        <ele>2063.8</ele>
        <time>2022-07-30T20:18:30Z</time>
      </trkpt>
      <trkpt lat="37.7310550" lon="-3.4428600">
        <ele>2063.7</ele>
        <time>2022-07-30T20:18:45Z</time>
      </trkpt>
      <trkpt lat="37.7310550" lon="-3.4428600">
        <ele>2063.7</ele>
        <time>2022-07-30T20:19:29Z</time>
      </trkpt>
      <trkpt lat="37.7310540" lon="-3.4428600">
        <ele>2063.7</ele>
        <time>2022-07-30T20:19:55Z</time>
      </trkpt>
      <trkpt lat="37.7310530" lon="-3.4428600">
        <ele>2063.7</ele>
        <time>2022-07-30T20:20:43Z</time>
      </trkpt>
      <trkpt lat="37.7310520" lon="-3.4428600">
        <ele>2063.7</ele>
        <time>2022-07-30T20:20:44Z</time>
      </trkpt>
      <trkpt lat="37.7310510" lon="-3.4428600">
        <ele>2063.7</ele>
        <time>2022-07-30T20:21:00Z</time>
      </trkpt>
      <trkpt lat="37.7310510" lon="-3.4428600">
        <ele>2063.7</ele>
        <time>2022-07-30T20:21:58Z</time>
      </trkpt>
      <trkpt lat="37.7310500" lon="-3.4428610">
        <ele>2063.7</ele>
        <time>2022-07-30T20:21:59Z</time>
      </trkpt>
      <trkpt lat="37.7310490" lon="-3.4428610">
        <ele>2063.7</ele>
        <time>2022-07-30T20:22:03Z</time>
      </trkpt>
      <trkpt lat="37.7310480" lon="-3.4428610">
        <ele>2063.7</ele>
        <time>2022-07-30T20:22:04Z</time>
      </trkpt>
      <trkpt lat="37.7310480" lon="-3.4428610">
        <ele>2063.7</ele>
        <time>2022-07-30T20:22:24Z</time>
      </trkpt>
      <trkpt lat="37.7310470" lon="-3.4428610">
        <ele>2063.7</ele>
        <time>2022-07-30T20:22:27Z</time>
      </trkpt>
      <trkpt lat="37.7310460" lon="-3.4428610">
        <ele>2063.7</ele>
        <time>2022-07-30T20:22:28Z</time>
      </trkpt>
      <trkpt lat="37.7310450" lon="-3.4428620">
        <ele>2063.7</ele>
        <time>2022-07-30T20:22:37Z</time>
      </trkpt>
      <trkpt lat="37.7310450" lon="-3.4428620">
        <ele>2063.7</ele>
        <time>2022-07-30T20:22:38Z</time>
      </trkpt>
      <trkpt lat="37.7310440" lon="-3.4428620">
        <ele>2063.7</ele>
        <time>2022-07-30T20:23:33Z</time>
      </trkpt>
      <trkpt lat="37.7310430" lon="-3.4428620">
        <ele>2063.7</ele>
        <time>2022-07-30T20:24:15Z</time>
      </trkpt>
      <trkpt lat="37.7310420" lon="-3.4428620">
        <ele>2063.7</ele>
        <time>2022-07-30T20:24:36Z</time>
      </trkpt>
      <trkpt lat="37.7310420" lon="-3.4428620">
        <ele>2063.7</ele>
        <time>2022-07-30T20:25:41Z</time>
      </trkpt>
      <trkpt lat="37.7310410" lon="-3.4428620">
        <ele>2063.7</ele>
        <time>2022-07-30T20:25:43Z</time>
      </trkpt>
      <trkpt lat="37.7310400" lon="-3.4428630">
        <ele>2063.7</ele>
        <time>2022-07-30T20:25:44Z</time>
      </trkpt>
      <trkpt lat="37.7310390" lon="-3.4428630">
        <ele>2063.7</ele>
        <time>2022-07-30T20:26:22Z</time>
      </trkpt>
      <trkpt lat="37.7310390" lon="-3.4428630">
        <ele>2063.7</ele>
        <time>2022-07-30T20:26:23Z</time>
      </trkpt>
      <trkpt lat="37.7310380" lon="-3.4428630">
        <ele>2063.7</ele>
        <time>2022-07-30T20:27:17Z</time>
      </trkpt>
      <trkpt lat="37.7310370" lon="-3.4428630">
        <ele>2063.7</ele>
        <time>2022-07-30T20:27:18Z</time>
      </trkpt>
      <trkpt lat="37.7310360" lon="-3.4428630">
        <ele>2063.7</ele>
        <time>2022-07-30T20:27:19Z</time>
      </trkpt>
      <trkpt lat="37.7310360" lon="-3.4428640">
        <ele>2063.7</ele>
        <time>2022-07-30T20:27:20Z</time>
      </trkpt>
      <trkpt lat="37.7310350" lon="-3.4428640">
        <ele>2063.7</ele>
        <time>2022-07-30T20:27:22Z</time>
      </trkpt>
      <trkpt lat="37.7310340" lon="-3.4428640">
        <ele>2063.7</ele>
        <time>2022-07-30T20:27:23Z</time>
      </trkpt>
      <trkpt lat="37.7310330" lon="-3.4428640">
        <ele>2063.7</ele>
        <time>2022-07-30T20:29:40Z</time>
      </trkpt>
      <trkpt lat="37.7310320" lon="-3.4428640">
        <ele>2063.7</ele>
        <time>2022-07-30T20:29:58Z</time>
      </trkpt>
      <trkpt lat="37.7310320" lon="-3.4428640">
        <ele>2063.7</ele>
        <time>2022-07-30T20:29:59Z</time>
      </trkpt>
      <trkpt lat="37.7310310" lon="-3.4428640">
        <ele>2063.7</ele>
        <time>2022-07-30T20:30:51Z</time>
      </trkpt>
      <trkpt lat="37.7310300" lon="-3.4428650">
        <ele>2063.7</ele>
        <time>2022-07-30T20:30:53Z</time>
      </trkpt>
      <trkpt lat="37.7310290" lon="-3.4428650">
        <ele>2063.7</ele>
        <time>2022-07-30T20:30:58Z</time>
      </trkpt>
      <trkpt lat="37.7310290" lon="-3.4428650">
        <ele>2063.7</ele>
        <time>2022-07-30T20:31:02Z</time>
      </trkpt>
      <trkpt lat="37.7310280" lon="-3.4428650">
        <ele>2063.7</ele>
        <time>2022-07-30T20:31:25Z</time>
      </trkpt>
      <trkpt lat="37.7310270" lon="-3.4428650">
        <ele>2063.7</ele>
        <time>2022-07-30T20:31:26Z</time>
      </trkpt>
      <trkpt lat="37.7310260" lon="-3.4428650">
        <ele>2063.7</ele>
        <time>2022-07-30T20:32:06Z</time>
      </trkpt>
      <trkpt lat="37.7310260" lon="-3.4428650">
        <ele>2063.7</ele>
        <time>2022-07-30T20:32:32Z</time>
      </trkpt>
      <trkpt lat="37.7310250" lon="-3.4428660">
        <ele>2063.7</ele>
        <time>2022-07-30T20:32:33Z</time>
      </trkpt>
      <trkpt lat="37.7310240" lon="-3.4428660">
        <ele>2063.7</ele>
        <time>2022-07-30T20:32:34Z</time>
      </trkpt>
      <trkpt lat="37.7310230" lon="-3.4428660">
        <ele>2063.7</ele>
        <time>2022-07-30T20:32:37Z</time>
      </trkpt>
      <trkpt lat="37.7310230" lon="-3.4428660">
        <ele>2063.7</ele>
        <time>2022-07-30T20:32:57Z</time>
      </trkpt>
      <trkpt lat="37.7310220" lon="-3.4428660">
        <ele>2063.7</ele>
        <time>2022-07-30T20:32:59Z</time>
      </trkpt>
      <trkpt lat="37.7310210" lon="-3.4428660">
        <ele>2063.7</ele>
        <time>2022-07-30T20:33:00Z</time>
      </trkpt>
      <trkpt lat="37.7310200" lon="-3.4428670">
        <ele>2063.7</ele>
        <time>2022-07-30T20:33:01Z</time>
      </trkpt>
      <trkpt lat="37.7310200" lon="-3.4428670">
        <ele>2063.7</ele>
        <time>2022-07-30T20:33:11Z</time>
      </trkpt>
      <trkpt lat="37.7310190" lon="-3.4428670">
        <ele>2063.7</ele>
        <time>2022-07-30T20:33:20Z</time>
      </trkpt>
      <trkpt lat="37.7310180" lon="-3.4428670">
        <ele>2063.7</ele>
        <time>2022-07-30T20:33:20Z</time>
      </trkpt>
      <trkpt lat="37.7308920" lon="-3.4432180">
        <ele>2063.7</ele>
        <time>2022-07-31T05:54:41Z</time>
      </trkpt>
      <trkpt lat="37.7308850" lon="-3.4432230">
        <ele>2063.7</ele>
        <time>2022-07-31T05:54:42Z</time>
      </trkpt>
      <trkpt lat="37.7308850" lon="-3.4432230">
        <ele>2063.7</ele>
        <time>2022-07-31T05:54:42Z</time>
      </trkpt>
      <trkpt lat="37.7308580" lon="-3.4432530">
        <ele>2063.4</ele>
        <time>2022-07-31T05:54:51Z</time>
      </trkpt>
      <trkpt lat="37.7308550" lon="-3.4432500">
        <ele>2063.4</ele>
        <time>2022-07-31T05:54:53Z</time>
      </trkpt>
      <trkpt lat="37.7307800" lon="-3.4433230">
        <ele>2062.7</ele>
        <time>2022-07-31T05:55:02Z</time>
      </trkpt>
      <trkpt lat="37.7307430" lon="-3.4434420">
        <ele>2061.6</ele>
        <time>2022-07-31T05:55:09Z</time>
      </trkpt>
      <trkpt lat="37.7307370" lon="-3.4435600">
        <ele>2060.6</ele>
        <time>2022-07-31T05:55:16Z</time>
      </trkpt>
      <trkpt lat="37.7307180" lon="-3.4436830">
        <ele>2059.7</ele>
        <time>2022-07-31T05:55:23Z</time>
      </trkpt>
      <trkpt lat="37.7306830" lon="-3.4438020">
        <ele>2059.3</ele>
        <time>2022-07-31T05:55:30Z</time>
      </trkpt>
      <trkpt lat="37.7306380" lon="-3.4439020">
        <ele>2059.3</ele>
        <time>2022-07-31T05:55:37Z</time>
      </trkpt>
      <trkpt lat="37.7306030" lon="-3.4440150">
        <ele>2059.4</ele>
        <time>2022-07-31T05:55:45Z</time>
      </trkpt>
      <trkpt lat="37.7306120" lon="-3.4441400">
        <ele>2059.3</ele>
        <time>2022-07-31T05:55:51Z</time>
      </trkpt>
      <trkpt lat="37.7306470" lon="-3.4442550">
        <ele>2059.3</ele>
        <time>2022-07-31T05:56:00Z</time>
      </trkpt>
      <trkpt lat="37.7306480" lon="-3.4443730">
        <ele>2059.5</ele>
        <time>2022-07-31T05:56:08Z</time>
      </trkpt>
      <trkpt lat="37.7305900" lon="-3.4444730">
        <ele>2059.9</ele>
        <time>2022-07-31T05:56:16Z</time>
      </trkpt>
      <trkpt lat="37.7305580" lon="-3.4446020">
        <ele>2060.4</ele>
        <time>2022-07-31T05:56:25Z</time>
      </trkpt>
      <trkpt lat="37.7305350" lon="-3.4447200">
        <ele>2060.7</ele>
        <time>2022-07-31T05:56:33Z</time>
      </trkpt>
      <trkpt lat="37.7305070" lon="-3.4448380">
        <ele>2060.9</ele>
        <time>2022-07-31T05:56:41Z</time>
      </trkpt>
      <trkpt lat="37.7304630" lon="-3.4449530">
        <ele>2061.0</ele>
        <time>2022-07-31T05:56:52Z</time>
      </trkpt>
      <trkpt lat="37.7303950" lon="-3.4450520">
        <ele>2061.3</ele>
        <time>2022-07-31T05:56:59Z</time>
      </trkpt>
      <trkpt lat="37.7303470" lon="-3.4451480">
        <ele>2061.5</ele>
        <time>2022-07-31T05:57:06Z</time>
      </trkpt>
      <trkpt lat="37.7303030" lon="-3.4452500">
        <ele>2061.8</ele>
        <time>2022-07-31T05:57:16Z</time>
      </trkpt>
      <trkpt lat="37.7302200" lon="-3.4453220">
        <ele>2061.8</ele>
        <time>2022-07-31T05:57:25Z</time>
      </trkpt>
      <trkpt lat="37.7301370" lon="-3.4453670">
        <ele>2061.7</ele>
        <time>2022-07-31T05:57:30Z</time>
      </trkpt>
      <trkpt lat="37.7300330" lon="-3.4454170">
        <ele>2061.6</ele>
        <time>2022-07-31T05:57:38Z</time>
      </trkpt>
      <trkpt lat="37.7299550" lon="-3.4454850">
        <ele>2061.8</ele>
        <time>2022-07-31T05:57:45Z</time>
      </trkpt>
      <trkpt lat="37.7298970" lon="-3.4455730">
        <ele>2062.2</ele>
        <time>2022-07-31T05:57:52Z</time>
      </trkpt>
      <trkpt lat="37.7298680" lon="-3.4456900">
        <ele>2062.3</ele>
        <time>2022-07-31T05:57:59Z</time>
      </trkpt>
      <trkpt lat="37.7298580" lon="-3.4458080">
        <ele>2061.8</ele>
        <time>2022-07-31T05:58:05Z</time>
      </trkpt>
      <trkpt lat="37.7298980" lon="-3.4459120">
        <ele>2060.9</ele>
        <time>2022-07-31T05:58:12Z</time>
      </trkpt>
      <trkpt lat="37.7299980" lon="-3.4459130">
        <ele>2059.7</ele>
        <time>2022-07-31T05:58:22Z</time>
      </trkpt>
      <trkpt lat="37.7300020" lon="-3.4459100">
        <ele>2059.7</ele>
        <time>2022-07-31T05:58:30Z</time>
      </trkpt>
      <trkpt lat="37.7300030" lon="-3.4459100">
        <ele>2059.7</ele>
        <time>2022-07-31T05:58:35Z</time>
      </trkpt>
      <trkpt lat="37.7300030" lon="-3.4459150">
        <ele>2059.6</ele>
        <time>2022-07-31T05:58:39Z</time>
      </trkpt>
      <trkpt lat="37.7300050" lon="-3.4459170">
        <ele>2059.6</ele>
        <time>2022-07-31T05:58:41Z</time>
      </trkpt>
      <trkpt lat="37.7300050" lon="-3.4459170">
        <ele>2059.6</ele>
        <time>2022-07-31T05:58:42Z</time>
      </trkpt>
      <trkpt lat="37.7300050" lon="-3.4459180">
        <ele>2059.6</ele>
        <time>2022-07-31T05:58:46Z</time>
      </trkpt>
      <trkpt lat="37.7300080" lon="-3.4459180">
        <ele>2059.5</ele>
        <time>2022-07-31T05:58:48Z</time>
      </trkpt>
      <trkpt lat="37.7300070" lon="-3.4459220">
        <ele>2059.5</ele>
        <time>2022-07-31T05:59:00Z</time>
      </trkpt>
      <trkpt lat="37.7300070" lon="-3.4459220">
        <ele>2059.5</ele>
        <time>2022-07-31T05:59:01Z</time>
      </trkpt>
      <trkpt lat="37.7300050" lon="-3.4459230">
        <ele>2059.4</ele>
        <time>2022-07-31T05:59:03Z</time>
      </trkpt>
      <trkpt lat="37.7300050" lon="-3.4459230">
        <ele>2059.4</ele>
        <time>2022-07-31T05:59:04Z</time>
      </trkpt>
      <trkpt lat="37.7300070" lon="-3.4459250">
        <ele>2059.4</ele>
        <time>2022-07-31T05:59:05Z</time>
      </trkpt>
      <trkpt lat="37.7300070" lon="-3.4459250">
        <ele>2059.4</ele>
        <time>2022-07-31T05:59:06Z</time>
      </trkpt>
      <trkpt lat="37.7300050" lon="-3.4459250">
        <ele>2059.4</ele>
        <time>2022-07-31T05:59:08Z</time>
      </trkpt>
      <trkpt lat="37.7300050" lon="-3.4459250">
        <ele>2059.4</ele>
        <time>2022-07-31T05:59:09Z</time>
      </trkpt>
      <trkpt lat="37.7300070" lon="-3.4459230">
        <ele>2059.3</ele>
        <time>2022-07-31T05:59:14Z</time>
      </trkpt>
      <trkpt lat="37.7300820" lon="-3.4459930">
        <ele>2057.9</ele>
        <time>2022-07-31T05:59:25Z</time>
      </trkpt>
      <trkpt lat="37.7301520" lon="-3.4460750">
        <ele>2056.3</ele>
        <time>2022-07-31T05:59:33Z</time>
      </trkpt>
      <trkpt lat="37.7302120" lon="-3.4461650">
        <ele>2054.8</ele>
        <time>2022-07-31T05:59:40Z</time>
      </trkpt>
      <trkpt lat="37.7302520" lon="-3.4462770">
        <ele>2053.3</ele>
        <time>2022-07-31T05:59:47Z</time>
      </trkpt>
      <trkpt lat="37.7303120" lon="-3.4463700">
        <ele>2051.7</ele>
        <time>2022-07-31T05:59:55Z</time>
      </trkpt>
      <trkpt lat="37.7303520" lon="-3.4464750">
        <ele>2050.2</ele>
        <time>2022-07-31T06:00:03Z</time>
      </trkpt>
      <trkpt lat="37.7303550" lon="-3.4465930">
        <ele>2048.7</ele>
        <time>2022-07-31T06:00:09Z</time>
      </trkpt>
      <trkpt lat="37.7303620" lon="-3.4467100">
        <ele>2047.3</ele>
        <time>2022-07-31T06:00:20Z</time>
      </trkpt>
      <trkpt lat="37.7303730" lon="-3.4467170">
        <ele>2047.2</ele>
        <time>2022-07-31T06:00:29Z</time>
      </trkpt>
      <trkpt lat="37.7303720" lon="-3.4467180">
        <ele>2047.1</ele>
        <time>2022-07-31T06:00:33Z</time>
      </trkpt>
      <trkpt lat="37.7304150" lon="-3.4468200">
        <ele>2045.9</ele>
        <time>2022-07-31T06:00:42Z</time>
      </trkpt>
      <trkpt lat="37.7304420" lon="-3.4469320">
        <ele>2044.6</ele>
        <time>2022-07-31T06:00:51Z</time>
      </trkpt>
      <trkpt lat="37.7303950" lon="-3.4470420">
        <ele>2043.5</ele>
        <time>2022-07-31T06:01:00Z</time>
      </trkpt>
      <trkpt lat="37.7303770" lon="-3.4471630">
        <ele>2042.5</ele>
        <time>2022-07-31T06:01:07Z</time>
      </trkpt>
      <trkpt lat="37.7303470" lon="-3.4472750">
        <ele>2041.8</ele>
        <time>2022-07-31T06:01:16Z</time>
      </trkpt>
      <trkpt lat="37.7302880" lon="-3.4473680">
        <ele>2041.3</ele>
        <time>2022-07-31T06:01:26Z</time>
      </trkpt>
      <trkpt lat="37.7302300" lon="-3.4474630">
        <ele>2041.1</ele>
        <time>2022-07-31T06:01:37Z</time>
      </trkpt>
      <trkpt lat="37.7301520" lon="-3.4475200">
        <ele>2041.4</ele>
        <time>2022-07-31T06:01:46Z</time>
      </trkpt>
      <trkpt lat="37.7300970" lon="-3.4476130">
        <ele>2042.1</ele>
        <time>2022-07-31T06:01:55Z</time>
      </trkpt>
      <trkpt lat="37.7300850" lon="-3.4477350">
        <ele>2043.2</ele>
        <time>2022-07-31T06:02:02Z</time>
      </trkpt>
      <trkpt lat="37.7300950" lon="-3.4478570">
        <ele>2044.6</ele>
        <time>2022-07-31T06:02:15Z</time>
      </trkpt>
      <trkpt lat="37.7300900" lon="-3.4479750">
        <ele>2046.5</ele>
        <time>2022-07-31T06:02:27Z</time>
      </trkpt>
      <trkpt lat="37.7300630" lon="-3.4480850">
        <ele>2048.2</ele>
        <time>2022-07-31T06:02:40Z</time>
      </trkpt>
      <trkpt lat="37.7300600" lon="-3.4481070">
        <ele>2048.6</ele>
        <time>2022-07-31T06:02:45Z</time>
      </trkpt>
      <trkpt lat="37.7300600" lon="-3.4481130">
        <ele>2048.6</ele>
        <time>2022-07-31T06:02:46Z</time>
      </trkpt>
      <trkpt lat="37.7300580" lon="-3.4482420">
        <ele>2050.0</ele>
        <time>2022-07-31T06:02:57Z</time>
      </trkpt>
      <trkpt lat="37.7300630" lon="-3.4483580">
        <ele>2050.8</ele>
        <time>2022-07-31T06:03:08Z</time>
      </trkpt>
      <trkpt lat="37.7300250" lon="-3.4484680">
        <ele>2051.5</ele>
        <time>2022-07-31T06:03:19Z</time>
      </trkpt>
      <trkpt lat="37.7300050" lon="-3.4485130">
        <ele>2051.6</ele>
        <time>2022-07-31T06:03:26Z</time>
      </trkpt>
      <trkpt lat="37.7300030" lon="-3.4485130">
        <ele>2051.6</ele>
        <time>2022-07-31T06:03:27Z</time>
      </trkpt>
      <trkpt lat="37.7299300" lon="-3.4485730">
        <ele>2051.0</ele>
        <time>2022-07-31T06:03:46Z</time>
      </trkpt>
      <trkpt lat="37.7299280" lon="-3.4485780">
        <ele>2050.9</ele>
        <time>2022-07-31T06:03:47Z</time>
      </trkpt>
      <trkpt lat="37.7298900" lon="-3.4486880">
        <ele>2048.7</ele>
        <time>2022-07-31T06:04:02Z</time>
      </trkpt>
      <trkpt lat="37.7298050" lon="-3.4487520">
        <ele>2045.8</ele>
        <time>2022-07-31T06:04:20Z</time>
      </trkpt>
      <trkpt lat="37.7298350" lon="-3.4488620">
        <ele>2043.5</ele>
        <time>2022-07-31T06:04:42Z</time>
      </trkpt>
      <trkpt lat="37.7298380" lon="-3.4489770">
        <ele>2042.0</ele>
        <time>2022-07-31T06:04:52Z</time>
      </trkpt>
      <trkpt lat="37.7298050" lon="-3.4490880">
        <ele>2041.2</ele>
        <time>2022-07-31T06:05:01Z</time>
      </trkpt>
      <trkpt lat="37.7298380" lon="-3.4492000">
        <ele>2040.9</ele>
        <time>2022-07-31T06:05:18Z</time>
      </trkpt>
      <trkpt lat="37.7298680" lon="-3.4493100">
        <ele>2040.8</ele>
        <time>2022-07-31T06:05:30Z</time>
      </trkpt>
      <trkpt lat="37.7298330" lon="-3.4494250">
        <ele>2040.7</ele>
        <time>2022-07-31T06:05:40Z</time>
      </trkpt>
      <trkpt lat="37.7298350" lon="-3.4494300">
        <ele>2040.7</ele>
        <time>2022-07-31T06:05:44Z</time>
      </trkpt>
      <trkpt lat="37.7298350" lon="-3.4494320">
        <ele>2040.7</ele>
        <time>2022-07-31T06:05:45Z</time>
      </trkpt>
      <trkpt lat="37.7297950" lon="-3.4495430">
        <ele>2040.8</ele>
        <time>2022-07-31T06:05:59Z</time>
      </trkpt>
      <trkpt lat="37.7297600" lon="-3.4496480">
        <ele>2041.3</ele>
        <time>2022-07-31T06:06:09Z</time>
      </trkpt>
      <trkpt lat="37.7297370" lon="-3.4497670">
        <ele>2041.5</ele>
        <time>2022-07-31T06:06:20Z</time>
      </trkpt>
      <trkpt lat="37.7297120" lon="-3.4498870">
        <ele>2041.2</ele>
        <time>2022-07-31T06:06:36Z</time>
      </trkpt>
      <trkpt lat="37.7296820" lon="-3.4499950">
        <ele>2040.8</ele>
        <time>2022-07-31T06:06:47Z</time>
      </trkpt>
      <trkpt lat="37.7296870" lon="-3.4501220">
        <ele>2040.4</ele>
        <time>2022-07-31T06:06:56Z</time>
      </trkpt>
      <trkpt lat="37.7296480" lon="-3.4502320">
        <ele>2040.2</ele>
        <time>2022-07-31T06:07:05Z</time>
      </trkpt>
      <trkpt lat="37.7296520" lon="-3.4503630">
        <ele>2040.1</ele>
        <time>2022-07-31T06:07:14Z</time>
      </trkpt>
      <trkpt lat="37.7296850" lon="-3.4504730">
        <ele>2039.7</ele>
        <time>2022-07-31T06:07:25Z</time>
      </trkpt>
      <trkpt lat="37.7297320" lon="-3.4505330">
        <ele>2039.1</ele>
        <time>2022-07-31T06:07:35Z</time>
      </trkpt>
      <trkpt lat="37.7297300" lon="-3.4505350">
        <ele>2039.1</ele>
        <time>2022-07-31T06:07:36Z</time>
      </trkpt>
      <trkpt lat="37.7296500" lon="-3.4505920">
        <ele>2037.9</ele>
        <time>2022-07-31T06:07:56Z</time>
      </trkpt>
      <trkpt lat="37.7296420" lon="-3.4507050">
        <ele>2036.8</ele>
        <time>2022-07-31T06:08:09Z</time>
      </trkpt>
      <trkpt lat="37.7296550" lon="-3.4508280">
        <ele>2036.0</ele>
        <time>2022-07-31T06:08:18Z</time>
      </trkpt>
      <trkpt lat="37.7296550" lon="-3.4509430">
        <ele>2035.5</ele>
        <time>2022-07-31T06:08:25Z</time>
      </trkpt>
      <trkpt lat="37.7296600" lon="-3.4510580">
        <ele>2035.2</ele>
        <time>2022-07-31T06:08:38Z</time>
      </trkpt>
      <trkpt lat="37.7296780" lon="-3.4511800">
        <ele>2034.9</ele>
        <time>2022-07-31T06:08:49Z</time>
      </trkpt>
      <trkpt lat="37.7296980" lon="-3.4513020">
        <ele>2034.3</ele>
        <time>2022-07-31T06:08:57Z</time>
      </trkpt>
      <trkpt lat="37.7297300" lon="-3.4514120">
        <ele>2033.8</ele>
        <time>2022-07-31T06:09:08Z</time>
      </trkpt>
      <trkpt lat="37.7297830" lon="-3.4515100">
        <ele>2033.1</ele>
        <time>2022-07-31T06:09:17Z</time>
      </trkpt>
      <trkpt lat="37.7298620" lon="-3.4515830">
        <ele>2032.3</ele>
        <time>2022-07-31T06:09:31Z</time>
      </trkpt>
      <trkpt lat="37.7299400" lon="-3.4516550">
        <ele>2031.5</ele>
        <time>2022-07-31T06:09:42Z</time>
      </trkpt>
      <trkpt lat="37.7299980" lon="-3.4517430">
        <ele>2030.7</ele>
        <time>2022-07-31T06:09:50Z</time>
      </trkpt>
      <trkpt lat="37.7300070" lon="-3.4518580">
        <ele>2030.2</ele>
        <time>2022-07-31T06:09:58Z</time>
      </trkpt>
      <trkpt lat="37.7300050" lon="-3.4519820">
        <ele>2030.2</ele>
        <time>2022-07-31T06:10:08Z</time>
      </trkpt>
      <trkpt lat="37.7299900" lon="-3.4521000">
        <ele>2031.1</ele>
        <time>2022-07-31T06:10:20Z</time>
      </trkpt>
      <trkpt lat="37.7299630" lon="-3.4522200">
        <ele>2032.6</ele>
        <time>2022-07-31T06:10:30Z</time>
      </trkpt>
      <trkpt lat="37.7299570" lon="-3.4523420">
        <ele>2033.9</ele>
        <time>2022-07-31T06:10:38Z</time>
      </trkpt>
      <trkpt lat="37.7299900" lon="-3.4524600">
        <ele>2034.9</ele>
        <time>2022-07-31T06:10:48Z</time>
      </trkpt>
      <trkpt lat="37.7300180" lon="-3.4525700">
        <ele>2035.4</ele>
        <time>2022-07-31T06:10:56Z</time>
      </trkpt>
      <trkpt lat="37.7300370" lon="-3.4526850">
        <ele>2035.4</ele>
        <time>2022-07-31T06:11:03Z</time>
      </trkpt>
      <trkpt lat="37.7300770" lon="-3.4527880">
        <ele>2035.2</ele>
        <time>2022-07-31T06:11:14Z</time>
      </trkpt>
      <trkpt lat="37.7301280" lon="-3.4528930">
        <ele>2035.0</ele>
        <time>2022-07-31T06:11:23Z</time>
      </trkpt>
      <trkpt lat="37.7301820" lon="-3.4529930">
        <ele>2034.7</ele>
        <time>2022-07-31T06:11:30Z</time>
      </trkpt>
      <trkpt lat="37.7302120" lon="-3.4531080">
        <ele>2034.6</ele>
        <time>2022-07-31T06:11:38Z</time>
      </trkpt>
      <trkpt lat="37.7302430" lon="-3.4532300">
        <ele>2034.5</ele>
        <time>2022-07-31T06:11:46Z</time>
      </trkpt>
      <trkpt lat="37.7302820" lon="-3.4533370">
        <ele>2034.7</ele>
        <time>2022-07-31T06:11:54Z</time>
      </trkpt>
      <trkpt lat="37.7303250" lon="-3.4534420">
        <ele>2035.4</ele>
        <time>2022-07-31T06:12:02Z</time>
      </trkpt>
      <trkpt lat="37.7303850" lon="-3.4535320">
        <ele>2036.4</ele>
        <time>2022-07-31T06:12:09Z</time>
      </trkpt>
      <trkpt lat="37.7304200" lon="-3.4536400">
        <ele>2037.4</ele>
        <time>2022-07-31T06:12:20Z</time>
      </trkpt>
      <trkpt lat="37.7304570" lon="-3.4537570">
        <ele>2038.6</ele>
        <time>2022-07-31T06:12:30Z</time>
      </trkpt>
      <trkpt lat="37.7305020" lon="-3.4538720">
        <ele>2039.7</ele>
        <time>2022-07-31T06:12:37Z</time>
      </trkpt>
      <trkpt lat="37.7305580" lon="-3.4539670">
        <ele>2040.8</ele>
        <time>2022-07-31T06:12:45Z</time>
      </trkpt>
      <trkpt lat="37.7306130" lon="-3.4540650">
        <ele>2042.1</ele>
        <time>2022-07-31T06:12:54Z</time>
      </trkpt>
      <trkpt lat="37.7306730" lon="-3.4541620">
        <ele>2043.4</ele>
        <time>2022-07-31T06:13:05Z</time>
      </trkpt>
      <trkpt lat="37.7306980" lon="-3.4542720">
        <ele>2044.7</ele>
        <time>2022-07-31T06:13:15Z</time>
      </trkpt>
      <trkpt lat="37.7307500" lon="-3.4543650">
        <ele>2046.1</ele>
        <time>2022-07-31T06:13:24Z</time>
      </trkpt>
      <trkpt lat="37.7307880" lon="-3.4544770">
        <ele>2047.9</ele>
        <time>2022-07-31T06:13:34Z</time>
      </trkpt>
      <trkpt lat="37.7308670" lon="-3.4545550">
        <ele>2050.0</ele>
        <time>2022-07-31T06:13:46Z</time>
      </trkpt>
      <trkpt lat="37.7309050" lon="-3.4546580">
        <ele>2051.9</ele>
        <time>2022-07-31T06:13:57Z</time>
      </trkpt>
      <trkpt lat="37.7309380" lon="-3.4547670">
        <ele>2053.7</ele>
        <time>2022-07-31T06:14:08Z</time>
      </trkpt>
      <trkpt lat="37.7309480" lon="-3.4548830">
        <ele>2055.0</ele>
        <time>2022-07-31T06:14:16Z</time>
      </trkpt>
      <trkpt lat="37.7309470" lon="-3.4550020">
        <ele>2056.1</ele>
        <time>2022-07-31T06:14:24Z</time>
      </trkpt>
      <trkpt lat="37.7309780" lon="-3.4551130">
        <ele>2057.1</ele>
        <time>2022-07-31T06:14:36Z</time>
      </trkpt>
      <trkpt lat="37.7309870" lon="-3.4552330">
        <ele>2058.3</ele>
        <time>2022-07-31T06:14:44Z</time>
      </trkpt>
      <trkpt lat="37.7309820" lon="-3.4553570">
        <ele>2059.5</ele>
        <time>2022-07-31T06:14:52Z</time>
      </trkpt>
      <trkpt lat="37.7309730" lon="-3.4554800">
        <ele>2060.6</ele>
        <time>2022-07-31T06:15:00Z</time>
      </trkpt>
      <trkpt lat="37.7309470" lon="-3.4555900">
        <ele>2061.7</ele>
        <time>2022-07-31T06:15:06Z</time>
      </trkpt>
      <trkpt lat="37.7309570" lon="-3.4557150">
        <ele>2063.0</ele>
        <time>2022-07-31T06:15:15Z</time>
      </trkpt>
      <trkpt lat="37.7309620" lon="-3.4558380">
        <ele>2064.2</ele>
        <time>2022-07-31T06:15:24Z</time>
      </trkpt>
      <trkpt lat="37.7309550" lon="-3.4559570">
        <ele>2065.1</ele>
        <time>2022-07-31T06:15:33Z</time>
      </trkpt>
      <trkpt lat="37.7309250" lon="-3.4560670">
        <ele>2065.8</ele>
        <time>2022-07-31T06:15:41Z</time>
      </trkpt>
      <trkpt lat="37.7309080" lon="-3.4561850">
        <ele>2066.5</ele>
        <time>2022-07-31T06:15:49Z</time>
      </trkpt>
      <trkpt lat="37.7308550" lon="-3.4562880">
        <ele>2067.3</ele>
        <time>2022-07-31T06:15:57Z</time>
      </trkpt>
      <trkpt lat="37.7308080" lon="-3.4563870">
        <ele>2068.2</ele>
        <time>2022-07-31T06:16:05Z</time>
      </trkpt>
      <trkpt lat="37.7307580" lon="-3.4564900">
        <ele>2069.2</ele>
        <time>2022-07-31T06:16:15Z</time>
      </trkpt>
      <trkpt lat="37.7307100" lon="-3.4565970">
        <ele>2070.5</ele>
        <time>2022-07-31T06:16:26Z</time>
      </trkpt>
      <trkpt lat="37.7306570" lon="-3.4566920">
        <ele>2071.8</ele>
        <time>2022-07-31T06:16:34Z</time>
      </trkpt>
      <trkpt lat="37.7306000" lon="-3.4567900">
        <ele>2073.2</ele>
        <time>2022-07-31T06:16:42Z</time>
      </trkpt>
      <trkpt lat="37.7305250" lon="-3.4568680">
        <ele>2075.0</ele>
        <time>2022-07-31T06:16:51Z</time>
      </trkpt>
      <trkpt lat="37.7304800" lon="-3.4569720">
        <ele>2077.2</ele>
        <time>2022-07-31T06:17:07Z</time>
      </trkpt>
      <trkpt lat="37.7303970" lon="-3.4570170">
        <ele>2078.2</ele>
        <time>2022-07-31T06:17:17Z</time>
      </trkpt>
      <trkpt lat="37.7303050" lon="-3.4570600">
        <ele>2078.8</ele>
        <time>2022-07-31T06:17:33Z</time>
      </trkpt>
      <trkpt lat="37.7302780" lon="-3.4571420">
        <ele>2079.3</ele>
        <time>2022-07-31T06:17:50Z</time>
      </trkpt>
      <trkpt lat="37.7302800" lon="-3.4571420">
        <ele>2079.3</ele>
        <time>2022-07-31T06:17:52Z</time>
      </trkpt>
      <trkpt lat="37.7303280" lon="-3.4572430">
        <ele>2079.9</ele>
        <time>2022-07-31T06:18:20Z</time>
      </trkpt>
      <trkpt lat="37.7302880" lon="-3.4573630">
        <ele>2080.5</ele>
        <time>2022-07-31T06:18:34Z</time>
      </trkpt>
      <trkpt lat="37.7302300" lon="-3.4574500">
        <ele>2081.1</ele>
        <time>2022-07-31T06:18:44Z</time>
      </trkpt>
      <trkpt lat="37.7301670" lon="-3.4575320">
        <ele>2081.7</ele>
        <time>2022-07-31T06:18:53Z</time>
      </trkpt>
      <trkpt lat="37.7301000" lon="-3.4576100">
        <ele>2082.3</ele>
        <time>2022-07-31T06:19:04Z</time>
      </trkpt>
      <trkpt lat="37.7300250" lon="-3.4576930">
        <ele>2082.9</ele>
        <time>2022-07-31T06:19:14Z</time>
      </trkpt>
      <trkpt lat="37.7299950" lon="-3.4578080">
        <ele>2083.5</ele>
        <time>2022-07-31T06:19:26Z</time>
      </trkpt>
      <trkpt lat="37.7299400" lon="-3.4579000">
        <ele>2084.1</ele>
        <time>2022-07-31T06:19:38Z</time>
      </trkpt>
      <trkpt lat="37.7299900" lon="-3.4579980">
        <ele>2084.7</ele>
        <time>2022-07-31T06:19:59Z</time>
      </trkpt>
      <trkpt lat="37.7299930" lon="-3.4580030">
        <ele>2084.7</ele>
        <time>2022-07-31T06:20:07Z</time>
      </trkpt>
      <trkpt lat="37.7299930" lon="-3.4580020">
        <ele>2084.7</ele>
        <time>2022-07-31T06:20:12Z</time>
      </trkpt>
      <trkpt lat="37.7299970" lon="-3.4581220">
        <ele>2085.3</ele>
        <time>2022-07-31T06:20:33Z</time>
      </trkpt>
      <trkpt lat="37.7299250" lon="-3.4582000">
        <ele>2085.9</ele>
        <time>2022-07-31T06:20:44Z</time>
      </trkpt>
      <trkpt lat="37.7298550" lon="-3.4582830">
        <ele>2086.5</ele>
        <time>2022-07-31T06:20:52Z</time>
      </trkpt>
      <trkpt lat="37.7297920" lon="-3.4583700">
        <ele>2087.1</ele>
        <time>2022-07-31T06:21:10Z</time>
      </trkpt>
      <trkpt lat="37.7297500" lon="-3.4584720">
        <ele>2087.7</ele>
        <time>2022-07-31T06:21:26Z</time>
      </trkpt>
      <trkpt lat="37.7297400" lon="-3.4585930">
        <ele>2088.3</ele>
        <time>2022-07-31T06:21:41Z</time>
      </trkpt>
      <trkpt lat="37.7297480" lon="-3.4587080">
        <ele>2088.9</ele>
        <time>2022-07-31T06:21:55Z</time>
      </trkpt>
      <trkpt lat="37.7296870" lon="-3.4588020">
        <ele>2089.5</ele>
        <time>2022-07-31T06:22:07Z</time>
      </trkpt>
      <trkpt lat="37.7296150" lon="-3.4588950">
        <ele>2090.1</ele>
        <time>2022-07-31T06:22:18Z</time>
      </trkpt>
      <trkpt lat="37.7296000" lon="-3.4590130">
        <ele>2090.7</ele>
        <time>2022-07-31T06:22:34Z</time>
      </trkpt>
      <trkpt lat="37.7296170" lon="-3.4591280">
        <ele>2091.3</ele>
        <time>2022-07-31T06:22:46Z</time>
      </trkpt>
      <trkpt lat="37.7295600" lon="-3.4592170">
        <ele>2091.9</ele>
        <time>2022-07-31T06:23:03Z</time>
      </trkpt>
      <trkpt lat="37.7294980" lon="-3.4593020">
        <ele>2092.4</ele>
        <time>2022-07-31T06:23:18Z</time>
      </trkpt>
      <trkpt lat="37.7294400" lon="-3.4593880">
        <ele>2093.0</ele>
        <time>2022-07-31T06:23:31Z</time>
      </trkpt>
      <trkpt lat="37.7293900" lon="-3.4594030">
        <ele>2093.3</ele>
        <time>2022-07-31T06:23:41Z</time>
      </trkpt>
      <trkpt lat="37.7293920" lon="-3.4594030">
        <ele>2093.4</ele>
        <time>2022-07-31T06:23:42Z</time>
      </trkpt>
      <trkpt lat="37.7294330" lon="-3.4595050">
        <ele>2093.9</ele>
        <time>2022-07-31T06:24:03Z</time>
      </trkpt>
      <trkpt lat="37.7294020" lon="-3.4596230">
        <ele>2094.5</ele>
        <time>2022-07-31T06:24:17Z</time>
      </trkpt>
      <trkpt lat="37.7293720" lon="-3.4597350">
        <ele>2095.1</ele>
        <time>2022-07-31T06:24:30Z</time>
      </trkpt>
      <trkpt lat="37.7293070" lon="-3.4598180">
        <ele>2095.7</ele>
        <time>2022-07-31T06:24:39Z</time>
      </trkpt>
      <trkpt lat="37.7292430" lon="-3.4599070">
        <ele>2096.3</ele>
        <time>2022-07-31T06:24:48Z</time>
      </trkpt>
      <trkpt lat="37.7291680" lon="-3.4599800">
        <ele>2096.9</ele>
        <time>2022-07-31T06:24:58Z</time>
      </trkpt>
      <trkpt lat="37.7290850" lon="-3.4600450">
        <ele>2097.5</ele>
        <time>2022-07-31T06:25:07Z</time>
      </trkpt>
      <trkpt lat="37.7289980" lon="-3.4601070">
        <ele>2098.2</ele>
        <time>2022-07-31T06:25:19Z</time>
      </trkpt>
      <trkpt lat="37.7289730" lon="-3.4600730">
        <ele>2098.4</ele>
        <time>2022-07-31T06:25:30Z</time>
      </trkpt>
      <trkpt lat="37.7289750" lon="-3.4600730">
        <ele>2098.4</ele>
        <time>2022-07-31T06:25:31Z</time>
      </trkpt>
      <trkpt lat="37.7289750" lon="-3.4600730">
        <ele>2098.4</ele>
        <time>2022-07-31T06:25:32Z</time>
      </trkpt>
      <trkpt lat="37.7289770" lon="-3.4600720">
        <ele>2098.4</ele>
        <time>2022-07-31T06:25:35Z</time>
      </trkpt>
      <trkpt lat="37.7288870" lon="-3.4600530">
        <ele>2099.0</ele>
        <time>2022-07-31T06:25:50Z</time>
      </trkpt>
      <trkpt lat="37.7288920" lon="-3.4600570">
        <ele>2099.1</ele>
        <time>2022-07-31T06:25:59Z</time>
      </trkpt>
      <trkpt lat="37.7288930" lon="-3.4600580">
        <ele>2099.1</ele>
        <time>2022-07-31T06:26:01Z</time>
      </trkpt>
      <trkpt lat="37.7289200" lon="-3.4599450">
        <ele>2099.7</ele>
        <time>2022-07-31T06:26:11Z</time>
      </trkpt>
      <trkpt lat="37.7288600" lon="-3.4598530">
        <ele>2100.2</ele>
        <time>2022-07-31T06:26:23Z</time>
      </trkpt>
      <trkpt lat="37.7288020" lon="-3.4598700">
        <ele>2100.6</ele>
        <time>2022-07-31T06:26:30Z</time>
      </trkpt>
      <trkpt lat="37.7288000" lon="-3.4598730">
        <ele>2100.6</ele>
        <time>2022-07-31T06:26:31Z</time>
      </trkpt>
      <trkpt lat="37.7287120" lon="-3.4599200">
        <ele>2101.2</ele>
        <time>2022-07-31T06:26:43Z</time>
      </trkpt>
      <trkpt lat="37.7286720" lon="-3.4598170">
        <ele>2101.8</ele>
        <time>2022-07-31T06:26:58Z</time>
      </trkpt>
      <trkpt lat="37.7285780" lon="-3.4598180">
        <ele>2102.4</ele>
        <time>2022-07-31T06:27:16Z</time>
      </trkpt>
      <trkpt lat="37.7284900" lon="-3.4598650">
        <ele>2103.0</ele>
        <time>2022-07-31T06:27:36Z</time>
      </trkpt>
      <trkpt lat="37.7284480" lon="-3.4599720">
        <ele>2103.6</ele>
        <time>2022-07-31T06:27:47Z</time>
      </trkpt>
      <trkpt lat="37.7285000" lon="-3.4600700">
        <ele>2104.2</ele>
        <time>2022-07-31T06:27:55Z</time>
      </trkpt>
      <trkpt lat="37.7285420" lon="-3.4601870">
        <ele>2104.9</ele>
        <time>2022-07-31T06:28:06Z</time>
      </trkpt>
      <trkpt lat="37.7285420" lon="-3.4603050">
        <ele>2105.4</ele>
        <time>2022-07-31T06:28:18Z</time>
      </trkpt>
      <trkpt lat="37.7284920" lon="-3.4604020">
        <ele>2106.0</ele>
        <time>2022-07-31T06:28:31Z</time>
      </trkpt>
      <trkpt lat="37.7284920" lon="-3.4604070">
        <ele>2106.1</ele>
        <time>2022-07-31T06:28:34Z</time>
      </trkpt>
      <trkpt lat="37.7284900" lon="-3.4604070">
        <ele>2106.1</ele>
        <time>2022-07-31T06:28:35Z</time>
      </trkpt>
      <trkpt lat="37.7284570" lon="-3.4605250">
        <ele>2106.7</ele>
        <time>2022-07-31T06:28:46Z</time>
      </trkpt>
      <trkpt lat="37.7284730" lon="-3.4606500">
        <ele>2107.3</ele>
        <time>2022-07-31T06:28:55Z</time>
      </trkpt>
      <trkpt lat="37.7284750" lon="-3.4607650">
        <ele>2107.9</ele>
        <time>2022-07-31T06:29:05Z</time>
      </trkpt>
      <trkpt lat="37.7283970" lon="-3.4608300">
        <ele>2108.5</ele>
        <time>2022-07-31T06:29:13Z</time>
      </trkpt>
      <trkpt lat="37.7283450" lon="-3.4609250">
        <ele>2109.1</ele>
        <time>2022-07-31T06:29:20Z</time>
      </trkpt>
      <trkpt lat="37.7283450" lon="-3.4610430">
        <ele>2109.7</ele>
        <time>2022-07-31T06:29:28Z</time>
      </trkpt>
      <trkpt lat="37.7283170" lon="-3.4611580">
        <ele>2110.3</ele>
        <time>2022-07-31T06:29:38Z</time>
      </trkpt>
      <trkpt lat="37.7283100" lon="-3.4612820">
        <ele>2110.9</ele>
        <time>2022-07-31T06:29:49Z</time>
      </trkpt>
      <trkpt lat="37.7282900" lon="-3.4614070">
        <ele>2111.5</ele>
        <time>2022-07-31T06:29:58Z</time>
      </trkpt>
      <trkpt lat="37.7282630" lon="-3.4615200">
        <ele>2112.1</ele>
        <time>2022-07-31T06:30:06Z</time>
      </trkpt>
      <trkpt lat="37.7282180" lon="-3.4616300">
        <ele>2112.7</ele>
        <time>2022-07-31T06:30:16Z</time>
      </trkpt>
      <trkpt lat="37.7282150" lon="-3.4617500">
        <ele>2113.3</ele>
        <time>2022-07-31T06:30:27Z</time>
      </trkpt>
      <trkpt lat="37.7282250" lon="-3.4618650">
        <ele>2113.9</ele>
        <time>2022-07-31T06:30:43Z</time>
      </trkpt>
      <trkpt lat="37.7282200" lon="-3.4619880">
        <ele>2114.5</ele>
        <time>2022-07-31T06:30:57Z</time>
      </trkpt>
      <trkpt lat="37.7282300" lon="-3.4620000">
        <ele>2114.6</ele>
        <time>2022-07-31T06:31:01Z</time>
      </trkpt>
      <trkpt lat="37.7282350" lon="-3.4620000">
        <ele>2114.7</ele>
        <time>2022-07-31T06:31:02Z</time>
      </trkpt>
      <trkpt lat="37.7282400" lon="-3.4621250">
        <ele>2115.3</ele>
        <time>2022-07-31T06:31:18Z</time>
      </trkpt>
      <trkpt lat="37.7282370" lon="-3.4622470">
        <ele>2115.9</ele>
        <time>2022-07-31T06:31:34Z</time>
      </trkpt>
      <trkpt lat="37.7282320" lon="-3.4623650">
        <ele>2116.5</ele>
        <time>2022-07-31T06:31:43Z</time>
      </trkpt>
      <trkpt lat="37.7281930" lon="-3.4624700">
        <ele>2117.1</ele>
        <time>2022-07-31T06:31:54Z</time>
      </trkpt>
      <trkpt lat="37.7281380" lon="-3.4625680">
        <ele>2117.7</ele>
        <time>2022-07-31T06:32:06Z</time>
      </trkpt>
      <trkpt lat="37.7281030" lon="-3.4626780">
        <ele>2118.3</ele>
        <time>2022-07-31T06:32:26Z</time>
      </trkpt>
      <trkpt lat="37.7280470" lon="-3.4627750">
        <ele>2118.9</ele>
        <time>2022-07-31T06:32:37Z</time>
      </trkpt>
      <trkpt lat="37.7279500" lon="-3.4628130">
        <ele>2119.5</ele>
        <time>2022-07-31T06:32:46Z</time>
      </trkpt>
      <trkpt lat="37.7278580" lon="-3.4628670">
        <ele>2120.1</ele>
        <time>2022-07-31T06:32:54Z</time>
      </trkpt>
      <trkpt lat="37.7277670" lon="-3.4628780">
        <ele>2120.7</ele>
        <time>2022-07-31T06:33:03Z</time>
      </trkpt>
      <trkpt lat="37.7276620" lon="-3.4628920">
        <ele>2121.4</ele>
        <time>2022-07-31T06:33:12Z</time>
      </trkpt>
      <trkpt lat="37.7275650" lon="-3.4628870">
        <ele>2122.0</ele>
        <time>2022-07-31T06:33:20Z</time>
      </trkpt>
      <trkpt lat="37.7274730" lon="-3.4628830">
        <ele>2122.6</ele>
        <time>2022-07-31T06:33:27Z</time>
      </trkpt>
      <trkpt lat="37.7273830" lon="-3.4629180">
        <ele>2123.2</ele>
        <time>2022-07-31T06:33:33Z</time>
      </trkpt>
      <trkpt lat="37.7272980" lon="-3.4629680">
        <ele>2123.8</ele>
        <time>2022-07-31T06:33:40Z</time>
      </trkpt>
      <trkpt lat="37.7272330" lon="-3.4630600">
        <ele>2124.4</ele>
        <time>2022-07-31T06:33:48Z</time>
      </trkpt>
      <trkpt lat="37.7271750" lon="-3.4631530">
        <ele>2125.0</ele>
        <time>2022-07-31T06:33:56Z</time>
      </trkpt>
      <trkpt lat="37.7270870" lon="-3.4631750">
        <ele>2125.6</ele>
        <time>2022-07-31T06:34:06Z</time>
      </trkpt>
      <trkpt lat="37.7269880" lon="-3.4632150">
        <ele>2126.2</ele>
        <time>2022-07-31T06:34:14Z</time>
      </trkpt>
      <trkpt lat="37.7269020" lon="-3.4632470">
        <ele>2126.8</ele>
        <time>2022-07-31T06:34:23Z</time>
      </trkpt>
      <trkpt lat="37.7268000" lon="-3.4632730">
        <ele>2127.4</ele>
        <time>2022-07-31T06:34:33Z</time>
      </trkpt>
      <trkpt lat="37.7267030" lon="-3.4632330">
        <ele>2128.1</ele>
        <time>2022-07-31T06:34:40Z</time>
      </trkpt>
      <trkpt lat="37.7266100" lon="-3.4632080">
        <ele>2128.7</ele>
        <time>2022-07-31T06:34:47Z</time>
      </trkpt>
      <trkpt lat="37.7265200" lon="-3.4632050">
        <ele>2129.3</ele>
        <time>2022-07-31T06:34:55Z</time>
      </trkpt>
      <trkpt lat="37.7264250" lon="-3.4632430">
        <ele>2129.9</ele>
        <time>2022-07-31T06:35:04Z</time>
      </trkpt>
      <trkpt lat="37.7263380" lon="-3.4633170">
        <ele>2130.6</ele>
        <time>2022-07-31T06:35:14Z</time>
      </trkpt>
      <trkpt lat="37.7262620" lon="-3.4633800">
        <ele>2131.1</ele>
        <time>2022-07-31T06:35:23Z</time>
      </trkpt>
      <trkpt lat="37.7262550" lon="-3.4634950">
        <ele>2131.7</ele>
        <time>2022-07-31T06:35:31Z</time>
      </trkpt>
      <trkpt lat="37.7262180" lon="-3.4636250">
        <ele>2132.4</ele>
        <time>2022-07-31T06:35:41Z</time>
      </trkpt>
      <trkpt lat="37.7261820" lon="-3.4637320">
        <ele>2133.0</ele>
        <time>2022-07-31T06:35:49Z</time>
      </trkpt>
      <trkpt lat="37.7261030" lon="-3.4637970">
        <ele>2133.6</ele>
        <time>2022-07-31T06:36:05Z</time>
      </trkpt>
      <trkpt lat="37.7260080" lon="-3.4638420">
        <ele>2134.2</ele>
        <time>2022-07-31T06:36:18Z</time>
      </trkpt>
      <trkpt lat="37.7260280" lon="-3.4639570">
        <ele>2134.8</ele>
        <time>2022-07-31T06:36:29Z</time>
      </trkpt>
      <trkpt lat="37.7260350" lon="-3.4640520">
        <ele>2135.3</ele>
        <time>2022-07-31T06:36:42Z</time>
      </trkpt>
      <trkpt lat="37.7260370" lon="-3.4640470">
        <ele>2135.3</ele>
        <time>2022-07-31T06:36:46Z</time>
      </trkpt>
      <trkpt lat="37.7260670" lon="-3.4641020">
        <ele>2135.6</ele>
        <time>2022-07-31T06:36:59Z</time>
      </trkpt>
      <trkpt lat="37.7260670" lon="-3.4641000">
        <ele>2135.7</ele>
        <time>2022-07-31T06:37:00Z</time>
      </trkpt>
      <trkpt lat="37.7260680" lon="-3.4640980">
        <ele>2135.7</ele>
        <time>2022-07-31T06:37:04Z</time>
      </trkpt>
      <trkpt lat="37.7260700" lon="-3.4641000">
        <ele>2135.7</ele>
        <time>2022-07-31T06:37:08Z</time>
      </trkpt>
      <trkpt lat="37.7260680" lon="-3.4641080">
        <ele>2135.7</ele>
        <time>2022-07-31T06:37:14Z</time>
      </trkpt>
      <trkpt lat="37.7260680" lon="-3.4641100">
        <ele>2135.7</ele>
        <time>2022-07-31T06:37:15Z</time>
      </trkpt>
      <trkpt lat="37.7260670" lon="-3.4640970">
        <ele>2135.8</ele>
        <time>2022-07-31T06:37:22Z</time>
      </trkpt>
      <trkpt lat="37.7260670" lon="-3.4641000">
        <ele>2135.8</ele>
        <time>2022-07-31T06:37:23Z</time>
      </trkpt>
      <trkpt lat="37.7260670" lon="-3.4641000">
        <ele>2135.8</ele>
        <time>2022-07-31T06:37:24Z</time>
      </trkpt>
      <trkpt lat="37.7260650" lon="-3.4641020">
        <ele>2135.8</ele>
        <time>2022-07-31T06:37:25Z</time>
      </trkpt>
      <trkpt lat="37.7260650" lon="-3.4641030">
        <ele>2135.8</ele>
        <time>2022-07-31T06:37:27Z</time>
      </trkpt>
      <trkpt lat="37.7260630" lon="-3.4641030">
        <ele>2135.9</ele>
        <time>2022-07-31T06:37:32Z</time>
      </trkpt>
      <trkpt lat="37.7260620" lon="-3.4641050">
        <ele>2135.9</ele>
        <time>2022-07-31T06:37:34Z</time>
      </trkpt>
      <trkpt lat="37.7260600" lon="-3.4641070">
        <ele>2135.9</ele>
        <time>2022-07-31T06:37:49Z</time>
      </trkpt>
      <trkpt lat="37.7260320" lon="-3.4641370">
        <ele>2136.1</ele>
        <time>2022-07-31T06:38:11Z</time>
      </trkpt>
      <trkpt lat="37.7260300" lon="-3.4641380">
        <ele>2136.1</ele>
        <time>2022-07-31T06:38:12Z</time>
      </trkpt>
      <trkpt lat="37.7260470" lon="-3.4641350">
        <ele>2136.2</ele>
        <time>2022-07-31T06:38:27Z</time>
      </trkpt>
      <trkpt lat="37.7260470" lon="-3.4641330">
        <ele>2136.2</ele>
        <time>2022-07-31T06:38:28Z</time>
      </trkpt>
      <trkpt lat="37.7260450" lon="-3.4641350">
        <ele>2136.3</ele>
        <time>2022-07-31T06:38:31Z</time>
      </trkpt>
      <trkpt lat="37.7260380" lon="-3.4641330">
        <ele>2136.3</ele>
        <time>2022-07-31T06:38:32Z</time>
      </trkpt>
      <trkpt lat="37.7260620" lon="-3.4641420">
        <ele>2136.5</ele>
        <time>2022-07-31T06:38:45Z</time>
      </trkpt>
      <trkpt lat="37.7260650" lon="-3.4641380">
        <ele>2136.5</ele>
        <time>2022-07-31T06:38:46Z</time>
      </trkpt>
      <trkpt lat="37.7260650" lon="-3.4641380">
        <ele>2136.5</ele>
        <time>2022-07-31T06:38:47Z</time>
      </trkpt>
      <trkpt lat="37.7260650" lon="-3.4641370">
        <ele>2136.5</ele>
        <time>2022-07-31T06:38:51Z</time>
      </trkpt>
      <trkpt lat="37.7260500" lon="-3.4641280">
        <ele>2136.6</ele>
        <time>2022-07-31T06:38:59Z</time>
      </trkpt>
      <trkpt lat="37.7260500" lon="-3.4641300">
        <ele>2136.6</ele>
        <time>2022-07-31T06:39:01Z</time>
      </trkpt>
      <trkpt lat="37.7260500" lon="-3.4641300">
        <ele>2136.6</ele>
        <time>2022-07-31T06:39:02Z</time>
      </trkpt>
      <trkpt lat="37.7260500" lon="-3.4641280">
        <ele>2136.6</ele>
        <time>2022-07-31T06:39:03Z</time>
      </trkpt>
      <trkpt lat="37.7260480" lon="-3.4641280">
        <ele>2136.6</ele>
        <time>2022-07-31T06:39:05Z</time>
      </trkpt>
      <trkpt lat="37.7260450" lon="-3.4641320">
        <ele>2136.7</ele>
        <time>2022-07-31T06:39:06Z</time>
      </trkpt>
      <trkpt lat="37.7260800" lon="-3.4641670">
        <ele>2136.9</ele>
        <time>2022-07-31T06:39:21Z</time>
      </trkpt>
      <trkpt lat="37.7260820" lon="-3.4641630">
        <ele>2137.0</ele>
        <time>2022-07-31T06:39:30Z</time>
      </trkpt>
      <trkpt lat="37.7260570" lon="-3.4640970">
        <ele>2137.3</ele>
        <time>2022-07-31T06:39:53Z</time>
      </trkpt>
      <trkpt lat="37.7260550" lon="-3.4640950">
        <ele>2137.4</ele>
        <time>2022-07-31T06:40:01Z</time>
      </trkpt>
      <trkpt lat="37.7260520" lon="-3.4640650">
        <ele>2137.5</ele>
        <time>2022-07-31T06:40:12Z</time>
      </trkpt>
      <trkpt lat="37.7260500" lon="-3.4640630">
        <ele>2137.5</ele>
        <time>2022-07-31T06:40:13Z</time>
      </trkpt>
      <trkpt lat="37.7260520" lon="-3.4640670">
        <ele>2137.5</ele>
        <time>2022-07-31T06:40:15Z</time>
      </trkpt>
      <trkpt lat="37.7260530" lon="-3.4640670">
        <ele>2137.5</ele>
        <time>2022-07-31T06:40:16Z</time>
      </trkpt>
      <trkpt lat="37.7259900" lon="-3.4639680">
        <ele>2138.2</ele>
        <time>2022-07-31T06:40:27Z</time>
      </trkpt>
      <trkpt lat="37.7259530" lon="-3.4638530">
        <ele>2138.8</ele>
        <time>2022-07-31T06:40:36Z</time>
      </trkpt>
      <trkpt lat="37.7258880" lon="-3.4637620">
        <ele>2139.4</ele>
        <time>2022-07-31T06:40:45Z</time>
      </trkpt>
      <trkpt lat="37.7257930" lon="-3.4637330">
        <ele>2140.0</ele>
        <time>2022-07-31T06:40:52Z</time>
      </trkpt>
      <trkpt lat="37.7257220" lon="-3.4638050">
        <ele>2140.6</ele>
        <time>2022-07-31T06:41:03Z</time>
      </trkpt>
      <trkpt lat="37.7256320" lon="-3.4638600">
        <ele>2141.2</ele>
        <time>2022-07-31T06:41:13Z</time>
      </trkpt>
      <trkpt lat="37.7255600" lon="-3.4639330">
        <ele>2141.8</ele>
        <time>2022-07-31T06:41:21Z</time>
      </trkpt>
      <trkpt lat="37.7255500" lon="-3.4639620">
        <ele>2142.0</ele>
        <time>2022-07-31T06:41:29Z</time>
      </trkpt>
      <trkpt lat="37.7255520" lon="-3.4639620">
        <ele>2142.0</ele>
        <time>2022-07-31T06:41:32Z</time>
      </trkpt>
      <trkpt lat="37.7255230" lon="-3.4640720">
        <ele>2142.6</ele>
        <time>2022-07-31T06:41:54Z</time>
      </trkpt>
      <trkpt lat="37.7255180" lon="-3.4641100">
        <ele>2140.3</ele>
        <time>2022-07-31T06:42:01Z</time>
      </trkpt>
      <trkpt lat="37.7255170" lon="-3.4641050">
        <ele>2140.3</ele>
        <time>2022-07-31T06:42:04Z</time>
      </trkpt>
      <trkpt lat="37.7255170" lon="-3.4641050">
        <ele>2140.3</ele>
        <time>2022-07-31T06:42:05Z</time>
      </trkpt>
      <trkpt lat="37.7255150" lon="-3.4641070">
        <ele>2140.3</ele>
        <time>2022-07-31T06:42:08Z</time>
      </trkpt>
      <trkpt lat="37.7254200" lon="-3.4641180">
        <ele>2139.8</ele>
        <time>2022-07-31T06:42:42Z</time>
      </trkpt>
      <trkpt lat="37.7253670" lon="-3.4641020">
        <ele>2139.5</ele>
        <time>2022-07-31T06:42:53Z</time>
      </trkpt>
      <trkpt lat="37.7253670" lon="-3.4641030">
        <ele>2139.5</ele>
        <time>2022-07-31T06:43:07Z</time>
      </trkpt>
      <trkpt lat="37.7253680" lon="-3.4641100">
        <ele>2139.5</ele>
        <time>2022-07-31T06:43:09Z</time>
      </trkpt>
      <trkpt lat="37.7253700" lon="-3.4641120">
        <ele>2139.5</ele>
        <time>2022-07-31T06:43:13Z</time>
      </trkpt>
      <trkpt lat="37.7254480" lon="-3.4641680">
        <ele>2139.2</ele>
        <time>2022-07-31T06:43:23Z</time>
      </trkpt>
      <trkpt lat="37.7255050" lon="-3.4642570">
        <ele>2139.1</ele>
        <time>2022-07-31T06:43:36Z</time>
      </trkpt>
      <trkpt lat="37.7255470" lon="-3.4643670">
        <ele>2139.3</ele>
        <time>2022-07-31T06:43:50Z</time>
      </trkpt>
      <trkpt lat="37.7255630" lon="-3.4644870">
        <ele>2139.8</ele>
        <time>2022-07-31T06:44:03Z</time>
      </trkpt>
      <trkpt lat="37.7255300" lon="-3.4645980">
        <ele>2140.7</ele>
        <time>2022-07-31T06:44:12Z</time>
      </trkpt>
      <trkpt lat="37.7255620" lon="-3.4647170">
        <ele>2141.6</ele>
        <time>2022-07-31T06:44:23Z</time>
      </trkpt>
      <trkpt lat="37.7255380" lon="-3.4648300">
        <ele>2142.3</ele>
        <time>2022-07-31T06:44:34Z</time>
      </trkpt>
      <trkpt lat="37.7254900" lon="-3.4649270">
        <ele>2142.8</ele>
        <time>2022-07-31T06:44:42Z</time>
      </trkpt>
      <trkpt lat="37.7255180" lon="-3.4650380">
        <ele>2142.9</ele>
        <time>2022-07-31T06:44:53Z</time>
      </trkpt>
      <trkpt lat="37.7255450" lon="-3.4651480">
        <ele>2142.7</ele>
        <time>2022-07-31T06:45:03Z</time>
      </trkpt>
      <trkpt lat="37.7255770" lon="-3.4652620">
        <ele>2142.1</ele>
        <time>2022-07-31T06:45:11Z</time>
      </trkpt>
      <trkpt lat="37.7256080" lon="-3.4653700">
        <ele>2141.3</ele>
        <time>2022-07-31T06:45:21Z</time>
      </trkpt>
      <trkpt lat="37.7255780" lon="-3.4654920">
        <ele>2140.4</ele>
        <time>2022-07-31T06:45:33Z</time>
      </trkpt>
      <trkpt lat="37.7255500" lon="-3.4656080">
        <ele>2139.5</ele>
        <time>2022-07-31T06:45:46Z</time>
      </trkpt>
      <trkpt lat="37.7255280" lon="-3.4657280">
        <ele>2138.4</ele>
        <time>2022-07-31T06:45:54Z</time>
      </trkpt>
      <trkpt lat="37.7254520" lon="-3.4658020">
        <ele>2137.6</ele>
        <time>2022-07-31T06:46:08Z</time>
      </trkpt>
      <trkpt lat="37.7253980" lon="-3.4658330">
        <ele>2136.9</ele>
        <time>2022-07-31T06:46:25Z</time>
      </trkpt>
      <trkpt lat="37.7253930" lon="-3.4658370">
        <ele>2136.8</ele>
        <time>2022-07-31T06:46:26Z</time>
      </trkpt>
      <trkpt lat="37.7253930" lon="-3.4658380">
        <ele>2136.8</ele>
        <time>2022-07-31T06:46:28Z</time>
      </trkpt>
      <trkpt lat="37.7253920" lon="-3.4658400">
        <ele>2136.8</ele>
        <time>2022-07-31T06:46:29Z</time>
      </trkpt>
      <trkpt lat="37.7253870" lon="-3.4658450">
        <ele>2136.7</ele>
        <time>2022-07-31T06:46:32Z</time>
      </trkpt>
      <trkpt lat="37.7253820" lon="-3.4658470">
        <ele>2136.6</ele>
        <time>2022-07-31T06:46:33Z</time>
      </trkpt>
      <trkpt lat="37.7253320" lon="-3.4659950">
        <ele>2134.2</ele>
        <time>2022-07-31T06:46:57Z</time>
      </trkpt>
      <trkpt lat="37.7253750" lon="-3.4659200">
        <ele>2132.7</ele>
        <time>2022-07-31T06:47:35Z</time>
      </trkpt>
      <trkpt lat="37.7253750" lon="-3.4659180">
        <ele>2132.7</ele>
        <time>2022-07-31T06:47:36Z</time>
      </trkpt>
      <trkpt lat="37.7253750" lon="-3.4659170">
        <ele>2132.6</ele>
        <time>2022-07-31T06:47:38Z</time>
      </trkpt>
      <trkpt lat="37.7253750" lon="-3.4659150">
        <ele>2132.6</ele>
        <time>2022-07-31T06:47:39Z</time>
      </trkpt>
      <trkpt lat="37.7253780" lon="-3.4658820">
        <ele>2132.1</ele>
        <time>2022-07-31T06:47:57Z</time>
      </trkpt>
      <trkpt lat="37.7253780" lon="-3.4658780">
        <ele>2132.0</ele>
        <time>2022-07-31T06:47:59Z</time>
      </trkpt>
      <trkpt lat="37.7253780" lon="-3.4658780">
        <ele>2132.0</ele>
        <time>2022-07-31T06:48:00Z</time>
      </trkpt>
      <trkpt lat="37.7253780" lon="-3.4658770">
        <ele>2132.0</ele>
        <time>2022-07-31T06:48:01Z</time>
      </trkpt>
      <trkpt lat="37.7253800" lon="-3.4658750">
        <ele>2132.0</ele>
        <time>2022-07-31T06:48:03Z</time>
      </trkpt>
      <trkpt lat="37.7253800" lon="-3.4658730">
        <ele>2132.0</ele>
        <time>2022-07-31T06:48:05Z</time>
      </trkpt>
      <trkpt lat="37.7253800" lon="-3.4658730">
        <ele>2132.0</ele>
        <time>2022-07-31T06:48:06Z</time>
      </trkpt>
      <trkpt lat="37.7253800" lon="-3.4658720">
        <ele>2131.9</ele>
        <time>2022-07-31T06:48:07Z</time>
      </trkpt>
      <trkpt lat="37.7253800" lon="-3.4658720">
        <ele>2131.9</ele>
        <time>2022-07-31T06:48:08Z</time>
      </trkpt>
      <trkpt lat="37.7253800" lon="-3.4658700">
        <ele>2131.9</ele>
        <time>2022-07-31T06:48:09Z</time>
      </trkpt>
      <trkpt lat="37.7253800" lon="-3.4658700">
        <ele>2131.9</ele>
        <time>2022-07-31T06:48:10Z</time>
      </trkpt>
      <trkpt lat="37.7253770" lon="-3.4658720">
        <ele>2131.8</ele>
        <time>2022-07-31T06:48:15Z</time>
      </trkpt>
      <trkpt lat="37.7253870" lon="-3.4658730">
        <ele>2131.7</ele>
        <time>2022-07-31T06:48:23Z</time>
      </trkpt>
      <trkpt lat="37.7253880" lon="-3.4658730">
        <ele>2131.6</ele>
        <time>2022-07-31T06:48:26Z</time>
      </trkpt>
      <trkpt lat="37.7253570" lon="-3.4658920">
        <ele>2131.0</ele>
        <time>2022-07-31T06:48:38Z</time>
      </trkpt>
      <trkpt lat="37.7253570" lon="-3.4658930">
        <ele>2131.0</ele>
        <time>2022-07-31T06:48:51Z</time>
      </trkpt>
      <trkpt lat="37.7253270" lon="-3.4658720">
        <ele>2130.4</ele>
        <time>2022-07-31T06:49:00Z</time>
      </trkpt>
      <trkpt lat="37.7253270" lon="-3.4658700">
        <ele>2130.4</ele>
        <time>2022-07-31T06:49:01Z</time>
      </trkpt>
      <trkpt lat="37.7253270" lon="-3.4658700">
        <ele>2130.4</ele>
        <time>2022-07-31T06:49:02Z</time>
      </trkpt>
      <trkpt lat="37.7253250" lon="-3.4658700">
        <ele>2130.4</ele>
        <time>2022-07-31T06:49:03Z</time>
      </trkpt>
      <trkpt lat="37.7252350" lon="-3.4658170">
        <ele>2128.4</ele>
        <time>2022-07-31T06:49:17Z</time>
      </trkpt>
      <trkpt lat="37.7251620" lon="-3.4657850">
        <ele>2126.5</ele>
        <time>2022-07-31T06:49:32Z</time>
      </trkpt>
      <trkpt lat="37.7251630" lon="-3.4657830">
        <ele>2126.5</ele>
        <time>2022-07-31T06:49:33Z</time>
      </trkpt>
      <trkpt lat="37.7251630" lon="-3.4657830">
        <ele>2126.5</ele>
        <time>2022-07-31T06:49:34Z</time>
      </trkpt>
      <trkpt lat="37.7251630" lon="-3.4657820">
        <ele>2126.5</ele>
        <time>2022-07-31T06:49:41Z</time>
      </trkpt>
      <trkpt lat="37.7251630" lon="-3.4657820">
        <ele>2126.5</ele>
        <time>2022-07-31T06:49:42Z</time>
      </trkpt>
      <trkpt lat="37.7251630" lon="-3.4657780">
        <ele>2126.4</ele>
        <time>2022-07-31T06:49:45Z</time>
      </trkpt>
      <trkpt lat="37.7251170" lon="-3.4657420">
        <ele>2125.0</ele>
        <time>2022-07-31T06:49:56Z</time>
      </trkpt>
      <trkpt lat="37.7251180" lon="-3.4657380">
        <ele>2124.9</ele>
        <time>2022-07-31T06:49:57Z</time>
      </trkpt>
      <trkpt lat="37.7251200" lon="-3.4657330">
        <ele>2124.8</ele>
        <time>2022-07-31T06:50:01Z</time>
      </trkpt>
      <trkpt lat="37.7251200" lon="-3.4657400">
        <ele>2124.7</ele>
        <time>2022-07-31T06:50:02Z</time>
      </trkpt>
      <trkpt lat="37.7251150" lon="-3.4657580">
        <ele>2124.3</ele>
        <time>2022-07-31T06:50:10Z</time>
      </trkpt>
      <trkpt lat="37.7251150" lon="-3.4657600">
        <ele>2124.3</ele>
        <time>2022-07-31T06:50:11Z</time>
      </trkpt>
      <trkpt lat="37.7251100" lon="-3.4657630">
        <ele>2124.1</ele>
        <time>2022-07-31T06:50:14Z</time>
      </trkpt>
      <trkpt lat="37.7251050" lon="-3.4657600">
        <ele>2124.0</ele>
        <time>2022-07-31T06:50:19Z</time>
      </trkpt>
      <trkpt lat="37.7250050" lon="-3.4657420">
        <ele>2121.5</ele>
        <time>2022-07-31T06:50:30Z</time>
      </trkpt>
      <trkpt lat="37.7249180" lon="-3.4657020">
        <ele>2119.2</ele>
        <time>2022-07-31T06:50:38Z</time>
      </trkpt>
      <trkpt lat="37.7248250" lon="-3.4657050">
        <ele>2117.0</ele>
        <time>2022-07-31T06:50:45Z</time>
      </trkpt>
      <trkpt lat="37.7247770" lon="-3.4657170">
        <ele>2115.9</ele>
        <time>2022-07-31T06:50:55Z</time>
      </trkpt>
      <trkpt lat="37.7247780" lon="-3.4657170">
        <ele>2115.9</ele>
        <time>2022-07-31T06:50:57Z</time>
      </trkpt>
      <trkpt lat="37.7247130" lon="-3.4658030">
        <ele>2113.8</ele>
        <time>2022-07-31T06:51:14Z</time>
      </trkpt>
      <trkpt lat="37.7246180" lon="-3.4657780">
        <ele>2111.7</ele>
        <time>2022-07-31T06:51:23Z</time>
      </trkpt>
      <trkpt lat="37.7245280" lon="-3.4657600">
        <ele>2110.3</ele>
        <time>2022-07-31T06:51:32Z</time>
      </trkpt>
      <trkpt lat="37.7244420" lon="-3.4658170">
        <ele>2109.7</ele>
        <time>2022-07-31T06:51:44Z</time>
      </trkpt>
      <trkpt lat="37.7243550" lon="-3.4658580">
        <ele>2109.9</ele>
        <time>2022-07-31T06:51:55Z</time>
      </trkpt>
      <trkpt lat="37.7243570" lon="-3.4659770">
        <ele>2110.6</ele>
        <time>2022-07-31T06:52:10Z</time>
      </trkpt>
      <trkpt lat="37.7243800" lon="-3.4660930">
        <ele>2111.4</ele>
        <time>2022-07-31T06:52:19Z</time>
      </trkpt>
      <trkpt lat="37.7244150" lon="-3.4661400">
        <ele>2111.9</ele>
        <time>2022-07-31T06:52:31Z</time>
      </trkpt>
      <trkpt lat="37.7244120" lon="-3.4661350">
        <ele>2111.9</ele>
        <time>2022-07-31T06:52:36Z</time>
      </trkpt>
      <trkpt lat="37.7243320" lon="-3.4661970">
        <ele>2112.3</ele>
        <time>2022-07-31T06:52:45Z</time>
      </trkpt>
      <trkpt lat="37.7242470" lon="-3.4662370">
        <ele>2112.1</ele>
        <time>2022-07-31T06:53:00Z</time>
      </trkpt>
      <trkpt lat="37.7242500" lon="-3.4663520">
        <ele>2111.2</ele>
        <time>2022-07-31T06:53:37Z</time>
      </trkpt>
      <trkpt lat="37.7242700" lon="-3.4664720">
        <ele>2109.9</ele>
        <time>2022-07-31T06:53:45Z</time>
      </trkpt>
      <trkpt lat="37.7242920" lon="-3.4665830">
        <ele>2108.3</ele>
        <time>2022-07-31T06:53:54Z</time>
      </trkpt>
      <trkpt lat="37.7242870" lon="-3.4667020">
        <ele>2106.3</ele>
        <time>2022-07-31T06:54:04Z</time>
      </trkpt>
      <trkpt lat="37.7242800" lon="-3.4667500">
        <ele>2105.3</ele>
        <time>2022-07-31T06:54:13Z</time>
      </trkpt>
      <trkpt lat="37.7242780" lon="-3.4667520">
        <ele>2105.3</ele>
        <time>2022-07-31T06:54:15Z</time>
      </trkpt>
      <trkpt lat="37.7242780" lon="-3.4667500">
        <ele>2105.2</ele>
        <time>2022-07-31T06:54:17Z</time>
      </trkpt>
      <trkpt lat="37.7242780" lon="-3.4667570">
        <ele>2105.1</ele>
        <time>2022-07-31T06:54:18Z</time>
      </trkpt>
      <trkpt lat="37.7242670" lon="-3.4668820">
        <ele>2102.2</ele>
        <time>2022-07-31T06:54:27Z</time>
      </trkpt>
      <trkpt lat="37.7242350" lon="-3.4669950">
        <ele>2099.4</ele>
        <time>2022-07-31T06:54:36Z</time>
      </trkpt>
      <trkpt lat="37.7242200" lon="-3.4671080">
        <ele>2097.1</ele>
        <time>2022-07-31T06:54:49Z</time>
      </trkpt>
      <trkpt lat="37.7241920" lon="-3.4672180">
        <ele>2094.7</ele>
        <time>2022-07-31T06:55:00Z</time>
      </trkpt>
      <trkpt lat="37.7241400" lon="-3.4673220">
        <ele>2092.2</ele>
        <time>2022-07-31T06:55:09Z</time>
      </trkpt>
      <trkpt lat="37.7240500" lon="-3.4672680">
        <ele>2089.7</ele>
        <time>2022-07-31T06:55:27Z</time>
      </trkpt>
      <trkpt lat="37.7239530" lon="-3.4672900">
        <ele>2087.3</ele>
        <time>2022-07-31T06:55:38Z</time>
      </trkpt>
      <trkpt lat="37.7238650" lon="-3.4672630">
        <ele>2085.2</ele>
        <time>2022-07-31T06:55:49Z</time>
      </trkpt>
      <trkpt lat="37.7237970" lon="-3.4672550">
        <ele>2083.7</ele>
        <time>2022-07-31T06:56:02Z</time>
      </trkpt>
      <trkpt lat="37.7237970" lon="-3.4672570">
        <ele>2083.6</ele>
        <time>2022-07-31T06:56:04Z</time>
      </trkpt>
      <trkpt lat="37.7237970" lon="-3.4672570">
        <ele>2083.6</ele>
        <time>2022-07-31T06:56:05Z</time>
      </trkpt>
      <trkpt lat="37.7237950" lon="-3.4672580">
        <ele>2083.6</ele>
        <time>2022-07-31T06:56:08Z</time>
      </trkpt>
      <trkpt lat="37.7237230" lon="-3.4671780">
        <ele>2081.0</ele>
        <time>2022-07-31T06:56:19Z</time>
      </trkpt>
      <trkpt lat="37.7236300" lon="-3.4671380">
        <ele>2078.4</ele>
        <time>2022-07-31T06:56:29Z</time>
      </trkpt>
      <trkpt lat="37.7235570" lon="-3.4670620">
        <ele>2075.9</ele>
        <time>2022-07-31T06:56:40Z</time>
      </trkpt>
      <trkpt lat="37.7235150" lon="-3.4669550">
        <ele>2073.5</ele>
        <time>2022-07-31T06:56:51Z</time>
      </trkpt>
      <trkpt lat="37.7235120" lon="-3.4669520">
        <ele>2073.4</ele>
        <time>2022-07-31T06:56:53Z</time>
      </trkpt>
      <trkpt lat="37.7235100" lon="-3.4669520">
        <ele>2073.3</ele>
        <time>2022-07-31T06:56:54Z</time>
      </trkpt>
      <trkpt lat="37.7235100" lon="-3.4669520">
        <ele>2073.3</ele>
        <time>2022-07-31T06:56:55Z</time>
      </trkpt>
      <trkpt lat="37.7235050" lon="-3.4669470">
        <ele>2073.2</ele>
        <time>2022-07-31T06:56:56Z</time>
      </trkpt>
      <trkpt lat="37.7234500" lon="-3.4668550">
        <ele>2070.9</ele>
        <time>2022-07-31T06:57:05Z</time>
      </trkpt>
      <trkpt lat="37.7233680" lon="-3.4667930">
        <ele>2068.7</ele>
        <time>2022-07-31T06:57:16Z</time>
      </trkpt>
      <trkpt lat="37.7232870" lon="-3.4667420">
        <ele>2067.2</ele>
        <time>2022-07-31T06:57:25Z</time>
      </trkpt>
      <trkpt lat="37.7232950" lon="-3.4667470">
        <ele>2067.1</ele>
        <time>2022-07-31T06:57:27Z</time>
      </trkpt>
      <trkpt lat="37.7232950" lon="-3.4667480">
        <ele>2067.1</ele>
        <time>2022-07-31T06:57:28Z</time>
      </trkpt>
      <trkpt lat="37.7232950" lon="-3.4667480">
        <ele>2067.1</ele>
        <time>2022-07-31T06:57:29Z</time>
      </trkpt>
      <trkpt lat="37.7232970" lon="-3.4667500">
        <ele>2067.0</ele>
        <time>2022-07-31T06:57:31Z</time>
      </trkpt>
      <trkpt lat="37.7232270" lon="-3.4666780">
        <ele>2065.8</ele>
        <time>2022-07-31T06:57:42Z</time>
      </trkpt>
      <trkpt lat="37.7232020" lon="-3.4665620">
        <ele>2064.4</ele>
        <time>2022-07-31T06:57:49Z</time>
      </trkpt>
      <trkpt lat="37.7231730" lon="-3.4664520">
        <ele>2062.9</ele>
        <time>2022-07-31T06:57:55Z</time>
      </trkpt>
      <trkpt lat="37.7230850" lon="-3.4664150">
        <ele>2061.4</ele>
        <time>2022-07-31T06:58:05Z</time>
      </trkpt>
      <trkpt lat="37.7230080" lon="-3.4663500">
        <ele>2059.9</ele>
        <time>2022-07-31T06:58:18Z</time>
      </trkpt>
      <trkpt lat="37.7230420" lon="-3.4662430">
        <ele>2058.5</ele>
        <time>2022-07-31T06:58:35Z</time>
      </trkpt>
      <trkpt lat="37.7230330" lon="-3.4661250">
        <ele>2057.0</ele>
        <time>2022-07-31T06:58:53Z</time>
      </trkpt>
      <trkpt lat="37.7230220" lon="-3.4660720">
        <ele>2056.3</ele>
        <time>2022-07-31T06:59:01Z</time>
      </trkpt>
      <trkpt lat="37.7230220" lon="-3.4660680">
        <ele>2056.2</ele>
        <time>2022-07-31T06:59:02Z</time>
      </trkpt>
      <trkpt lat="37.7230200" lon="-3.4660730">
        <ele>2056.2</ele>
        <time>2022-07-31T06:59:06Z</time>
      </trkpt>
      <trkpt lat="37.7230200" lon="-3.4660770">
        <ele>2056.1</ele>
        <time>2022-07-31T06:59:08Z</time>
      </trkpt>
      <trkpt lat="37.7230200" lon="-3.4660770">
        <ele>2056.1</ele>
        <time>2022-07-31T06:59:09Z</time>
      </trkpt>
      <trkpt lat="37.7230200" lon="-3.4660750">
        <ele>2056.1</ele>
        <time>2022-07-31T06:59:13Z</time>
      </trkpt>
      <trkpt lat="37.7230200" lon="-3.4660750">
        <ele>2056.1</ele>
        <time>2022-07-31T06:59:14Z</time>
      </trkpt>
      <trkpt lat="37.7230200" lon="-3.4660730">
        <ele>2056.1</ele>
        <time>2022-07-31T06:59:15Z</time>
      </trkpt>
      <trkpt lat="37.7230120" lon="-3.4659530">
        <ele>2054.6</ele>
        <time>2022-07-31T06:59:29Z</time>
      </trkpt>
      <trkpt lat="37.7230180" lon="-3.4658380">
        <ele>2053.1</ele>
        <time>2022-07-31T06:59:44Z</time>
      </trkpt>
      <trkpt lat="37.7230170" lon="-3.4657220">
        <ele>2051.7</ele>
        <time>2022-07-31T06:59:54Z</time>
      </trkpt>
      <trkpt lat="37.7230120" lon="-3.4656030">
        <ele>2050.2</ele>
        <time>2022-07-31T07:00:04Z</time>
      </trkpt>
      <trkpt lat="37.7230150" lon="-3.4654850">
        <ele>2048.7</ele>
        <time>2022-07-31T07:00:17Z</time>
      </trkpt>
      <trkpt lat="37.7229730" lon="-3.4653730">
        <ele>2047.2</ele>
        <time>2022-07-31T07:00:35Z</time>
      </trkpt>
      <trkpt lat="37.7229120" lon="-3.4652780">
        <ele>2045.6</ele>
        <time>2022-07-31T07:00:45Z</time>
      </trkpt>
      <trkpt lat="37.7228450" lon="-3.4652750">
        <ele>2044.6</ele>
        <time>2022-07-31T07:01:14Z</time>
      </trkpt>
      <trkpt lat="37.7228520" lon="-3.4652700">
        <ele>2044.4</ele>
        <time>2022-07-31T07:01:15Z</time>
      </trkpt>
      <trkpt lat="37.7228330" lon="-3.4652680">
        <ele>2044.1</ele>
        <time>2022-07-31T07:01:47Z</time>
      </trkpt>
      <trkpt lat="37.7228350" lon="-3.4652680">
        <ele>2044.1</ele>
        <time>2022-07-31T07:01:48Z</time>
      </trkpt>
      <trkpt lat="37.7228550" lon="-3.4652700">
        <ele>2043.8</ele>
        <time>2022-07-31T07:01:59Z</time>
      </trkpt>
      <trkpt lat="37.7228550" lon="-3.4652680">
        <ele>2043.8</ele>
        <time>2022-07-31T07:02:00Z</time>
      </trkpt>
      <trkpt lat="37.7228770" lon="-3.4652580">
        <ele>2043.4</ele>
        <time>2022-07-31T07:02:07Z</time>
      </trkpt>
      <trkpt lat="37.7228770" lon="-3.4652570">
        <ele>2043.4</ele>
        <time>2022-07-31T07:02:10Z</time>
      </trkpt>
      <trkpt lat="37.7227880" lon="-3.4652150">
        <ele>2041.9</ele>
        <time>2022-07-31T07:02:22Z</time>
      </trkpt>
      <trkpt lat="37.7226930" lon="-3.4652030">
        <ele>2040.4</ele>
        <time>2022-07-31T07:02:30Z</time>
      </trkpt>
      <trkpt lat="37.7225950" lon="-3.4651680">
        <ele>2038.7</ele>
        <time>2022-07-31T07:02:38Z</time>
      </trkpt>
      <trkpt lat="37.7225100" lon="-3.4651280">
        <ele>2037.3</ele>
        <time>2022-07-31T07:02:47Z</time>
      </trkpt>
      <trkpt lat="37.7224270" lon="-3.4650820">
        <ele>2035.9</ele>
        <time>2022-07-31T07:02:57Z</time>
      </trkpt>
      <trkpt lat="37.7223300" lon="-3.4650370">
        <ele>2034.2</ele>
        <time>2022-07-31T07:03:07Z</time>
      </trkpt>
      <trkpt lat="37.7222800" lon="-3.4649400">
        <ele>2032.8</ele>
        <time>2022-07-31T07:03:17Z</time>
      </trkpt>
      <trkpt lat="37.7222070" lon="-3.4648600">
        <ele>2031.3</ele>
        <time>2022-07-31T07:03:30Z</time>
      </trkpt>
      <trkpt lat="37.7221050" lon="-3.4648580">
        <ele>2029.6</ele>
        <time>2022-07-31T07:03:42Z</time>
      </trkpt>
      <trkpt lat="37.7220080" lon="-3.4648430">
        <ele>2028.1</ele>
        <time>2022-07-31T07:03:50Z</time>
      </trkpt>
      <trkpt lat="37.7219130" lon="-3.4648400">
        <ele>2026.6</ele>
        <time>2022-07-31T07:03:59Z</time>
      </trkpt>
      <trkpt lat="37.7218330" lon="-3.4648250">
        <ele>2025.3</ele>
        <time>2022-07-31T07:04:09Z</time>
      </trkpt>
      <trkpt lat="37.7218350" lon="-3.4648250">
        <ele>2025.3</ele>
        <time>2022-07-31T07:04:10Z</time>
      </trkpt>
      <trkpt lat="37.7218380" lon="-3.4648330">
        <ele>2025.2</ele>
        <time>2022-07-31T07:04:15Z</time>
      </trkpt>
      <trkpt lat="37.7218400" lon="-3.4648350">
        <ele>2025.1</ele>
        <time>2022-07-31T07:04:16Z</time>
      </trkpt>
      <trkpt lat="37.7217880" lon="-3.4647270">
        <ele>2023.5</ele>
        <time>2022-07-31T07:04:27Z</time>
      </trkpt>
      <trkpt lat="37.7217580" lon="-3.4646030">
        <ele>2021.9</ele>
        <time>2022-07-31T07:04:37Z</time>
      </trkpt>
      <trkpt lat="37.7217480" lon="-3.4644900">
        <ele>2020.5</ele>
        <time>2022-07-31T07:04:46Z</time>
      </trkpt>
      <trkpt lat="37.7217500" lon="-3.4643750">
        <ele>2019.0</ele>
        <time>2022-07-31T07:04:53Z</time>
      </trkpt>
      <trkpt lat="37.7217500" lon="-3.4642570">
        <ele>2017.6</ele>
        <time>2022-07-31T07:05:00Z</time>
      </trkpt>
      <trkpt lat="37.7217500" lon="-3.4641230">
        <ele>2015.9</ele>
        <time>2022-07-31T07:05:07Z</time>
      </trkpt>
      <trkpt lat="37.7217620" lon="-3.4640100">
        <ele>2014.5</ele>
        <time>2022-07-31T07:05:15Z</time>
      </trkpt>
      <trkpt lat="37.7217480" lon="-3.4638880">
        <ele>2012.9</ele>
        <time>2022-07-31T07:05:25Z</time>
      </trkpt>
      <trkpt lat="37.7217450" lon="-3.4637730">
        <ele>2011.5</ele>
        <time>2022-07-31T07:05:32Z</time>
      </trkpt>
      <trkpt lat="37.7217650" lon="-3.4636570">
        <ele>2010.0</ele>
        <time>2022-07-31T07:05:39Z</time>
      </trkpt>
      <trkpt lat="37.7217500" lon="-3.4635600">
        <ele>2008.8</ele>
        <time>2022-07-31T07:05:53Z</time>
      </trkpt>
      <trkpt lat="37.7217500" lon="-3.4635620">
        <ele>2008.7</ele>
        <time>2022-07-31T07:06:01Z</time>
      </trkpt>
      <trkpt lat="37.7217500" lon="-3.4635620">
        <ele>2008.7</ele>
        <time>2022-07-31T07:06:02Z</time>
      </trkpt>
      <trkpt lat="37.7217520" lon="-3.4635650">
        <ele>2008.7</ele>
        <time>2022-07-31T07:06:03Z</time>
      </trkpt>
      <trkpt lat="37.7217670" lon="-3.4634450">
        <ele>2007.2</ele>
        <time>2022-07-31T07:06:13Z</time>
      </trkpt>
      <trkpt lat="37.7217850" lon="-3.4633250">
        <ele>2005.6</ele>
        <time>2022-07-31T07:06:22Z</time>
      </trkpt>
      <trkpt lat="37.7217650" lon="-3.4632120">
        <ele>2004.2</ele>
        <time>2022-07-31T07:06:30Z</time>
      </trkpt>
      <trkpt lat="37.7217700" lon="-3.4630830">
        <ele>2002.6</ele>
        <time>2022-07-31T07:06:40Z</time>
      </trkpt>
      <trkpt lat="37.7217520" lon="-3.4629580">
        <ele>2001.0</ele>
        <time>2022-07-31T07:06:48Z</time>
      </trkpt>
      <trkpt lat="37.7217330" lon="-3.4628380">
        <ele>1999.4</ele>
        <time>2022-07-31T07:06:55Z</time>
      </trkpt>
      <trkpt lat="37.7217080" lon="-3.4627280">
        <ele>1998.0</ele>
        <time>2022-07-31T07:07:02Z</time>
      </trkpt>
      <trkpt lat="37.7216970" lon="-3.4625950">
        <ele>1996.3</ele>
        <time>2022-07-31T07:07:11Z</time>
      </trkpt>
      <trkpt lat="37.7216780" lon="-3.4624820">
        <ele>1994.9</ele>
        <time>2022-07-31T07:07:18Z</time>
      </trkpt>
      <trkpt lat="37.7216550" lon="-3.4623600">
        <ele>1993.3</ele>
        <time>2022-07-31T07:07:26Z</time>
      </trkpt>
      <trkpt lat="37.7215980" lon="-3.4622600">
        <ele>1991.8</ele>
        <time>2022-07-31T07:07:35Z</time>
      </trkpt>
      <trkpt lat="37.7216230" lon="-3.4621420">
        <ele>1990.2</ele>
        <time>2022-07-31T07:07:44Z</time>
      </trkpt>
      <trkpt lat="37.7215920" lon="-3.4620180">
        <ele>1988.6</ele>
        <time>2022-07-31T07:07:52Z</time>
      </trkpt>
      <trkpt lat="37.7215350" lon="-3.4619250">
        <ele>1987.1</ele>
        <time>2022-07-31T07:08:00Z</time>
      </trkpt>
      <trkpt lat="37.7214880" lon="-3.4618420">
        <ele>1985.9</ele>
        <time>2022-07-31T07:08:19Z</time>
      </trkpt>
      <trkpt lat="37.7214870" lon="-3.4618420">
        <ele>1985.8</ele>
        <time>2022-07-31T07:08:20Z</time>
      </trkpt>
      <trkpt lat="37.7214850" lon="-3.4618420">
        <ele>1985.8</ele>
        <time>2022-07-31T07:08:24Z</time>
      </trkpt>
      <trkpt lat="37.7214850" lon="-3.4618380">
        <ele>1985.8</ele>
        <time>2022-07-31T07:08:27Z</time>
      </trkpt>
      <trkpt lat="37.7214320" lon="-3.4617450">
        <ele>1984.3</ele>
        <time>2022-07-31T07:08:40Z</time>
      </trkpt>
      <trkpt lat="37.7214430" lon="-3.4616280">
        <ele>1982.8</ele>
        <time>2022-07-31T07:08:48Z</time>
      </trkpt>
      <trkpt lat="37.7214630" lon="-3.4615130">
        <ele>1981.4</ele>
        <time>2022-07-31T07:08:55Z</time>
      </trkpt>
      <trkpt lat="37.7214580" lon="-3.4613950">
        <ele>1979.9</ele>
        <time>2022-07-31T07:09:05Z</time>
      </trkpt>
      <trkpt lat="37.7214670" lon="-3.4613720">
        <ele>1979.6</ele>
        <time>2022-07-31T07:09:11Z</time>
      </trkpt>
      <trkpt lat="37.7214670" lon="-3.4613700">
        <ele>1979.5</ele>
        <time>2022-07-31T07:09:16Z</time>
      </trkpt>
      <trkpt lat="37.7214280" lon="-3.4612600">
        <ele>1978.0</ele>
        <time>2022-07-31T07:09:25Z</time>
      </trkpt>
      <trkpt lat="37.7213920" lon="-3.4611550">
        <ele>1976.6</ele>
        <time>2022-07-31T07:09:34Z</time>
      </trkpt>
      <trkpt lat="37.7213700" lon="-3.4610430">
        <ele>1975.2</ele>
        <time>2022-07-31T07:09:43Z</time>
      </trkpt>
      <trkpt lat="37.7213420" lon="-3.4609230">
        <ele>1973.6</ele>
        <time>2022-07-31T07:09:52Z</time>
      </trkpt>
      <trkpt lat="37.7213000" lon="-3.4608100">
        <ele>1972.0</ele>
        <time>2022-07-31T07:10:00Z</time>
      </trkpt>
      <trkpt lat="37.7212630" lon="-3.4606920">
        <ele>1970.4</ele>
        <time>2022-07-31T07:10:09Z</time>
      </trkpt>
      <trkpt lat="37.7212680" lon="-3.4605720">
        <ele>1968.9</ele>
        <time>2022-07-31T07:10:19Z</time>
      </trkpt>
      <trkpt lat="37.7213100" lon="-3.4604680">
        <ele>1967.5</ele>
        <time>2022-07-31T07:10:26Z</time>
      </trkpt>
      <trkpt lat="37.7213600" lon="-3.4603680">
        <ele>1966.0</ele>
        <time>2022-07-31T07:10:35Z</time>
      </trkpt>
      <trkpt lat="37.7214030" lon="-3.4602580">
        <ele>1964.4</ele>
        <time>2022-07-31T07:10:43Z</time>
      </trkpt>
      <trkpt lat="37.7214120" lon="-3.4602430">
        <ele>1964.2</ele>
        <time>2022-07-31T07:10:46Z</time>
      </trkpt>
      <trkpt lat="37.7214070" lon="-3.4602430">
        <ele>1964.1</ele>
        <time>2022-07-31T07:10:47Z</time>
      </trkpt>
      <trkpt lat="37.7214050" lon="-3.4602470">
        <ele>1964.1</ele>
        <time>2022-07-31T07:10:49Z</time>
      </trkpt>
      <trkpt lat="37.7214080" lon="-3.4602450">
        <ele>1964.0</ele>
        <time>2022-07-31T07:10:53Z</time>
      </trkpt>
      <trkpt lat="37.7214180" lon="-3.4602450">
        <ele>1963.9</ele>
        <time>2022-07-31T07:10:56Z</time>
      </trkpt>
      <trkpt lat="37.7214220" lon="-3.4602450">
        <ele>1963.8</ele>
        <time>2022-07-31T07:11:00Z</time>
      </trkpt>
      <trkpt lat="37.7214620" lon="-3.4601370">
        <ele>1962.3</ele>
        <time>2022-07-31T07:11:10Z</time>
      </trkpt>
      <trkpt lat="37.7214000" lon="-3.4600380">
        <ele>1960.7</ele>
        <time>2022-07-31T07:11:25Z</time>
      </trkpt>
      <trkpt lat="37.7213170" lon="-3.4599870">
        <ele>1959.3</ele>
        <time>2022-07-31T07:11:37Z</time>
      </trkpt>
      <trkpt lat="37.7213800" lon="-3.4599000">
        <ele>1957.8</ele>
        <time>2022-07-31T07:11:47Z</time>
      </trkpt>
      <trkpt lat="37.7214020" lon="-3.4597820">
        <ele>1956.3</ele>
        <time>2022-07-31T07:11:55Z</time>
      </trkpt>
      <trkpt lat="37.7214900" lon="-3.4597530">
        <ele>1954.8</ele>
        <time>2022-07-31T07:12:07Z</time>
      </trkpt>
      <trkpt lat="37.7215780" lon="-3.4597280">
        <ele>1953.4</ele>
        <time>2022-07-31T07:12:26Z</time>
      </trkpt>
      <trkpt lat="37.7216700" lon="-3.4597470">
        <ele>1951.9</ele>
        <time>2022-07-31T07:12:37Z</time>
      </trkpt>
      <trkpt lat="37.7217580" lon="-3.4596820">
        <ele>1950.3</ele>
        <time>2022-07-31T07:12:44Z</time>
      </trkpt>
      <trkpt lat="37.7217950" lon="-3.4595670">
        <ele>1948.7</ele>
        <time>2022-07-31T07:12:53Z</time>
      </trkpt>
      <trkpt lat="37.7217680" lon="-3.4594570">
        <ele>1947.3</ele>
        <time>2022-07-31T07:13:01Z</time>
      </trkpt>
      <trkpt lat="37.7217570" lon="-3.4593430">
        <ele>1945.9</ele>
        <time>2022-07-31T07:13:11Z</time>
      </trkpt>
      <trkpt lat="37.7217050" lon="-3.4592420">
        <ele>1944.4</ele>
        <time>2022-07-31T07:13:22Z</time>
      </trkpt>
      <trkpt lat="37.7216330" lon="-3.4591500">
        <ele>1942.7</ele>
        <time>2022-07-31T07:13:32Z</time>
      </trkpt>
      <trkpt lat="37.7216680" lon="-3.4590400">
        <ele>1941.3</ele>
        <time>2022-07-31T07:13:39Z</time>
      </trkpt>
      <trkpt lat="37.7216950" lon="-3.4589950">
        <ele>1940.5</ele>
        <time>2022-07-31T07:13:50Z</time>
      </trkpt>
      <trkpt lat="37.7216900" lon="-3.4589920">
        <ele>1940.5</ele>
        <time>2022-07-31T07:13:53Z</time>
      </trkpt>
      <trkpt lat="37.7216470" lon="-3.4589750">
        <ele>1939.7</ele>
        <time>2022-07-31T07:14:04Z</time>
      </trkpt>
      <trkpt lat="37.7216480" lon="-3.4589750">
        <ele>1939.7</ele>
        <time>2022-07-31T07:14:05Z</time>
      </trkpt>
      <trkpt lat="37.7216480" lon="-3.4589770">
        <ele>1939.7</ele>
        <time>2022-07-31T07:14:07Z</time>
      </trkpt>
      <trkpt lat="37.7216450" lon="-3.4589730">
        <ele>1939.6</ele>
        <time>2022-07-31T07:14:09Z</time>
      </trkpt>
      <trkpt lat="37.7216270" lon="-3.4588580">
        <ele>1938.2</ele>
        <time>2022-07-31T07:14:18Z</time>
      </trkpt>
      <trkpt lat="37.7216400" lon="-3.4587430">
        <ele>1936.7</ele>
        <time>2022-07-31T07:14:30Z</time>
      </trkpt>
      <trkpt lat="37.7217000" lon="-3.4586480">
        <ele>1935.2</ele>
        <time>2022-07-31T07:14:41Z</time>
      </trkpt>
      <trkpt lat="37.7217050" lon="-3.4585280">
        <ele>1933.7</ele>
        <time>2022-07-31T07:15:11Z</time>
      </trkpt>
      <trkpt lat="37.7217770" lon="-3.4584520">
        <ele>1932.2</ele>
        <time>2022-07-31T07:15:31Z</time>
      </trkpt>
      <trkpt lat="37.7218530" lon="-3.4583820">
        <ele>1930.7</ele>
        <time>2022-07-31T07:15:40Z</time>
      </trkpt>
      <trkpt lat="37.7219270" lon="-3.4583130">
        <ele>1929.3</ele>
        <time>2022-07-31T07:15:49Z</time>
      </trkpt>
      <trkpt lat="37.7218300" lon="-3.4582950">
        <ele>1927.7</ele>
        <time>2022-07-31T07:16:01Z</time>
      </trkpt>
      <trkpt lat="37.7218900" lon="-3.4582020">
        <ele>1926.2</ele>
        <time>2022-07-31T07:16:15Z</time>
      </trkpt>
      <trkpt lat="37.7219700" lon="-3.4581380">
        <ele>1924.7</ele>
        <time>2022-07-31T07:16:24Z</time>
      </trkpt>
      <trkpt lat="37.7220520" lon="-3.4580780">
        <ele>1923.2</ele>
        <time>2022-07-31T07:16:34Z</time>
      </trkpt>
      <trkpt lat="37.7221470" lon="-3.4581000">
        <ele>1921.7</ele>
        <time>2022-07-31T07:16:44Z</time>
      </trkpt>
      <trkpt lat="37.7222320" lon="-3.4580600">
        <ele>1920.2</ele>
        <time>2022-07-31T07:16:53Z</time>
      </trkpt>
      <trkpt lat="37.7223050" lon="-3.4579930">
        <ele>1918.8</ele>
        <time>2022-07-31T07:17:05Z</time>
      </trkpt>
      <trkpt lat="37.7223350" lon="-3.4578820">
        <ele>1917.0</ele>
        <time>2022-07-31T07:17:18Z</time>
      </trkpt>
      <trkpt lat="37.7223420" lon="-3.4577620">
        <ele>1914.6</ele>
        <time>2022-07-31T07:17:28Z</time>
      </trkpt>
      <trkpt lat="37.7223350" lon="-3.4576450">
        <ele>1912.8</ele>
        <time>2022-07-31T07:17:41Z</time>
      </trkpt>
      <trkpt lat="37.7223580" lon="-3.4575280">
        <ele>1911.1</ele>
        <time>2022-07-31T07:17:49Z</time>
      </trkpt>
      <trkpt lat="37.7224120" lon="-3.4574200">
        <ele>1908.8</ele>
        <time>2022-07-31T07:17:58Z</time>
      </trkpt>
      <trkpt lat="37.7224800" lon="-3.4573300">
        <ele>1906.5</ele>
        <time>2022-07-31T07:18:13Z</time>
      </trkpt>
      <trkpt lat="37.7225500" lon="-3.4572530">
        <ele>1904.2</ele>
        <time>2022-07-31T07:18:23Z</time>
      </trkpt>
      <trkpt lat="37.7225570" lon="-3.4571380">
        <ele>1901.7</ele>
        <time>2022-07-31T07:18:39Z</time>
      </trkpt>
      <trkpt lat="37.7224680" lon="-3.4571020">
        <ele>1899.2</ele>
        <time>2022-07-31T07:18:54Z</time>
      </trkpt>
      <trkpt lat="37.7224580" lon="-3.4569820">
        <ele>1896.7</ele>
        <time>2022-07-31T07:19:09Z</time>
      </trkpt>
      <trkpt lat="37.7224130" lon="-3.4568730">
        <ele>1894.3</ele>
        <time>2022-07-31T07:19:26Z</time>
      </trkpt>
      <trkpt lat="37.7223320" lon="-3.4568200">
        <ele>1891.9</ele>
        <time>2022-07-31T07:19:37Z</time>
      </trkpt>
      <trkpt lat="37.7222420" lon="-3.4568480">
        <ele>1889.6</ele>
        <time>2022-07-31T07:19:47Z</time>
      </trkpt>
      <trkpt lat="37.7222020" lon="-3.4567400">
        <ele>1887.2</ele>
        <time>2022-07-31T07:19:58Z</time>
      </trkpt>
      <trkpt lat="37.7221250" lon="-3.4566680">
        <ele>1885.0</ele>
        <time>2022-07-31T07:20:12Z</time>
      </trkpt>
      <trkpt lat="37.7220370" lon="-3.4566280">
        <ele>1883.4</ele>
        <time>2022-07-31T07:20:20Z</time>
      </trkpt>
      <trkpt lat="37.7219520" lon="-3.4565750">
        <ele>1882.4</ele>
        <time>2022-07-31T07:20:29Z</time>
      </trkpt>
      <trkpt lat="37.7218750" lon="-3.4565000">
        <ele>1881.9</ele>
        <time>2022-07-31T07:20:39Z</time>
      </trkpt>
      <trkpt lat="37.7217950" lon="-3.4564280">
        <ele>1881.6</ele>
        <time>2022-07-31T07:20:49Z</time>
      </trkpt>
      <trkpt lat="37.7217730" lon="-3.4564380">
        <ele>1881.6</ele>
        <time>2022-07-31T07:21:06Z</time>
      </trkpt>
      <trkpt lat="37.7217680" lon="-3.4564380">
        <ele>1881.6</ele>
        <time>2022-07-31T07:21:07Z</time>
      </trkpt>
      <trkpt lat="37.7216770" lon="-3.4563900">
        <ele>1881.5</ele>
        <time>2022-07-31T07:21:18Z</time>
      </trkpt>
      <trkpt lat="37.7216080" lon="-3.4563050">
        <ele>1881.6</ele>
        <time>2022-07-31T07:21:28Z</time>
      </trkpt>
      <trkpt lat="37.7215720" lon="-3.4561980">
        <ele>1881.8</ele>
        <time>2022-07-31T07:21:35Z</time>
      </trkpt>
      <trkpt lat="37.7215200" lon="-3.4561030">
        <ele>1881.9</ele>
        <time>2022-07-31T07:21:44Z</time>
      </trkpt>
      <trkpt lat="37.7214530" lon="-3.4560270">
        <ele>1881.6</ele>
        <time>2022-07-31T07:21:53Z</time>
      </trkpt>
      <trkpt lat="37.7213830" lon="-3.4559520">
        <ele>1880.9</ele>
        <time>2022-07-31T07:22:05Z</time>
      </trkpt>
      <trkpt lat="37.7213000" lon="-3.4558970">
        <ele>1880.0</ele>
        <time>2022-07-31T07:22:17Z</time>
      </trkpt>
      <trkpt lat="37.7212670" lon="-3.4557820">
        <ele>1879.5</ele>
        <time>2022-07-31T07:22:26Z</time>
      </trkpt>
      <trkpt lat="37.7212280" lon="-3.4556730">
        <ele>1879.8</ele>
        <time>2022-07-31T07:22:39Z</time>
      </trkpt>
      <trkpt lat="37.7211750" lon="-3.4555600">
        <ele>1880.2</ele>
        <time>2022-07-31T07:22:50Z</time>
      </trkpt>
      <trkpt lat="37.7211050" lon="-3.4554830">
        <ele>1880.2</ele>
        <time>2022-07-31T07:23:00Z</time>
      </trkpt>
      <trkpt lat="37.7210380" lon="-3.4554000">
        <ele>1880.2</ele>
        <time>2022-07-31T07:23:12Z</time>
      </trkpt>
      <trkpt lat="37.7210120" lon="-3.4552800">
        <ele>1880.7</ele>
        <time>2022-07-31T07:23:21Z</time>
      </trkpt>
      <trkpt lat="37.7209520" lon="-3.4551780">
        <ele>1881.7</ele>
        <time>2022-07-31T07:23:31Z</time>
      </trkpt>
      <trkpt lat="37.7209150" lon="-3.4550730">
        <ele>1882.8</ele>
        <time>2022-07-31T07:23:39Z</time>
      </trkpt>
      <trkpt lat="37.7208870" lon="-3.4550350">
        <ele>1883.4</ele>
        <time>2022-07-31T07:23:50Z</time>
      </trkpt>
      <trkpt lat="37.7208850" lon="-3.4550330">
        <ele>1883.4</ele>
        <time>2022-07-31T07:23:51Z</time>
      </trkpt>
      <trkpt lat="37.7208320" lon="-3.4549380">
        <ele>1884.9</ele>
        <time>2022-07-31T07:24:05Z</time>
      </trkpt>
      <trkpt lat="37.7207820" lon="-3.4548430">
        <ele>1886.4</ele>
        <time>2022-07-31T07:24:14Z</time>
      </trkpt>
      <trkpt lat="37.7207600" lon="-3.4547320">
        <ele>1888.0</ele>
        <time>2022-07-31T07:24:25Z</time>
      </trkpt>
      <trkpt lat="37.7207300" lon="-3.4546220">
        <ele>1889.2</ele>
        <time>2022-07-31T07:24:38Z</time>
      </trkpt>
      <trkpt lat="37.7206600" lon="-3.4545480">
        <ele>1890.0</ele>
        <time>2022-07-31T07:24:48Z</time>
      </trkpt>
      <trkpt lat="37.7206250" lon="-3.4544280">
        <ele>1890.4</ele>
        <time>2022-07-31T07:24:57Z</time>
      </trkpt>
      <trkpt lat="37.7205620" lon="-3.4543350">
        <ele>1890.3</ele>
        <time>2022-07-31T07:25:05Z</time>
      </trkpt>
      <trkpt lat="37.7204920" lon="-3.4542630">
        <ele>1890.1</ele>
        <time>2022-07-31T07:25:13Z</time>
      </trkpt>
      <trkpt lat="37.7204420" lon="-3.4541600">
        <ele>1889.8</ele>
        <time>2022-07-31T07:25:23Z</time>
      </trkpt>
      <trkpt lat="37.7204080" lon="-3.4540450">
        <ele>1889.2</ele>
        <time>2022-07-31T07:25:31Z</time>
      </trkpt>
      <trkpt lat="37.7204070" lon="-3.4539300">
        <ele>1887.9</ele>
        <time>2022-07-31T07:25:43Z</time>
      </trkpt>
      <trkpt lat="37.7204100" lon="-3.4539130">
        <ele>1887.6</ele>
        <time>2022-07-31T07:25:48Z</time>
      </trkpt>
      <trkpt lat="37.7204080" lon="-3.4539150">
        <ele>1887.6</ele>
        <time>2022-07-31T07:25:49Z</time>
      </trkpt>
      <trkpt lat="37.7204070" lon="-3.4539150">
        <ele>1887.6</ele>
        <time>2022-07-31T07:25:51Z</time>
      </trkpt>
      <trkpt lat="37.7204100" lon="-3.4539170">
        <ele>1887.5</ele>
        <time>2022-07-31T07:25:52Z</time>
      </trkpt>
      <trkpt lat="37.7204730" lon="-3.4538200">
        <ele>1885.0</ele>
        <time>2022-07-31T07:26:07Z</time>
      </trkpt>
      <trkpt lat="37.7205350" lon="-3.4537320">
        <ele>1882.0</ele>
        <time>2022-07-31T07:26:21Z</time>
      </trkpt>
      <trkpt lat="37.7205650" lon="-3.4536130">
        <ele>1878.9</ele>
        <time>2022-07-31T07:26:34Z</time>
      </trkpt>
      <trkpt lat="37.7205070" lon="-3.4535200">
        <ele>1876.1</ele>
        <time>2022-07-31T07:26:56Z</time>
      </trkpt>
      <trkpt lat="37.7204800" lon="-3.4533970">
        <ele>1873.3</ele>
        <time>2022-07-31T07:27:10Z</time>
      </trkpt>
      <trkpt lat="37.7204750" lon="-3.4532720">
        <ele>1870.7</ele>
        <time>2022-07-31T07:27:18Z</time>
      </trkpt>
      <trkpt lat="37.7204800" lon="-3.4531520">
        <ele>1868.5</ele>
        <time>2022-07-31T07:27:28Z</time>
      </trkpt>
      <trkpt lat="37.7205380" lon="-3.4530600">
        <ele>1866.2</ele>
        <time>2022-07-31T07:27:38Z</time>
      </trkpt>
      <trkpt lat="37.7205720" lon="-3.4530050">
        <ele>1864.9</ele>
        <time>2022-07-31T07:27:55Z</time>
      </trkpt>
      <trkpt lat="37.7205680" lon="-3.4530030">
        <ele>1864.8</ele>
        <time>2022-07-31T07:27:56Z</time>
      </trkpt>
      <trkpt lat="37.7206470" lon="-3.4529200">
        <ele>1861.9</ele>
        <time>2022-07-31T07:28:09Z</time>
      </trkpt>
      <trkpt lat="37.7206170" lon="-3.4529130">
        <ele>1861.0</ele>
        <time>2022-07-31T07:28:19Z</time>
      </trkpt>
      <trkpt lat="37.7206170" lon="-3.4529070">
        <ele>1860.9</ele>
        <time>2022-07-31T07:28:20Z</time>
      </trkpt>
      <trkpt lat="37.7206650" lon="-3.4528030">
        <ele>1858.1</ele>
        <time>2022-07-31T07:28:45Z</time>
      </trkpt>
      <trkpt lat="37.7207520" lon="-3.4527530">
        <ele>1855.8</ele>
        <time>2022-07-31T07:28:53Z</time>
      </trkpt>
      <trkpt lat="37.7208430" lon="-3.4527100">
        <ele>1853.7</ele>
        <time>2022-07-31T07:29:04Z</time>
      </trkpt>
      <trkpt lat="37.7208700" lon="-3.4526950">
        <ele>1853.1</ele>
        <time>2022-07-31T07:29:11Z</time>
      </trkpt>
      <trkpt lat="37.7208720" lon="-3.4526950">
        <ele>1853.0</ele>
        <time>2022-07-31T07:29:21Z</time>
      </trkpt>
      <trkpt lat="37.7208850" lon="-3.4526950">
        <ele>1852.8</ele>
        <time>2022-07-31T07:29:26Z</time>
      </trkpt>
      <trkpt lat="37.7208850" lon="-3.4526970">
        <ele>1852.7</ele>
        <time>2022-07-31T07:29:27Z</time>
      </trkpt>
      <trkpt lat="37.7208850" lon="-3.4526970">
        <ele>1852.7</ele>
        <time>2022-07-31T07:29:28Z</time>
      </trkpt>
      <trkpt lat="37.7208870" lon="-3.4526980">
        <ele>1852.7</ele>
        <time>2022-07-31T07:29:35Z</time>
      </trkpt>
      <trkpt lat="37.7208870" lon="-3.4526980">
        <ele>1852.7</ele>
        <time>2022-07-31T07:29:36Z</time>
      </trkpt>
      <trkpt lat="37.7208880" lon="-3.4526980">
        <ele>1852.7</ele>
        <time>2022-07-31T07:29:39Z</time>
      </trkpt>
      <trkpt lat="37.7208880" lon="-3.4526980">
        <ele>1852.7</ele>
        <time>2022-07-31T07:29:40Z</time>
      </trkpt>
      <trkpt lat="37.7208900" lon="-3.4527000">
        <ele>1852.6</ele>
        <time>2022-07-31T07:29:42Z</time>
      </trkpt>
      <trkpt lat="37.7208970" lon="-3.4527000">
        <ele>1852.5</ele>
        <time>2022-07-31T07:29:45Z</time>
      </trkpt>
      <trkpt lat="37.7209000" lon="-3.4527020">
        <ele>1852.5</ele>
        <time>2022-07-31T07:29:47Z</time>
      </trkpt>
      <trkpt lat="37.7209770" lon="-3.4526280">
        <ele>1851.2</ele>
        <time>2022-07-31T07:30:01Z</time>
      </trkpt>
      <trkpt lat="37.7210330" lon="-3.4525320">
        <ele>1850.8</ele>
        <time>2022-07-31T07:30:26Z</time>
      </trkpt>
      <trkpt lat="37.7210580" lon="-3.4524080">
        <ele>1850.5</ele>
        <time>2022-07-31T07:30:35Z</time>
      </trkpt>
      <trkpt lat="37.7210750" lon="-3.4522950">
        <ele>1850.1</ele>
        <time>2022-07-31T07:30:42Z</time>
      </trkpt>
      <trkpt lat="37.7210750" lon="-3.4521750">
        <ele>1849.4</ele>
        <time>2022-07-31T07:30:57Z</time>
      </trkpt>
      <trkpt lat="37.7211070" lon="-3.4520620">
        <ele>1848.5</ele>
        <time>2022-07-31T07:31:04Z</time>
      </trkpt>
      <trkpt lat="37.7211420" lon="-3.4519500">
        <ele>1847.5</ele>
        <time>2022-07-31T07:31:12Z</time>
      </trkpt>
      <trkpt lat="37.7211250" lon="-3.4518320">
        <ele>1846.1</ele>
        <time>2022-07-31T07:31:22Z</time>
      </trkpt>
      <trkpt lat="37.7210770" lon="-3.4517250">
        <ele>1844.0</ele>
        <time>2022-07-31T07:31:32Z</time>
      </trkpt>
      <trkpt lat="37.7210000" lon="-3.4516400">
        <ele>1841.8</ele>
        <time>2022-07-31T07:31:40Z</time>
      </trkpt>
      <trkpt lat="37.7209750" lon="-3.4515250">
        <ele>1840.7</ele>
        <time>2022-07-31T07:31:50Z</time>
      </trkpt>
      <trkpt lat="37.7209220" lon="-3.4514220">
        <ele>1840.3</ele>
        <time>2022-07-31T07:32:01Z</time>
      </trkpt>
      <trkpt lat="37.7208350" lon="-3.4513670">
        <ele>1839.9</ele>
        <time>2022-07-31T07:32:09Z</time>
      </trkpt>
      <trkpt lat="37.7207380" lon="-3.4513220">
        <ele>1839.0</ele>
        <time>2022-07-31T07:32:16Z</time>
      </trkpt>
      <trkpt lat="37.7206570" lon="-3.4512720">
        <ele>1838.0</ele>
        <time>2022-07-31T07:32:23Z</time>
      </trkpt>
      <trkpt lat="37.7205650" lon="-3.4512170">
        <ele>1836.7</ele>
        <time>2022-07-31T07:32:31Z</time>
      </trkpt>
      <trkpt lat="37.7204770" lon="-3.4511550">
        <ele>1835.1</ele>
        <time>2022-07-31T07:32:39Z</time>
      </trkpt>
      <trkpt lat="37.7203930" lon="-3.4510870">
        <ele>1833.4</ele>
        <time>2022-07-31T07:32:45Z</time>
      </trkpt>
      <trkpt lat="37.7203070" lon="-3.4510430">
        <ele>1832.1</ele>
        <time>2022-07-31T07:32:56Z</time>
      </trkpt>
      <trkpt lat="37.7202350" lon="-3.4509680">
        <ele>1831.0</ele>
        <time>2022-07-31T07:33:07Z</time>
      </trkpt>
      <trkpt lat="37.7201670" lon="-3.4508700">
        <ele>1829.9</ele>
        <time>2022-07-31T07:33:17Z</time>
      </trkpt>
      <trkpt lat="37.7201330" lon="-3.4507620">
        <ele>1828.7</ele>
        <time>2022-07-31T07:33:24Z</time>
      </trkpt>
      <trkpt lat="37.7200850" lon="-3.4506650">
        <ele>1827.4</ele>
        <time>2022-07-31T07:33:32Z</time>
      </trkpt>
      <trkpt lat="37.7200350" lon="-3.4505620">
        <ele>1825.8</ele>
        <time>2022-07-31T07:33:43Z</time>
      </trkpt>
      <trkpt lat="37.7199650" lon="-3.4504880">
        <ele>1824.2</ele>
        <time>2022-07-31T07:33:54Z</time>
      </trkpt>
      <trkpt lat="37.7199070" lon="-3.4504000">
        <ele>1822.6</ele>
        <time>2022-07-31T07:34:03Z</time>
      </trkpt>
      <trkpt lat="37.7198250" lon="-3.4503370">
        <ele>1820.7</ele>
        <time>2022-07-31T07:34:17Z</time>
      </trkpt>
      <trkpt lat="37.7197470" lon="-3.4502800">
        <ele>1819.0</ele>
        <time>2022-07-31T07:34:24Z</time>
      </trkpt>
      <trkpt lat="37.7196520" lon="-3.4502870">
        <ele>1817.7</ele>
        <time>2022-07-31T07:34:32Z</time>
      </trkpt>
      <trkpt lat="37.7195580" lon="-3.4503200">
        <ele>1816.5</ele>
        <time>2022-07-31T07:34:40Z</time>
      </trkpt>
      <trkpt lat="37.7194570" lon="-3.4503330">
        <ele>1815.2</ele>
        <time>2022-07-31T07:34:56Z</time>
      </trkpt>
      <trkpt lat="37.7193700" lon="-3.4503680">
        <ele>1813.3</ele>
        <time>2022-07-31T07:35:04Z</time>
      </trkpt>
      <trkpt lat="37.7192770" lon="-3.4503830">
        <ele>1811.8</ele>
        <time>2022-07-31T07:35:11Z</time>
      </trkpt>
      <trkpt lat="37.7191800" lon="-3.4503700">
        <ele>1810.1</ele>
        <time>2022-07-31T07:35:20Z</time>
      </trkpt>
      <trkpt lat="37.7190880" lon="-3.4503520">
        <ele>1808.5</ele>
        <time>2022-07-31T07:35:28Z</time>
      </trkpt>
      <trkpt lat="37.7190750" lon="-3.4503430">
        <ele>1808.3</ele>
        <time>2022-07-31T07:35:31Z</time>
      </trkpt>
      <trkpt lat="37.7190720" lon="-3.4503420">
        <ele>1808.2</ele>
        <time>2022-07-31T07:35:32Z</time>
      </trkpt>
      <trkpt lat="37.7189930" lon="-3.4502750">
        <ele>1806.9</ele>
        <time>2022-07-31T07:35:42Z</time>
      </trkpt>
      <trkpt lat="37.7189250" lon="-3.4501950">
        <ele>1806.0</ele>
        <time>2022-07-31T07:35:52Z</time>
      </trkpt>
      <trkpt lat="37.7188750" lon="-3.4500950">
        <ele>1805.1</ele>
        <time>2022-07-31T07:35:58Z</time>
      </trkpt>
      <trkpt lat="37.7188270" lon="-3.4499880">
        <ele>1803.9</ele>
        <time>2022-07-31T07:36:06Z</time>
      </trkpt>
      <trkpt lat="37.7187620" lon="-3.4499070">
        <ele>1802.6</ele>
        <time>2022-07-31T07:36:13Z</time>
      </trkpt>
      <trkpt lat="37.7186870" lon="-3.4498270">
        <ele>1801.0</ele>
        <time>2022-07-31T07:36:23Z</time>
      </trkpt>
      <trkpt lat="37.7186070" lon="-3.4497430">
        <ele>1799.4</ele>
        <time>2022-07-31T07:36:31Z</time>
      </trkpt>
      <trkpt lat="37.7185520" lon="-3.4496480">
        <ele>1798.0</ele>
        <time>2022-07-31T07:36:37Z</time>
      </trkpt>
      <trkpt lat="37.7184700" lon="-3.4495900">
        <ele>1796.5</ele>
        <time>2022-07-31T07:36:45Z</time>
      </trkpt>
      <trkpt lat="37.7183970" lon="-3.4495070">
        <ele>1795.0</ele>
        <time>2022-07-31T07:36:54Z</time>
      </trkpt>
      <trkpt lat="37.7183170" lon="-3.4494250">
        <ele>1793.5</ele>
        <time>2022-07-31T07:37:01Z</time>
      </trkpt>
      <trkpt lat="37.7182330" lon="-3.4493770">
        <ele>1792.1</ele>
        <time>2022-07-31T07:37:10Z</time>
      </trkpt>
      <trkpt lat="37.7181620" lon="-3.4493020">
        <ele>1790.7</ele>
        <time>2022-07-31T07:37:20Z</time>
      </trkpt>
      <trkpt lat="37.7180830" lon="-3.4492380">
        <ele>1789.2</ele>
        <time>2022-07-31T07:37:29Z</time>
      </trkpt>
      <trkpt lat="37.7179870" lon="-3.4492080">
        <ele>1787.8</ele>
        <time>2022-07-31T07:37:39Z</time>
      </trkpt>
      <trkpt lat="37.7178950" lon="-3.4491700">
        <ele>1786.5</ele>
        <time>2022-07-31T07:37:47Z</time>
      </trkpt>
      <trkpt lat="37.7178080" lon="-3.4491180">
        <ele>1785.5</ele>
        <time>2022-07-31T07:37:55Z</time>
      </trkpt>
      <trkpt lat="37.7177130" lon="-3.4490980">
        <ele>1784.6</ele>
        <time>2022-07-31T07:38:02Z</time>
      </trkpt>
      <trkpt lat="37.7176300" lon="-3.4490550">
        <ele>1783.9</ele>
        <time>2022-07-31T07:38:09Z</time>
      </trkpt>
      <trkpt lat="37.7175350" lon="-3.4490450">
        <ele>1783.3</ele>
        <time>2022-07-31T07:38:19Z</time>
      </trkpt>
      <trkpt lat="37.7174600" lon="-3.4489730">
        <ele>1782.7</ele>
        <time>2022-07-31T07:38:35Z</time>
      </trkpt>
      <trkpt lat="37.7173680" lon="-3.4489400">
        <ele>1782.3</ele>
        <time>2022-07-31T07:38:43Z</time>
      </trkpt>
      <trkpt lat="37.7172800" lon="-3.4488970">
        <ele>1781.5</ele>
        <time>2022-07-31T07:38:53Z</time>
      </trkpt>
      <trkpt lat="37.7172680" lon="-3.4488530">
        <ele>1781.2</ele>
        <time>2022-07-31T07:38:59Z</time>
      </trkpt>
      <trkpt lat="37.7172700" lon="-3.4488520">
        <ele>1781.1</ele>
        <time>2022-07-31T07:39:03Z</time>
      </trkpt>
      <trkpt lat="37.7172730" lon="-3.4488280">
        <ele>1780.9</ele>
        <time>2022-07-31T07:39:07Z</time>
      </trkpt>
      <trkpt lat="37.7172730" lon="-3.4488300">
        <ele>1780.9</ele>
        <time>2022-07-31T07:39:29Z</time>
      </trkpt>
      <trkpt lat="37.7172400" lon="-3.4489530">
        <ele>1779.5</ele>
        <time>2022-07-31T07:39:39Z</time>
      </trkpt>
      <trkpt lat="37.7172380" lon="-3.4490800">
        <ele>1777.8</ele>
        <time>2022-07-31T07:39:46Z</time>
      </trkpt>
      <trkpt lat="37.7172270" lon="-3.4492070">
        <ele>1775.9</ele>
        <time>2022-07-31T07:39:53Z</time>
      </trkpt>
      <trkpt lat="37.7171800" lon="-3.4493100">
        <ele>1774.0</ele>
        <time>2022-07-31T07:40:00Z</time>
      </trkpt>
      <trkpt lat="37.7171250" lon="-3.4494100">
        <ele>1772.0</ele>
        <time>2022-07-31T07:40:07Z</time>
      </trkpt>
      <trkpt lat="37.7171400" lon="-3.4495280">
        <ele>1770.2</ele>
        <time>2022-07-31T07:40:13Z</time>
      </trkpt>
      <trkpt lat="37.7171380" lon="-3.4496450">
        <ele>1768.5</ele>
        <time>2022-07-31T07:40:22Z</time>
      </trkpt>
      <trkpt lat="37.7171480" lon="-3.4497680">
        <ele>1766.8</ele>
        <time>2022-07-31T07:40:29Z</time>
      </trkpt>
      <trkpt lat="37.7172180" lon="-3.4498530">
        <ele>1765.1</ele>
        <time>2022-07-31T07:40:37Z</time>
      </trkpt>
      <trkpt lat="37.7172770" lon="-3.4499400">
        <ele>1763.5</ele>
        <time>2022-07-31T07:40:47Z</time>
      </trkpt>
      <trkpt lat="37.7173550" lon="-3.4500170">
        <ele>1761.7</ele>
        <time>2022-07-31T07:40:56Z</time>
      </trkpt>
      <trkpt lat="37.7173870" lon="-3.4501300">
        <ele>1760.1</ele>
        <time>2022-07-31T07:41:03Z</time>
      </trkpt>
      <trkpt lat="37.7173450" lon="-3.4502380">
        <ele>1758.6</ele>
        <time>2022-07-31T07:41:11Z</time>
      </trkpt>
      <trkpt lat="37.7173220" lon="-3.4503500">
        <ele>1757.5</ele>
        <time>2022-07-31T07:41:20Z</time>
      </trkpt>
      <trkpt lat="37.7173300" lon="-3.4504750">
        <ele>1756.6</ele>
        <time>2022-07-31T07:41:31Z</time>
      </trkpt>
      <trkpt lat="37.7172550" lon="-3.4505520">
        <ele>1755.5</ele>
        <time>2022-07-31T07:41:39Z</time>
      </trkpt>
      <trkpt lat="37.7171800" lon="-3.4506270">
        <ele>1754.6</ele>
        <time>2022-07-31T07:41:50Z</time>
      </trkpt>
      <trkpt lat="37.7171420" lon="-3.4507480">
        <ele>1754.1</ele>
        <time>2022-07-31T07:42:00Z</time>
      </trkpt>
      <trkpt lat="37.7170520" lon="-3.4507680">
        <ele>1754.1</ele>
        <time>2022-07-31T07:42:11Z</time>
      </trkpt>
      <trkpt lat="37.7169550" lon="-3.4507920">
        <ele>1754.2</ele>
        <time>2022-07-31T07:42:18Z</time>
      </trkpt>
      <trkpt lat="37.7168600" lon="-3.4507900">
        <ele>1754.3</ele>
        <time>2022-07-31T07:42:26Z</time>
      </trkpt>
      <trkpt lat="37.7167700" lon="-3.4508130">
        <ele>1754.2</ele>
        <time>2022-07-31T07:42:35Z</time>
      </trkpt>
      <trkpt lat="37.7166750" lon="-3.4508230">
        <ele>1753.8</ele>
        <time>2022-07-31T07:42:43Z</time>
      </trkpt>
      <trkpt lat="37.7165800" lon="-3.4508420">
        <ele>1753.0</ele>
        <time>2022-07-31T07:42:51Z</time>
      </trkpt>
      <trkpt lat="37.7164970" lon="-3.4509070">
        <ele>1751.4</ele>
        <time>2022-07-31T07:42:59Z</time>
      </trkpt>
      <trkpt lat="37.7164170" lon="-3.4509630">
        <ele>1749.5</ele>
        <time>2022-07-31T07:43:07Z</time>
      </trkpt>
      <trkpt lat="37.7163420" lon="-3.4510370">
        <ele>1747.6</ele>
        <time>2022-07-31T07:43:20Z</time>
      </trkpt>
      <trkpt lat="37.7162680" lon="-3.4511170">
        <ele>1745.6</ele>
        <time>2022-07-31T07:43:29Z</time>
      </trkpt>
      <trkpt lat="37.7162420" lon="-3.4512270">
        <ele>1743.7</ele>
        <time>2022-07-31T07:43:37Z</time>
      </trkpt>
      <trkpt lat="37.7161700" lon="-3.4513020">
        <ele>1741.6</ele>
        <time>2022-07-31T07:43:45Z</time>
      </trkpt>
      <trkpt lat="37.7161880" lon="-3.4513330">
        <ele>1741.0</ele>
        <time>2022-07-31T07:43:56Z</time>
      </trkpt>
      <trkpt lat="37.7161880" lon="-3.4513350">
        <ele>1740.9</ele>
        <time>2022-07-31T07:43:57Z</time>
      </trkpt>
      <trkpt lat="37.7161950" lon="-3.4513500">
        <ele>1740.7</ele>
        <time>2022-07-31T07:44:00Z</time>
      </trkpt>
      <trkpt lat="37.7161920" lon="-3.4513500">
        <ele>1740.6</ele>
        <time>2022-07-31T07:44:01Z</time>
      </trkpt>
      <trkpt lat="37.7161180" lon="-3.4514230">
        <ele>1738.9</ele>
        <time>2022-07-31T07:44:15Z</time>
      </trkpt>
      <trkpt lat="37.7160570" lon="-3.4515230">
        <ele>1737.4</ele>
        <time>2022-07-31T07:44:24Z</time>
      </trkpt>
      <trkpt lat="37.7159920" lon="-3.4516170">
        <ele>1736.0</ele>
        <time>2022-07-31T07:44:31Z</time>
      </trkpt>
      <trkpt lat="37.7159370" lon="-3.4517130">
        <ele>1734.5</ele>
        <time>2022-07-31T07:44:39Z</time>
      </trkpt>
      <trkpt lat="37.7158980" lon="-3.4518220">
        <ele>1732.7</ele>
        <time>2022-07-31T07:44:49Z</time>
      </trkpt>
      <trkpt lat="37.7158480" lon="-3.4519250">
        <ele>1730.4</ele>
        <time>2022-07-31T07:44:57Z</time>
      </trkpt>
      <trkpt lat="37.7158000" lon="-3.4519600">
        <ele>1728.9</ele>
        <time>2022-07-31T07:45:06Z</time>
      </trkpt>
      <trkpt lat="37.7158030" lon="-3.4519650">
        <ele>1728.7</ele>
        <time>2022-07-31T07:45:07Z</time>
      </trkpt>
      <trkpt lat="37.7157100" lon="-3.4520150">
        <ele>1726.0</ele>
        <time>2022-07-31T07:45:20Z</time>
      </trkpt>
      <trkpt lat="37.7156350" lon="-3.4520820">
        <ele>1723.9</ele>
        <time>2022-07-31T07:45:30Z</time>
      </trkpt>
      <trkpt lat="37.7155970" lon="-3.4521900">
        <ele>1722.3</ele>
        <time>2022-07-31T07:45:40Z</time>
      </trkpt>
      <trkpt lat="37.7155300" lon="-3.4522820">
        <ele>1720.8</ele>
        <time>2022-07-31T07:45:48Z</time>
      </trkpt>
      <trkpt lat="37.7155070" lon="-3.4523920">
        <ele>1720.0</ele>
        <time>2022-07-31T07:45:56Z</time>
      </trkpt>
      <trkpt lat="37.7154650" lon="-3.4525100">
        <ele>1719.1</ele>
        <time>2022-07-31T07:46:02Z</time>
      </trkpt>
      <trkpt lat="37.7154120" lon="-3.4526020">
        <ele>1718.3</ele>
        <time>2022-07-31T07:46:07Z</time>
      </trkpt>
      <trkpt lat="37.7153850" lon="-3.4527130">
        <ele>1717.4</ele>
        <time>2022-07-31T07:46:15Z</time>
      </trkpt>
      <trkpt lat="37.7153220" lon="-3.4528150">
        <ele>1716.2</ele>
        <time>2022-07-31T07:46:24Z</time>
      </trkpt>
      <trkpt lat="37.7153030" lon="-3.4528470">
        <ele>1715.8</ele>
        <time>2022-07-31T07:46:30Z</time>
      </trkpt>
      <trkpt lat="37.7153020" lon="-3.4528480">
        <ele>1715.8</ele>
        <time>2022-07-31T07:46:38Z</time>
      </trkpt>
      <trkpt lat="37.7152450" lon="-3.4529370">
        <ele>1714.7</ele>
        <time>2022-07-31T07:46:48Z</time>
      </trkpt>
      <trkpt lat="37.7151730" lon="-3.4530070">
        <ele>1713.6</ele>
        <time>2022-07-31T07:46:54Z</time>
      </trkpt>
      <trkpt lat="37.7151080" lon="-3.4530870">
        <ele>1712.6</ele>
        <time>2022-07-31T07:47:01Z</time>
      </trkpt>
      <trkpt lat="37.7150200" lon="-3.4531430">
        <ele>1711.6</ele>
        <time>2022-07-31T07:47:07Z</time>
      </trkpt>
      <trkpt lat="37.7149280" lon="-3.4531930">
        <ele>1710.5</ele>
        <time>2022-07-31T07:47:13Z</time>
      </trkpt>
      <trkpt lat="37.7148670" lon="-3.4532800">
        <ele>1709.5</ele>
        <time>2022-07-31T07:47:21Z</time>
      </trkpt>
      <trkpt lat="37.7147850" lon="-3.4533450">
        <ele>1708.3</ele>
        <time>2022-07-31T07:47:32Z</time>
      </trkpt>
      <trkpt lat="37.7147150" lon="-3.4534380">
        <ele>1707.0</ele>
        <time>2022-07-31T07:47:40Z</time>
      </trkpt>
      <trkpt lat="37.7146500" lon="-3.4535230">
        <ele>1705.8</ele>
        <time>2022-07-31T07:47:48Z</time>
      </trkpt>
      <trkpt lat="37.7145700" lon="-3.4535970">
        <ele>1704.6</ele>
        <time>2022-07-31T07:47:55Z</time>
      </trkpt>
      <trkpt lat="37.7145150" lon="-3.4536900">
        <ele>1703.7</ele>
        <time>2022-07-31T07:48:03Z</time>
      </trkpt>
      <trkpt lat="37.7144480" lon="-3.4537800">
        <ele>1702.9</ele>
        <time>2022-07-31T07:48:09Z</time>
      </trkpt>
      <trkpt lat="37.7144120" lon="-3.4538900">
        <ele>1702.3</ele>
        <time>2022-07-31T07:48:17Z</time>
      </trkpt>
      <trkpt lat="37.7144080" lon="-3.4540120">
        <ele>1701.6</ele>
        <time>2022-07-31T07:48:25Z</time>
      </trkpt>
      <trkpt lat="37.7143600" lon="-3.4541220">
        <ele>1700.9</ele>
        <time>2022-07-31T07:48:32Z</time>
      </trkpt>
      <trkpt lat="37.7143030" lon="-3.4542180">
        <ele>1700.2</ele>
        <time>2022-07-31T07:48:39Z</time>
      </trkpt>
      <trkpt lat="37.7142520" lon="-3.4543270">
        <ele>1699.5</ele>
        <time>2022-07-31T07:48:44Z</time>
      </trkpt>
      <trkpt lat="37.7142100" lon="-3.4544280">
        <ele>1698.8</ele>
        <time>2022-07-31T07:48:51Z</time>
      </trkpt>
      <trkpt lat="37.7142200" lon="-3.4545520">
        <ele>1697.9</ele>
        <time>2022-07-31T07:48:59Z</time>
      </trkpt>
      <trkpt lat="37.7142150" lon="-3.4546770">
        <ele>1697.0</ele>
        <time>2022-07-31T07:49:08Z</time>
      </trkpt>
      <trkpt lat="37.7141870" lon="-3.4547950">
        <ele>1696.1</ele>
        <time>2022-07-31T07:49:14Z</time>
      </trkpt>
      <trkpt lat="37.7141850" lon="-3.4549200">
        <ele>1695.2</ele>
        <time>2022-07-31T07:49:23Z</time>
      </trkpt>
      <trkpt lat="37.7141880" lon="-3.4550420">
        <ele>1694.2</ele>
        <time>2022-07-31T07:49:33Z</time>
      </trkpt>
      <trkpt lat="37.7141470" lon="-3.4551650">
        <ele>1693.2</ele>
        <time>2022-07-31T07:49:43Z</time>
      </trkpt>
      <trkpt lat="37.7141030" lon="-3.4552850">
        <ele>1692.2</ele>
        <time>2022-07-31T07:49:48Z</time>
      </trkpt>
      <trkpt lat="37.7140680" lon="-3.4553970">
        <ele>1691.4</ele>
        <time>2022-07-31T07:49:55Z</time>
      </trkpt>
      <trkpt lat="37.7140370" lon="-3.4555080">
        <ele>1690.6</ele>
        <time>2022-07-31T07:50:03Z</time>
      </trkpt>
      <trkpt lat="37.7140300" lon="-3.4556300">
        <ele>1689.8</ele>
        <time>2022-07-31T07:50:10Z</time>
      </trkpt>
      <trkpt lat="37.7139970" lon="-3.4557430">
        <ele>1689.0</ele>
        <time>2022-07-31T07:50:17Z</time>
      </trkpt>
      <trkpt lat="37.7139530" lon="-3.4558530">
        <ele>1688.2</ele>
        <time>2022-07-31T07:50:24Z</time>
      </trkpt>
      <trkpt lat="37.7139180" lon="-3.4559670">
        <ele>1687.3</ele>
        <time>2022-07-31T07:50:33Z</time>
      </trkpt>
      <trkpt lat="37.7138870" lon="-3.4560880">
        <ele>1686.5</ele>
        <time>2022-07-31T07:50:40Z</time>
      </trkpt>
      <trkpt lat="37.7138870" lon="-3.4562180">
        <ele>1685.8</ele>
        <time>2022-07-31T07:50:49Z</time>
      </trkpt>
      <trkpt lat="37.7138800" lon="-3.4563370">
        <ele>1685.2</ele>
        <time>2022-07-31T07:50:57Z</time>
      </trkpt>
      <trkpt lat="37.7138420" lon="-3.4564450">
        <ele>1684.5</ele>
        <time>2022-07-31T07:51:04Z</time>
      </trkpt>
      <trkpt lat="37.7138070" lon="-3.4565600">
        <ele>1683.8</ele>
        <time>2022-07-31T07:51:11Z</time>
      </trkpt>
      <trkpt lat="37.7137780" lon="-3.4566680">
        <ele>1683.2</ele>
        <time>2022-07-31T07:51:18Z</time>
      </trkpt>
      <trkpt lat="37.7137300" lon="-3.4567680">
        <ele>1682.5</ele>
        <time>2022-07-31T07:51:26Z</time>
      </trkpt>
      <trkpt lat="37.7136970" lon="-3.4568800">
        <ele>1681.9</ele>
        <time>2022-07-31T07:51:32Z</time>
      </trkpt>
      <trkpt lat="37.7137080" lon="-3.4570070">
        <ele>1681.4</ele>
        <time>2022-07-31T07:51:40Z</time>
      </trkpt>
      <trkpt lat="37.7137030" lon="-3.4571230">
        <ele>1681.1</ele>
        <time>2022-07-31T07:51:48Z</time>
      </trkpt>
      <trkpt lat="37.7137300" lon="-3.4572470">
        <ele>1680.8</ele>
        <time>2022-07-31T07:51:57Z</time>
      </trkpt>
      <trkpt lat="37.7137850" lon="-3.4573400">
        <ele>1680.5</ele>
        <time>2022-07-31T07:52:03Z</time>
      </trkpt>
      <trkpt lat="37.7138220" lon="-3.4574470">
        <ele>1680.2</ele>
        <time>2022-07-31T07:52:10Z</time>
      </trkpt>
      <trkpt lat="37.7138530" lon="-3.4575550">
        <ele>1679.8</ele>
        <time>2022-07-31T07:52:16Z</time>
      </trkpt>
      <trkpt lat="37.7138780" lon="-3.4576700">
        <ele>1679.4</ele>
        <time>2022-07-31T07:52:25Z</time>
      </trkpt>
      <trkpt lat="37.7139280" lon="-3.4577800">
        <ele>1678.9</ele>
        <time>2022-07-31T07:52:33Z</time>
      </trkpt>
      <trkpt lat="37.7139720" lon="-3.4578820">
        <ele>1678.3</ele>
        <time>2022-07-31T07:52:40Z</time>
      </trkpt>
      <trkpt lat="37.7139920" lon="-3.4580070">
        <ele>1677.9</ele>
        <time>2022-07-31T07:52:47Z</time>
      </trkpt>
      <trkpt lat="37.7139780" lon="-3.4581320">
        <ele>1678.2</ele>
        <time>2022-07-31T07:52:55Z</time>
      </trkpt>
      <trkpt lat="37.7139680" lon="-3.4582570">
        <ele>1678.6</ele>
        <time>2022-07-31T07:53:03Z</time>
      </trkpt>
      <trkpt lat="37.7139450" lon="-3.4583770">
        <ele>1679.2</ele>
        <time>2022-07-31T07:53:11Z</time>
      </trkpt>
      <trkpt lat="37.7139070" lon="-3.4584970">
        <ele>1679.8</ele>
        <time>2022-07-31T07:53:19Z</time>
      </trkpt>
      <trkpt lat="37.7138680" lon="-3.4586120">
        <ele>1680.3</ele>
        <time>2022-07-31T07:53:28Z</time>
      </trkpt>
      <trkpt lat="37.7138430" lon="-3.4587300">
        <ele>1681.0</ele>
        <time>2022-07-31T07:53:36Z</time>
      </trkpt>
      <trkpt lat="37.7138350" lon="-3.4588470">
        <ele>1681.6</ele>
        <time>2022-07-31T07:53:43Z</time>
      </trkpt>
      <trkpt lat="37.7137920" lon="-3.4589630">
        <ele>1682.3</ele>
        <time>2022-07-31T07:53:51Z</time>
      </trkpt>
      <trkpt lat="37.7137450" lon="-3.4590700">
        <ele>1682.8</ele>
        <time>2022-07-31T07:53:59Z</time>
      </trkpt>
      <trkpt lat="37.7137120" lon="-3.4591970">
        <ele>1683.3</ele>
        <time>2022-07-31T07:54:06Z</time>
      </trkpt>
      <trkpt lat="37.7137230" lon="-3.4593100">
        <ele>1683.6</ele>
        <time>2022-07-31T07:54:12Z</time>
      </trkpt>
      <trkpt lat="37.7137150" lon="-3.4594230">
        <ele>1683.9</ele>
        <time>2022-07-31T07:54:19Z</time>
      </trkpt>
      <trkpt lat="37.7137180" lon="-3.4595400">
        <ele>1684.3</ele>
        <time>2022-07-31T07:54:27Z</time>
      </trkpt>
      <trkpt lat="37.7136970" lon="-3.4596630">
        <ele>1684.7</ele>
        <time>2022-07-31T07:54:35Z</time>
      </trkpt>
      <trkpt lat="37.7136720" lon="-3.4597870">
        <ele>1685.3</ele>
        <time>2022-07-31T07:54:43Z</time>
      </trkpt>
      <trkpt lat="37.7136220" lon="-3.4598900">
        <ele>1685.9</ele>
        <time>2022-07-31T07:54:52Z</time>
      </trkpt>
      <trkpt lat="37.7135550" lon="-3.4599780">
        <ele>1686.5</ele>
        <time>2022-07-31T07:54:59Z</time>
      </trkpt>
      <trkpt lat="37.7135030" lon="-3.4600780">
        <ele>1687.1</ele>
        <time>2022-07-31T07:55:07Z</time>
      </trkpt>
      <trkpt lat="37.7134480" lon="-3.4601820">
        <ele>1687.5</ele>
        <time>2022-07-31T07:55:15Z</time>
      </trkpt>
      <trkpt lat="37.7133620" lon="-3.4602430">
        <ele>1687.7</ele>
        <time>2022-07-31T07:55:24Z</time>
      </trkpt>
      <trkpt lat="37.7133300" lon="-3.4603530">
        <ele>1687.6</ele>
        <time>2022-07-31T07:55:31Z</time>
      </trkpt>
      <trkpt lat="37.7133320" lon="-3.4604370">
        <ele>1687.5</ele>
        <time>2022-07-31T07:55:40Z</time>
      </trkpt>
      <trkpt lat="37.7133330" lon="-3.4604380">
        <ele>1687.5</ele>
        <time>2022-07-31T07:55:46Z</time>
      </trkpt>
      <trkpt lat="37.7133670" lon="-3.4605530">
        <ele>1687.1</ele>
        <time>2022-07-31T07:55:57Z</time>
      </trkpt>
      <trkpt lat="37.7133880" lon="-3.4606670">
        <ele>1686.6</ele>
        <time>2022-07-31T07:56:04Z</time>
      </trkpt>
      <trkpt lat="37.7133870" lon="-3.4608020">
        <ele>1686.0</ele>
        <time>2022-07-31T07:56:10Z</time>
      </trkpt>
      <trkpt lat="37.7133850" lon="-3.4609200">
        <ele>1685.3</ele>
        <time>2022-07-31T07:56:16Z</time>
      </trkpt>
      <trkpt lat="37.7134170" lon="-3.4610320">
        <ele>1684.5</ele>
        <time>2022-07-31T07:56:23Z</time>
      </trkpt>
      <trkpt lat="37.7134670" lon="-3.4611380">
        <ele>1683.5</ele>
        <time>2022-07-31T07:56:31Z</time>
      </trkpt>
      <trkpt lat="37.7135130" lon="-3.4612500">
        <ele>1682.6</ele>
        <time>2022-07-31T07:56:39Z</time>
      </trkpt>
      <trkpt lat="37.7135400" lon="-3.4613620">
        <ele>1681.7</ele>
        <time>2022-07-31T07:56:47Z</time>
      </trkpt>
      <trkpt lat="37.7135800" lon="-3.4614730">
        <ele>1680.9</ele>
        <time>2022-07-31T07:56:55Z</time>
      </trkpt>
      <trkpt lat="37.7135920" lon="-3.4616020">
        <ele>1679.9</ele>
        <time>2022-07-31T07:57:02Z</time>
      </trkpt>
      <trkpt lat="37.7136120" lon="-3.4617170">
        <ele>1679.1</ele>
        <time>2022-07-31T07:57:08Z</time>
      </trkpt>
      <trkpt lat="37.7136230" lon="-3.4618450">
        <ele>1678.3</ele>
        <time>2022-07-31T07:57:15Z</time>
      </trkpt>
      <trkpt lat="37.7136670" lon="-3.4619530">
        <ele>1677.4</ele>
        <time>2022-07-31T07:57:22Z</time>
      </trkpt>
      <trkpt lat="37.7136930" lon="-3.4620720">
        <ele>1676.5</ele>
        <time>2022-07-31T07:57:31Z</time>
      </trkpt>
      <trkpt lat="37.7137330" lon="-3.4621820">
        <ele>1675.6</ele>
        <time>2022-07-31T07:57:39Z</time>
      </trkpt>
      <trkpt lat="37.7137600" lon="-3.4622920">
        <ele>1674.7</ele>
        <time>2022-07-31T07:57:47Z</time>
      </trkpt>
      <trkpt lat="37.7137980" lon="-3.4624080">
        <ele>1673.8</ele>
        <time>2022-07-31T07:57:55Z</time>
      </trkpt>
      <trkpt lat="37.7138080" lon="-3.4625380">
        <ele>1672.8</ele>
        <time>2022-07-31T07:58:03Z</time>
      </trkpt>
      <trkpt lat="37.7138450" lon="-3.4626430">
        <ele>1671.9</ele>
        <time>2022-07-31T07:58:12Z</time>
      </trkpt>
      <trkpt lat="37.7138780" lon="-3.4627650">
        <ele>1670.8</ele>
        <time>2022-07-31T07:58:19Z</time>
      </trkpt>
      <trkpt lat="37.7139280" lon="-3.4628780">
        <ele>1669.8</ele>
        <time>2022-07-31T07:58:27Z</time>
      </trkpt>
      <trkpt lat="37.7140100" lon="-3.4629620">
        <ele>1668.7</ele>
        <time>2022-07-31T07:58:34Z</time>
      </trkpt>
      <trkpt lat="37.7140920" lon="-3.4630350">
        <ele>1667.6</ele>
        <time>2022-07-31T07:58:41Z</time>
      </trkpt>
      <trkpt lat="37.7141880" lon="-3.4630720">
        <ele>1666.5</ele>
        <time>2022-07-31T07:58:48Z</time>
      </trkpt>
      <trkpt lat="37.7142230" lon="-3.4630620">
        <ele>1666.2</ele>
        <time>2022-07-31T07:58:54Z</time>
      </trkpt>
      <trkpt lat="37.7142220" lon="-3.4630620">
        <ele>1666.2</ele>
        <time>2022-07-31T07:58:55Z</time>
      </trkpt>
      <trkpt lat="37.7142100" lon="-3.4630850">
        <ele>1665.9</ele>
        <time>2022-07-31T07:59:09Z</time>
      </trkpt>
      <trkpt lat="37.7142170" lon="-3.4630770">
        <ele>1665.8</ele>
        <time>2022-07-31T07:59:10Z</time>
      </trkpt>
      <trkpt lat="37.7142250" lon="-3.4630700">
        <ele>1665.7</ele>
        <time>2022-07-31T07:59:15Z</time>
      </trkpt>
      <trkpt lat="37.7142270" lon="-3.4630780">
        <ele>1665.7</ele>
        <time>2022-07-31T07:59:16Z</time>
      </trkpt>
      <trkpt lat="37.7142250" lon="-3.4630820">
        <ele>1665.6</ele>
        <time>2022-07-31T07:59:23Z</time>
      </trkpt>
      <trkpt lat="37.7142220" lon="-3.4630830">
        <ele>1665.6</ele>
        <time>2022-07-31T07:59:36Z</time>
      </trkpt>
      <trkpt lat="37.7142100" lon="-3.4630820">
        <ele>1665.5</ele>
        <time>2022-07-31T07:59:51Z</time>
      </trkpt>
      <trkpt lat="37.7142130" lon="-3.4630820">
        <ele>1665.4</ele>
        <time>2022-07-31T07:59:52Z</time>
      </trkpt>
      <trkpt lat="37.7142580" lon="-3.4631880">
        <ele>1664.3</ele>
        <time>2022-07-31T08:00:24Z</time>
      </trkpt>
      <trkpt lat="37.7143380" lon="-3.4632700">
        <ele>1663.1</ele>
        <time>2022-07-31T08:00:31Z</time>
      </trkpt>
      <trkpt lat="37.7144330" lon="-3.4633250">
        <ele>1661.8</ele>
        <time>2022-07-31T08:00:38Z</time>
      </trkpt>
      <trkpt lat="37.7145080" lon="-3.4633930">
        <ele>1660.8</ele>
        <time>2022-07-31T08:00:46Z</time>
      </trkpt>
      <trkpt lat="37.7146020" lon="-3.4634200">
        <ele>1659.9</ele>
        <time>2022-07-31T08:00:53Z</time>
      </trkpt>
      <trkpt lat="37.7146950" lon="-3.4634470">
        <ele>1659.1</ele>
        <time>2022-07-31T08:01:01Z</time>
      </trkpt>
      <trkpt lat="37.7147870" lon="-3.4634480">
        <ele>1658.4</ele>
        <time>2022-07-31T08:01:07Z</time>
      </trkpt>
      <trkpt lat="37.7148700" lon="-3.4634920">
        <ele>1657.7</ele>
        <time>2022-07-31T08:01:15Z</time>
      </trkpt>
      <trkpt lat="37.7148580" lon="-3.4636130">
        <ele>1657.0</ele>
        <time>2022-07-31T08:01:25Z</time>
      </trkpt>
      <trkpt lat="37.7148230" lon="-3.4637280">
        <ele>1656.2</ele>
        <time>2022-07-31T08:01:31Z</time>
      </trkpt>
      <trkpt lat="37.7148050" lon="-3.4638400">
        <ele>1655.4</ele>
        <time>2022-07-31T08:01:39Z</time>
      </trkpt>
      <trkpt lat="37.7147850" lon="-3.4639580">
        <ele>1654.5</ele>
        <time>2022-07-31T08:01:51Z</time>
      </trkpt>
      <trkpt lat="37.7147830" lon="-3.4640830">
        <ele>1653.4</ele>
        <time>2022-07-31T08:02:02Z</time>
      </trkpt>
      <trkpt lat="37.7147600" lon="-3.4642030">
        <ele>1652.2</ele>
        <time>2022-07-31T08:02:08Z</time>
      </trkpt>
      <trkpt lat="37.7147630" lon="-3.4643200">
        <ele>1651.2</ele>
        <time>2022-07-31T08:02:15Z</time>
      </trkpt>
      <trkpt lat="37.7147680" lon="-3.4644470">
        <ele>1650.1</ele>
        <time>2022-07-31T08:02:22Z</time>
      </trkpt>
      <trkpt lat="37.7147530" lon="-3.4645730">
        <ele>1649.0</ele>
        <time>2022-07-31T08:02:31Z</time>
      </trkpt>
      <trkpt lat="37.7147200" lon="-3.4646930">
        <ele>1647.9</ele>
        <time>2022-07-31T08:02:38Z</time>
      </trkpt>
      <trkpt lat="37.7147300" lon="-3.4648180">
        <ele>1646.9</ele>
        <time>2022-07-31T08:02:46Z</time>
      </trkpt>
      <trkpt lat="37.7147420" lon="-3.4649470">
        <ele>1645.9</ele>
        <time>2022-07-31T08:02:54Z</time>
      </trkpt>
      <trkpt lat="37.7147780" lon="-3.4650570">
        <ele>1645.1</ele>
        <time>2022-07-31T08:03:01Z</time>
      </trkpt>
      <trkpt lat="37.7148180" lon="-3.4651730">
        <ele>1644.2</ele>
        <time>2022-07-31T08:03:10Z</time>
      </trkpt>
      <trkpt lat="37.7148030" lon="-3.4652920">
        <ele>1643.4</ele>
        <time>2022-07-31T08:03:16Z</time>
      </trkpt>
      <trkpt lat="37.7147700" lon="-3.4654080">
        <ele>1642.5</ele>
        <time>2022-07-31T08:03:25Z</time>
      </trkpt>
      <trkpt lat="37.7147070" lon="-3.4654980">
        <ele>1641.6</ele>
        <time>2022-07-31T08:03:32Z</time>
      </trkpt>
      <trkpt lat="37.7146500" lon="-3.4655870">
        <ele>1640.5</ele>
        <time>2022-07-31T08:03:39Z</time>
      </trkpt>
      <trkpt lat="37.7145730" lon="-3.4656680">
        <ele>1639.4</ele>
        <time>2022-07-31T08:03:46Z</time>
      </trkpt>
      <trkpt lat="37.7144820" lon="-3.4657020">
        <ele>1638.4</ele>
        <time>2022-07-31T08:03:54Z</time>
      </trkpt>
      <trkpt lat="37.7143800" lon="-3.4657050">
        <ele>1637.3</ele>
        <time>2022-07-31T08:04:02Z</time>
      </trkpt>
      <trkpt lat="37.7142770" lon="-3.4657100">
        <ele>1636.3</ele>
        <time>2022-07-31T08:04:10Z</time>
      </trkpt>
      <trkpt lat="37.7141820" lon="-3.4656850">
        <ele>1635.4</ele>
        <time>2022-07-31T08:04:19Z</time>
      </trkpt>
      <trkpt lat="37.7140930" lon="-3.4656480">
        <ele>1634.6</ele>
        <time>2022-07-31T08:04:27Z</time>
      </trkpt>
      <trkpt lat="37.7140480" lon="-3.4656770">
        <ele>1634.1</ele>
        <time>2022-07-31T08:04:37Z</time>
      </trkpt>
      <trkpt lat="37.7140470" lon="-3.4656780">
        <ele>1634.1</ele>
        <time>2022-07-31T08:04:38Z</time>
      </trkpt>
      <trkpt lat="37.7140450" lon="-3.4656780">
        <ele>1634.1</ele>
        <time>2022-07-31T08:04:40Z</time>
      </trkpt>
      <trkpt lat="37.7140400" lon="-3.4656780">
        <ele>1634.0</ele>
        <time>2022-07-31T08:04:41Z</time>
      </trkpt>
      <trkpt lat="37.7139630" lon="-3.4656050">
        <ele>1632.7</ele>
        <time>2022-07-31T08:04:50Z</time>
      </trkpt>
      <trkpt lat="37.7138680" lon="-3.4655920">
        <ele>1631.4</ele>
        <time>2022-07-31T08:04:58Z</time>
      </trkpt>
      <trkpt lat="37.7137750" lon="-3.4656120">
        <ele>1630.2</ele>
        <time>2022-07-31T08:05:08Z</time>
      </trkpt>
      <trkpt lat="37.7136830" lon="-3.4656230">
        <ele>1629.0</ele>
        <time>2022-07-31T08:05:14Z</time>
      </trkpt>
      <trkpt lat="37.7135870" lon="-3.4656480">
        <ele>1627.9</ele>
        <time>2022-07-31T08:05:20Z</time>
      </trkpt>
      <trkpt lat="37.7135000" lon="-3.4656970">
        <ele>1626.8</ele>
        <time>2022-07-31T08:05:28Z</time>
      </trkpt>
      <trkpt lat="37.7134200" lon="-3.4657500">
        <ele>1625.9</ele>
        <time>2022-07-31T08:05:35Z</time>
      </trkpt>
      <trkpt lat="37.7133430" lon="-3.4658150">
        <ele>1625.0</ele>
        <time>2022-07-31T08:05:44Z</time>
      </trkpt>
      <trkpt lat="37.7132520" lon="-3.4658430">
        <ele>1624.2</ele>
        <time>2022-07-31T08:05:48Z</time>
      </trkpt>
      <trkpt lat="37.7131530" lon="-3.4658380">
        <ele>1623.7</ele>
        <time>2022-07-31T08:05:57Z</time>
      </trkpt>
      <trkpt lat="37.7130900" lon="-3.4657920">
        <ele>1623.3</ele>
        <time>2022-07-31T08:06:08Z</time>
      </trkpt>
      <trkpt lat="37.7130870" lon="-3.4657920">
        <ele>1623.3</ele>
        <time>2022-07-31T08:06:09Z</time>
      </trkpt>
      <trkpt lat="37.7129900" lon="-3.4657820">
        <ele>1622.9</ele>
        <time>2022-07-31T08:06:18Z</time>
      </trkpt>
      <trkpt lat="37.7129100" lon="-3.4658580">
        <ele>1622.3</ele>
        <time>2022-07-31T08:06:26Z</time>
      </trkpt>
      <trkpt lat="37.7128870" lon="-3.4659770">
        <ele>1621.4</ele>
        <time>2022-07-31T08:06:33Z</time>
      </trkpt>
      <trkpt lat="37.7128730" lon="-3.4660950">
        <ele>1620.6</ele>
        <time>2022-07-31T08:06:40Z</time>
      </trkpt>
      <trkpt lat="37.7128450" lon="-3.4662100">
        <ele>1619.8</ele>
        <time>2022-07-31T08:06:46Z</time>
      </trkpt>
      <trkpt lat="37.7127720" lon="-3.4662870">
        <ele>1619.1</ele>
        <time>2022-07-31T08:06:58Z</time>
      </trkpt>
      <trkpt lat="37.7126820" lon="-3.4662830">
        <ele>1618.5</ele>
        <time>2022-07-31T08:07:07Z</time>
      </trkpt>
      <trkpt lat="37.7125900" lon="-3.4662580">
        <ele>1617.9</ele>
        <time>2022-07-31T08:07:12Z</time>
      </trkpt>
      <trkpt lat="37.7124920" lon="-3.4662330">
        <ele>1617.2</ele>
        <time>2022-07-31T08:07:18Z</time>
      </trkpt>
      <trkpt lat="37.7123880" lon="-3.4662470">
        <ele>1616.3</ele>
        <time>2022-07-31T08:07:26Z</time>
      </trkpt>
      <trkpt lat="37.7122950" lon="-3.4662580">
        <ele>1615.3</ele>
        <time>2022-07-31T08:07:33Z</time>
      </trkpt>
      <trkpt lat="37.7121930" lon="-3.4662650">
        <ele>1614.0</ele>
        <time>2022-07-31T08:07:41Z</time>
      </trkpt>
      <trkpt lat="37.7121050" lon="-3.4662130">
        <ele>1612.8</ele>
        <time>2022-07-31T08:07:50Z</time>
      </trkpt>
      <trkpt lat="37.7120300" lon="-3.4661420">
        <ele>1611.7</ele>
        <time>2022-07-31T08:07:57Z</time>
      </trkpt>
      <trkpt lat="37.7119670" lon="-3.4660570">
        <ele>1610.8</ele>
        <time>2022-07-31T08:08:02Z</time>
      </trkpt>
      <trkpt lat="37.7118850" lon="-3.4659980">
        <ele>1609.8</ele>
        <time>2022-07-31T08:08:09Z</time>
      </trkpt>
      <trkpt lat="37.7117930" lon="-3.4659330">
        <ele>1608.8</ele>
        <time>2022-07-31T08:08:16Z</time>
      </trkpt>
      <trkpt lat="37.7117220" lon="-3.4658630">
        <ele>1608.0</ele>
        <time>2022-07-31T08:08:23Z</time>
      </trkpt>
      <trkpt lat="37.7116380" lon="-3.4658050">
        <ele>1607.1</ele>
        <time>2022-07-31T08:08:30Z</time>
      </trkpt>
      <trkpt lat="37.7115630" lon="-3.4657180">
        <ele>1606.5</ele>
        <time>2022-07-31T08:08:38Z</time>
      </trkpt>
      <trkpt lat="37.7115300" lon="-3.4656000">
        <ele>1606.0</ele>
        <time>2022-07-31T08:08:45Z</time>
      </trkpt>
      <trkpt lat="37.7115270" lon="-3.4654730">
        <ele>1605.5</ele>
        <time>2022-07-31T08:08:54Z</time>
      </trkpt>
      <trkpt lat="37.7115380" lon="-3.4653530">
        <ele>1604.8</ele>
        <time>2022-07-31T08:09:02Z</time>
      </trkpt>
      <trkpt lat="37.7115550" lon="-3.4652330">
        <ele>1603.9</ele>
        <time>2022-07-31T08:09:10Z</time>
      </trkpt>
      <trkpt lat="37.7115470" lon="-3.4651150">
        <ele>1603.0</ele>
        <time>2022-07-31T08:09:17Z</time>
      </trkpt>
      <trkpt lat="37.7115320" lon="-3.4649950">
        <ele>1602.2</ele>
        <time>2022-07-31T08:09:24Z</time>
      </trkpt>
      <trkpt lat="37.7114830" lon="-3.4648920">
        <ele>1601.4</ele>
        <time>2022-07-31T08:09:32Z</time>
      </trkpt>
      <trkpt lat="37.7114150" lon="-3.4648120">
        <ele>1600.6</ele>
        <time>2022-07-31T08:09:39Z</time>
      </trkpt>
      <trkpt lat="37.7113370" lon="-3.4647280">
        <ele>1599.7</ele>
        <time>2022-07-31T08:09:46Z</time>
      </trkpt>
      <trkpt lat="37.7112820" lon="-3.4646270">
        <ele>1598.9</ele>
        <time>2022-07-31T08:09:52Z</time>
      </trkpt>
      <trkpt lat="37.7112250" lon="-3.4645180">
        <ele>1598.0</ele>
        <time>2022-07-31T08:09:59Z</time>
      </trkpt>
      <trkpt lat="37.7111780" lon="-3.4644200">
        <ele>1597.2</ele>
        <time>2022-07-31T08:10:06Z</time>
      </trkpt>
      <trkpt lat="37.7111520" lon="-3.4642970">
        <ele>1596.4</ele>
        <time>2022-07-31T08:10:12Z</time>
      </trkpt>
      <trkpt lat="37.7111030" lon="-3.4641880">
        <ele>1595.5</ele>
        <time>2022-07-31T08:10:22Z</time>
      </trkpt>
      <trkpt lat="37.7110570" lon="-3.4640820">
        <ele>1594.8</ele>
        <time>2022-07-31T08:10:29Z</time>
      </trkpt>
      <trkpt lat="37.7110230" lon="-3.4639680">
        <ele>1594.0</ele>
        <time>2022-07-31T08:10:37Z</time>
      </trkpt>
      <trkpt lat="37.7109830" lon="-3.4638550">
        <ele>1593.0</ele>
        <time>2022-07-31T08:10:47Z</time>
      </trkpt>
      <trkpt lat="37.7109600" lon="-3.4637280">
        <ele>1592.0</ele>
        <time>2022-07-31T08:10:57Z</time>
      </trkpt>
      <trkpt lat="37.7109430" lon="-3.4636020">
        <ele>1591.1</ele>
        <time>2022-07-31T08:11:05Z</time>
      </trkpt>
      <trkpt lat="37.7109180" lon="-3.4634900">
        <ele>1590.4</ele>
        <time>2022-07-31T08:11:12Z</time>
      </trkpt>
      <trkpt lat="37.7108480" lon="-3.4634030">
        <ele>1589.6</ele>
        <time>2022-07-31T08:11:19Z</time>
      </trkpt>
      <trkpt lat="37.7107770" lon="-3.4633220">
        <ele>1588.7</ele>
        <time>2022-07-31T08:11:25Z</time>
      </trkpt>
      <trkpt lat="37.7107230" lon="-3.4632280">
        <ele>1587.9</ele>
        <time>2022-07-31T08:11:32Z</time>
      </trkpt>
      <trkpt lat="37.7106430" lon="-3.4631630">
        <ele>1586.9</ele>
        <time>2022-07-31T08:11:40Z</time>
      </trkpt>
      <trkpt lat="37.7105630" lon="-3.4630720">
        <ele>1585.9</ele>
        <time>2022-07-31T08:11:46Z</time>
      </trkpt>
      <trkpt lat="37.7104880" lon="-3.4630050">
        <ele>1585.1</ele>
        <time>2022-07-31T08:11:53Z</time>
      </trkpt>
      <trkpt lat="37.7104070" lon="-3.4629230">
        <ele>1584.3</ele>
        <time>2022-07-31T08:12:00Z</time>
      </trkpt>
      <trkpt lat="37.7103300" lon="-3.4628420">
        <ele>1583.6</ele>
        <time>2022-07-31T08:12:10Z</time>
      </trkpt>
      <trkpt lat="37.7102420" lon="-3.4627970">
        <ele>1582.9</ele>
        <time>2022-07-31T08:12:16Z</time>
      </trkpt>
      <trkpt lat="37.7101480" lon="-3.4627700">
        <ele>1582.2</ele>
        <time>2022-07-31T08:12:34Z</time>
      </trkpt>
      <trkpt lat="37.7100680" lon="-3.4626880">
        <ele>1581.5</ele>
        <time>2022-07-31T08:12:42Z</time>
      </trkpt>
      <trkpt lat="37.7099920" lon="-3.4626080">
        <ele>1580.8</ele>
        <time>2022-07-31T08:12:51Z</time>
      </trkpt>
      <trkpt lat="37.7099150" lon="-3.4625480">
        <ele>1580.4</ele>
        <time>2022-07-31T08:13:00Z</time>
      </trkpt>
      <trkpt lat="37.7098180" lon="-3.4625380">
        <ele>1579.9</ele>
        <time>2022-07-31T08:13:08Z</time>
      </trkpt>
      <trkpt lat="37.7097280" lon="-3.4625600">
        <ele>1579.5</ele>
        <time>2022-07-31T08:13:15Z</time>
      </trkpt>
      <trkpt lat="37.7096320" lon="-3.4625830">
        <ele>1579.1</ele>
        <time>2022-07-31T08:13:23Z</time>
      </trkpt>
      <trkpt lat="37.7095470" lon="-3.4626300">
        <ele>1578.7</ele>
        <time>2022-07-31T08:13:29Z</time>
      </trkpt>
      <trkpt lat="37.7094570" lon="-3.4626650">
        <ele>1578.3</ele>
        <time>2022-07-31T08:13:34Z</time>
      </trkpt>
      <trkpt lat="37.7093680" lon="-3.4627070">
        <ele>1578.0</ele>
        <time>2022-07-31T08:13:41Z</time>
      </trkpt>
      <trkpt lat="37.7092780" lon="-3.4627470">
        <ele>1577.6</ele>
        <time>2022-07-31T08:13:48Z</time>
      </trkpt>
      <trkpt lat="37.7091800" lon="-3.4627500">
        <ele>1577.2</ele>
        <time>2022-07-31T08:13:57Z</time>
      </trkpt>
      <trkpt lat="37.7090830" lon="-3.4627320">
        <ele>1576.7</ele>
        <time>2022-07-31T08:14:05Z</time>
      </trkpt>
      <trkpt lat="37.7089970" lon="-3.4626600">
        <ele>1576.0</ele>
        <time>2022-07-31T08:14:13Z</time>
      </trkpt>
      <trkpt lat="37.7089280" lon="-3.4625830">
        <ele>1575.4</ele>
        <time>2022-07-31T08:14:21Z</time>
      </trkpt>
      <trkpt lat="37.7088630" lon="-3.4624880">
        <ele>1574.8</ele>
        <time>2022-07-31T08:14:29Z</time>
      </trkpt>
      <trkpt lat="37.7087880" lon="-3.4624080">
        <ele>1574.2</ele>
        <time>2022-07-31T08:14:37Z</time>
      </trkpt>
      <trkpt lat="37.7087380" lon="-3.4623070">
        <ele>1573.8</ele>
        <time>2022-07-31T08:14:45Z</time>
      </trkpt>
      <trkpt lat="37.7086720" lon="-3.4622130">
        <ele>1573.2</ele>
        <time>2022-07-31T08:14:53Z</time>
      </trkpt>
      <trkpt lat="37.7085880" lon="-3.4621500">
        <ele>1572.7</ele>
        <time>2022-07-31T08:15:01Z</time>
      </trkpt>
      <trkpt lat="37.7085050" lon="-3.4621000">
        <ele>1572.1</ele>
        <time>2022-07-31T08:15:10Z</time>
      </trkpt>
      <trkpt lat="37.7084150" lon="-3.4620530">
        <ele>1571.6</ele>
        <time>2022-07-31T08:15:16Z</time>
      </trkpt>
      <trkpt lat="37.7083300" lon="-3.4619870">
        <ele>1571.2</ele>
        <time>2022-07-31T08:15:25Z</time>
      </trkpt>
      <trkpt lat="37.7082330" lon="-3.4619520">
        <ele>1570.8</ele>
        <time>2022-07-31T08:15:31Z</time>
      </trkpt>
      <trkpt lat="37.7081650" lon="-3.4618750">
        <ele>1570.5</ele>
        <time>2022-07-31T08:15:36Z</time>
      </trkpt>
      <trkpt lat="37.7080950" lon="-3.4618000">
        <ele>1570.1</ele>
        <time>2022-07-31T08:15:44Z</time>
      </trkpt>
      <trkpt lat="37.7080280" lon="-3.4617130">
        <ele>1569.8</ele>
        <time>2022-07-31T08:15:51Z</time>
      </trkpt>
      <trkpt lat="37.7079820" lon="-3.4616020">
        <ele>1569.6</ele>
        <time>2022-07-31T08:15:59Z</time>
      </trkpt>
      <trkpt lat="37.7079270" lon="-3.4615030">
        <ele>1569.4</ele>
        <time>2022-07-31T08:16:06Z</time>
      </trkpt>
      <trkpt lat="37.7078450" lon="-3.4614420">
        <ele>1569.4</ele>
        <time>2022-07-31T08:16:14Z</time>
      </trkpt>
      <trkpt lat="37.7077450" lon="-3.4614630">
        <ele>1569.5</ele>
        <time>2022-07-31T08:16:22Z</time>
      </trkpt>
      <trkpt lat="37.7076600" lon="-3.4615080">
        <ele>1569.6</ele>
        <time>2022-07-31T08:16:30Z</time>
      </trkpt>
      <trkpt lat="37.7075780" lon="-3.4615680">
        <ele>1569.9</ele>
        <time>2022-07-31T08:16:36Z</time>
      </trkpt>
      <trkpt lat="37.7074800" lon="-3.4616030">
        <ele>1570.2</ele>
        <time>2022-07-31T08:16:42Z</time>
      </trkpt>
      <trkpt lat="37.7073830" lon="-3.4616450">
        <ele>1570.5</ele>
        <time>2022-07-31T08:16:51Z</time>
      </trkpt>
      <trkpt lat="37.7072880" lon="-3.4616470">
        <ele>1570.8</ele>
        <time>2022-07-31T08:16:57Z</time>
      </trkpt>
      <trkpt lat="37.7071830" lon="-3.4616320">
        <ele>1571.0</ele>
        <time>2022-07-31T08:17:04Z</time>
      </trkpt>
      <trkpt lat="37.7070880" lon="-3.4616170">
        <ele>1571.2</ele>
        <time>2022-07-31T08:17:11Z</time>
      </trkpt>
      <trkpt lat="37.7069980" lon="-3.4616020">
        <ele>1571.3</ele>
        <time>2022-07-31T08:17:19Z</time>
      </trkpt>
      <trkpt lat="37.7069080" lon="-3.4615530">
        <ele>1571.5</ele>
        <time>2022-07-31T08:17:28Z</time>
      </trkpt>
      <trkpt lat="37.7068200" lon="-3.4615020">
        <ele>1571.7</ele>
        <time>2022-07-31T08:17:37Z</time>
      </trkpt>
      <trkpt lat="37.7067300" lon="-3.4614750">
        <ele>1572.0</ele>
        <time>2022-07-31T08:17:45Z</time>
      </trkpt>
      <trkpt lat="37.7066400" lon="-3.4614420">
        <ele>1572.2</ele>
        <time>2022-07-31T08:17:51Z</time>
      </trkpt>
      <trkpt lat="37.7065350" lon="-3.4614480">
        <ele>1572.6</ele>
        <time>2022-07-31T08:17:59Z</time>
      </trkpt>
      <trkpt lat="37.7064550" lon="-3.4615220">
        <ele>1573.0</ele>
        <time>2022-07-31T08:18:06Z</time>
      </trkpt>
      <trkpt lat="37.7064130" lon="-3.4616320">
        <ele>1573.4</ele>
        <time>2022-07-31T08:18:12Z</time>
      </trkpt>
      <trkpt lat="37.7063830" lon="-3.4616920">
        <ele>1573.7</ele>
        <time>2022-07-31T08:18:19Z</time>
      </trkpt>
      <trkpt lat="37.7063820" lon="-3.4616920">
        <ele>1573.7</ele>
        <time>2022-07-31T08:18:20Z</time>
      </trkpt>
      <trkpt lat="37.7063420" lon="-3.4618050">
        <ele>1574.2</ele>
        <time>2022-07-31T08:18:32Z</time>
      </trkpt>
      <trkpt lat="37.7062770" lon="-3.4618950">
        <ele>1574.6</ele>
        <time>2022-07-31T08:18:40Z</time>
      </trkpt>
      <trkpt lat="37.7062580" lon="-3.4619470">
        <ele>1574.8</ele>
        <time>2022-07-31T08:18:49Z</time>
      </trkpt>
      <trkpt lat="37.7062600" lon="-3.4619470">
        <ele>1574.8</ele>
        <time>2022-07-31T08:18:53Z</time>
      </trkpt>
      <trkpt lat="37.7062600" lon="-3.4619470">
        <ele>1574.8</ele>
        <time>2022-07-31T08:18:54Z</time>
      </trkpt>
      <trkpt lat="37.7062600" lon="-3.4619480">
        <ele>1574.8</ele>
        <time>2022-07-31T08:18:56Z</time>
      </trkpt>
      <trkpt lat="37.7062050" lon="-3.4620470">
        <ele>1575.2</ele>
        <time>2022-07-31T08:19:08Z</time>
      </trkpt>
      <trkpt lat="37.7061520" lon="-3.4621550">
        <ele>1575.5</ele>
        <time>2022-07-31T08:19:16Z</time>
      </trkpt>
      <trkpt lat="37.7060780" lon="-3.4622300">
        <ele>1575.7</ele>
        <time>2022-07-31T08:19:22Z</time>
      </trkpt>
      <trkpt lat="37.7059880" lon="-3.4622550">
        <ele>1575.9</ele>
        <time>2022-07-31T08:19:28Z</time>
      </trkpt>
      <trkpt lat="37.7058950" lon="-3.4623030">
        <ele>1576.1</ele>
        <time>2022-07-31T08:19:36Z</time>
      </trkpt>
      <trkpt lat="37.7058020" lon="-3.4623450">
        <ele>1576.4</ele>
        <time>2022-07-31T08:19:43Z</time>
      </trkpt>
      <trkpt lat="37.7057280" lon="-3.4624120">
        <ele>1576.7</ele>
        <time>2022-07-31T08:19:51Z</time>
      </trkpt>
      <trkpt lat="37.7056420" lon="-3.4624620">
        <ele>1577.0</ele>
        <time>2022-07-31T08:20:00Z</time>
      </trkpt>
      <trkpt lat="37.7055520" lon="-3.4625050">
        <ele>1577.3</ele>
        <time>2022-07-31T08:20:08Z</time>
      </trkpt>
      <trkpt lat="37.7054650" lon="-3.4625380">
        <ele>1577.6</ele>
        <time>2022-07-31T08:20:16Z</time>
      </trkpt>
      <trkpt lat="37.7053700" lon="-3.4625880">
        <ele>1577.9</ele>
        <time>2022-07-31T08:20:25Z</time>
      </trkpt>
      <trkpt lat="37.7053030" lon="-3.4626700">
        <ele>1578.2</ele>
        <time>2022-07-31T08:20:32Z</time>
      </trkpt>
      <trkpt lat="37.7053070" lon="-3.4627850">
        <ele>1578.5</ele>
        <time>2022-07-31T08:20:40Z</time>
      </trkpt>
      <trkpt lat="37.7053050" lon="-3.4629100">
        <ele>1578.9</ele>
        <time>2022-07-31T08:20:48Z</time>
      </trkpt>
      <trkpt lat="37.7053030" lon="-3.4630330">
        <ele>1579.2</ele>
        <time>2022-07-31T08:20:56Z</time>
      </trkpt>
      <trkpt lat="37.7052670" lon="-3.4631430">
        <ele>1579.5</ele>
        <time>2022-07-31T08:21:02Z</time>
      </trkpt>
      <trkpt lat="37.7052350" lon="-3.4632580">
        <ele>1579.9</ele>
        <time>2022-07-31T08:21:09Z</time>
      </trkpt>
      <trkpt lat="37.7052420" lon="-3.4633870">
        <ele>1580.2</ele>
        <time>2022-07-31T08:21:17Z</time>
      </trkpt>
      <trkpt lat="37.7052570" lon="-3.4635080">
        <ele>1580.5</ele>
        <time>2022-07-31T08:21:26Z</time>
      </trkpt>
      <trkpt lat="37.7052670" lon="-3.4636380">
        <ele>1580.8</ele>
        <time>2022-07-31T08:21:34Z</time>
      </trkpt>
      <trkpt lat="37.7052970" lon="-3.4637550">
        <ele>1581.1</ele>
        <time>2022-07-31T08:21:40Z</time>
      </trkpt>
      <trkpt lat="37.7052970" lon="-3.4638770">
        <ele>1581.3</ele>
        <time>2022-07-31T08:21:48Z</time>
      </trkpt>
      <trkpt lat="37.7052750" lon="-3.4639900">
        <ele>1581.6</ele>
        <time>2022-07-31T08:21:56Z</time>
      </trkpt>
      <trkpt lat="37.7053230" lon="-3.4638880">
        <ele>1581.8</ele>
        <time>2022-07-31T08:22:08Z</time>
      </trkpt>
      <trkpt lat="37.7053850" lon="-3.4638870">
        <ele>1582.0</ele>
        <time>2022-07-31T08:22:31Z</time>
      </trkpt>
      <trkpt lat="37.7053870" lon="-3.4638870">
        <ele>1582.0</ele>
        <time>2022-07-31T08:22:32Z</time>
      </trkpt>
      <trkpt lat="37.7053700" lon="-3.4638350">
        <ele>1582.1</ele>
        <time>2022-07-31T08:23:09Z</time>
      </trkpt>
      <trkpt lat="37.7053730" lon="-3.4638370">
        <ele>1582.1</ele>
        <time>2022-07-31T08:23:10Z</time>
      </trkpt>
      <trkpt lat="37.7053900" lon="-3.4638770">
        <ele>1582.2</ele>
        <time>2022-07-31T08:23:21Z</time>
      </trkpt>
      <trkpt lat="37.7053870" lon="-3.4638770">
        <ele>1582.2</ele>
        <time>2022-07-31T08:23:22Z</time>
      </trkpt>
      <trkpt lat="37.7053750" lon="-3.4638730">
        <ele>1582.2</ele>
        <time>2022-07-31T08:23:27Z</time>
      </trkpt>
      <trkpt lat="37.7053720" lon="-3.4638730">
        <ele>1582.3</ele>
        <time>2022-07-31T08:23:28Z</time>
      </trkpt>
      <trkpt lat="37.7053750" lon="-3.4638670">
        <ele>1582.3</ele>
        <time>2022-07-31T08:23:48Z</time>
      </trkpt>
      <trkpt lat="37.7053730" lon="-3.4638670">
        <ele>1582.3</ele>
        <time>2022-07-31T08:23:49Z</time>
      </trkpt>
      <trkpt lat="37.7053580" lon="-3.4638820">
        <ele>1582.3</ele>
        <time>2022-07-31T08:24:19Z</time>
      </trkpt>
      <trkpt lat="37.7053600" lon="-3.4638830">
        <ele>1582.3</ele>
        <time>2022-07-31T08:24:20Z</time>
      </trkpt>
      <trkpt lat="37.7053600" lon="-3.4638830">
        <ele>1582.3</ele>
        <time>2022-07-31T08:24:21Z</time>
      </trkpt>
      <trkpt lat="37.7053580" lon="-3.4638850">
        <ele>1582.3</ele>
        <time>2022-07-31T08:24:23Z</time>
      </trkpt>
      <trkpt lat="37.7053450" lon="-3.4638830">
        <ele>1582.4</ele>
        <time>2022-07-31T08:24:28Z</time>
      </trkpt>
      <trkpt lat="37.7053520" lon="-3.4638870">
        <ele>1582.4</ele>
        <time>2022-07-31T08:24:29Z</time>
      </trkpt>
      <trkpt lat="37.7053700" lon="-3.4638930">
        <ele>1582.4</ele>
        <time>2022-07-31T08:24:40Z</time>
      </trkpt>
      <trkpt lat="37.7053680" lon="-3.4638950">
        <ele>1582.4</ele>
        <time>2022-07-31T08:24:41Z</time>
      </trkpt>
      <trkpt lat="37.7053680" lon="-3.4638950">
        <ele>1582.4</ele>
        <time>2022-07-31T08:24:42Z</time>
      </trkpt>
      <trkpt lat="37.7053700" lon="-3.4638930">
        <ele>1582.5</ele>
        <time>2022-07-31T08:24:44Z</time>
      </trkpt>
      <trkpt lat="37.7053920" lon="-3.4638900">
        <ele>1582.5</ele>
        <time>2022-07-31T08:25:01Z</time>
      </trkpt>
      <trkpt lat="37.7053880" lon="-3.4638900">
        <ele>1582.5</ele>
        <time>2022-07-31T08:25:02Z</time>
      </trkpt>
      <trkpt lat="37.7053670" lon="-3.4638780">
        <ele>1582.6</ele>
        <time>2022-07-31T08:25:12Z</time>
      </trkpt>
      <trkpt lat="37.7053620" lon="-3.4638730">
        <ele>1582.6</ele>
        <time>2022-07-31T08:25:13Z</time>
      </trkpt>
      <trkpt lat="37.7053730" lon="-3.4638830">
        <ele>1582.6</ele>
        <time>2022-07-31T08:25:24Z</time>
      </trkpt>
      <trkpt lat="37.7053750" lon="-3.4638830">
        <ele>1582.6</ele>
        <time>2022-07-31T08:25:25Z</time>
      </trkpt>
      <trkpt lat="37.7053750" lon="-3.4638830">
        <ele>1582.6</ele>
        <time>2022-07-31T08:25:26Z</time>
      </trkpt>
      <trkpt lat="37.7053770" lon="-3.4638800">
        <ele>1582.6</ele>
        <time>2022-07-31T08:25:28Z</time>
      </trkpt>
      <trkpt lat="37.7053970" lon="-3.4639020">
        <ele>1582.7</ele>
        <time>2022-07-31T08:25:46Z</time>
      </trkpt>
      <trkpt lat="37.7053950" lon="-3.4639020">
        <ele>1582.7</ele>
        <time>2022-07-31T08:25:47Z</time>
      </trkpt>
      <trkpt lat="37.7053950" lon="-3.4638950">
        <ele>1582.7</ele>
        <time>2022-07-31T08:25:50Z</time>
      </trkpt>
      <trkpt lat="37.7053930" lon="-3.4638950">
        <ele>1582.7</ele>
        <time>2022-07-31T08:25:52Z</time>
      </trkpt>
      <trkpt lat="37.7053850" lon="-3.4638700">
        <ele>1582.8</ele>
        <time>2022-07-31T08:26:13Z</time>
      </trkpt>
      <trkpt lat="37.7053830" lon="-3.4638700">
        <ele>1582.8</ele>
        <time>2022-07-31T08:26:14Z</time>
      </trkpt>
      <trkpt lat="37.7053800" lon="-3.4638700">
        <ele>1582.8</ele>
        <time>2022-07-31T08:26:16Z</time>
      </trkpt>
      <trkpt lat="37.7053800" lon="-3.4638680">
        <ele>1582.8</ele>
        <time>2022-07-31T08:26:17Z</time>
      </trkpt>
      <trkpt lat="37.7053750" lon="-3.4638570">
        <ele>1582.8</ele>
        <time>2022-07-31T08:26:27Z</time>
      </trkpt>
      <trkpt lat="37.7053750" lon="-3.4638620">
        <ele>1582.8</ele>
        <time>2022-07-31T08:26:28Z</time>
      </trkpt>
      <trkpt lat="37.7053750" lon="-3.4638650">
        <ele>1582.8</ele>
        <time>2022-07-31T08:26:38Z</time>
      </trkpt>
      <trkpt lat="37.7053780" lon="-3.4638650">
        <ele>1582.8</ele>
        <time>2022-07-31T08:26:39Z</time>
      </trkpt>
      <trkpt lat="37.7052850" lon="-3.4638020">
        <ele>1583.0</ele>
        <time>2022-07-31T08:26:45Z</time>
      </trkpt>
      <trkpt lat="37.7052600" lon="-3.4638800">
        <ele>1583.0</ele>
        <time>2022-07-31T08:26:48Z</time>
      </trkpt>
      <trkpt lat="37.7052630" lon="-3.4638650">
        <ele>1583.0</ele>
        <time>2022-07-31T08:26:49Z</time>
      </trkpt>
      <trkpt lat="37.7053470" lon="-3.4639020">
        <ele>1583.0</ele>
        <time>2022-07-31T08:27:06Z</time>
      </trkpt>
      <trkpt lat="37.7053470" lon="-3.4638920">
        <ele>1583.0</ele>
        <time>2022-07-31T08:27:07Z</time>
      </trkpt>
      <trkpt lat="37.7053920" lon="-3.4638580">
        <ele>1583.0</ele>
        <time>2022-07-31T08:27:43Z</time>
      </trkpt>
      <trkpt lat="37.7053880" lon="-3.4638620">
        <ele>1583.0</ele>
        <time>2022-07-31T08:27:44Z</time>
      </trkpt>
      <trkpt lat="37.7053730" lon="-3.4638920">
        <ele>1583.0</ele>
        <time>2022-07-31T08:28:18Z</time>
      </trkpt>
      <trkpt lat="37.7053730" lon="-3.4638880">
        <ele>1583.0</ele>
        <time>2022-07-31T08:28:19Z</time>
      </trkpt>
      <trkpt lat="37.7053630" lon="-3.4638750">
        <ele>1583.0</ele>
        <time>2022-07-31T08:28:33Z</time>
      </trkpt>
      <trkpt lat="37.7053670" lon="-3.4638780">
        <ele>1583.0</ele>
        <time>2022-07-31T08:28:34Z</time>
      </trkpt>
      <trkpt lat="37.7053600" lon="-3.4638650">
        <ele>1583.0</ele>
        <time>2022-07-31T08:29:08Z</time>
      </trkpt>
      <trkpt lat="37.7053620" lon="-3.4638670">
        <ele>1583.0</ele>
        <time>2022-07-31T08:29:10Z</time>
      </trkpt>
      <trkpt lat="37.7053670" lon="-3.4638720">
        <ele>1583.0</ele>
        <time>2022-07-31T08:29:21Z</time>
      </trkpt>
      <trkpt lat="37.7053650" lon="-3.4638700">
        <ele>1583.0</ele>
        <time>2022-07-31T08:29:22Z</time>
      </trkpt>
      <trkpt lat="37.7053570" lon="-3.4638530">
        <ele>1582.9</ele>
        <time>2022-07-31T08:29:33Z</time>
      </trkpt>
      <trkpt lat="37.7053580" lon="-3.4638520">
        <ele>1582.9</ele>
        <time>2022-07-31T08:29:34Z</time>
      </trkpt>
      <trkpt lat="37.7053630" lon="-3.4638630">
        <ele>1582.9</ele>
        <time>2022-07-31T08:29:40Z</time>
      </trkpt>
      <trkpt lat="37.7053630" lon="-3.4638600">
        <ele>1582.9</ele>
        <time>2022-07-31T08:29:41Z</time>
      </trkpt>
      <trkpt lat="37.7053670" lon="-3.4638370">
        <ele>1582.9</ele>
        <time>2022-07-31T08:29:55Z</time>
      </trkpt>
      <trkpt lat="37.7053650" lon="-3.4638330">
        <ele>1582.9</ele>
        <time>2022-07-31T08:29:56Z</time>
      </trkpt>
      <trkpt lat="37.7053450" lon="-3.4638200">
        <ele>1582.9</ele>
        <time>2022-07-31T08:30:07Z</time>
      </trkpt>
      <trkpt lat="37.7053450" lon="-3.4638180">
        <ele>1582.9</ele>
        <time>2022-07-31T08:30:08Z</time>
      </trkpt>
      <trkpt lat="37.7053620" lon="-3.4639330">
        <ele>1582.6</ele>
        <time>2022-07-31T08:30:21Z</time>
      </trkpt>
      <trkpt lat="37.7053680" lon="-3.4638780">
        <ele>1582.5</ele>
        <time>2022-07-31T08:30:45Z</time>
      </trkpt>
      <trkpt lat="37.7053700" lon="-3.4638730">
        <ele>1582.5</ele>
        <time>2022-07-31T08:30:46Z</time>
      </trkpt>
      <trkpt lat="37.7054230" lon="-3.4638930">
        <ele>1582.3</ele>
        <time>2022-07-31T08:31:01Z</time>
      </trkpt>
      <trkpt lat="37.7054250" lon="-3.4638920">
        <ele>1582.3</ele>
        <time>2022-07-31T08:31:02Z</time>
      </trkpt>
      <trkpt lat="37.7053800" lon="-3.4638550">
        <ele>1582.1</ele>
        <time>2022-07-31T08:31:54Z</time>
      </trkpt>
      <trkpt lat="37.7053750" lon="-3.4638550">
        <ele>1582.1</ele>
        <time>2022-07-31T08:31:55Z</time>
      </trkpt>
      <trkpt lat="37.7053770" lon="-3.4638580">
        <ele>1582.1</ele>
        <time>2022-07-31T08:31:58Z</time>
      </trkpt>
      <trkpt lat="37.7053770" lon="-3.4638620">
        <ele>1582.1</ele>
        <time>2022-07-31T08:31:59Z</time>
      </trkpt>
      <trkpt lat="37.7053820" lon="-3.4638520">
        <ele>1582.0</ele>
        <time>2022-07-31T08:32:51Z</time>
      </trkpt>
      <trkpt lat="37.7053780" lon="-3.4638480">
        <ele>1582.0</ele>
        <time>2022-07-31T08:32:52Z</time>
      </trkpt>
      <trkpt lat="37.7054050" lon="-3.4638620">
        <ele>1581.9</ele>
        <time>2022-07-31T08:33:01Z</time>
      </trkpt>
      <trkpt lat="37.7054030" lon="-3.4638600">
        <ele>1581.9</ele>
        <time>2022-07-31T08:33:02Z</time>
      </trkpt>
      <trkpt lat="37.7054020" lon="-3.4638430">
        <ele>1581.9</ele>
        <time>2022-07-31T08:33:20Z</time>
      </trkpt>
      <trkpt lat="37.7054050" lon="-3.4638450">
        <ele>1581.9</ele>
        <time>2022-07-31T08:33:21Z</time>
      </trkpt>
      <trkpt lat="37.7053580" lon="-3.4638420">
        <ele>1581.7</ele>
        <time>2022-07-31T08:34:16Z</time>
      </trkpt>
      <trkpt lat="37.7053570" lon="-3.4638400">
        <ele>1581.7</ele>
        <time>2022-07-31T08:34:18Z</time>
      </trkpt>
      <trkpt lat="37.7053580" lon="-3.4638520">
        <ele>1581.7</ele>
        <time>2022-07-31T08:34:33Z</time>
      </trkpt>
      <trkpt lat="37.7053570" lon="-3.4638520">
        <ele>1581.7</ele>
        <time>2022-07-31T08:34:34Z</time>
      </trkpt>
      <trkpt lat="37.7053480" lon="-3.4638480">
        <ele>1581.6</ele>
        <time>2022-07-31T08:34:42Z</time>
      </trkpt>
      <trkpt lat="37.7053530" lon="-3.4638520">
        <ele>1581.6</ele>
        <time>2022-07-31T08:34:43Z</time>
      </trkpt>
      <trkpt lat="37.7053550" lon="-3.4638480">
        <ele>1581.6</ele>
        <time>2022-07-31T08:34:46Z</time>
      </trkpt>
      <trkpt lat="37.7053570" lon="-3.4638480">
        <ele>1581.6</ele>
        <time>2022-07-31T08:34:47Z</time>
      </trkpt>
      <trkpt lat="37.7053570" lon="-3.4638270">
        <ele>1581.5</ele>
        <time>2022-07-31T08:35:03Z</time>
      </trkpt>
      <trkpt lat="37.7053580" lon="-3.4638280">
        <ele>1581.5</ele>
        <time>2022-07-31T08:35:04Z</time>
      </trkpt>
      <trkpt lat="37.7053620" lon="-3.4638630">
        <ele>1581.4</ele>
        <time>2022-07-31T08:35:21Z</time>
      </trkpt>
      <trkpt lat="37.7053570" lon="-3.4638600">
        <ele>1581.4</ele>
        <time>2022-07-31T08:35:22Z</time>
      </trkpt>
      <trkpt lat="37.7053600" lon="-3.4638070">
        <ele>1581.3</ele>
        <time>2022-07-31T08:35:48Z</time>
      </trkpt>
      <trkpt lat="37.7053600" lon="-3.4638050">
        <ele>1581.3</ele>
        <time>2022-07-31T08:35:50Z</time>
      </trkpt>
      <trkpt lat="37.7053500" lon="-3.4638230">
        <ele>1581.2</ele>
        <time>2022-07-31T08:36:01Z</time>
      </trkpt>
      <trkpt lat="37.7053500" lon="-3.4638220">
        <ele>1581.2</ele>
        <time>2022-07-31T08:36:02Z</time>
      </trkpt>
      <trkpt lat="37.7053570" lon="-3.4638380">
        <ele>1581.2</ele>
        <time>2022-07-31T08:36:24Z</time>
      </trkpt>
      <trkpt lat="37.7053580" lon="-3.4638370">
        <ele>1581.1</ele>
        <time>2022-07-31T08:36:25Z</time>
      </trkpt>
      <trkpt lat="37.7053570" lon="-3.4638400">
        <ele>1581.1</ele>
        <time>2022-07-31T08:36:32Z</time>
      </trkpt>
      <trkpt lat="37.7053600" lon="-3.4638380">
        <ele>1581.1</ele>
        <time>2022-07-31T08:36:34Z</time>
      </trkpt>
      <trkpt lat="37.7053520" lon="-3.4638470">
        <ele>1581.1</ele>
        <time>2022-07-31T08:36:39Z</time>
      </trkpt>
      <trkpt lat="37.7053470" lon="-3.4638500">
        <ele>1581.1</ele>
        <time>2022-07-31T08:36:40Z</time>
      </trkpt>
      <trkpt lat="37.7053470" lon="-3.4638720">
        <ele>1581.0</ele>
        <time>2022-07-31T08:36:57Z</time>
      </trkpt>
      <trkpt lat="37.7053500" lon="-3.4638700">
        <ele>1581.0</ele>
        <time>2022-07-31T08:36:58Z</time>
      </trkpt>
      <trkpt lat="37.7053550" lon="-3.4638630">
        <ele>1581.0</ele>
        <time>2022-07-31T08:37:06Z</time>
      </trkpt>
      <trkpt lat="37.7053520" lon="-3.4638600">
        <ele>1581.0</ele>
        <time>2022-07-31T08:37:07Z</time>
      </trkpt>
      <trkpt lat="37.7053620" lon="-3.4638800">
        <ele>1580.9</ele>
        <time>2022-07-31T08:37:26Z</time>
      </trkpt>
      <trkpt lat="37.7053620" lon="-3.4638830">
        <ele>1580.9</ele>
        <time>2022-07-31T08:37:27Z</time>
      </trkpt>
      <trkpt lat="37.7053880" lon="-3.4638670">
        <ele>1580.8</ele>
        <time>2022-07-31T08:37:53Z</time>
      </trkpt>
      <trkpt lat="37.7053920" lon="-3.4638670">
        <ele>1580.8</ele>
        <time>2022-07-31T08:37:54Z</time>
      </trkpt>
      <trkpt lat="37.7053920" lon="-3.4638680">
        <ele>1580.8</ele>
        <time>2022-07-31T08:37:55Z</time>
      </trkpt>
      <trkpt lat="37.7053950" lon="-3.4638700">
        <ele>1580.8</ele>
        <time>2022-07-31T08:37:56Z</time>
      </trkpt>
      <trkpt lat="37.7053850" lon="-3.4638550">
        <ele>1580.7</ele>
        <time>2022-07-31T08:38:24Z</time>
      </trkpt>
      <trkpt lat="37.7053830" lon="-3.4638500">
        <ele>1580.7</ele>
        <time>2022-07-31T08:38:29Z</time>
      </trkpt>
      <trkpt lat="37.7053820" lon="-3.4638500">
        <ele>1580.7</ele>
        <time>2022-07-31T08:38:31Z</time>
      </trkpt>
      <trkpt lat="37.7053830" lon="-3.4638500">
        <ele>1580.7</ele>
        <time>2022-07-31T08:38:32Z</time>
      </trkpt>
      <trkpt lat="37.7053830" lon="-3.4638500">
        <ele>1580.7</ele>
        <time>2022-07-31T08:38:33Z</time>
      </trkpt>
      <trkpt lat="37.7053820" lon="-3.4638500">
        <ele>1580.7</ele>
        <time>2022-07-31T08:38:34Z</time>
      </trkpt>
      <trkpt lat="37.7053780" lon="-3.4638500">
        <ele>1580.7</ele>
        <time>2022-07-31T08:38:38Z</time>
      </trkpt>
      <trkpt lat="37.7053780" lon="-3.4638470">
        <ele>1580.7</ele>
        <time>2022-07-31T08:38:43Z</time>
      </trkpt>
      <trkpt lat="37.7053850" lon="-3.4638370">
        <ele>1580.7</ele>
        <time>2022-07-31T08:38:50Z</time>
      </trkpt>
      <trkpt lat="37.7053850" lon="-3.4638330">
        <ele>1580.7</ele>
        <time>2022-07-31T08:38:52Z</time>
      </trkpt>
      <trkpt lat="37.7054270" lon="-3.4638130">
        <ele>1580.5</ele>
        <time>2022-07-31T08:39:25Z</time>
      </trkpt>
      <trkpt lat="37.7054230" lon="-3.4638100">
        <ele>1580.5</ele>
        <time>2022-07-31T08:39:26Z</time>
      </trkpt>
      <trkpt lat="37.7054430" lon="-3.4638120">
        <ele>1580.5</ele>
        <time>2022-07-31T08:39:49Z</time>
      </trkpt>
      <trkpt lat="37.7054420" lon="-3.4638120">
        <ele>1580.5</ele>
        <time>2022-07-31T08:39:50Z</time>
      </trkpt>
      <trkpt lat="37.7053970" lon="-3.4637920">
        <ele>1580.3</ele>
        <time>2022-07-31T08:40:04Z</time>
      </trkpt>
      <trkpt lat="37.7053950" lon="-3.4637930">
        <ele>1580.3</ele>
        <time>2022-07-31T08:40:05Z</time>
      </trkpt>
      <trkpt lat="37.7054120" lon="-3.4638380">
        <ele>1580.2</ele>
        <time>2022-07-31T08:40:25Z</time>
      </trkpt>
      <trkpt lat="37.7054130" lon="-3.4638380">
        <ele>1580.2</ele>
        <time>2022-07-31T08:40:26Z</time>
      </trkpt>
      <trkpt lat="37.7053800" lon="-3.4638570">
        <ele>1580.1</ele>
        <time>2022-07-31T08:40:35Z</time>
      </trkpt>
      <trkpt lat="37.7053800" lon="-3.4638580">
        <ele>1580.1</ele>
        <time>2022-07-31T08:40:36Z</time>
      </trkpt>
      <trkpt lat="37.7052970" lon="-3.4639170">
        <ele>1579.7</ele>
        <time>2022-07-31T08:40:52Z</time>
      </trkpt>
      <trkpt lat="37.7052230" lon="-3.4639980">
        <ele>1579.4</ele>
        <time>2022-07-31T08:41:00Z</time>
      </trkpt>
      <trkpt lat="37.7051370" lon="-3.4640420">
        <ele>1579.0</ele>
        <time>2022-07-31T08:41:09Z</time>
      </trkpt>
      <trkpt lat="37.7050330" lon="-3.4640280">
        <ele>1578.6</ele>
        <time>2022-07-31T08:41:16Z</time>
      </trkpt>
      <trkpt lat="37.7049830" lon="-3.4640170">
        <ele>1578.4</ele>
        <time>2022-07-31T08:41:26Z</time>
      </trkpt>
      <trkpt lat="37.7049830" lon="-3.4640180">
        <ele>1578.4</ele>
        <time>2022-07-31T08:41:29Z</time>
      </trkpt>
      <trkpt lat="37.7049850" lon="-3.4640250">
        <ele>1578.3</ele>
        <time>2022-07-31T08:41:34Z</time>
      </trkpt>
      <trkpt lat="37.7049830" lon="-3.4640270">
        <ele>1578.3</ele>
        <time>2022-07-31T08:41:36Z</time>
      </trkpt>
      <trkpt lat="37.7049830" lon="-3.4640270">
        <ele>1578.3</ele>
        <time>2022-07-31T08:41:37Z</time>
      </trkpt>
      <trkpt lat="37.7049730" lon="-3.4640270">
        <ele>1578.3</ele>
        <time>2022-07-31T08:41:38Z</time>
      </trkpt>
      <trkpt lat="37.7048830" lon="-3.4640200">
        <ele>1577.9</ele>
        <time>2022-07-31T08:41:46Z</time>
      </trkpt>
      <trkpt lat="37.7047800" lon="-3.4640370">
        <ele>1577.5</ele>
        <time>2022-07-31T08:42:04Z</time>
      </trkpt>
      <trkpt lat="37.7046820" lon="-3.4640420">
        <ele>1577.2</ele>
        <time>2022-07-31T08:42:12Z</time>
      </trkpt>
      <trkpt lat="37.7045870" lon="-3.4640580">
        <ele>1576.9</ele>
        <time>2022-07-31T08:42:21Z</time>
      </trkpt>
      <trkpt lat="37.7044920" lon="-3.4640380">
        <ele>1576.6</ele>
        <time>2022-07-31T08:42:29Z</time>
      </trkpt>
      <trkpt lat="37.7044050" lon="-3.4640000">
        <ele>1576.4</ele>
        <time>2022-07-31T08:42:36Z</time>
      </trkpt>
      <trkpt lat="37.7043050" lon="-3.4639770">
        <ele>1576.2</ele>
        <time>2022-07-31T08:42:50Z</time>
      </trkpt>
      <trkpt lat="37.7042100" lon="-3.4640120">
        <ele>1575.9</ele>
        <time>2022-07-31T08:42:58Z</time>
      </trkpt>
      <trkpt lat="37.7041130" lon="-3.4640370">
        <ele>1575.6</ele>
        <time>2022-07-31T08:43:07Z</time>
      </trkpt>
      <trkpt lat="37.7040130" lon="-3.4640150">
        <ele>1575.2</ele>
        <time>2022-07-31T08:43:16Z</time>
      </trkpt>
      <trkpt lat="37.7039230" lon="-3.4639820">
        <ele>1574.8</ele>
        <time>2022-07-31T08:43:21Z</time>
      </trkpt>
      <trkpt lat="37.7038320" lon="-3.4639680">
        <ele>1574.5</ele>
        <time>2022-07-31T08:43:28Z</time>
      </trkpt>
      <trkpt lat="37.7037650" lon="-3.4639480">
        <ele>1574.3</ele>
        <time>2022-07-31T08:43:37Z</time>
      </trkpt>
      <trkpt lat="37.7037620" lon="-3.4639500">
        <ele>1574.3</ele>
        <time>2022-07-31T08:43:44Z</time>
      </trkpt>
      <trkpt lat="37.7036620" lon="-3.4639630">
        <ele>1574.0</ele>
        <time>2022-07-31T08:43:53Z</time>
      </trkpt>
      <trkpt lat="37.7035630" lon="-3.4639570">
        <ele>1573.8</ele>
        <time>2022-07-31T08:44:01Z</time>
      </trkpt>
      <trkpt lat="37.7034680" lon="-3.4639720">
        <ele>1573.6</ele>
        <time>2022-07-31T08:44:09Z</time>
      </trkpt>
      <trkpt lat="37.7033680" lon="-3.4639880">
        <ele>1573.5</ele>
        <time>2022-07-31T08:44:16Z</time>
      </trkpt>
      <trkpt lat="37.7032670" lon="-3.4639950">
        <ele>1573.3</ele>
        <time>2022-07-31T08:44:24Z</time>
      </trkpt>
      <trkpt lat="37.7031780" lon="-3.4640600">
        <ele>1573.1</ele>
        <time>2022-07-31T08:44:32Z</time>
      </trkpt>
      <trkpt lat="37.7030900" lon="-3.4641180">
        <ele>1572.9</ele>
        <time>2022-07-31T08:44:39Z</time>
      </trkpt>
      <trkpt lat="37.7030250" lon="-3.4641980">
        <ele>1572.8</ele>
        <time>2022-07-31T08:44:46Z</time>
      </trkpt>
      <trkpt lat="37.7029530" lon="-3.4642830">
        <ele>1572.6</ele>
        <time>2022-07-31T08:44:54Z</time>
      </trkpt>
      <trkpt lat="37.7028820" lon="-3.4643570">
        <ele>1572.4</ele>
        <time>2022-07-31T08:45:02Z</time>
      </trkpt>
      <trkpt lat="37.7028020" lon="-3.4644350">
        <ele>1572.1</ele>
        <time>2022-07-31T08:45:11Z</time>
      </trkpt>
      <trkpt lat="37.7027320" lon="-3.4645180">
        <ele>1571.9</ele>
        <time>2022-07-31T08:45:18Z</time>
      </trkpt>
      <trkpt lat="37.7026570" lon="-3.4645820">
        <ele>1571.7</ele>
        <time>2022-07-31T08:45:25Z</time>
      </trkpt>
      <trkpt lat="37.7025900" lon="-3.4646600">
        <ele>1571.4</ele>
        <time>2022-07-31T08:45:32Z</time>
      </trkpt>
      <trkpt lat="37.7025220" lon="-3.4647450">
        <ele>1571.2</ele>
        <time>2022-07-31T08:45:39Z</time>
      </trkpt>
      <trkpt lat="37.7024650" lon="-3.4648550">
        <ele>1571.0</ele>
        <time>2022-07-31T08:45:47Z</time>
      </trkpt>
      <trkpt lat="37.7024020" lon="-3.4649530">
        <ele>1570.8</ele>
        <time>2022-07-31T08:45:54Z</time>
      </trkpt>
      <trkpt lat="37.7023450" lon="-3.4650550">
        <ele>1570.5</ele>
        <time>2022-07-31T08:46:02Z</time>
      </trkpt>
      <trkpt lat="37.7022880" lon="-3.4651580">
        <ele>1570.3</ele>
        <time>2022-07-31T08:46:09Z</time>
      </trkpt>
      <trkpt lat="37.7022470" lon="-3.4652630">
        <ele>1570.2</ele>
        <time>2022-07-31T08:46:16Z</time>
      </trkpt>
      <trkpt lat="37.7022080" lon="-3.4653680">
        <ele>1570.0</ele>
        <time>2022-07-31T08:46:23Z</time>
      </trkpt>
      <trkpt lat="37.7021720" lon="-3.4654830">
        <ele>1569.8</ele>
        <time>2022-07-31T08:46:31Z</time>
      </trkpt>
      <trkpt lat="37.7021250" lon="-3.4655950">
        <ele>1569.6</ele>
        <time>2022-07-31T08:46:38Z</time>
      </trkpt>
      <trkpt lat="37.7020530" lon="-3.4656920">
        <ele>1569.3</ele>
        <time>2022-07-31T08:46:46Z</time>
      </trkpt>
      <trkpt lat="37.7020080" lon="-3.4657980">
        <ele>1569.0</ele>
        <time>2022-07-31T08:46:53Z</time>
      </trkpt>
      <trkpt lat="37.7019570" lon="-3.4659070">
        <ele>1568.8</ele>
        <time>2022-07-31T08:47:01Z</time>
      </trkpt>
      <trkpt lat="37.7019200" lon="-3.4660150">
        <ele>1568.5</ele>
        <time>2022-07-31T08:47:08Z</time>
      </trkpt>
      <trkpt lat="37.7018800" lon="-3.4661180">
        <ele>1568.2</ele>
        <time>2022-07-31T08:47:15Z</time>
      </trkpt>
      <trkpt lat="37.7018320" lon="-3.4662280">
        <ele>1568.0</ele>
        <time>2022-07-31T08:47:23Z</time>
      </trkpt>
      <trkpt lat="37.7017920" lon="-3.4662550">
        <ele>1567.9</ele>
        <time>2022-07-31T08:47:30Z</time>
      </trkpt>
      <trkpt lat="37.7017900" lon="-3.4662550">
        <ele>1567.9</ele>
        <time>2022-07-31T08:47:36Z</time>
      </trkpt>
      <trkpt lat="37.7017150" lon="-3.4663180">
        <ele>1567.6</ele>
        <time>2022-07-31T08:47:44Z</time>
      </trkpt>
      <trkpt lat="37.7016170" lon="-3.4663470">
        <ele>1567.1</ele>
        <time>2022-07-31T08:47:52Z</time>
      </trkpt>
      <trkpt lat="37.7015320" lon="-3.4662850">
        <ele>1566.5</ele>
        <time>2022-07-31T08:47:57Z</time>
      </trkpt>
      <trkpt lat="37.7014630" lon="-3.4662000">
        <ele>1565.6</ele>
        <time>2022-07-31T08:48:09Z</time>
      </trkpt>
      <trkpt lat="37.7014770" lon="-3.4660770">
        <ele>1564.8</ele>
        <time>2022-07-31T08:48:18Z</time>
      </trkpt>
      <trkpt lat="37.7014580" lon="-3.4659570">
        <ele>1564.0</ele>
        <time>2022-07-31T08:48:26Z</time>
      </trkpt>
      <trkpt lat="37.7014120" lon="-3.4658370">
        <ele>1563.1</ele>
        <time>2022-07-31T08:48:34Z</time>
      </trkpt>
      <trkpt lat="37.7013380" lon="-3.4657630">
        <ele>1562.1</ele>
        <time>2022-07-31T08:48:40Z</time>
      </trkpt>
      <trkpt lat="37.7012450" lon="-3.4657280">
        <ele>1561.1</ele>
        <time>2022-07-31T08:48:46Z</time>
      </trkpt>
      <trkpt lat="37.7011420" lon="-3.4657500">
        <ele>1559.9</ele>
        <time>2022-07-31T08:48:53Z</time>
      </trkpt>
      <trkpt lat="37.7010530" lon="-3.4657950">
        <ele>1558.8</ele>
        <time>2022-07-31T08:49:00Z</time>
      </trkpt>
      <trkpt lat="37.7009650" lon="-3.4658620">
        <ele>1557.7</ele>
        <time>2022-07-31T08:49:08Z</time>
      </trkpt>
      <trkpt lat="37.7008700" lon="-3.4659150">
        <ele>1556.6</ele>
        <time>2022-07-31T08:49:16Z</time>
      </trkpt>
      <trkpt lat="37.7007700" lon="-3.4659030">
        <ele>1555.5</ele>
        <time>2022-07-31T08:49:23Z</time>
      </trkpt>
      <trkpt lat="37.7006570" lon="-3.4658950">
        <ele>1554.1</ele>
        <time>2022-07-31T08:49:31Z</time>
      </trkpt>
      <trkpt lat="37.7005550" lon="-3.4658770">
        <ele>1552.8</ele>
        <time>2022-07-31T08:49:38Z</time>
      </trkpt>
      <trkpt lat="37.7004650" lon="-3.4658650">
        <ele>1551.7</ele>
        <time>2022-07-31T08:49:46Z</time>
      </trkpt>
      <trkpt lat="37.7004470" lon="-3.4658550">
        <ele>1551.4</ele>
        <time>2022-07-31T08:49:57Z</time>
      </trkpt>
      <trkpt lat="37.7004470" lon="-3.4658570">
        <ele>1551.4</ele>
        <time>2022-07-31T08:49:58Z</time>
      </trkpt>
      <trkpt lat="37.7003970" lon="-3.4658700">
        <ele>1550.8</ele>
        <time>2022-07-31T08:50:10Z</time>
      </trkpt>
      <trkpt lat="37.7003950" lon="-3.4658700">
        <ele>1550.7</ele>
        <time>2022-07-31T08:50:11Z</time>
      </trkpt>
      <trkpt lat="37.7002970" lon="-3.4658430">
        <ele>1549.4</ele>
        <time>2022-07-31T08:50:26Z</time>
      </trkpt>
      <trkpt lat="37.7002070" lon="-3.4658730">
        <ele>1548.1</ele>
        <time>2022-07-31T08:50:33Z</time>
      </trkpt>
      <trkpt lat="37.7001130" lon="-3.4659170">
        <ele>1546.9</ele>
        <time>2022-07-31T08:50:41Z</time>
      </trkpt>
      <trkpt lat="37.7000320" lon="-3.4659720">
        <ele>1546.0</ele>
        <time>2022-07-31T08:50:50Z</time>
      </trkpt>
      <trkpt lat="37.6999400" lon="-3.4659750">
        <ele>1545.1</ele>
        <time>2022-07-31T08:50:57Z</time>
      </trkpt>
      <trkpt lat="37.6998500" lon="-3.4659380">
        <ele>1544.1</ele>
        <time>2022-07-31T08:51:05Z</time>
      </trkpt>
      <trkpt lat="37.6997630" lon="-3.4658920">
        <ele>1543.0</ele>
        <time>2022-07-31T08:51:11Z</time>
      </trkpt>
      <trkpt lat="37.6996780" lon="-3.4658420">
        <ele>1541.6</ele>
        <time>2022-07-31T08:51:18Z</time>
      </trkpt>
      <trkpt lat="37.6995950" lon="-3.4657970">
        <ele>1540.3</ele>
        <time>2022-07-31T08:51:26Z</time>
      </trkpt>
      <trkpt lat="37.6994980" lon="-3.4657620">
        <ele>1538.8</ele>
        <time>2022-07-31T08:51:33Z</time>
      </trkpt>
      <trkpt lat="37.6994070" lon="-3.4657320">
        <ele>1537.6</ele>
        <time>2022-07-31T08:51:42Z</time>
      </trkpt>
      <trkpt lat="37.6993130" lon="-3.4657070">
        <ele>1536.3</ele>
        <time>2022-07-31T08:51:52Z</time>
      </trkpt>
      <trkpt lat="37.6992220" lon="-3.4656720">
        <ele>1535.2</ele>
        <time>2022-07-31T08:51:59Z</time>
      </trkpt>
      <trkpt lat="37.6991400" lon="-3.4656150">
        <ele>1534.1</ele>
        <time>2022-07-31T08:52:06Z</time>
      </trkpt>
      <trkpt lat="37.6990500" lon="-3.4656130">
        <ele>1533.0</ele>
        <time>2022-07-31T08:52:16Z</time>
      </trkpt>
      <trkpt lat="37.6989620" lon="-3.4655550">
        <ele>1531.8</ele>
        <time>2022-07-31T08:52:23Z</time>
      </trkpt>
      <trkpt lat="37.6988770" lon="-3.4654970">
        <ele>1530.8</ele>
        <time>2022-07-31T08:52:29Z</time>
      </trkpt>
      <trkpt lat="37.6988080" lon="-3.4654130">
        <ele>1529.8</ele>
        <time>2022-07-31T08:52:37Z</time>
      </trkpt>
      <trkpt lat="37.6987330" lon="-3.4653450">
        <ele>1528.8</ele>
        <time>2022-07-31T08:52:46Z</time>
      </trkpt>
      <trkpt lat="37.6986570" lon="-3.4652780">
        <ele>1527.4</ele>
        <time>2022-07-31T08:52:53Z</time>
      </trkpt>
      <trkpt lat="37.6985650" lon="-3.4652300">
        <ele>1525.8</ele>
        <time>2022-07-31T08:53:01Z</time>
      </trkpt>
      <trkpt lat="37.6984700" lon="-3.4652350">
        <ele>1524.3</ele>
        <time>2022-07-31T08:53:10Z</time>
      </trkpt>
      <trkpt lat="37.6983720" lon="-3.4652080">
        <ele>1522.8</ele>
        <time>2022-07-31T08:53:17Z</time>
      </trkpt>
      <trkpt lat="37.6982780" lon="-3.4652050">
        <ele>1521.6</ele>
        <time>2022-07-31T08:53:24Z</time>
      </trkpt>
      <trkpt lat="37.6981830" lon="-3.4651850">
        <ele>1520.4</ele>
        <time>2022-07-31T08:53:32Z</time>
      </trkpt>
      <trkpt lat="37.6980830" lon="-3.4651580">
        <ele>1519.2</ele>
        <time>2022-07-31T08:53:40Z</time>
      </trkpt>
      <trkpt lat="37.6979900" lon="-3.4651480">
        <ele>1518.3</ele>
        <time>2022-07-31T08:53:47Z</time>
      </trkpt>
      <trkpt lat="37.6978900" lon="-3.4651200">
        <ele>1517.3</ele>
        <time>2022-07-31T08:53:55Z</time>
      </trkpt>
      <trkpt lat="37.6977880" lon="-3.4650970">
        <ele>1516.2</ele>
        <time>2022-07-31T08:54:02Z</time>
      </trkpt>
      <trkpt lat="37.6976950" lon="-3.4650700">
        <ele>1515.1</ele>
        <time>2022-07-31T08:54:09Z</time>
      </trkpt>
      <trkpt lat="37.6975980" lon="-3.4650920">
        <ele>1514.0</ele>
        <time>2022-07-31T08:54:19Z</time>
      </trkpt>
      <trkpt lat="37.6975030" lon="-3.4650970">
        <ele>1513.0</ele>
        <time>2022-07-31T08:54:27Z</time>
      </trkpt>
      <trkpt lat="37.6973980" lon="-3.4650700">
        <ele>1511.8</ele>
        <time>2022-07-31T08:54:34Z</time>
      </trkpt>
      <trkpt lat="37.6973130" lon="-3.4650200">
        <ele>1510.5</ele>
        <time>2022-07-31T08:54:40Z</time>
      </trkpt>
      <trkpt lat="37.6972270" lon="-3.4649730">
        <ele>1509.1</ele>
        <time>2022-07-31T08:54:50Z</time>
      </trkpt>
      <trkpt lat="37.6971420" lon="-3.4649200">
        <ele>1507.8</ele>
        <time>2022-07-31T08:54:58Z</time>
      </trkpt>
      <trkpt lat="37.6970520" lon="-3.4649100">
        <ele>1506.6</ele>
        <time>2022-07-31T08:55:06Z</time>
      </trkpt>
      <trkpt lat="37.6969580" lon="-3.4648550">
        <ele>1505.5</ele>
        <time>2022-07-31T08:55:14Z</time>
      </trkpt>
      <trkpt lat="37.6968600" lon="-3.4648320">
        <ele>1504.3</ele>
        <time>2022-07-31T08:55:21Z</time>
      </trkpt>
      <trkpt lat="37.6967750" lon="-3.4647880">
        <ele>1503.4</ele>
        <time>2022-07-31T08:55:31Z</time>
      </trkpt>
      <trkpt lat="37.6966870" lon="-3.4647250">
        <ele>1502.5</ele>
        <time>2022-07-31T08:55:38Z</time>
      </trkpt>
      <trkpt lat="37.6965930" lon="-3.4646770">
        <ele>1501.4</ele>
        <time>2022-07-31T08:55:44Z</time>
      </trkpt>
      <trkpt lat="37.6965050" lon="-3.4646520">
        <ele>1500.4</ele>
        <time>2022-07-31T08:55:51Z</time>
      </trkpt>
      <trkpt lat="37.6964170" lon="-3.4645970">
        <ele>1499.4</ele>
        <time>2022-07-31T08:56:01Z</time>
      </trkpt>
      <trkpt lat="37.6963350" lon="-3.4645230">
        <ele>1498.3</ele>
        <time>2022-07-31T08:56:09Z</time>
      </trkpt>
      <trkpt lat="37.6962570" lon="-3.4644580">
        <ele>1497.2</ele>
        <time>2022-07-31T08:56:16Z</time>
      </trkpt>
      <trkpt lat="37.6961620" lon="-3.4644080">
        <ele>1496.0</ele>
        <time>2022-07-31T08:56:23Z</time>
      </trkpt>
      <trkpt lat="37.6960670" lon="-3.4643920">
        <ele>1494.9</ele>
        <time>2022-07-31T08:56:30Z</time>
      </trkpt>
      <trkpt lat="37.6959670" lon="-3.4643600">
        <ele>1493.7</ele>
        <time>2022-07-31T08:56:38Z</time>
      </trkpt>
      <trkpt lat="37.6958720" lon="-3.4643870">
        <ele>1492.6</ele>
        <time>2022-07-31T08:56:46Z</time>
      </trkpt>
      <trkpt lat="37.6957870" lon="-3.4644530">
        <ele>1491.4</ele>
        <time>2022-07-31T08:56:54Z</time>
      </trkpt>
      <trkpt lat="37.6957120" lon="-3.4645200">
        <ele>1490.4</ele>
        <time>2022-07-31T08:57:02Z</time>
      </trkpt>
      <trkpt lat="37.6956330" lon="-3.4646050">
        <ele>1489.3</ele>
        <time>2022-07-31T08:57:10Z</time>
      </trkpt>
      <trkpt lat="37.6955530" lon="-3.4646580">
        <ele>1488.2</ele>
        <time>2022-07-31T08:57:17Z</time>
      </trkpt>
      <trkpt lat="37.6954630" lon="-3.4646700">
        <ele>1487.0</ele>
        <time>2022-07-31T08:57:25Z</time>
      </trkpt>
      <trkpt lat="37.6953850" lon="-3.4646120">
        <ele>1485.9</ele>
        <time>2022-07-31T08:57:31Z</time>
      </trkpt>
      <trkpt lat="37.6953180" lon="-3.4645220">
        <ele>1484.9</ele>
        <time>2022-07-31T08:57:39Z</time>
      </trkpt>
      <trkpt lat="37.6952420" lon="-3.4644570">
        <ele>1483.9</ele>
        <time>2022-07-31T08:57:47Z</time>
      </trkpt>
      <trkpt lat="37.6951600" lon="-3.4643880">
        <ele>1482.9</ele>
        <time>2022-07-31T08:57:55Z</time>
      </trkpt>
      <trkpt lat="37.6950820" lon="-3.4643220">
        <ele>1481.9</ele>
        <time>2022-07-31T08:58:02Z</time>
      </trkpt>
      <trkpt lat="37.6949950" lon="-3.4642600">
        <ele>1480.9</ele>
        <time>2022-07-31T08:58:10Z</time>
      </trkpt>
      <trkpt lat="37.6949070" lon="-3.4642370">
        <ele>1480.0</ele>
        <time>2022-07-31T08:58:17Z</time>
      </trkpt>
      <trkpt lat="37.6948170" lon="-3.4642070">
        <ele>1479.1</ele>
        <time>2022-07-31T08:58:24Z</time>
      </trkpt>
      <trkpt lat="37.6947170" lon="-3.4641880">
        <ele>1478.2</ele>
        <time>2022-07-31T08:58:31Z</time>
      </trkpt>
      <trkpt lat="37.6946300" lon="-3.4641170">
        <ele>1477.2</ele>
        <time>2022-07-31T08:58:39Z</time>
      </trkpt>
      <trkpt lat="37.6945480" lon="-3.4640620">
        <ele>1476.4</ele>
        <time>2022-07-31T08:58:47Z</time>
      </trkpt>
      <trkpt lat="37.6944670" lon="-3.4640080">
        <ele>1475.5</ele>
        <time>2022-07-31T08:58:55Z</time>
      </trkpt>
      <trkpt lat="37.6944100" lon="-3.4639170">
        <ele>1474.5</ele>
        <time>2022-07-31T08:59:03Z</time>
      </trkpt>
      <trkpt lat="37.6944250" lon="-3.4637970">
        <ele>1473.4</ele>
        <time>2022-07-31T08:59:13Z</time>
      </trkpt>
      <trkpt lat="37.6944680" lon="-3.4636770">
        <ele>1472.1</ele>
        <time>2022-07-31T08:59:20Z</time>
      </trkpt>
      <trkpt lat="37.6944820" lon="-3.4635430">
        <ele>1470.9</ele>
        <time>2022-07-31T08:59:28Z</time>
      </trkpt>
      <trkpt lat="37.6944880" lon="-3.4634270">
        <ele>1469.9</ele>
        <time>2022-07-31T08:59:33Z</time>
      </trkpt>
      <trkpt lat="37.6945050" lon="-3.4633120">
        <ele>1468.9</ele>
        <time>2022-07-31T08:59:41Z</time>
      </trkpt>
      <trkpt lat="37.6944820" lon="-3.4631900">
        <ele>1468.0</ele>
        <time>2022-07-31T08:59:48Z</time>
      </trkpt>
      <trkpt lat="37.6944550" lon="-3.4630900">
        <ele>1467.2</ele>
        <time>2022-07-31T09:00:00Z</time>
      </trkpt>
      <trkpt lat="37.6944520" lon="-3.4630780">
        <ele>1467.1</ele>
        <time>2022-07-31T09:00:01Z</time>
      </trkpt>
      <trkpt lat="37.6944220" lon="-3.4629620">
        <ele>1466.2</ele>
        <time>2022-07-31T09:00:08Z</time>
      </trkpt>
      <trkpt lat="37.6944000" lon="-3.4628370">
        <ele>1465.3</ele>
        <time>2022-07-31T09:00:15Z</time>
      </trkpt>
      <trkpt lat="37.6943720" lon="-3.4627220">
        <ele>1464.5</ele>
        <time>2022-07-31T09:00:28Z</time>
      </trkpt>
      <trkpt lat="37.6943530" lon="-3.4625980">
        <ele>1463.6</ele>
        <time>2022-07-31T09:00:35Z</time>
      </trkpt>
      <trkpt lat="37.6944200" lon="-3.4625050">
        <ele>1462.7</ele>
        <time>2022-07-31T09:00:45Z</time>
      </trkpt>
      <trkpt lat="37.6945120" lon="-3.4624920">
        <ele>1461.8</ele>
        <time>2022-07-31T09:00:53Z</time>
      </trkpt>
      <trkpt lat="37.6946050" lon="-3.4625430">
        <ele>1460.9</ele>
        <time>2022-07-31T09:01:01Z</time>
      </trkpt>
      <trkpt lat="37.6946850" lon="-3.4626150">
        <ele>1460.1</ele>
        <time>2022-07-31T09:01:09Z</time>
      </trkpt>
      <trkpt lat="37.6947280" lon="-3.4627200">
        <ele>1459.2</ele>
        <time>2022-07-31T09:01:19Z</time>
      </trkpt>
      <trkpt lat="37.6947670" lon="-3.4628320">
        <ele>1458.4</ele>
        <time>2022-07-31T09:01:29Z</time>
      </trkpt>
      <trkpt lat="37.6948570" lon="-3.4628720">
        <ele>1457.5</ele>
        <time>2022-07-31T09:01:38Z</time>
      </trkpt>
      <trkpt lat="37.6949300" lon="-3.4627920">
        <ele>1456.5</ele>
        <time>2022-07-31T09:01:45Z</time>
      </trkpt>
      <trkpt lat="37.6949720" lon="-3.4626880">
        <ele>1455.4</ele>
        <time>2022-07-31T09:01:52Z</time>
      </trkpt>
      <trkpt lat="37.6949470" lon="-3.4625770">
        <ele>1454.5</ele>
        <time>2022-07-31T09:02:01Z</time>
      </trkpt>
      <trkpt lat="37.6949520" lon="-3.4624600">
        <ele>1453.3</ele>
        <time>2022-07-31T09:02:10Z</time>
      </trkpt>
      <trkpt lat="37.6949220" lon="-3.4623370">
        <ele>1452.1</ele>
        <time>2022-07-31T09:02:19Z</time>
      </trkpt>
      <trkpt lat="37.6948770" lon="-3.4622220">
        <ele>1450.9</ele>
        <time>2022-07-31T09:02:28Z</time>
      </trkpt>
      <trkpt lat="37.6948430" lon="-3.4621120">
        <ele>1449.7</ele>
        <time>2022-07-31T09:02:34Z</time>
      </trkpt>
      <trkpt lat="37.6947820" lon="-3.4620180">
        <ele>1448.5</ele>
        <time>2022-07-31T09:02:41Z</time>
      </trkpt>
      <trkpt lat="37.6947200" lon="-3.4619280">
        <ele>1447.4</ele>
        <time>2022-07-31T09:02:48Z</time>
      </trkpt>
      <trkpt lat="37.6946780" lon="-3.4618120">
        <ele>1445.8</ele>
        <time>2022-07-31T09:02:55Z</time>
      </trkpt>
      <trkpt lat="37.6946520" lon="-3.4616980">
        <ele>1444.1</ele>
        <time>2022-07-31T09:03:01Z</time>
      </trkpt>
      <trkpt lat="37.6946150" lon="-3.4615900">
        <ele>1442.5</ele>
        <time>2022-07-31T09:03:09Z</time>
      </trkpt>
      <trkpt lat="37.6946430" lon="-3.4614820">
        <ele>1441.1</ele>
        <time>2022-07-31T09:03:17Z</time>
      </trkpt>
      <trkpt lat="37.6946570" lon="-3.4613670">
        <ele>1439.7</ele>
        <time>2022-07-31T09:03:25Z</time>
      </trkpt>
      <trkpt lat="37.6946620" lon="-3.4612480">
        <ele>1438.5</ele>
        <time>2022-07-31T09:03:31Z</time>
      </trkpt>
      <trkpt lat="37.6947000" lon="-3.4611270">
        <ele>1437.3</ele>
        <time>2022-07-31T09:03:39Z</time>
      </trkpt>
      <trkpt lat="37.6947220" lon="-3.4610130">
        <ele>1436.2</ele>
        <time>2022-07-31T09:03:47Z</time>
      </trkpt>
      <trkpt lat="37.6947650" lon="-3.4608950">
        <ele>1435.0</ele>
        <time>2022-07-31T09:03:56Z</time>
      </trkpt>
      <trkpt lat="37.6947730" lon="-3.4607720">
        <ele>1433.9</ele>
        <time>2022-07-31T09:04:06Z</time>
      </trkpt>
      <trkpt lat="37.6947750" lon="-3.4606550">
        <ele>1432.8</ele>
        <time>2022-07-31T09:04:17Z</time>
      </trkpt>
      <trkpt lat="37.6946950" lon="-3.4605780">
        <ele>1431.6</ele>
        <time>2022-07-31T09:04:33Z</time>
      </trkpt>
      <trkpt lat="37.6946020" lon="-3.4605630">
        <ele>1430.3</ele>
        <time>2022-07-31T09:04:41Z</time>
      </trkpt>
      <trkpt lat="37.6945250" lon="-3.4606400">
        <ele>1428.9</ele>
        <time>2022-07-31T09:04:51Z</time>
      </trkpt>
      <trkpt lat="37.6944870" lon="-3.4607530">
        <ele>1427.7</ele>
        <time>2022-07-31T09:04:58Z</time>
      </trkpt>
      <trkpt lat="37.6944380" lon="-3.4608570">
        <ele>1426.5</ele>
        <time>2022-07-31T09:05:08Z</time>
      </trkpt>
      <trkpt lat="37.6943520" lon="-3.4609120">
        <ele>1425.2</ele>
        <time>2022-07-31T09:05:16Z</time>
      </trkpt>
      <trkpt lat="37.6942600" lon="-3.4609220">
        <ele>1423.8</ele>
        <time>2022-07-31T09:05:22Z</time>
      </trkpt>
      <trkpt lat="37.6941650" lon="-3.4609070">
        <ele>1422.5</ele>
        <time>2022-07-31T09:05:46Z</time>
      </trkpt>
      <trkpt lat="37.6940680" lon="-3.4608930">
        <ele>1421.2</ele>
        <time>2022-07-31T09:05:55Z</time>
      </trkpt>
      <trkpt lat="37.6939900" lon="-3.4609680">
        <ele>1419.9</ele>
        <time>2022-07-31T09:06:03Z</time>
      </trkpt>
      <trkpt lat="37.6938950" lon="-3.4609470">
        <ele>1418.6</ele>
        <time>2022-07-31T09:06:14Z</time>
      </trkpt>
      <trkpt lat="37.6938100" lon="-3.4608970">
        <ele>1417.4</ele>
        <time>2022-07-31T09:06:20Z</time>
      </trkpt>
      <trkpt lat="37.6937230" lon="-3.4608400">
        <ele>1416.1</ele>
        <time>2022-07-31T09:06:28Z</time>
      </trkpt>
      <trkpt lat="37.6936420" lon="-3.4607670">
        <ele>1414.8</ele>
        <time>2022-07-31T09:06:34Z</time>
      </trkpt>
      <trkpt lat="37.6935530" lon="-3.4607370">
        <ele>1413.6</ele>
        <time>2022-07-31T09:06:41Z</time>
      </trkpt>
      <trkpt lat="37.6934620" lon="-3.4607630">
        <ele>1412.4</ele>
        <time>2022-07-31T09:06:50Z</time>
      </trkpt>
      <trkpt lat="37.6933650" lon="-3.4607520">
        <ele>1411.1</ele>
        <time>2022-07-31T09:06:58Z</time>
      </trkpt>
      <trkpt lat="37.6932720" lon="-3.4607280">
        <ele>1410.0</ele>
        <time>2022-07-31T09:07:07Z</time>
      </trkpt>
      <trkpt lat="37.6931730" lon="-3.4607630">
        <ele>1408.8</ele>
        <time>2022-07-31T09:07:16Z</time>
      </trkpt>
      <trkpt lat="37.6930900" lon="-3.4608100">
        <ele>1407.8</ele>
        <time>2022-07-31T09:07:23Z</time>
      </trkpt>
      <trkpt lat="37.6930050" lon="-3.4608500">
        <ele>1406.7</ele>
        <time>2022-07-31T09:07:30Z</time>
      </trkpt>
      <trkpt lat="37.6929050" lon="-3.4608670">
        <ele>1405.4</ele>
        <time>2022-07-31T09:07:37Z</time>
      </trkpt>
      <trkpt lat="37.6928150" lon="-3.4608850">
        <ele>1403.8</ele>
        <time>2022-07-31T09:07:45Z</time>
      </trkpt>
      <trkpt lat="37.6927250" lon="-3.4608930">
        <ele>1402.6</ele>
        <time>2022-07-31T09:07:52Z</time>
      </trkpt>
      <trkpt lat="37.6926320" lon="-3.4608570">
        <ele>1401.3</ele>
        <time>2022-07-31T09:07:59Z</time>
      </trkpt>
      <trkpt lat="37.6925430" lon="-3.4608170">
        <ele>1400.1</ele>
        <time>2022-07-31T09:08:09Z</time>
      </trkpt>
      <trkpt lat="37.6924530" lon="-3.4607950">
        <ele>1399.0</ele>
        <time>2022-07-31T09:08:17Z</time>
      </trkpt>
      <trkpt lat="37.6923580" lon="-3.4607600">
        <ele>1397.7</ele>
        <time>2022-07-31T09:08:23Z</time>
      </trkpt>
      <trkpt lat="37.6922680" lon="-3.4607430">
        <ele>1396.5</ele>
        <time>2022-07-31T09:08:34Z</time>
      </trkpt>
      <trkpt lat="37.6921850" lon="-3.4606820">
        <ele>1395.4</ele>
        <time>2022-07-31T09:08:43Z</time>
      </trkpt>
      <trkpt lat="37.6921070" lon="-3.4606150">
        <ele>1394.2</ele>
        <time>2022-07-31T09:08:50Z</time>
      </trkpt>
      <trkpt lat="37.6920370" lon="-3.4605420">
        <ele>1393.2</ele>
        <time>2022-07-31T09:08:57Z</time>
      </trkpt>
      <trkpt lat="37.6919520" lon="-3.4604730">
        <ele>1392.0</ele>
        <time>2022-07-31T09:09:04Z</time>
      </trkpt>
      <trkpt lat="37.6918900" lon="-3.4603770">
        <ele>1390.9</ele>
        <time>2022-07-31T09:09:10Z</time>
      </trkpt>
      <trkpt lat="37.6918020" lon="-3.4603350">
        <ele>1389.9</ele>
        <time>2022-07-31T09:09:18Z</time>
      </trkpt>
      <trkpt lat="37.6917070" lon="-3.4603070">
        <ele>1388.8</ele>
        <time>2022-07-31T09:09:26Z</time>
      </trkpt>
      <trkpt lat="37.6916220" lon="-3.4602670">
        <ele>1387.6</ele>
        <time>2022-07-31T09:09:33Z</time>
      </trkpt>
      <trkpt lat="37.6915270" lon="-3.4602580">
        <ele>1386.3</ele>
        <time>2022-07-31T09:09:41Z</time>
      </trkpt>
      <trkpt lat="37.6914430" lon="-3.4603030">
        <ele>1384.9</ele>
        <time>2022-07-31T09:09:49Z</time>
      </trkpt>
      <trkpt lat="37.6913920" lon="-3.4604000">
        <ele>1383.4</ele>
        <time>2022-07-31T09:09:56Z</time>
      </trkpt>
      <trkpt lat="37.6913630" lon="-3.4605100">
        <ele>1381.9</ele>
        <time>2022-07-31T09:10:02Z</time>
      </trkpt>
      <trkpt lat="37.6912870" lon="-3.4605920">
        <ele>1380.2</ele>
        <time>2022-07-31T09:10:09Z</time>
      </trkpt>
      <trkpt lat="37.6911920" lon="-3.4606550">
        <ele>1378.4</ele>
        <time>2022-07-31T09:10:17Z</time>
      </trkpt>
      <trkpt lat="37.6911220" lon="-3.4607400">
        <ele>1377.1</ele>
        <time>2022-07-31T09:10:25Z</time>
      </trkpt>
      <trkpt lat="37.6910220" lon="-3.4607770">
        <ele>1375.7</ele>
        <time>2022-07-31T09:10:33Z</time>
      </trkpt>
      <trkpt lat="37.6909320" lon="-3.4608320">
        <ele>1374.5</ele>
        <time>2022-07-31T09:10:42Z</time>
      </trkpt>
      <trkpt lat="37.6908550" lon="-3.4608970">
        <ele>1373.3</ele>
        <time>2022-07-31T09:10:49Z</time>
      </trkpt>
      <trkpt lat="37.6908030" lon="-3.4609920">
        <ele>1372.2</ele>
        <time>2022-07-31T09:10:56Z</time>
      </trkpt>
      <trkpt lat="37.6907380" lon="-3.4610720">
        <ele>1371.0</ele>
        <time>2022-07-31T09:11:04Z</time>
      </trkpt>
      <trkpt lat="37.6906650" lon="-3.4611420">
        <ele>1369.8</ele>
        <time>2022-07-31T09:11:11Z</time>
      </trkpt>
      <trkpt lat="37.6906080" lon="-3.4612380">
        <ele>1368.6</ele>
        <time>2022-07-31T09:11:16Z</time>
      </trkpt>
      <trkpt lat="37.6905530" lon="-3.4613320">
        <ele>1367.5</ele>
        <time>2022-07-31T09:11:23Z</time>
      </trkpt>
      <trkpt lat="37.6905020" lon="-3.4614280">
        <ele>1366.3</ele>
        <time>2022-07-31T09:11:30Z</time>
      </trkpt>
      <trkpt lat="37.6904680" lon="-3.4615430">
        <ele>1364.9</ele>
        <time>2022-07-31T09:11:38Z</time>
      </trkpt>
      <trkpt lat="37.6904850" lon="-3.4616720">
        <ele>1363.3</ele>
        <time>2022-07-31T09:11:46Z</time>
      </trkpt>
      <trkpt lat="37.6905130" lon="-3.4617900">
        <ele>1361.8</ele>
        <time>2022-07-31T09:11:53Z</time>
      </trkpt>
      <trkpt lat="37.6905500" lon="-3.4619020">
        <ele>1360.4</ele>
        <time>2022-07-31T09:12:00Z</time>
      </trkpt>
      <trkpt lat="37.6906150" lon="-3.4620020">
        <ele>1359.0</ele>
        <time>2022-07-31T09:12:09Z</time>
      </trkpt>
      <trkpt lat="37.6906750" lon="-3.4620930">
        <ele>1357.7</ele>
        <time>2022-07-31T09:12:17Z</time>
      </trkpt>
      <trkpt lat="37.6907250" lon="-3.4622070">
        <ele>1356.5</ele>
        <time>2022-07-31T09:12:24Z</time>
      </trkpt>
      <trkpt lat="37.6907950" lon="-3.4622850">
        <ele>1355.4</ele>
        <time>2022-07-31T09:12:33Z</time>
      </trkpt>
      <trkpt lat="37.6908680" lon="-3.4623680">
        <ele>1354.3</ele>
        <time>2022-07-31T09:12:45Z</time>
      </trkpt>
      <trkpt lat="37.6909220" lon="-3.4624820">
        <ele>1353.2</ele>
        <time>2022-07-31T09:12:52Z</time>
      </trkpt>
      <trkpt lat="37.6909800" lon="-3.4625820">
        <ele>1352.1</ele>
        <time>2022-07-31T09:13:00Z</time>
      </trkpt>
      <trkpt lat="37.6910380" lon="-3.4626780">
        <ele>1351.2</ele>
        <time>2022-07-31T09:13:07Z</time>
      </trkpt>
      <trkpt lat="37.6910980" lon="-3.4627650">
        <ele>1350.2</ele>
        <time>2022-07-31T09:13:15Z</time>
      </trkpt>
      <trkpt lat="37.6911630" lon="-3.4628550">
        <ele>1349.2</ele>
        <time>2022-07-31T09:13:24Z</time>
      </trkpt>
      <trkpt lat="37.6912250" lon="-3.4629480">
        <ele>1348.3</ele>
        <time>2022-07-31T09:13:32Z</time>
      </trkpt>
      <trkpt lat="37.6913050" lon="-3.4630130">
        <ele>1347.5</ele>
        <time>2022-07-31T09:13:40Z</time>
      </trkpt>
      <trkpt lat="37.6913850" lon="-3.4630780">
        <ele>1346.8</ele>
        <time>2022-07-31T09:13:47Z</time>
      </trkpt>
      <trkpt lat="37.6914680" lon="-3.4631250">
        <ele>1345.9</ele>
        <time>2022-07-31T09:13:54Z</time>
      </trkpt>
      <trkpt lat="37.6915120" lon="-3.4632250">
        <ele>1344.7</ele>
        <time>2022-07-31T09:14:04Z</time>
      </trkpt>
      <trkpt lat="37.6914670" lon="-3.4633350">
        <ele>1343.2</ele>
        <time>2022-07-31T09:14:11Z</time>
      </trkpt>
      <trkpt lat="37.6914200" lon="-3.4634500">
        <ele>1341.9</ele>
        <time>2022-07-31T09:14:18Z</time>
      </trkpt>
      <trkpt lat="37.6913830" lon="-3.4635680">
        <ele>1340.8</ele>
        <time>2022-07-31T09:14:26Z</time>
      </trkpt>
      <trkpt lat="37.6913600" lon="-3.4636830">
        <ele>1340.1</ele>
        <time>2022-07-31T09:14:34Z</time>
      </trkpt>
      <trkpt lat="37.6913850" lon="-3.4638020">
        <ele>1339.4</ele>
        <time>2022-07-31T09:14:43Z</time>
      </trkpt>
      <trkpt lat="37.6913480" lon="-3.4639150">
        <ele>1338.7</ele>
        <time>2022-07-31T09:14:51Z</time>
      </trkpt>
      <trkpt lat="37.6912520" lon="-3.4639450">
        <ele>1337.7</ele>
        <time>2022-07-31T09:14:59Z</time>
      </trkpt>
      <trkpt lat="37.6911580" lon="-3.4639000">
        <ele>1336.5</ele>
        <time>2022-07-31T09:15:07Z</time>
      </trkpt>
      <trkpt lat="37.6910730" lon="-3.4638480">
        <ele>1335.3</ele>
        <time>2022-07-31T09:15:13Z</time>
      </trkpt>
      <trkpt lat="37.6909780" lon="-3.4638180">
        <ele>1334.0</ele>
        <time>2022-07-31T09:15:21Z</time>
      </trkpt>
      <trkpt lat="37.6909350" lon="-3.4638070">
        <ele>1333.5</ele>
        <time>2022-07-31T09:15:29Z</time>
      </trkpt>
      <trkpt lat="37.6909330" lon="-3.4638070">
        <ele>1333.5</ele>
        <time>2022-07-31T09:15:31Z</time>
      </trkpt>
      <trkpt lat="37.6908450" lon="-3.4637830">
        <ele>1332.4</ele>
        <time>2022-07-31T09:15:40Z</time>
      </trkpt>
      <trkpt lat="37.6907520" lon="-3.4637680">
        <ele>1331.3</ele>
        <time>2022-07-31T09:15:47Z</time>
      </trkpt>
      <trkpt lat="37.6906520" lon="-3.4637600">
        <ele>1330.0</ele>
        <time>2022-07-31T09:15:53Z</time>
      </trkpt>
      <trkpt lat="37.6905670" lon="-3.4638150">
        <ele>1328.8</ele>
        <time>2022-07-31T09:16:02Z</time>
      </trkpt>
      <trkpt lat="37.6904750" lon="-3.4638130">
        <ele>1327.7</ele>
        <time>2022-07-31T09:16:09Z</time>
      </trkpt>
      <trkpt lat="37.6903780" lon="-3.4637950">
        <ele>1326.5</ele>
        <time>2022-07-31T09:16:17Z</time>
      </trkpt>
      <trkpt lat="37.6902800" lon="-3.4637670">
        <ele>1325.1</ele>
        <time>2022-07-31T09:16:24Z</time>
      </trkpt>
      <trkpt lat="37.6901900" lon="-3.4638230">
        <ele>1323.5</ele>
        <time>2022-07-31T09:16:33Z</time>
      </trkpt>
      <trkpt lat="37.6901300" lon="-3.4639120">
        <ele>1321.8</ele>
        <time>2022-07-31T09:16:41Z</time>
      </trkpt>
      <trkpt lat="37.6900570" lon="-3.4639930">
        <ele>1320.1</ele>
        <time>2022-07-31T09:16:50Z</time>
      </trkpt>
      <trkpt lat="37.6899630" lon="-3.4640450">
        <ele>1318.6</ele>
        <time>2022-07-31T09:16:58Z</time>
      </trkpt>
      <trkpt lat="37.6898770" lon="-3.4640770">
        <ele>1317.4</ele>
        <time>2022-07-31T09:17:06Z</time>
      </trkpt>
      <trkpt lat="37.6897830" lon="-3.4640920">
        <ele>1316.1</ele>
        <time>2022-07-31T09:17:14Z</time>
      </trkpt>
      <trkpt lat="37.6896830" lon="-3.4640850">
        <ele>1314.6</ele>
        <time>2022-07-31T09:17:21Z</time>
      </trkpt>
      <trkpt lat="37.6895930" lon="-3.4641020">
        <ele>1313.2</ele>
        <time>2022-07-31T09:17:27Z</time>
      </trkpt>
      <trkpt lat="37.6894980" lon="-3.4641230">
        <ele>1311.8</ele>
        <time>2022-07-31T09:17:36Z</time>
      </trkpt>
      <trkpt lat="37.6894230" lon="-3.4641880">
        <ele>1310.6</ele>
        <time>2022-07-31T09:17:43Z</time>
      </trkpt>
      <trkpt lat="37.6893280" lon="-3.4642180">
        <ele>1309.2</ele>
        <time>2022-07-31T09:17:49Z</time>
      </trkpt>
      <trkpt lat="37.6892500" lon="-3.4642800">
        <ele>1308.0</ele>
        <time>2022-07-31T09:17:55Z</time>
      </trkpt>
      <trkpt lat="37.6891730" lon="-3.4643420">
        <ele>1306.7</ele>
        <time>2022-07-31T09:18:07Z</time>
      </trkpt>
      <trkpt lat="37.6891200" lon="-3.4644380">
        <ele>1305.5</ele>
        <time>2022-07-31T09:18:17Z</time>
      </trkpt>
      <trkpt lat="37.6890570" lon="-3.4645280">
        <ele>1304.3</ele>
        <time>2022-07-31T09:18:23Z</time>
      </trkpt>
      <trkpt lat="37.6890070" lon="-3.4646270">
        <ele>1303.1</ele>
        <time>2022-07-31T09:18:30Z</time>
      </trkpt>
      <trkpt lat="37.6890020" lon="-3.4647530">
        <ele>1301.7</ele>
        <time>2022-07-31T09:18:38Z</time>
      </trkpt>
      <trkpt lat="37.6890530" lon="-3.4648550">
        <ele>1300.4</ele>
        <time>2022-07-31T09:18:46Z</time>
      </trkpt>
      <trkpt lat="37.6891070" lon="-3.4649480">
        <ele>1299.2</ele>
        <time>2022-07-31T09:18:54Z</time>
      </trkpt>
      <trkpt lat="37.6891630" lon="-3.4650420">
        <ele>1298.0</ele>
        <time>2022-07-31T09:19:01Z</time>
      </trkpt>
      <trkpt lat="37.6892420" lon="-3.4651270">
        <ele>1296.8</ele>
        <time>2022-07-31T09:19:08Z</time>
      </trkpt>
      <trkpt lat="37.6893150" lon="-3.4651950">
        <ele>1295.8</ele>
        <time>2022-07-31T09:19:15Z</time>
      </trkpt>
      <trkpt lat="37.6893950" lon="-3.4652700">
        <ele>1294.8</ele>
        <time>2022-07-31T09:19:22Z</time>
      </trkpt>
      <trkpt lat="37.6894830" lon="-3.4653080">
        <ele>1293.9</ele>
        <time>2022-07-31T09:19:37Z</time>
      </trkpt>
      <trkpt lat="37.6895680" lon="-3.4653780">
        <ele>1292.8</ele>
        <time>2022-07-31T09:19:45Z</time>
      </trkpt>
      <trkpt lat="37.6896650" lon="-3.4654200">
        <ele>1291.8</ele>
        <time>2022-07-31T09:19:54Z</time>
      </trkpt>
      <trkpt lat="37.6897130" lon="-3.4655180">
        <ele>1290.7</ele>
        <time>2022-07-31T09:20:02Z</time>
      </trkpt>
      <trkpt lat="37.6897480" lon="-3.4656400">
        <ele>1289.6</ele>
        <time>2022-07-31T09:20:10Z</time>
      </trkpt>
      <trkpt lat="37.6898070" lon="-3.4657480">
        <ele>1288.4</ele>
        <time>2022-07-31T09:20:18Z</time>
      </trkpt>
      <trkpt lat="37.6898550" lon="-3.4658620">
        <ele>1287.1</ele>
        <time>2022-07-31T09:20:24Z</time>
      </trkpt>
      <trkpt lat="37.6898650" lon="-3.4659770">
        <ele>1286.1</ele>
        <time>2022-07-31T09:20:30Z</time>
      </trkpt>
      <trkpt lat="37.6898930" lon="-3.4660920">
        <ele>1285.2</ele>
        <time>2022-07-31T09:20:36Z</time>
      </trkpt>
      <trkpt lat="37.6899150" lon="-3.4662080">
        <ele>1284.2</ele>
        <time>2022-07-31T09:20:44Z</time>
      </trkpt>
      <trkpt lat="37.6899620" lon="-3.4663120">
        <ele>1283.2</ele>
        <time>2022-07-31T09:20:52Z</time>
      </trkpt>
      <trkpt lat="37.6900020" lon="-3.4664200">
        <ele>1282.3</ele>
        <time>2022-07-31T09:21:00Z</time>
      </trkpt>
      <trkpt lat="37.6900380" lon="-3.4665320">
        <ele>1281.4</ele>
        <time>2022-07-31T09:21:08Z</time>
      </trkpt>
      <trkpt lat="37.6900350" lon="-3.4666500">
        <ele>1280.4</ele>
        <time>2022-07-31T09:21:14Z</time>
      </trkpt>
      <trkpt lat="37.6900750" lon="-3.4667570">
        <ele>1279.4</ele>
        <time>2022-07-31T09:21:20Z</time>
      </trkpt>
      <trkpt lat="37.6901100" lon="-3.4668620">
        <ele>1278.4</ele>
        <time>2022-07-31T09:21:28Z</time>
      </trkpt>
      <trkpt lat="37.6901680" lon="-3.4669680">
        <ele>1277.2</ele>
        <time>2022-07-31T09:21:36Z</time>
      </trkpt>
      <trkpt lat="37.6902050" lon="-3.4670730">
        <ele>1276.2</ele>
        <time>2022-07-31T09:21:43Z</time>
      </trkpt>
      <trkpt lat="37.6902180" lon="-3.4671920">
        <ele>1275.1</ele>
        <time>2022-07-31T09:21:51Z</time>
      </trkpt>
      <trkpt lat="37.6902320" lon="-3.4673120">
        <ele>1274.2</ele>
        <time>2022-07-31T09:21:58Z</time>
      </trkpt>
      <trkpt lat="37.6902430" lon="-3.4674320">
        <ele>1273.3</ele>
        <time>2022-07-31T09:22:05Z</time>
      </trkpt>
      <trkpt lat="37.6902420" lon="-3.4675570">
        <ele>1272.3</ele>
        <time>2022-07-31T09:22:13Z</time>
      </trkpt>
      <trkpt lat="37.6902130" lon="-3.4676780">
        <ele>1271.2</ele>
        <time>2022-07-31T09:22:20Z</time>
      </trkpt>
      <trkpt lat="37.6902030" lon="-3.4678020">
        <ele>1270.3</ele>
        <time>2022-07-31T09:22:27Z</time>
      </trkpt>
      <trkpt lat="37.6902020" lon="-3.4679230">
        <ele>1269.5</ele>
        <time>2022-07-31T09:22:36Z</time>
      </trkpt>
      <trkpt lat="37.6902150" lon="-3.4680380">
        <ele>1268.7</ele>
        <time>2022-07-31T09:22:44Z</time>
      </trkpt>
      <trkpt lat="37.6902480" lon="-3.4681520">
        <ele>1267.8</ele>
        <time>2022-07-31T09:22:53Z</time>
      </trkpt>
      <trkpt lat="37.6902930" lon="-3.4682530">
        <ele>1266.9</ele>
        <time>2022-07-31T09:23:02Z</time>
      </trkpt>
      <trkpt lat="37.6902200" lon="-3.4683370">
        <ele>1266.0</ele>
        <time>2022-07-31T09:23:13Z</time>
      </trkpt>
      <trkpt lat="37.6901230" lon="-3.4683420">
        <ele>1265.1</ele>
        <time>2022-07-31T09:23:21Z</time>
      </trkpt>
      <trkpt lat="37.6900320" lon="-3.4683300">
        <ele>1264.3</ele>
        <time>2022-07-31T09:23:29Z</time>
      </trkpt>
      <trkpt lat="37.6899480" lon="-3.4682850">
        <ele>1263.3</ele>
        <time>2022-07-31T09:23:36Z</time>
      </trkpt>
      <trkpt lat="37.6898920" lon="-3.4681880">
        <ele>1262.0</ele>
        <time>2022-07-31T09:23:43Z</time>
      </trkpt>
      <trkpt lat="37.6898430" lon="-3.4680870">
        <ele>1261.0</ele>
        <time>2022-07-31T09:23:57Z</time>
      </trkpt>
      <trkpt lat="37.6897900" lon="-3.4679920">
        <ele>1260.1</ele>
        <time>2022-07-31T09:24:04Z</time>
      </trkpt>
      <trkpt lat="37.6897670" lon="-3.4678800">
        <ele>1259.3</ele>
        <time>2022-07-31T09:24:13Z</time>
      </trkpt>
      <trkpt lat="37.6897020" lon="-3.4677750">
        <ele>1258.4</ele>
        <time>2022-07-31T09:24:20Z</time>
      </trkpt>
      <trkpt lat="37.6896320" lon="-3.4676950">
        <ele>1257.7</ele>
        <time>2022-07-31T09:24:25Z</time>
      </trkpt>
      <trkpt lat="37.6895430" lon="-3.4676520">
        <ele>1257.0</ele>
        <time>2022-07-31T09:24:30Z</time>
      </trkpt>
      <trkpt lat="37.6894530" lon="-3.4676080">
        <ele>1256.2</ele>
        <time>2022-07-31T09:24:37Z</time>
      </trkpt>
      <trkpt lat="37.6893620" lon="-3.4675780">
        <ele>1255.2</ele>
        <time>2022-07-31T09:24:46Z</time>
      </trkpt>
      <trkpt lat="37.6892680" lon="-3.4675300">
        <ele>1254.1</ele>
        <time>2022-07-31T09:24:52Z</time>
      </trkpt>
      <trkpt lat="37.6891820" lon="-3.4674870">
        <ele>1253.1</ele>
        <time>2022-07-31T09:24:59Z</time>
      </trkpt>
      <trkpt lat="37.6890900" lon="-3.4674780">
        <ele>1252.2</ele>
        <time>2022-07-31T09:25:06Z</time>
      </trkpt>
      <trkpt lat="37.6890030" lon="-3.4675120">
        <ele>1251.4</ele>
        <time>2022-07-31T09:25:13Z</time>
      </trkpt>
      <trkpt lat="37.6889070" lon="-3.4675230">
        <ele>1250.6</ele>
        <time>2022-07-31T09:25:21Z</time>
      </trkpt>
      <trkpt lat="37.6888220" lon="-3.4675830">
        <ele>1249.6</ele>
        <time>2022-07-31T09:25:30Z</time>
      </trkpt>
      <trkpt lat="37.6887320" lon="-3.4676200">
        <ele>1248.6</ele>
        <time>2022-07-31T09:25:40Z</time>
      </trkpt>
      <trkpt lat="37.6886350" lon="-3.4676770">
        <ele>1247.6</ele>
        <time>2022-07-31T09:25:48Z</time>
      </trkpt>
      <trkpt lat="37.6885750" lon="-3.4677630">
        <ele>1246.8</ele>
        <time>2022-07-31T09:25:54Z</time>
      </trkpt>
      <trkpt lat="37.6885350" lon="-3.4678770">
        <ele>1245.8</ele>
        <time>2022-07-31T09:26:00Z</time>
      </trkpt>
      <trkpt lat="37.6884780" lon="-3.4679680">
        <ele>1244.9</ele>
        <time>2022-07-31T09:26:08Z</time>
      </trkpt>
      <trkpt lat="37.6883920" lon="-3.4680220">
        <ele>1243.9</ele>
        <time>2022-07-31T09:26:15Z</time>
      </trkpt>
      <trkpt lat="37.6882950" lon="-3.4680450">
        <ele>1242.9</ele>
        <time>2022-07-31T09:26:22Z</time>
      </trkpt>
      <trkpt lat="37.6882480" lon="-3.4681500">
        <ele>1242.0</ele>
        <time>2022-07-31T09:26:29Z</time>
      </trkpt>
      <trkpt lat="37.6882250" lon="-3.4682720">
        <ele>1241.1</ele>
        <time>2022-07-31T09:26:36Z</time>
      </trkpt>
      <trkpt lat="37.6881780" lon="-3.4683800">
        <ele>1240.1</ele>
        <time>2022-07-31T09:26:43Z</time>
      </trkpt>
      <trkpt lat="37.6881780" lon="-3.4685120">
        <ele>1239.2</ele>
        <time>2022-07-31T09:26:53Z</time>
      </trkpt>
      <trkpt lat="37.6882100" lon="-3.4686220">
        <ele>1238.2</ele>
        <time>2022-07-31T09:27:00Z</time>
      </trkpt>
      <trkpt lat="37.6882780" lon="-3.4687050">
        <ele>1237.1</ele>
        <time>2022-07-31T09:27:08Z</time>
      </trkpt>
      <trkpt lat="37.6882870" lon="-3.4688250">
        <ele>1236.0</ele>
        <time>2022-07-31T09:27:17Z</time>
      </trkpt>
      <trkpt lat="37.6883230" lon="-3.4689630">
        <ele>1234.6</ele>
        <time>2022-07-31T09:27:25Z</time>
      </trkpt>
      <trkpt lat="37.6883100" lon="-3.4690880">
        <ele>1233.5</ele>
        <time>2022-07-31T09:27:30Z</time>
      </trkpt>
      <trkpt lat="37.6882970" lon="-3.4692130">
        <ele>1232.4</ele>
        <time>2022-07-31T09:27:38Z</time>
      </trkpt>
      <trkpt lat="37.6882800" lon="-3.4693400">
        <ele>1231.4</ele>
        <time>2022-07-31T09:27:47Z</time>
      </trkpt>
      <trkpt lat="37.6882620" lon="-3.4694620">
        <ele>1230.4</ele>
        <time>2022-07-31T09:27:54Z</time>
      </trkpt>
      <trkpt lat="37.6882320" lon="-3.4695920">
        <ele>1229.4</ele>
        <time>2022-07-31T09:28:01Z</time>
      </trkpt>
      <trkpt lat="37.6881830" lon="-3.4696930">
        <ele>1228.4</ele>
        <time>2022-07-31T09:28:08Z</time>
      </trkpt>
      <trkpt lat="37.6881770" lon="-3.4698080">
        <ele>1227.5</ele>
        <time>2022-07-31T09:28:17Z</time>
      </trkpt>
      <trkpt lat="37.6881250" lon="-3.4699130">
        <ele>1226.5</ele>
        <time>2022-07-31T09:28:25Z</time>
      </trkpt>
      <trkpt lat="37.6880780" lon="-3.4700250">
        <ele>1225.7</ele>
        <time>2022-07-31T09:28:31Z</time>
      </trkpt>
      <trkpt lat="37.6880730" lon="-3.4701520">
        <ele>1225.0</ele>
        <time>2022-07-31T09:28:38Z</time>
      </trkpt>
      <trkpt lat="37.6880820" lon="-3.4702800">
        <ele>1224.2</ele>
        <time>2022-07-31T09:28:46Z</time>
      </trkpt>
      <trkpt lat="37.6880670" lon="-3.4704130">
        <ele>1223.2</ele>
        <time>2022-07-31T09:28:55Z</time>
      </trkpt>
      <trkpt lat="37.6880400" lon="-3.4705320">
        <ele>1222.4</ele>
        <time>2022-07-31T09:29:02Z</time>
      </trkpt>
      <trkpt lat="37.6879980" lon="-3.4706420">
        <ele>1221.6</ele>
        <time>2022-07-31T09:29:09Z</time>
      </trkpt>
      <trkpt lat="37.6879770" lon="-3.4707670">
        <ele>1220.8</ele>
        <time>2022-07-31T09:29:16Z</time>
      </trkpt>
      <trkpt lat="37.6879680" lon="-3.4708920">
        <ele>1219.8</ele>
        <time>2022-07-31T09:29:23Z</time>
      </trkpt>
      <trkpt lat="37.6879780" lon="-3.4710100">
        <ele>1218.9</ele>
        <time>2022-07-31T09:29:32Z</time>
      </trkpt>
      <trkpt lat="37.6879870" lon="-3.4711320">
        <ele>1218.2</ele>
        <time>2022-07-31T09:29:42Z</time>
      </trkpt>
      <trkpt lat="37.6880320" lon="-3.4712320">
        <ele>1217.5</ele>
        <time>2022-07-31T09:29:49Z</time>
      </trkpt>
      <trkpt lat="37.6881050" lon="-3.4713050">
        <ele>1216.8</ele>
        <time>2022-07-31T09:29:55Z</time>
      </trkpt>
      <trkpt lat="37.6881930" lon="-3.4713420">
        <ele>1216.3</ele>
        <time>2022-07-31T09:30:03Z</time>
      </trkpt>
      <trkpt lat="37.6882600" lon="-3.4714380">
        <ele>1215.7</ele>
        <time>2022-07-31T09:30:18Z</time>
      </trkpt>
      <trkpt lat="37.6882530" lon="-3.4715580">
        <ele>1214.6</ele>
        <time>2022-07-31T09:30:25Z</time>
      </trkpt>
      <trkpt lat="37.6881900" lon="-3.4716550">
        <ele>1213.1</ele>
        <time>2022-07-31T09:30:32Z</time>
      </trkpt>
      <trkpt lat="37.6881470" lon="-3.4717720">
        <ele>1211.9</ele>
        <time>2022-07-31T09:30:39Z</time>
      </trkpt>
      <trkpt lat="37.6881170" lon="-3.4718880">
        <ele>1210.8</ele>
        <time>2022-07-31T09:30:46Z</time>
      </trkpt>
      <trkpt lat="37.6880730" lon="-3.4720000">
        <ele>1209.6</ele>
        <time>2022-07-31T09:30:54Z</time>
      </trkpt>
      <trkpt lat="37.6880700" lon="-3.4721220">
        <ele>1208.5</ele>
        <time>2022-07-31T09:31:03Z</time>
      </trkpt>
      <trkpt lat="37.6880750" lon="-3.4722380">
        <ele>1207.7</ele>
        <time>2022-07-31T09:31:10Z</time>
      </trkpt>
      <trkpt lat="37.6880750" lon="-3.4723550">
        <ele>1206.9</ele>
        <time>2022-07-31T09:31:15Z</time>
      </trkpt>
      <trkpt lat="37.6880650" lon="-3.4724700">
        <ele>1206.1</ele>
        <time>2022-07-31T09:31:21Z</time>
      </trkpt>
      <trkpt lat="37.6880880" lon="-3.4725920">
        <ele>1205.4</ele>
        <time>2022-07-31T09:31:29Z</time>
      </trkpt>
      <trkpt lat="37.6881330" lon="-3.4727020">
        <ele>1204.8</ele>
        <time>2022-07-31T09:31:36Z</time>
      </trkpt>
      <trkpt lat="37.6881920" lon="-3.4728070">
        <ele>1204.1</ele>
        <time>2022-07-31T09:31:42Z</time>
      </trkpt>
      <trkpt lat="37.6882420" lon="-3.4729070">
        <ele>1203.2</ele>
        <time>2022-07-31T09:31:49Z</time>
      </trkpt>
      <trkpt lat="37.6881950" lon="-3.4730100">
        <ele>1201.6</ele>
        <time>2022-07-31T09:31:59Z</time>
      </trkpt>
      <trkpt lat="37.6881170" lon="-3.4730780">
        <ele>1200.7</ele>
        <time>2022-07-31T09:32:10Z</time>
      </trkpt>
      <trkpt lat="37.6880630" lon="-3.4731750">
        <ele>1199.7</ele>
        <time>2022-07-31T09:32:18Z</time>
      </trkpt>
      <trkpt lat="37.6880070" lon="-3.4732700">
        <ele>1198.9</ele>
        <time>2022-07-31T09:32:24Z</time>
      </trkpt>
      <trkpt lat="37.6879650" lon="-3.4733770">
        <ele>1198.0</ele>
        <time>2022-07-31T09:32:30Z</time>
      </trkpt>
      <trkpt lat="37.6879100" lon="-3.4734770">
        <ele>1197.2</ele>
        <time>2022-07-31T09:32:36Z</time>
      </trkpt>
      <trkpt lat="37.6878300" lon="-3.4735450">
        <ele>1196.3</ele>
        <time>2022-07-31T09:32:42Z</time>
      </trkpt>
      <trkpt lat="37.6877770" lon="-3.4736450">
        <ele>1195.5</ele>
        <time>2022-07-31T09:32:48Z</time>
      </trkpt>
      <trkpt lat="37.6877480" lon="-3.4737570">
        <ele>1194.6</ele>
        <time>2022-07-31T09:32:54Z</time>
      </trkpt>
      <trkpt lat="37.6877170" lon="-3.4738730">
        <ele>1193.7</ele>
        <time>2022-07-31T09:33:01Z</time>
      </trkpt>
      <trkpt lat="37.6876830" lon="-3.4739830">
        <ele>1192.8</ele>
        <time>2022-07-31T09:33:09Z</time>
      </trkpt>
      <trkpt lat="37.6876620" lon="-3.4741030">
        <ele>1191.9</ele>
        <time>2022-07-31T09:33:16Z</time>
      </trkpt>
      <trkpt lat="37.6876600" lon="-3.4742320">
        <ele>1190.9</ele>
        <time>2022-07-31T09:33:24Z</time>
      </trkpt>
      <trkpt lat="37.6876630" lon="-3.4743470">
        <ele>1190.1</ele>
        <time>2022-07-31T09:33:32Z</time>
      </trkpt>
      <trkpt lat="37.6876800" lon="-3.4744720">
        <ele>1189.2</ele>
        <time>2022-07-31T09:33:41Z</time>
      </trkpt>
      <trkpt lat="37.6876670" lon="-3.4745920">
        <ele>1188.3</ele>
        <time>2022-07-31T09:33:49Z</time>
      </trkpt>
      <trkpt lat="37.6876330" lon="-3.4746980">
        <ele>1187.6</ele>
        <time>2022-07-31T09:33:54Z</time>
      </trkpt>
      <trkpt lat="37.6876030" lon="-3.4748180">
        <ele>1186.9</ele>
        <time>2022-07-31T09:34:01Z</time>
      </trkpt>
      <trkpt lat="37.6875480" lon="-3.4749220">
        <ele>1184.8</ele>
        <time>2022-07-31T09:34:09Z</time>
      </trkpt>
      <trkpt lat="37.6874620" lon="-3.4748880">
        <ele>1182.8</ele>
        <time>2022-07-31T09:34:28Z</time>
      </trkpt>
      <trkpt lat="37.6874150" lon="-3.4747850">
        <ele>1181.7</ele>
        <time>2022-07-31T09:34:41Z</time>
      </trkpt>
      <trkpt lat="37.6874180" lon="-3.4746680">
        <ele>1181.1</ele>
        <time>2022-07-31T09:34:48Z</time>
      </trkpt>
      <trkpt lat="37.6874080" lon="-3.4745530">
        <ele>1180.6</ele>
        <time>2022-07-31T09:34:56Z</time>
      </trkpt>
      <trkpt lat="37.6873980" lon="-3.4744350">
        <ele>1180.0</ele>
        <time>2022-07-31T09:35:03Z</time>
      </trkpt>
      <trkpt lat="37.6873980" lon="-3.4743170">
        <ele>1179.4</ele>
        <time>2022-07-31T09:35:09Z</time>
      </trkpt>
      <trkpt lat="37.6873720" lon="-3.4741950">
        <ele>1178.8</ele>
        <time>2022-07-31T09:35:17Z</time>
      </trkpt>
      <trkpt lat="37.6873300" lon="-3.4740820">
        <ele>1178.1</ele>
        <time>2022-07-31T09:35:33Z</time>
      </trkpt>
      <trkpt lat="37.6872970" lon="-3.4739670">
        <ele>1177.5</ele>
        <time>2022-07-31T09:35:41Z</time>
      </trkpt>
      <trkpt lat="37.6873440" lon="-3.4739340">
        <ele>1177.2</ele>
        <time>2022-07-31T09:35:48Z</time>
      </trkpt>
      <trkpt lat="37.6873460" lon="-3.4739350">
        <ele>1177.2</ele>
        <time>2022-07-31T09:35:49Z</time>
      </trkpt>
      <trkpt lat="37.6873480" lon="-3.4739350">
        <ele>1177.2</ele>
        <time>2022-07-31T09:35:50Z</time>
      </trkpt>
      <trkpt lat="37.6873500" lon="-3.4739360">
        <ele>1177.2</ele>
        <time>2022-07-31T09:35:52Z</time>
      </trkpt>
      <trkpt lat="37.6873520" lon="-3.4739370">
        <ele>1177.2</ele>
        <time>2022-07-31T09:35:55Z</time>
      </trkpt>
      <trkpt lat="37.6873540" lon="-3.4739380">
        <ele>1177.2</ele>
        <time>2022-07-31T09:35:59Z</time>
      </trkpt>
      <trkpt lat="37.6873560" lon="-3.4739380">
        <ele>1177.2</ele>
        <time>2022-07-31T09:36:01Z</time>
      </trkpt>
      <trkpt lat="37.6873580" lon="-3.4739390">
        <ele>1177.2</ele>
        <time>2022-07-31T09:36:02Z</time>
      </trkpt>
      <trkpt lat="37.6873600" lon="-3.4739400">
        <ele>1177.2</ele>
        <time>2022-07-31T09:36:02Z</time>
      </trkpt>
    </trkseg>
  </trk>
</gpx>
